<?xml version='1.0' encoding='UTF-8'?><gpx version="1.1" creator="JPX - https://github.com/jenetics/jpx" xmlns="http://www.topografix.com/GPX/1/1"><trk><trkseg><trkpt lat="9.8993817" lon="-84.0918925"><ele>1111.0</ele><time>2026-04-09T11:58:21.927Z</time></trkpt><trkpt lat="9.8993235" lon="-84.0918588"><ele>1111.0</ele><time>2026-04-09T11:59:59.92Z</time></trkpt><trkpt lat="9.8991586" lon="-84.0918807"><ele>1111.0</ele><time>2026-04-09T12:00:03.925Z</time></trkpt><trkpt lat="9.8990993" lon="-84.0919669"><ele>1111.0</ele><time>2026-04-09T12:00:05.927Z</time></trkpt><trkpt lat="9.8990876" lon="-84.0920724"><ele>1111.0</ele><time>2026-04-09T12:00:07.923Z</time></trkpt><trkpt lat="9.8990589" lon="-84.0921679"><ele>1111.6</ele><time>2026-04-09T12:00:09.926Z</time></trkpt><trkpt lat="9.8989669" lon="-84.0922091"><ele>1112.1999999999998</ele><time>2026-04-09T12:00:11.931Z</time></trkpt><trkpt lat="9.8988497" lon="-84.0922132"><ele>1112.8000000000002</ele><time>2026-04-09T12:00:13.929Z</time></trkpt><trkpt lat="9.898722" lon="-84.092204"><ele>1113.4</ele><time>2026-04-09T12:00:15.927Z</time></trkpt><trkpt lat="9.8986544" lon="-84.0921953"><ele>1114.0</ele><time>2026-04-09T12:00:16.931Z</time></trkpt><trkpt lat="9.8985819" lon="-84.09219"><ele>1114.0</ele><time>2026-04-09T12:00:17.926Z</time></trkpt><trkpt lat="9.8985082" lon="-84.092188"><ele>1114.0</ele><time>2026-04-09T12:00:18.926Z</time></trkpt><trkpt lat="9.898437" lon="-84.0921909"><ele>1114.0</ele><time>2026-04-09T12:00:19.922Z</time></trkpt><trkpt lat="9.8983687" lon="-84.0921952"><ele>1114.0</ele><time>2026-04-09T12:00:20.922Z</time></trkpt><trkpt lat="9.8982994" lon="-84.0922019"><ele>1114.0</ele><time>2026-04-09T12:00:21.923Z</time></trkpt><trkpt lat="9.8981799" lon="-84.0922117"><ele>1114.0</ele><time>2026-04-09T12:00:23.923Z</time></trkpt><trkpt lat="9.8980655" lon="-84.0922197"><ele>1114.2</ele><time>2026-04-09T12:00:25.92Z</time></trkpt><trkpt lat="9.8979442" lon="-84.0922232"><ele>1114.4</ele><time>2026-04-09T12:00:27.929Z</time></trkpt><trkpt lat="9.897843" lon="-84.0922454"><ele>1114.6</ele><time>2026-04-09T12:00:29.928Z</time></trkpt><trkpt lat="9.897772" lon="-84.0922897"><ele>1114.8</ele><time>2026-04-09T12:00:31.929Z</time></trkpt><trkpt lat="9.8976934" lon="-84.0923257"><ele>1115.0</ele><time>2026-04-09T12:00:47.92Z</time></trkpt><trkpt lat="9.8976062" lon="-84.0922736"><ele>1115.5</ele><time>2026-04-09T12:00:49.919Z</time></trkpt><trkpt lat="9.8975612" lon="-84.0922268"><ele>1116.0</ele><time>2026-04-09T12:00:50.92Z</time></trkpt><trkpt lat="9.8975108" lon="-84.092172"><ele>1116.5</ele><time>2026-04-09T12:00:51.921Z</time></trkpt><trkpt lat="9.8974546" lon="-84.0921077"><ele>1117.0</ele><time>2026-04-09T12:00:52.924Z</time></trkpt><trkpt lat="9.8974003" lon="-84.0920451"><ele>1117.5</ele><time>2026-04-09T12:00:53.924Z</time></trkpt><trkpt lat="9.8973444" lon="-84.0919784"><ele>1118.0</ele><time>2026-04-09T12:00:54.926Z</time></trkpt><trkpt lat="9.8972869" lon="-84.091909"><ele>1118.0</ele><time>2026-04-09T12:00:55.931Z</time></trkpt><trkpt lat="9.8972288" lon="-84.0918354"><ele>1118.0</ele><time>2026-04-09T12:00:56.929Z</time></trkpt><trkpt lat="9.8971704" lon="-84.0917591"><ele>1118.0</ele><time>2026-04-09T12:00:57.922Z</time></trkpt><trkpt lat="9.8971139" lon="-84.0916778"><ele>1118.0</ele><time>2026-04-09T12:00:58.929Z</time></trkpt><trkpt lat="9.8970607" lon="-84.0915909"><ele>1118.0</ele><time>2026-04-09T12:00:59.924Z</time></trkpt><trkpt lat="9.8970114" lon="-84.0915013"><ele>1118.6</ele><time>2026-04-09T12:01:00.922Z</time></trkpt><trkpt lat="9.8969745" lon="-84.0914013"><ele>1119.1999999999998</ele><time>2026-04-09T12:01:01.926Z</time></trkpt><trkpt lat="9.8969481" lon="-84.0912953"><ele>1119.8</ele><time>2026-04-09T12:01:02.925Z</time></trkpt><trkpt lat="9.8969288" lon="-84.0911861"><ele>1120.3999999999999</ele><time>2026-04-09T12:01:03.926Z</time></trkpt><trkpt lat="9.8969057" lon="-84.0910848"><ele>1121.0</ele><time>2026-04-09T12:01:04.926Z</time></trkpt><trkpt lat="9.8968746" lon="-84.0909855"><ele>1121.0</ele><time>2026-04-09T12:01:05.922Z</time></trkpt><trkpt lat="9.8968366" lon="-84.0908901"><ele>1121.0</ele><time>2026-04-09T12:01:06.931Z</time></trkpt><trkpt lat="9.8967958" lon="-84.090798"><ele>1121.0</ele><time>2026-04-09T12:01:07.924Z</time></trkpt><trkpt lat="9.8967548" lon="-84.0907055"><ele>1121.0</ele><time>2026-04-09T12:01:08.926Z</time></trkpt><trkpt lat="9.8967135" lon="-84.0906205"><ele>1121.0</ele><time>2026-04-09T12:01:09.928Z</time></trkpt><trkpt lat="9.8966756" lon="-84.0905402"><ele>1121.0</ele><time>2026-04-09T12:01:10.92Z</time></trkpt><trkpt lat="9.8966454" lon="-84.0904696"><ele>1121.0</ele><time>2026-04-09T12:01:11.921Z</time></trkpt><trkpt lat="9.8966192" lon="-84.090409"><ele>1121.0</ele><time>2026-04-09T12:01:12.921Z</time></trkpt><trkpt lat="9.8965937" lon="-84.0903152"><ele>1121.0</ele><time>2026-04-09T12:01:14.923Z</time></trkpt><trkpt lat="9.8965855" lon="-84.0902478"><ele>1121.0</ele><time>2026-04-09T12:01:18.926Z</time></trkpt><trkpt lat="9.8966271" lon="-84.090189"><ele>1121.0</ele><time>2026-04-09T12:01:24.926Z</time></trkpt><trkpt lat="9.8967373" lon="-84.0901492"><ele>1121.4285714285716</ele><time>2026-04-09T12:01:26.926Z</time></trkpt><trkpt lat="9.8968028" lon="-84.0901475"><ele>1121.857142857143</ele><time>2026-04-09T12:01:27.926Z</time></trkpt><trkpt lat="9.8968744" lon="-84.090139"><ele>1122.2857142857142</ele><time>2026-04-09T12:01:28.926Z</time></trkpt><trkpt lat="9.8969447" lon="-84.090125"><ele>1122.7142857142858</ele><time>2026-04-09T12:01:29.926Z</time></trkpt><trkpt lat="9.8970107" lon="-84.0900952"><ele>1123.142857142857</ele><time>2026-04-09T12:01:30.926Z</time></trkpt><trkpt lat="9.8970686" lon="-84.0900488"><ele>1123.5714285714287</ele><time>2026-04-09T12:01:31.926Z</time></trkpt><trkpt lat="9.8971147" lon="-84.0899898"><ele>1124.0</ele><time>2026-04-09T12:01:32.926Z</time></trkpt><trkpt lat="9.8971547" lon="-84.0899265"><ele>1125.0</ele><time>2026-04-09T12:01:33.926Z</time></trkpt><trkpt lat="9.8971955" lon="-84.0898603"><ele>1126.0</ele><time>2026-04-09T12:01:34.927Z</time></trkpt><trkpt lat="9.8972363" lon="-84.0897915"><ele>1127.0</ele><time>2026-04-09T12:01:35.926Z</time></trkpt><trkpt lat="9.8972823" lon="-84.0897237"><ele>1128.0</ele><time>2026-04-09T12:01:36.926Z</time></trkpt><trkpt lat="9.8973337" lon="-84.0896598"><ele>1129.0</ele><time>2026-04-09T12:01:37.926Z</time></trkpt><trkpt lat="9.897392" lon="-84.0896025"><ele>1130.0</ele><time>2026-04-09T12:01:38.926Z</time></trkpt><trkpt lat="9.89745" lon="-84.0895556"><ele>1130.0</ele><time>2026-04-09T12:01:39.926Z</time></trkpt><trkpt lat="9.8975135" lon="-84.0895085"><ele>1130.0</ele><time>2026-04-09T12:01:40.926Z</time></trkpt><trkpt lat="9.8975774" lon="-84.0894524"><ele>1130.0</ele><time>2026-04-09T12:01:41.926Z</time></trkpt><trkpt lat="9.8976377" lon="-84.089394"><ele>1130.0</ele><time>2026-04-09T12:01:42.927Z</time></trkpt><trkpt lat="9.8976965" lon="-84.0893335"><ele>1130.0</ele><time>2026-04-09T12:01:43.926Z</time></trkpt><trkpt lat="9.8977584" lon="-84.0892693"><ele>1130.0</ele><time>2026-04-09T12:01:44.926Z</time></trkpt><trkpt lat="9.8978226" lon="-84.0892064"><ele>1130.1666666666667</ele><time>2026-04-09T12:01:45.926Z</time></trkpt><trkpt lat="9.8978817" lon="-84.0891401"><ele>1130.3333333333335</ele><time>2026-04-09T12:01:46.927Z</time></trkpt><trkpt lat="9.8979418" lon="-84.0890716"><ele>1130.5</ele><time>2026-04-09T12:01:47.926Z</time></trkpt><trkpt lat="9.8980004" lon="-84.0890037"><ele>1130.6666666666667</ele><time>2026-04-09T12:01:48.926Z</time></trkpt><trkpt lat="9.898058" lon="-84.0889354"><ele>1130.8333333333333</ele><time>2026-04-09T12:01:49.926Z</time></trkpt><trkpt lat="9.8981133" lon="-84.088862"><ele>1131.0</ele><time>2026-04-09T12:01:50.926Z</time></trkpt><trkpt lat="9.8981694" lon="-84.0887855"><ele>1131.0</ele><time>2026-04-09T12:01:51.926Z</time></trkpt><trkpt lat="9.8982193" lon="-84.0887075"><ele>1131.0</ele><time>2026-04-09T12:01:52.926Z</time></trkpt><trkpt lat="9.898267" lon="-84.0886303"><ele>1131.0</ele><time>2026-04-09T12:01:53.926Z</time></trkpt><trkpt lat="9.8983183" lon="-84.0885525"><ele>1131.0</ele><time>2026-04-09T12:01:54.926Z</time></trkpt><trkpt lat="9.8983734" lon="-84.0884785"><ele>1131.0</ele><time>2026-04-09T12:01:55.927Z</time></trkpt><trkpt lat="9.8984304" lon="-84.088404"><ele>1131.5</ele><time>2026-04-09T12:01:56.926Z</time></trkpt><trkpt lat="9.8984887" lon="-84.088331"><ele>1132.0</ele><time>2026-04-09T12:01:57.927Z</time></trkpt><trkpt lat="9.8985483" lon="-84.0882561"><ele>1132.5</ele><time>2026-04-09T12:01:58.926Z</time></trkpt><trkpt lat="9.89861" lon="-84.0881882"><ele>1133.0</ele><time>2026-04-09T12:01:59.926Z</time></trkpt><trkpt lat="9.898667" lon="-84.0881261"><ele>1133.5</ele><time>2026-04-09T12:02:00.926Z</time></trkpt><trkpt lat="9.8987176" lon="-84.0880711"><ele>1134.0</ele><time>2026-04-09T12:02:01.926Z</time></trkpt><trkpt lat="9.8987649" lon="-84.0880228"><ele>1134.8333333333333</ele><time>2026-04-09T12:02:02.926Z</time></trkpt><trkpt lat="9.898853" lon="-84.0879589"><ele>1135.6666666666667</ele><time>2026-04-09T12:02:04.926Z</time></trkpt><trkpt lat="9.8989148" lon="-84.0879343"><ele>1136.5</ele><time>2026-04-09T12:02:07.926Z</time></trkpt><trkpt lat="9.899012" lon="-84.0879175"><ele>1137.3333333333335</ele><time>2026-04-09T12:02:24.926Z</time></trkpt><trkpt lat="9.899092" lon="-84.0879083"><ele>1138.1666666666667</ele><time>2026-04-09T12:02:26.927Z</time></trkpt><trkpt lat="9.8991778" lon="-84.0879176"><ele>1139.0</ele><time>2026-04-09T12:02:28.926Z</time></trkpt><trkpt lat="9.8992639" lon="-84.0879431"><ele>1139.0</ele><time>2026-04-09T12:02:30.926Z</time></trkpt><trkpt lat="9.899358" lon="-84.0879756"><ele>1139.0</ele><time>2026-04-09T12:02:32.926Z</time></trkpt><trkpt lat="9.8994531" lon="-84.0880309"><ele>1139.0</ele><time>2026-04-09T12:02:34.926Z</time></trkpt><trkpt lat="9.8994907" lon="-84.0880845"><ele>1139.0</ele><time>2026-04-09T12:02:35.926Z</time></trkpt><trkpt lat="9.8995163" lon="-84.0881556"><ele>1139.0</ele><time>2026-04-09T12:02:36.926Z</time></trkpt><trkpt lat="9.8995294" lon="-84.088237"><ele>1139.0</ele><time>2026-04-09T12:02:37.926Z</time></trkpt><trkpt lat="9.8995307" lon="-84.0883253"><ele>1138.4</ele><time>2026-04-09T12:02:38.926Z</time></trkpt><trkpt lat="9.8995235" lon="-84.0884252"><ele>1137.8000000000002</ele><time>2026-04-09T12:02:39.926Z</time></trkpt><trkpt lat="9.8995093" lon="-84.0885336"><ele>1137.1999999999998</ele><time>2026-04-09T12:02:40.927Z</time></trkpt><trkpt lat="9.8994924" lon="-84.088645"><ele>1136.6</ele><time>2026-04-09T12:02:41.926Z</time></trkpt><trkpt lat="9.8994745" lon="-84.0887636"><ele>1136.0</ele><time>2026-04-09T12:02:42.926Z</time></trkpt><trkpt lat="9.8994559" lon="-84.088883"><ele>1136.0</ele><time>2026-04-09T12:02:43.926Z</time></trkpt><trkpt lat="9.8994367" lon="-84.0890024"><ele>1136.0</ele><time>2026-04-09T12:02:44.926Z</time></trkpt><trkpt lat="9.899419" lon="-84.0891174"><ele>1136.0</ele><time>2026-04-09T12:02:45.926Z</time></trkpt><trkpt lat="9.8994057" lon="-84.0892337"><ele>1136.0</ele><time>2026-04-09T12:02:46.926Z</time></trkpt><trkpt lat="9.8993896" lon="-84.0893479"><ele>1134.3999999999999</ele><time>2026-04-09T12:02:47.926Z</time></trkpt><trkpt lat="9.8993762" lon="-84.0894524"><ele>1132.8</ele><time>2026-04-09T12:02:48.926Z</time></trkpt><trkpt lat="9.8993634" lon="-84.0895518"><ele>1131.1999999999998</ele><time>2026-04-09T12:02:49.926Z</time></trkpt><trkpt lat="9.8993546" lon="-84.0896499"><ele>1129.6</ele><time>2026-04-09T12:02:50.926Z</time></trkpt><trkpt lat="9.8993731" lon="-84.0897339"><ele>1128.0</ele><time>2026-04-09T12:02:51.926Z</time></trkpt><trkpt lat="9.8994201" lon="-84.0898047"><ele>1128.0</ele><time>2026-04-09T12:02:52.926Z</time></trkpt><trkpt lat="9.8994873" lon="-84.0898528"><ele>1128.0</ele><time>2026-04-09T12:02:53.926Z</time></trkpt><trkpt lat="9.8995771" lon="-84.0898744"><ele>1128.0</ele><time>2026-04-09T12:02:54.926Z</time></trkpt><trkpt lat="9.8996776" lon="-84.0898598"><ele>1128.0</ele><time>2026-04-09T12:02:55.926Z</time></trkpt><trkpt lat="9.8997714" lon="-84.0898132"><ele>1128.0</ele><time>2026-04-09T12:02:56.926Z</time></trkpt><trkpt lat="9.8998673" lon="-84.0897474"><ele>1128.0</ele><time>2026-04-09T12:02:57.926Z</time></trkpt><trkpt lat="9.8999595" lon="-84.0896701"><ele>1128.0</ele><time>2026-04-09T12:02:58.926Z</time></trkpt><trkpt lat="9.9000662" lon="-84.0895825"><ele>1128.0</ele><time>2026-04-09T12:02:59.926Z</time></trkpt><trkpt lat="9.9001633" lon="-84.0894904"><ele>1128.0</ele><time>2026-04-09T12:03:00.926Z</time></trkpt><trkpt lat="9.9002715" lon="-84.0894147"><ele>1124.75</ele><time>2026-04-09T12:03:01.926Z</time></trkpt><trkpt lat="9.9003863" lon="-84.0893541"><ele>1121.5</ele><time>2026-04-09T12:03:02.926Z</time></trkpt><trkpt lat="9.9005087" lon="-84.0893192"><ele>1118.25</ele><time>2026-04-09T12:03:03.926Z</time></trkpt><trkpt lat="9.9006318" lon="-84.089305"><ele>1115.0</ele><time>2026-04-09T12:03:04.926Z</time></trkpt><trkpt lat="9.9007548" lon="-84.0893093"><ele>1115.0</ele><time>2026-04-09T12:03:05.926Z</time></trkpt><trkpt lat="9.9008734" lon="-84.0893225"><ele>1115.0</ele><time>2026-04-09T12:03:06.926Z</time></trkpt><trkpt lat="9.9009985" lon="-84.0893392"><ele>1115.0</ele><time>2026-04-09T12:03:07.926Z</time></trkpt><trkpt lat="9.9011226" lon="-84.0893539"><ele>1115.0</ele><time>2026-04-09T12:03:08.926Z</time></trkpt><trkpt lat="9.9012405" lon="-84.0893663"><ele>1114.6</ele><time>2026-04-09T12:03:09.926Z</time></trkpt><trkpt lat="9.9013506" lon="-84.0893824"><ele>1114.2</ele><time>2026-04-09T12:03:10.927Z</time></trkpt><trkpt lat="9.9014498" lon="-84.0894017"><ele>1113.8</ele><time>2026-04-09T12:03:11.926Z</time></trkpt><trkpt lat="9.9015317" lon="-84.0894301"><ele>1113.4</ele><time>2026-04-09T12:03:12.926Z</time></trkpt><trkpt lat="9.9016026" lon="-84.0894662"><ele>1113.0</ele><time>2026-04-09T12:03:13.926Z</time></trkpt><trkpt lat="9.9016616" lon="-84.0895131"><ele>1113.0</ele><time>2026-04-09T12:03:14.926Z</time></trkpt><trkpt lat="9.9017099" lon="-84.0895738"><ele>1113.0</ele><time>2026-04-09T12:03:15.926Z</time></trkpt><trkpt lat="9.9017485" lon="-84.0896421"><ele>1113.0</ele><time>2026-04-09T12:03:16.926Z</time></trkpt><trkpt lat="9.901777" lon="-84.089717"><ele>1113.0</ele><time>2026-04-09T12:03:17.926Z</time></trkpt><trkpt lat="9.9017999" lon="-84.0897916"><ele>1113.0</ele><time>2026-04-09T12:03:18.926Z</time></trkpt><trkpt lat="9.9018142" lon="-84.0898599"><ele>1113.0</ele><time>2026-04-09T12:03:19.926Z</time></trkpt><trkpt lat="9.9018542" lon="-84.0899821"><ele>1115.6</ele><time>2026-04-09T12:03:21.926Z</time></trkpt><trkpt lat="9.9018775" lon="-84.0900459"><ele>1118.1999999999998</ele><time>2026-04-09T12:03:22.926Z</time></trkpt><trkpt lat="9.901909" lon="-84.0901013"><ele>1120.8</ele><time>2026-04-09T12:03:23.926Z</time></trkpt><trkpt lat="9.9020055" lon="-84.090183"><ele>1123.3999999999999</ele><time>2026-04-09T12:03:25.926Z</time></trkpt><trkpt lat="9.9021123" lon="-84.0902268"><ele>1126.0</ele><time>2026-04-09T12:03:27.926Z</time></trkpt><trkpt lat="9.9022359" lon="-84.0902317"><ele>1126.0</ele><time>2026-04-09T12:03:29.926Z</time></trkpt><trkpt lat="9.9023286" lon="-84.0901915"><ele>1126.0</ele><time>2026-04-09T12:03:31.926Z</time></trkpt><trkpt lat="9.9024097" lon="-84.090124"><ele>1126.0</ele><time>2026-04-09T12:03:33.926Z</time></trkpt><trkpt lat="9.9024877" lon="-84.0900261"><ele>1126.0</ele><time>2026-04-09T12:03:35.926Z</time></trkpt><trkpt lat="9.902529" lon="-84.0899757"><ele>1126.0</ele><time>2026-04-09T12:03:36.927Z</time></trkpt><trkpt lat="9.9025716" lon="-84.0899273"><ele>1128.0</ele><time>2026-04-09T12:03:37.926Z</time></trkpt><trkpt lat="9.9026329" lon="-84.0898506"><ele>1130.0</ele><time>2026-04-09T12:03:39.926Z</time></trkpt><trkpt lat="9.9026906" lon="-84.0897853"><ele>1132.0</ele><time>2026-04-09T12:03:41.926Z</time></trkpt><trkpt lat="9.902763" lon="-84.0897197"><ele>1134.0</ele><time>2026-04-09T12:03:43.926Z</time></trkpt><trkpt lat="9.9028525" lon="-84.0896565"><ele>1136.0</ele><time>2026-04-09T12:03:45.926Z</time></trkpt><trkpt lat="9.9029588" lon="-84.089597"><ele>1136.0</ele><time>2026-04-09T12:03:47.926Z</time></trkpt><trkpt lat="9.9030654" lon="-84.0895358"><ele>1136.0</ele><time>2026-04-09T12:03:49.926Z</time></trkpt><trkpt lat="9.9031237" lon="-84.0895062"><ele>1136.0</ele><time>2026-04-09T12:03:50.926Z</time></trkpt><trkpt lat="9.9031867" lon="-84.0894709"><ele>1136.0</ele><time>2026-04-09T12:03:51.926Z</time></trkpt><trkpt lat="9.9033038" lon="-84.0894057"><ele>1136.0</ele><time>2026-04-09T12:03:53.926Z</time></trkpt><trkpt lat="9.9033631" lon="-84.0893739"><ele>1136.4285714285713</ele><time>2026-04-09T12:03:54.926Z</time></trkpt><trkpt lat="9.9034199" lon="-84.0893455"><ele>1136.8571428571427</ele><time>2026-04-09T12:03:55.927Z</time></trkpt><trkpt lat="9.90351" lon="-84.0892833"><ele>1137.2857142857142</ele><time>2026-04-09T12:03:57.926Z</time></trkpt><trkpt lat="9.9035636" lon="-84.0892449"><ele>1137.7142857142858</ele><time>2026-04-09T12:03:58.926Z</time></trkpt><trkpt lat="9.9036152" lon="-84.0892079"><ele>1138.1428571428573</ele><time>2026-04-09T12:03:59.926Z</time></trkpt><trkpt lat="9.9036646" lon="-84.0891627"><ele>1138.5714285714287</ele><time>2026-04-09T12:04:00.926Z</time></trkpt><trkpt lat="9.9037234" lon="-84.0891111"><ele>1139.0</ele><time>2026-04-09T12:04:01.926Z</time></trkpt><trkpt lat="9.9037782" lon="-84.089054"><ele>1139.0</ele><time>2026-04-09T12:04:02.926Z</time></trkpt><trkpt lat="9.9038388" lon="-84.0889909"><ele>1139.0</ele><time>2026-04-09T12:04:03.926Z</time></trkpt><trkpt lat="9.9039037" lon="-84.0889266"><ele>1139.0</ele><time>2026-04-09T12:04:04.926Z</time></trkpt><trkpt lat="9.9039739" lon="-84.088858"><ele>1139.0</ele><time>2026-04-09T12:04:05.926Z</time></trkpt><trkpt lat="9.9040437" lon="-84.0887794"><ele>1139.0</ele><time>2026-04-09T12:04:06.926Z</time></trkpt><trkpt lat="9.9041193" lon="-84.0887055"><ele>1139.0</ele><time>2026-04-09T12:04:07.926Z</time></trkpt><trkpt lat="9.9041948" lon="-84.0886318"><ele>1139.0</ele><time>2026-04-09T12:04:08.926Z</time></trkpt><trkpt lat="9.9042684" lon="-84.0885479"><ele>1139.0</ele><time>2026-04-09T12:04:09.927Z</time></trkpt><trkpt lat="9.9043368" lon="-84.0884678"><ele>1139.0</ele><time>2026-04-09T12:04:10.926Z</time></trkpt><trkpt lat="9.9044" lon="-84.0883939"><ele>1139.0</ele><time>2026-04-09T12:04:11.926Z</time></trkpt><trkpt lat="9.9044647" lon="-84.0883277"><ele>1139.1666666666667</ele><time>2026-04-09T12:04:12.926Z</time></trkpt><trkpt lat="9.9045273" lon="-84.0882639"><ele>1139.3333333333335</ele><time>2026-04-09T12:04:13.926Z</time></trkpt><trkpt lat="9.9045878" lon="-84.0881991"><ele>1139.5</ele><time>2026-04-09T12:04:14.927Z</time></trkpt><trkpt lat="9.904647" lon="-84.0881335"><ele>1139.6666666666667</ele><time>2026-04-09T12:04:15.926Z</time></trkpt><trkpt lat="9.9047071" lon="-84.0880704"><ele>1139.8333333333333</ele><time>2026-04-09T12:04:16.926Z</time></trkpt><trkpt lat="9.9047707" lon="-84.0880065"><ele>1140.0</ele><time>2026-04-09T12:04:17.926Z</time></trkpt><trkpt lat="9.9048407" lon="-84.08794"><ele>1140.0</ele><time>2026-04-09T12:04:18.926Z</time></trkpt><trkpt lat="9.9049091" lon="-84.0878807"><ele>1140.0</ele><time>2026-04-09T12:04:19.926Z</time></trkpt><trkpt lat="9.9049807" lon="-84.0878209"><ele>1140.0</ele><time>2026-04-09T12:04:20.926Z</time></trkpt><trkpt lat="9.9050507" lon="-84.0877554"><ele>1140.0</ele><time>2026-04-09T12:04:21.926Z</time></trkpt><trkpt lat="9.9051282" lon="-84.0876923"><ele>1140.0</ele><time>2026-04-09T12:04:22.926Z</time></trkpt><trkpt lat="9.9052028" lon="-84.087632"><ele>1140.0</ele><time>2026-04-09T12:04:23.926Z</time></trkpt><trkpt lat="9.9052697" lon="-84.0875866"><ele>1140.0</ele><time>2026-04-09T12:04:24.926Z</time></trkpt><trkpt lat="9.9053306" lon="-84.0875432"><ele>1140.0</ele><time>2026-04-09T12:04:25.926Z</time></trkpt><trkpt lat="9.9054102" lon="-84.0874764"><ele>1140.0</ele><time>2026-04-09T12:04:27.926Z</time></trkpt><trkpt lat="9.9055004" lon="-84.0874094"><ele>1140.0</ele><time>2026-04-09T12:04:29.926Z</time></trkpt><trkpt lat="9.9055894" lon="-84.0873439"><ele>1140.0</ele><time>2026-04-09T12:04:31.926Z</time></trkpt><trkpt lat="9.9056871" lon="-84.0872824"><ele>1140.0</ele><time>2026-04-09T12:04:33.926Z</time></trkpt><trkpt lat="9.9057781" lon="-84.0872047"><ele>1140.0</ele><time>2026-04-09T12:04:35.926Z</time></trkpt><trkpt lat="9.9058307" lon="-84.0871617"><ele>1140.0</ele><time>2026-04-09T12:04:36.926Z</time></trkpt><trkpt lat="9.9058946" lon="-84.0871074"><ele>1140.0</ele><time>2026-04-09T12:04:37.926Z</time></trkpt><trkpt lat="9.9059574" lon="-84.087062"><ele>1139.8</ele><time>2026-04-09T12:04:38.926Z</time></trkpt><trkpt lat="9.9060177" lon="-84.0870096"><ele>1139.6</ele><time>2026-04-09T12:04:39.926Z</time></trkpt><trkpt lat="9.906088" lon="-84.086954"><ele>1139.4</ele><time>2026-04-09T12:04:40.926Z</time></trkpt><trkpt lat="9.9061726" lon="-84.0868959"><ele>1139.2</ele><time>2026-04-09T12:04:41.926Z</time></trkpt><trkpt lat="9.9062554" lon="-84.086837"><ele>1139.0</ele><time>2026-04-09T12:04:42.926Z</time></trkpt><trkpt lat="9.9063369" lon="-84.0867841"><ele>1139.0</ele><time>2026-04-09T12:04:43.926Z</time></trkpt><trkpt lat="9.9064097" lon="-84.0867386"><ele>1139.0</ele><time>2026-04-09T12:04:44.926Z</time></trkpt><trkpt lat="9.9064866" lon="-84.0867002"><ele>1139.0</ele><time>2026-04-09T12:04:45.926Z</time></trkpt><trkpt lat="9.9065588" lon="-84.0866605"><ele>1139.0</ele><time>2026-04-09T12:04:46.926Z</time></trkpt><trkpt lat="9.906654" lon="-84.0866068"><ele>1139.0</ele><time>2026-04-09T12:04:48.927Z</time></trkpt><trkpt lat="9.906746" lon="-84.0865695"><ele>1139.0</ele><time>2026-04-09T12:04:50.926Z</time></trkpt><trkpt lat="9.9068259" lon="-84.0865294"><ele>1139.0</ele><time>2026-04-09T12:04:52.927Z</time></trkpt><trkpt lat="9.9068882" lon="-84.0865009"><ele>1139.0</ele><time>2026-04-09T12:04:54.926Z</time></trkpt><trkpt lat="9.9069661" lon="-84.0864645"><ele>1139.0</ele><time>2026-04-09T12:04:57.927Z</time></trkpt><trkpt lat="9.9070455" lon="-84.0864545"><ele>1139.0</ele><time>2026-04-09T12:05:43.926Z</time></trkpt><trkpt lat="9.9071258" lon="-84.0864133"><ele>1139.0</ele><time>2026-04-09T12:05:46.927Z</time></trkpt><trkpt lat="9.9071933" lon="-84.0863723"><ele>1139.0</ele><time>2026-04-09T12:05:48.926Z</time></trkpt><trkpt lat="9.9072859" lon="-84.0863306"><ele>1139.0</ele><time>2026-04-09T12:05:50.926Z</time></trkpt><trkpt lat="9.9073903" lon="-84.0862841"><ele>1139.0</ele><time>2026-04-09T12:05:52.926Z</time></trkpt><trkpt lat="9.9074764" lon="-84.0862223"><ele>1139.0</ele><time>2026-04-09T12:05:54.926Z</time></trkpt><trkpt lat="9.9074791" lon="-84.0861382"><ele>1139.0</ele><time>2026-04-09T12:05:56.926Z</time></trkpt><trkpt lat="9.9074372" lon="-84.086073"><ele>1139.0</ele><time>2026-04-09T12:05:58.926Z</time></trkpt><trkpt lat="9.9074198" lon="-84.0860013"><ele>1139.0</ele><time>2026-04-09T12:06:01.926Z</time></trkpt><trkpt lat="9.9074573" lon="-84.0859451"><ele>1139.0</ele><time>2026-04-09T12:06:03.926Z</time></trkpt><trkpt lat="9.9075161" lon="-84.0859005"><ele>1139.0</ele><time>2026-04-09T12:06:06.926Z</time></trkpt><trkpt lat="9.9075762" lon="-84.0858739"><ele>1139.0</ele><time>2026-04-09T12:06:08.926Z</time></trkpt><trkpt lat="9.9076573" lon="-84.0858819"><ele>1139.0</ele><time>2026-04-09T12:06:11.926Z</time></trkpt><trkpt lat="9.9077218" lon="-84.0859401"><ele>1139.0</ele><time>2026-04-09T12:08:00.926Z</time></trkpt><trkpt lat="9.9077782" lon="-84.0859994"><ele>1138.5</ele><time>2026-04-09T12:10:30.926Z</time></trkpt><trkpt lat="9.9078163" lon="-84.0860509"><ele>1138.0</ele><time>2026-04-09T12:10:32.926Z</time></trkpt><trkpt lat="9.9078903" lon="-84.0860641"><ele>1137.5</ele><time>2026-04-09T12:10:34.926Z</time></trkpt><trkpt lat="9.9079904" lon="-84.0860385"><ele>1137.0</ele><time>2026-04-09T12:10:36.926Z</time></trkpt><trkpt lat="9.9080735" lon="-84.0859979"><ele>1136.5</ele><time>2026-04-09T12:10:38.927Z</time></trkpt><trkpt lat="9.9081541" lon="-84.0859677"><ele>1136.0</ele><time>2026-04-09T12:10:40.926Z</time></trkpt><trkpt lat="9.9082169" lon="-84.0859477"><ele>1136.0</ele><time>2026-04-09T12:10:42.926Z</time></trkpt><trkpt lat="9.9082829" lon="-84.0859394"><ele>1136.0</ele><time>2026-04-09T12:11:09.926Z</time></trkpt><trkpt lat="9.9083579" lon="-84.0859077"><ele>1136.0</ele><time>2026-04-09T12:11:12.926Z</time></trkpt><trkpt lat="9.9084623" lon="-84.08587"><ele>1136.0</ele><time>2026-04-09T12:11:14.926Z</time></trkpt><trkpt lat="9.90858" lon="-84.0858276"><ele>1136.0</ele><time>2026-04-09T12:11:16.926Z</time></trkpt><trkpt lat="9.908641" lon="-84.0858008"><ele>1135.8</ele><time>2026-04-09T12:11:17.926Z</time></trkpt><trkpt lat="9.9087207" lon="-84.0857713"><ele>1135.6</ele><time>2026-04-09T12:11:18.926Z</time></trkpt><trkpt lat="9.9088027" lon="-84.0857479"><ele>1135.4</ele><time>2026-04-09T12:11:19.926Z</time></trkpt><trkpt lat="9.9088922" lon="-84.0857213"><ele>1135.2</ele><time>2026-04-09T12:11:20.926Z</time></trkpt><trkpt lat="9.9089913" lon="-84.0856939"><ele>1135.0</ele><time>2026-04-09T12:11:21.926Z</time></trkpt><trkpt lat="9.9090961" lon="-84.0856666"><ele>1135.0</ele><time>2026-04-09T12:11:22.926Z</time></trkpt><trkpt lat="9.9092058" lon="-84.0856406"><ele>1135.0</ele><time>2026-04-09T12:11:23.927Z</time></trkpt><trkpt lat="9.9093118" lon="-84.0856162"><ele>1135.0</ele><time>2026-04-09T12:11:24.926Z</time></trkpt><trkpt lat="9.9094078" lon="-84.0855983"><ele>1135.0</ele><time>2026-04-09T12:11:25.926Z</time></trkpt><trkpt lat="9.9095067" lon="-84.0855799"><ele>1135.0</ele><time>2026-04-09T12:11:26.927Z</time></trkpt><trkpt lat="9.9096117" lon="-84.0855617"><ele>1135.0</ele><time>2026-04-09T12:11:27.926Z</time></trkpt><trkpt lat="9.9097184" lon="-84.0855383"><ele>1135.0</ele><time>2026-04-09T12:11:28.926Z</time></trkpt><trkpt lat="9.9098195" lon="-84.0855139"><ele>1135.0</ele><time>2026-04-09T12:11:29.926Z</time></trkpt><trkpt lat="9.9099103" lon="-84.085486"><ele>1135.0</ele><time>2026-04-09T12:11:30.926Z</time></trkpt><trkpt lat="9.9099841" lon="-84.0854462"><ele>1135.0</ele><time>2026-04-09T12:11:31.926Z</time></trkpt><trkpt lat="9.9100472" lon="-84.0853886"><ele>1135.0</ele><time>2026-04-09T12:11:32.926Z</time></trkpt><trkpt lat="9.9101006" lon="-84.0853286"><ele>1135.0</ele><time>2026-04-09T12:11:33.926Z</time></trkpt><trkpt lat="9.9101801" lon="-84.0852154"><ele>1135.0</ele><time>2026-04-09T12:11:35.926Z</time></trkpt><trkpt lat="9.910216" lon="-84.0851491"><ele>1135.0</ele><time>2026-04-09T12:11:36.926Z</time></trkpt><trkpt lat="9.9102601" lon="-84.0850869"><ele>1135.0</ele><time>2026-04-09T12:11:37.926Z</time></trkpt><trkpt lat="9.9103016" lon="-84.0850185"><ele>1135.0</ele><time>2026-04-09T12:11:38.926Z</time></trkpt><trkpt lat="9.9103393" lon="-84.0849404"><ele>1134.8</ele><time>2026-04-09T12:11:39.926Z</time></trkpt><trkpt lat="9.9103543" lon="-84.0848555"><ele>1134.6</ele><time>2026-04-09T12:11:40.926Z</time></trkpt><trkpt lat="9.9103596" lon="-84.0847569"><ele>1134.4</ele><time>2026-04-09T12:11:41.926Z</time></trkpt><trkpt lat="9.9103596" lon="-84.0846546"><ele>1134.2</ele><time>2026-04-09T12:11:42.926Z</time></trkpt><trkpt lat="9.9103626" lon="-84.0845455"><ele>1134.0</ele><time>2026-04-09T12:11:43.926Z</time></trkpt><trkpt lat="9.910369" lon="-84.084433"><ele>1134.0</ele><time>2026-04-09T12:11:44.926Z</time></trkpt><trkpt lat="9.9103738" lon="-84.0843139"><ele>1134.0</ele><time>2026-04-09T12:11:45.926Z</time></trkpt><trkpt lat="9.910384" lon="-84.0841956"><ele>1134.0</ele><time>2026-04-09T12:11:46.926Z</time></trkpt><trkpt lat="9.9103979" lon="-84.0840811"><ele>1134.0</ele><time>2026-04-09T12:11:47.926Z</time></trkpt><trkpt lat="9.9104073" lon="-84.0839706"><ele>1133.6000000000001</ele><time>2026-04-09T12:11:48.926Z</time></trkpt><trkpt lat="9.9104202" lon="-84.08386"><ele>1133.2</ele><time>2026-04-09T12:11:49.926Z</time></trkpt><trkpt lat="9.9104365" lon="-84.0837588"><ele>1132.8000000000002</ele><time>2026-04-09T12:11:50.926Z</time></trkpt><trkpt lat="9.9104518" lon="-84.0836641"><ele>1132.4</ele><time>2026-04-09T12:11:51.926Z</time></trkpt><trkpt lat="9.9104647" lon="-84.0835782"><ele>1132.0</ele><time>2026-04-09T12:11:52.926Z</time></trkpt><trkpt lat="9.9104802" lon="-84.0835029"><ele>1132.0</ele><time>2026-04-09T12:11:53.926Z</time></trkpt><trkpt lat="9.9105092" lon="-84.083396"><ele>1132.0</ele><time>2026-04-09T12:11:55.926Z</time></trkpt><trkpt lat="9.910523" lon="-84.0833327"><ele>1132.0</ele><time>2026-04-09T12:11:57.926Z</time></trkpt><trkpt lat="9.9105388" lon="-84.0832691"><ele>1132.0</ele><time>2026-04-09T12:12:06.926Z</time></trkpt><trkpt lat="9.9105827" lon="-84.0831725"><ele>1132.0</ele><time>2026-04-09T12:12:15.926Z</time></trkpt><trkpt lat="9.9106181" lon="-84.0830559"><ele>1132.3333333333333</ele><time>2026-04-09T12:12:17.926Z</time></trkpt><trkpt lat="9.9106433" lon="-84.0829909"><ele>1132.6666666666665</ele><time>2026-04-09T12:12:18.926Z</time></trkpt><trkpt lat="9.9106765" lon="-84.0829115"><ele>1133.0</ele><time>2026-04-09T12:12:19.926Z</time></trkpt><trkpt lat="9.9107055" lon="-84.0828335"><ele>1133.3333333333333</ele><time>2026-04-09T12:12:20.926Z</time></trkpt><trkpt lat="9.9107344" lon="-84.0827447"><ele>1133.6666666666667</ele><time>2026-04-09T12:12:21.926Z</time></trkpt><trkpt lat="9.9107646" lon="-84.0826538"><ele>1134.0</ele><time>2026-04-09T12:12:22.926Z</time></trkpt><trkpt lat="9.9108012" lon="-84.0825528"><ele>1134.0</ele><time>2026-04-09T12:12:23.926Z</time></trkpt><trkpt lat="9.9108429" lon="-84.0824408"><ele>1134.0</ele><time>2026-04-09T12:12:24.926Z</time></trkpt><trkpt lat="9.9108908" lon="-84.0823274"><ele>1134.0</ele><time>2026-04-09T12:12:25.926Z</time></trkpt><trkpt lat="9.9109351" lon="-84.0822045"><ele>1134.0</ele><time>2026-04-09T12:12:26.926Z</time></trkpt><trkpt lat="9.910981" lon="-84.0820767"><ele>1132.75</ele><time>2026-04-09T12:12:27.926Z</time></trkpt><trkpt lat="9.9110178" lon="-84.081942"><ele>1131.5</ele><time>2026-04-09T12:12:28.926Z</time></trkpt><trkpt lat="9.9110626" lon="-84.0818014"><ele>1130.25</ele><time>2026-04-09T12:12:29.926Z</time></trkpt><trkpt lat="9.9111116" lon="-84.0816568"><ele>1129.0</ele><time>2026-04-09T12:12:30.926Z</time></trkpt><trkpt lat="9.9111611" lon="-84.0815088"><ele>1129.0</ele><time>2026-04-09T12:12:31.926Z</time></trkpt><trkpt lat="9.9112118" lon="-84.0813583"><ele>1129.0</ele><time>2026-04-09T12:12:32.926Z</time></trkpt><trkpt lat="9.9112627" lon="-84.0812086"><ele>1129.0</ele><time>2026-04-09T12:12:33.926Z</time></trkpt><trkpt lat="9.9113114" lon="-84.0810453"><ele>1129.0</ele><time>2026-04-09T12:12:34.926Z</time></trkpt><trkpt lat="9.9113654" lon="-84.0808867"><ele>1129.0</ele><time>2026-04-09T12:12:35.926Z</time></trkpt><trkpt lat="9.9114097" lon="-84.080731"><ele>1129.0</ele><time>2026-04-09T12:12:36.926Z</time></trkpt><trkpt lat="9.9114622" lon="-84.0805784"><ele>1130.0</ele><time>2026-04-09T12:12:37.926Z</time></trkpt><trkpt lat="9.9115132" lon="-84.0804239"><ele>1131.0</ele><time>2026-04-09T12:12:38.926Z</time></trkpt><trkpt lat="9.9115617" lon="-84.0802742"><ele>1132.0</ele><time>2026-04-09T12:12:39.926Z</time></trkpt><trkpt lat="9.911612" lon="-84.0801221"><ele>1132.0</ele><time>2026-04-09T12:12:40.926Z</time></trkpt><trkpt lat="9.9116616" lon="-84.0799676"><ele>1132.0</ele><time>2026-04-09T12:12:41.926Z</time></trkpt><trkpt lat="9.9117121" lon="-84.0798148"><ele>1132.0</ele><time>2026-04-09T12:12:42.926Z</time></trkpt><trkpt lat="9.9117634" lon="-84.0796563"><ele>1134.0</ele><time>2026-04-09T12:12:43.926Z</time></trkpt><trkpt lat="9.911816" lon="-84.079493"><ele>1136.0</ele><time>2026-04-09T12:12:44.926Z</time></trkpt><trkpt lat="9.9118661" lon="-84.0793319"><ele>1138.0</ele><time>2026-04-09T12:12:45.926Z</time></trkpt><trkpt lat="9.9119195" lon="-84.0791681"><ele>1138.0</ele><time>2026-04-09T12:12:46.927Z</time></trkpt><trkpt lat="9.9119701" lon="-84.0789966"><ele>1138.0</ele><time>2026-04-09T12:12:47.926Z</time></trkpt><trkpt lat="9.912028" lon="-84.0788343"><ele>1138.0</ele><time>2026-04-09T12:12:48.926Z</time></trkpt><trkpt lat="9.9120821" lon="-84.0786629"><ele>1138.0</ele><time>2026-04-09T12:12:49.926Z</time></trkpt><trkpt lat="9.9121382" lon="-84.0784888"><ele>1138.0</ele><time>2026-04-09T12:12:50.926Z</time></trkpt><trkpt lat="9.9121856" lon="-84.078323"><ele>1138.0</ele><time>2026-04-09T12:12:51.926Z</time></trkpt><trkpt lat="9.9122406" lon="-84.0781548"><ele>1137.6666666666665</ele><time>2026-04-09T12:12:52.926Z</time></trkpt><trkpt lat="9.9122951" lon="-84.0779769"><ele>1137.3333333333333</ele><time>2026-04-09T12:12:53.926Z</time></trkpt><trkpt lat="9.9123519" lon="-84.0778087"><ele>1137.0</ele><time>2026-04-09T12:12:54.926Z</time></trkpt><trkpt lat="9.9124035" lon="-84.0776365"><ele>1137.0</ele><time>2026-04-09T12:12:55.926Z</time></trkpt><trkpt lat="9.9124631" lon="-84.0774716"><ele>1137.0</ele><time>2026-04-09T12:12:56.926Z</time></trkpt><trkpt lat="9.9125173" lon="-84.0773041"><ele>1137.0</ele><time>2026-04-09T12:12:57.926Z</time></trkpt><trkpt lat="9.9125696" lon="-84.0771412"><ele>1137.6666666666667</ele><time>2026-04-09T12:12:58.927Z</time></trkpt><trkpt lat="9.9126257" lon="-84.0769807"><ele>1138.3333333333335</ele><time>2026-04-09T12:12:59.927Z</time></trkpt><trkpt lat="9.9126733" lon="-84.0768233"><ele>1139.0</ele><time>2026-04-09T12:13:00.926Z</time></trkpt><trkpt lat="9.9127211" lon="-84.0766663"><ele>1139.3333333333335</ele><time>2026-04-09T12:13:01.926Z</time></trkpt><trkpt lat="9.9127693" lon="-84.0765088"><ele>1139.6666666666667</ele><time>2026-04-09T12:13:02.926Z</time></trkpt><trkpt lat="9.9128184" lon="-84.0763566"><ele>1140.0</ele><time>2026-04-09T12:13:03.926Z</time></trkpt><trkpt lat="9.9128661" lon="-84.0762087"><ele>1140.0</ele><time>2026-04-09T12:13:04.926Z</time></trkpt><trkpt lat="9.9129137" lon="-84.0760633"><ele>1140.0</ele><time>2026-04-09T12:13:05.926Z</time></trkpt><trkpt lat="9.9129558" lon="-84.0759226"><ele>1140.0</ele><time>2026-04-09T12:13:06.926Z</time></trkpt><trkpt lat="9.9129945" lon="-84.0757894"><ele>1140.0</ele><time>2026-04-09T12:13:07.926Z</time></trkpt><trkpt lat="9.9130343" lon="-84.0756617"><ele>1139.75</ele><time>2026-04-09T12:13:08.926Z</time></trkpt><trkpt lat="9.9130665" lon="-84.0755475"><ele>1139.5</ele><time>2026-04-09T12:13:09.926Z</time></trkpt><trkpt lat="9.913102" lon="-84.0754372"><ele>1139.25</ele><time>2026-04-09T12:13:10.926Z</time></trkpt><trkpt lat="9.9131359" lon="-84.0753281"><ele>1139.0</ele><time>2026-04-09T12:13:11.926Z</time></trkpt><trkpt lat="9.9131696" lon="-84.0752184"><ele>1139.0</ele><time>2026-04-09T12:13:12.926Z</time></trkpt><trkpt lat="9.9132005" lon="-84.0751082"><ele>1139.0</ele><time>2026-04-09T12:13:13.926Z</time></trkpt><trkpt lat="9.9132317" lon="-84.0749986"><ele>1139.0</ele><time>2026-04-09T12:13:14.926Z</time></trkpt><trkpt lat="9.9132659" lon="-84.074889"><ele>1139.0</ele><time>2026-04-09T12:13:15.926Z</time></trkpt><trkpt lat="9.9133052" lon="-84.0747725"><ele>1138.25</ele><time>2026-04-09T12:13:16.926Z</time></trkpt><trkpt lat="9.913347" lon="-84.0746588"><ele>1137.5</ele><time>2026-04-09T12:13:17.926Z</time></trkpt><trkpt lat="9.9133882" lon="-84.0745372"><ele>1136.75</ele><time>2026-04-09T12:13:18.926Z</time></trkpt><trkpt lat="9.9134322" lon="-84.0744193"><ele>1136.0</ele><time>2026-04-09T12:13:19.926Z</time></trkpt><trkpt lat="9.9134692" lon="-84.0743031"><ele>1135.8</ele><time>2026-04-09T12:13:20.926Z</time></trkpt><trkpt lat="9.913507" lon="-84.074191"><ele>1135.6</ele><time>2026-04-09T12:13:21.926Z</time></trkpt><trkpt lat="9.91354" lon="-84.0740811"><ele>1135.4</ele><time>2026-04-09T12:13:22.926Z</time></trkpt><trkpt lat="9.9135732" lon="-84.0739775"><ele>1135.2</ele><time>2026-04-09T12:13:23.926Z</time></trkpt><trkpt lat="9.9136099" lon="-84.0738756"><ele>1135.0</ele><time>2026-04-09T12:13:24.926Z</time></trkpt><trkpt lat="9.9136463" lon="-84.0737804"><ele>1134.6</ele><time>2026-04-09T12:13:25.926Z</time></trkpt><trkpt lat="9.9136776" lon="-84.0736838"><ele>1134.2</ele><time>2026-04-09T12:13:26.926Z</time></trkpt><trkpt lat="9.9137089" lon="-84.0735912"><ele>1133.8</ele><time>2026-04-09T12:13:27.926Z</time></trkpt><trkpt lat="9.9137377" lon="-84.0734985"><ele>1133.4</ele><time>2026-04-09T12:13:28.926Z</time></trkpt><trkpt lat="9.9137652" lon="-84.0734094"><ele>1133.0</ele><time>2026-04-09T12:13:29.926Z</time></trkpt><trkpt lat="9.9137947" lon="-84.073323"><ele>1133.0</ele><time>2026-04-09T12:13:30.926Z</time></trkpt><trkpt lat="9.9138216" lon="-84.0732398"><ele>1133.0</ele><time>2026-04-09T12:13:31.926Z</time></trkpt><trkpt lat="9.9138442" lon="-84.0731664"><ele>1133.0</ele><time>2026-04-09T12:13:32.926Z</time></trkpt><trkpt lat="9.9138661" lon="-84.0730969"><ele>1133.0</ele><time>2026-04-09T12:13:33.927Z</time></trkpt><trkpt lat="9.9138865" lon="-84.073025"><ele>1133.0</ele><time>2026-04-09T12:13:34.926Z</time></trkpt><trkpt lat="9.9139127" lon="-84.0729447"><ele>1133.0</ele><time>2026-04-09T12:13:35.926Z</time></trkpt><trkpt lat="9.9139373" lon="-84.0728676"><ele>1133.0</ele><time>2026-04-09T12:13:36.926Z</time></trkpt><trkpt lat="9.9139627" lon="-84.0727863"><ele>1133.0</ele><time>2026-04-09T12:13:37.926Z</time></trkpt><trkpt lat="9.9139938" lon="-84.072704"><ele>1133.0</ele><time>2026-04-09T12:13:38.926Z</time></trkpt><trkpt lat="9.9140182" lon="-84.0726281"><ele>1133.0</ele><time>2026-04-09T12:13:39.926Z</time></trkpt><trkpt lat="9.9140372" lon="-84.0725567"><ele>1133.0</ele><time>2026-04-09T12:13:40.926Z</time></trkpt><trkpt lat="9.9140597" lon="-84.0724831"><ele>1133.0</ele><time>2026-04-09T12:13:41.926Z</time></trkpt><trkpt lat="9.9140888" lon="-84.0723951"><ele>1133.3333333333335</ele><time>2026-04-09T12:13:42.927Z</time></trkpt><trkpt lat="9.9141214" lon="-84.0723073"><ele>1133.6666666666667</ele><time>2026-04-09T12:13:43.927Z</time></trkpt><trkpt lat="9.9141528" lon="-84.0722217"><ele>1134.0</ele><time>2026-04-09T12:13:44.926Z</time></trkpt><trkpt lat="9.9141737" lon="-84.0721375"><ele>1134.3333333333333</ele><time>2026-04-09T12:13:45.926Z</time></trkpt><trkpt lat="9.9142013" lon="-84.0720575"><ele>1134.6666666666665</ele><time>2026-04-09T12:13:46.926Z</time></trkpt><trkpt lat="9.9142256" lon="-84.0719824"><ele>1135.0</ele><time>2026-04-09T12:13:47.926Z</time></trkpt><trkpt lat="9.9142515" lon="-84.0719114"><ele>1135.0</ele><time>2026-04-09T12:13:48.926Z</time></trkpt><trkpt lat="9.9142796" lon="-84.0718436"><ele>1135.0</ele><time>2026-04-09T12:13:49.926Z</time></trkpt><trkpt lat="9.9143139" lon="-84.071739"><ele>1135.0</ele><time>2026-04-09T12:13:51.926Z</time></trkpt><trkpt lat="9.9143437" lon="-84.071645"><ele>1135.0</ele><time>2026-04-09T12:13:53.927Z</time></trkpt><trkpt lat="9.9143734" lon="-84.0715837"><ele>1135.0</ele><time>2026-04-09T12:13:56.926Z</time></trkpt><trkpt lat="9.9143893" lon="-84.0715179"><ele>1135.0</ele><time>2026-04-09T12:13:59.926Z</time></trkpt><trkpt lat="9.9144205" lon="-84.0714218"><ele>1135.6</ele><time>2026-04-09T12:14:02.926Z</time></trkpt><trkpt lat="9.9144454" lon="-84.0713469"><ele>1136.2</ele><time>2026-04-09T12:14:04.926Z</time></trkpt><trkpt lat="9.9144653" lon="-84.0712594"><ele>1136.8</ele><time>2026-04-09T12:14:06.926Z</time></trkpt><trkpt lat="9.914497" lon="-84.0711551"><ele>1137.4</ele><time>2026-04-09T12:14:08.926Z</time></trkpt><trkpt lat="9.9145195" lon="-84.0710924"><ele>1138.0</ele><time>2026-04-09T12:14:09.926Z</time></trkpt><trkpt lat="9.9145599" lon="-84.0709715"><ele>1138.0</ele><time>2026-04-09T12:14:11.926Z</time></trkpt><trkpt lat="9.9145822" lon="-84.0709045"><ele>1138.0</ele><time>2026-04-09T12:14:12.926Z</time></trkpt><trkpt lat="9.914618" lon="-84.0708204"><ele>1138.0</ele><time>2026-04-09T12:14:13.926Z</time></trkpt><trkpt lat="9.9146531" lon="-84.0707399"><ele>1138.0</ele><time>2026-04-09T12:14:14.926Z</time></trkpt><trkpt lat="9.9146767" lon="-84.070668"><ele>1138.0</ele><time>2026-04-09T12:14:15.926Z</time></trkpt><trkpt lat="9.9147016" lon="-84.0706054"><ele>1138.0</ele><time>2026-04-09T12:14:16.926Z</time></trkpt><trkpt lat="9.9147515" lon="-84.0705046"><ele>1138.0</ele><time>2026-04-09T12:14:18.926Z</time></trkpt><trkpt lat="9.9147945" lon="-84.0704142"><ele>1138.0</ele><time>2026-04-09T12:14:20.926Z</time></trkpt><trkpt lat="9.9148171" lon="-84.0703411"><ele>1138.0</ele><time>2026-04-09T12:14:22.926Z</time></trkpt><trkpt lat="9.9148446" lon="-84.0702713"><ele>1138.0</ele><time>2026-04-09T12:14:24.926Z</time></trkpt><trkpt lat="9.9148723" lon="-84.070179"><ele>1138.0</ele><time>2026-04-09T12:14:26.926Z</time></trkpt><trkpt lat="9.9149093" lon="-84.0700742"><ele>1138.0</ele><time>2026-04-09T12:14:28.926Z</time></trkpt><trkpt lat="9.9149426" lon="-84.0699635"><ele>1138.0</ele><time>2026-04-09T12:14:30.926Z</time></trkpt><trkpt lat="9.9149811" lon="-84.0698632"><ele>1138.0</ele><time>2026-04-09T12:14:32.926Z</time></trkpt><trkpt lat="9.9150116" lon="-84.0697739"><ele>1138.0</ele><time>2026-04-09T12:14:34.926Z</time></trkpt><trkpt lat="9.9150435" lon="-84.0696742"><ele>1138.0</ele><time>2026-04-09T12:14:36.927Z</time></trkpt><trkpt lat="9.9150793" lon="-84.0695721"><ele>1138.0</ele><time>2026-04-09T12:14:38.926Z</time></trkpt><trkpt lat="9.9151142" lon="-84.069464"><ele>1138.0</ele><time>2026-04-09T12:14:40.926Z</time></trkpt><trkpt lat="9.9151366" lon="-84.0694021"><ele>1138.0</ele><time>2026-04-09T12:14:41.926Z</time></trkpt><trkpt lat="9.9151587" lon="-84.0693417"><ele>1138.0</ele><time>2026-04-09T12:14:42.926Z</time></trkpt><trkpt lat="9.9152026" lon="-84.069222"><ele>1138.0</ele><time>2026-04-09T12:14:44.926Z</time></trkpt><trkpt lat="9.9152411" lon="-84.0691307"><ele>1138.6</ele><time>2026-04-09T12:14:46.926Z</time></trkpt><trkpt lat="9.915267" lon="-84.069061"><ele>1139.1999999999998</ele><time>2026-04-09T12:14:48.926Z</time></trkpt><trkpt lat="9.9153009" lon="-84.0689731"><ele>1139.8</ele><time>2026-04-09T12:14:50.926Z</time></trkpt><trkpt lat="9.9153447" lon="-84.0688722"><ele>1140.3999999999999</ele><time>2026-04-09T12:14:52.926Z</time></trkpt><trkpt lat="9.9154046" lon="-84.0687506"><ele>1141.0</ele><time>2026-04-09T12:14:54.926Z</time></trkpt><trkpt lat="9.9154365" lon="-84.0686924"><ele>1141.0</ele><time>2026-04-09T12:14:55.926Z</time></trkpt><trkpt lat="9.9154689" lon="-84.0686294"><ele>1141.0</ele><time>2026-04-09T12:14:56.926Z</time></trkpt><trkpt lat="9.9155015" lon="-84.0685648"><ele>1141.0</ele><time>2026-04-09T12:14:57.926Z</time></trkpt><trkpt lat="9.9155306" lon="-84.0684987"><ele>1141.0</ele><time>2026-04-09T12:14:58.926Z</time></trkpt><trkpt lat="9.9155602" lon="-84.0684319"><ele>1141.0</ele><time>2026-04-09T12:14:59.926Z</time></trkpt><trkpt lat="9.9155879" lon="-84.0683684"><ele>1141.0</ele><time>2026-04-09T12:15:00.927Z</time></trkpt><trkpt lat="9.9156209" lon="-84.068305"><ele>1141.0</ele><time>2026-04-09T12:15:01.926Z</time></trkpt><trkpt lat="9.9156546" lon="-84.0682419"><ele>1141.5</ele><time>2026-04-09T12:15:02.926Z</time></trkpt><trkpt lat="9.9156922" lon="-84.0681696"><ele>1142.0</ele><time>2026-04-09T12:15:03.926Z</time></trkpt><trkpt lat="9.9157268" lon="-84.0681012"><ele>1142.5</ele><time>2026-04-09T12:15:04.926Z</time></trkpt><trkpt lat="9.9157624" lon="-84.068036"><ele>1143.0</ele><time>2026-04-09T12:15:05.926Z</time></trkpt><trkpt lat="9.9157957" lon="-84.0679654"><ele>1143.5</ele><time>2026-04-09T12:15:06.926Z</time></trkpt><trkpt lat="9.9158316" lon="-84.0679014"><ele>1144.0</ele><time>2026-04-09T12:15:07.926Z</time></trkpt><trkpt lat="9.9158621" lon="-84.0678359"><ele>1143.9999999999998</ele><time>2026-04-09T12:15:08.926Z</time></trkpt><trkpt lat="9.915894" lon="-84.0677696"><ele>1144.0</ele><time>2026-04-09T12:15:09.926Z</time></trkpt><trkpt lat="9.9159255" lon="-84.0677046"><ele>1144.0</ele><time>2026-04-09T12:15:10.926Z</time></trkpt><trkpt lat="9.9159561" lon="-84.0676371"><ele>1144.0</ele><time>2026-04-09T12:15:11.926Z</time></trkpt><trkpt lat="9.9159914" lon="-84.0675689"><ele>1144.0</ele><time>2026-04-09T12:15:12.926Z</time></trkpt><trkpt lat="9.9160288" lon="-84.0675007"><ele>1143.9999999999998</ele><time>2026-04-09T12:15:13.926Z</time></trkpt><trkpt lat="9.9160624" lon="-84.0674334"><ele>1144.0</ele><time>2026-04-09T12:15:14.926Z</time></trkpt><trkpt lat="9.9160964" lon="-84.0673654"><ele>1144.8333333333333</ele><time>2026-04-09T12:15:15.926Z</time></trkpt><trkpt lat="9.9161288" lon="-84.0672955"><ele>1145.6666666666665</ele><time>2026-04-09T12:15:16.926Z</time></trkpt><trkpt lat="9.9161609" lon="-84.0672245"><ele>1146.5</ele><time>2026-04-09T12:15:17.926Z</time></trkpt><trkpt lat="9.9161991" lon="-84.06715"><ele>1147.3333333333333</ele><time>2026-04-09T12:15:18.926Z</time></trkpt><trkpt lat="9.9162372" lon="-84.0670797"><ele>1148.1666666666667</ele><time>2026-04-09T12:15:19.926Z</time></trkpt><trkpt lat="9.9162749" lon="-84.0670063"><ele>1149.0</ele><time>2026-04-09T12:15:20.926Z</time></trkpt><trkpt lat="9.9163138" lon="-84.0669292"><ele>1149.0</ele><time>2026-04-09T12:15:21.926Z</time></trkpt><trkpt lat="9.9163544" lon="-84.0668523"><ele>1149.0</ele><time>2026-04-09T12:15:22.926Z</time></trkpt><trkpt lat="9.9163962" lon="-84.0667678"><ele>1149.0</ele><time>2026-04-09T12:15:23.926Z</time></trkpt><trkpt lat="9.9164455" lon="-84.0666813"><ele>1149.0</ele><time>2026-04-09T12:15:24.926Z</time></trkpt><trkpt lat="9.9164891" lon="-84.0665979"><ele>1149.0</ele><time>2026-04-09T12:15:25.926Z</time></trkpt><trkpt lat="9.9165378" lon="-84.0665061"><ele>1148.8</ele><time>2026-04-09T12:15:26.926Z</time></trkpt><trkpt lat="9.9165842" lon="-84.0664103"><ele>1148.6000000000001</ele><time>2026-04-09T12:15:27.926Z</time></trkpt><trkpt lat="9.9166311" lon="-84.0663176"><ele>1148.4</ele><time>2026-04-09T12:15:28.926Z</time></trkpt><trkpt lat="9.9166764" lon="-84.0662165"><ele>1148.2</ele><time>2026-04-09T12:15:29.927Z</time></trkpt><trkpt lat="9.9167236" lon="-84.0661148"><ele>1148.0</ele><time>2026-04-09T12:15:30.927Z</time></trkpt><trkpt lat="9.9167623" lon="-84.0660095"><ele>1149.0</ele><time>2026-04-09T12:15:31.926Z</time></trkpt><trkpt lat="9.9168022" lon="-84.0659019"><ele>1150.0</ele><time>2026-04-09T12:15:32.926Z</time></trkpt><trkpt lat="9.916836" lon="-84.0657942"><ele>1151.0</ele><time>2026-04-09T12:15:33.926Z</time></trkpt><trkpt lat="9.9168771" lon="-84.0656801"><ele>1152.0</ele><time>2026-04-09T12:15:34.926Z</time></trkpt><trkpt lat="9.9169183" lon="-84.0655721"><ele>1152.25</ele><time>2026-04-09T12:15:35.926Z</time></trkpt><trkpt lat="9.9169721" lon="-84.0654571"><ele>1152.5</ele><time>2026-04-09T12:15:36.926Z</time></trkpt><trkpt lat="9.9170291" lon="-84.0653344"><ele>1152.75</ele><time>2026-04-09T12:15:37.926Z</time></trkpt><trkpt lat="9.9170927" lon="-84.0652091"><ele>1153.0</ele><time>2026-04-09T12:15:38.926Z</time></trkpt><trkpt lat="9.9171556" lon="-84.0650817"><ele>1153.0</ele><time>2026-04-09T12:15:39.926Z</time></trkpt><trkpt lat="9.9172223" lon="-84.064952"><ele>1153.0</ele><time>2026-04-09T12:15:40.926Z</time></trkpt><trkpt lat="9.9172855" lon="-84.0648236"><ele>1153.0</ele><time>2026-04-09T12:15:41.926Z</time></trkpt><trkpt lat="9.9173535" lon="-84.0646936"><ele>1153.0</ele><time>2026-04-09T12:15:42.926Z</time></trkpt><trkpt lat="9.9174165" lon="-84.0645585"><ele>1153.0</ele><time>2026-04-09T12:15:43.926Z</time></trkpt><trkpt lat="9.9174843" lon="-84.06442"><ele>1153.0</ele><time>2026-04-09T12:15:44.926Z</time></trkpt><trkpt lat="9.9175539" lon="-84.064284"><ele>1153.0</ele><time>2026-04-09T12:15:45.926Z</time></trkpt><trkpt lat="9.9176254" lon="-84.0641497"><ele>1155.0</ele><time>2026-04-09T12:15:46.926Z</time></trkpt><trkpt lat="9.9176988" lon="-84.0640131"><ele>1157.0</ele><time>2026-04-09T12:15:47.926Z</time></trkpt><trkpt lat="9.91777" lon="-84.0638728"><ele>1159.0</ele><time>2026-04-09T12:15:48.926Z</time></trkpt><trkpt lat="9.9178442" lon="-84.0637336"><ele>1159.0</ele><time>2026-04-09T12:15:49.926Z</time></trkpt><trkpt lat="9.9179167" lon="-84.0635912"><ele>1159.0</ele><time>2026-04-09T12:15:50.926Z</time></trkpt><trkpt lat="9.9179971" lon="-84.0634544"><ele>1159.0</ele><time>2026-04-09T12:15:51.926Z</time></trkpt><trkpt lat="9.9180872" lon="-84.0633202"><ele>1160.3333333333333</ele><time>2026-04-09T12:15:52.926Z</time></trkpt><trkpt lat="9.9181763" lon="-84.0631833"><ele>1161.6666666666667</ele><time>2026-04-09T12:15:53.926Z</time></trkpt><trkpt lat="9.9182689" lon="-84.0630451"><ele>1163.0</ele><time>2026-04-09T12:15:54.926Z</time></trkpt><trkpt lat="9.9183668" lon="-84.0629127"><ele>1162.6666666666667</ele><time>2026-04-09T12:15:55.927Z</time></trkpt><trkpt lat="9.9184652" lon="-84.062781"><ele>1162.3333333333333</ele><time>2026-04-09T12:15:56.926Z</time></trkpt><trkpt lat="9.9185671" lon="-84.062652"><ele>1162.0</ele><time>2026-04-09T12:15:57.926Z</time></trkpt><trkpt lat="9.9186769" lon="-84.0625225"><ele>1162.0</ele><time>2026-04-09T12:15:58.926Z</time></trkpt><trkpt lat="9.9187923" lon="-84.0623996"><ele>1162.0</ele><time>2026-04-09T12:15:59.926Z</time></trkpt><trkpt lat="9.9189146" lon="-84.0622745"><ele>1162.0</ele><time>2026-04-09T12:16:00.926Z</time></trkpt><trkpt lat="9.9190323" lon="-84.062149"><ele>1162.0</ele><time>2026-04-09T12:16:01.926Z</time></trkpt><trkpt lat="9.9191582" lon="-84.062024"><ele>1162.0</ele><time>2026-04-09T12:16:02.926Z</time></trkpt><trkpt lat="9.9192836" lon="-84.0618985"><ele>1162.0</ele><time>2026-04-09T12:16:03.927Z</time></trkpt><trkpt lat="9.9194086" lon="-84.0617725"><ele>1161.6666666666665</ele><time>2026-04-09T12:16:04.926Z</time></trkpt><trkpt lat="9.9195314" lon="-84.061648"><ele>1161.3333333333333</ele><time>2026-04-09T12:16:05.926Z</time></trkpt><trkpt lat="9.9196543" lon="-84.061524"><ele>1161.0</ele><time>2026-04-09T12:16:06.926Z</time></trkpt><trkpt lat="9.9197753" lon="-84.0614029"><ele>1162.0</ele><time>2026-04-09T12:16:07.926Z</time></trkpt><trkpt lat="9.9198995" lon="-84.0612739"><ele>1163.0</ele><time>2026-04-09T12:16:08.926Z</time></trkpt><trkpt lat="9.9200199" lon="-84.061146"><ele>1164.0</ele><time>2026-04-09T12:16:09.926Z</time></trkpt><trkpt lat="9.9201424" lon="-84.0610153"><ele>1164.6666666666667</ele><time>2026-04-09T12:16:10.926Z</time></trkpt><trkpt lat="9.9202637" lon="-84.060879"><ele>1165.3333333333335</ele><time>2026-04-09T12:16:11.926Z</time></trkpt><trkpt lat="9.920383" lon="-84.0607431"><ele>1166.0</ele><time>2026-04-09T12:16:12.926Z</time></trkpt><trkpt lat="9.9205069" lon="-84.0606065"><ele>1166.6666666666667</ele><time>2026-04-09T12:16:13.926Z</time></trkpt><trkpt lat="9.9206324" lon="-84.0604694"><ele>1167.3333333333333</ele><time>2026-04-09T12:16:14.926Z</time></trkpt><trkpt lat="9.9207585" lon="-84.0603312"><ele>1168.0</ele><time>2026-04-09T12:16:15.926Z</time></trkpt><trkpt lat="9.9208825" lon="-84.0601911"><ele>1168.3333333333333</ele><time>2026-04-09T12:16:16.926Z</time></trkpt><trkpt lat="9.9210091" lon="-84.06005"><ele>1168.6666666666667</ele><time>2026-04-09T12:16:17.926Z</time></trkpt><trkpt lat="9.921131" lon="-84.0599188"><ele>1169.0</ele><time>2026-04-09T12:16:18.926Z</time></trkpt><trkpt lat="9.9212532" lon="-84.0597846"><ele>1169.0</ele><time>2026-04-09T12:16:19.926Z</time></trkpt><trkpt lat="9.9213737" lon="-84.05965"><ele>1169.0</ele><time>2026-04-09T12:16:20.926Z</time></trkpt><trkpt lat="9.9214938" lon="-84.0595149"><ele>1169.0</ele><time>2026-04-09T12:16:21.926Z</time></trkpt><trkpt lat="9.9216127" lon="-84.0593818"><ele>1169.0</ele><time>2026-04-09T12:16:22.926Z</time></trkpt><trkpt lat="9.9216973" lon="-84.0592774"><ele>1169.0</ele><time>2026-04-09T12:16:23.926Z</time></trkpt><trkpt lat="9.9218367" lon="-84.0590993"><ele>1169.0</ele><time>2026-04-09T12:16:24.927Z</time></trkpt><trkpt lat="9.921998" lon="-84.0589327"><ele>1169.6666666666667</ele><time>2026-04-09T12:16:25.926Z</time></trkpt><trkpt lat="9.9221315" lon="-84.0587891"><ele>1170.3333333333333</ele><time>2026-04-09T12:16:26.926Z</time></trkpt><trkpt lat="9.9222541" lon="-84.058656"><ele>1171.0</ele><time>2026-04-09T12:16:27.926Z</time></trkpt><trkpt lat="9.9223696" lon="-84.0585206"><ele>1171.0</ele><time>2026-04-09T12:16:28.926Z</time></trkpt><trkpt lat="9.9224873" lon="-84.0583978"><ele>1171.0</ele><time>2026-04-09T12:16:29.926Z</time></trkpt><trkpt lat="9.9226053" lon="-84.0582728"><ele>1171.0</ele><time>2026-04-09T12:16:30.927Z</time></trkpt><trkpt lat="9.9227181" lon="-84.0581501"><ele>1173.3333333333333</ele><time>2026-04-09T12:16:31.926Z</time></trkpt><trkpt lat="9.922832" lon="-84.0580242"><ele>1175.6666666666667</ele><time>2026-04-09T12:16:32.926Z</time></trkpt><trkpt lat="9.9229462" lon="-84.0579067"><ele>1178.0</ele><time>2026-04-09T12:16:33.926Z</time></trkpt><trkpt lat="9.9230572" lon="-84.0577919"><ele>1178.0</ele><time>2026-04-09T12:16:34.926Z</time></trkpt><trkpt lat="9.9231729" lon="-84.057684"><ele>1178.0</ele><time>2026-04-09T12:16:35.927Z</time></trkpt><trkpt lat="9.9232952" lon="-84.0575726"><ele>1178.0</ele><time>2026-04-09T12:16:36.926Z</time></trkpt><trkpt lat="9.9234201" lon="-84.0574674"><ele>1179.3333333333335</ele><time>2026-04-09T12:16:37.926Z</time></trkpt><trkpt lat="9.9235475" lon="-84.0573701"><ele>1180.6666666666667</ele><time>2026-04-09T12:16:38.926Z</time></trkpt><trkpt lat="9.9236816" lon="-84.0572741"><ele>1182.0</ele><time>2026-04-09T12:16:39.926Z</time></trkpt><trkpt lat="9.9238141" lon="-84.0571748"><ele>1182.0</ele><time>2026-04-09T12:16:40.926Z</time></trkpt><trkpt lat="9.9239497" lon="-84.0570842"><ele>1182.0</ele><time>2026-04-09T12:16:41.926Z</time></trkpt><trkpt lat="9.9240888" lon="-84.0569933"><ele>1182.0</ele><time>2026-04-09T12:16:42.926Z</time></trkpt><trkpt lat="9.9242292" lon="-84.0569049"><ele>1181.3333333333333</ele><time>2026-04-09T12:16:43.926Z</time></trkpt><trkpt lat="9.9243814" lon="-84.0568203"><ele>1180.6666666666665</ele><time>2026-04-09T12:16:44.926Z</time></trkpt><trkpt lat="9.9245257" lon="-84.0567366"><ele>1180.0</ele><time>2026-04-09T12:16:45.926Z</time></trkpt><trkpt lat="9.9246758" lon="-84.0566552"><ele>1180.0</ele><time>2026-04-09T12:16:46.926Z</time></trkpt><trkpt lat="9.9248301" lon="-84.0565741"><ele>1180.0</ele><time>2026-04-09T12:16:47.926Z</time></trkpt><trkpt lat="9.9249887" lon="-84.056496"><ele>1180.0</ele><time>2026-04-09T12:16:48.926Z</time></trkpt><trkpt lat="9.9251495" lon="-84.0564149"><ele>1180.0</ele><time>2026-04-09T12:16:49.926Z</time></trkpt><trkpt lat="9.9253014" lon="-84.0563362"><ele>1180.0</ele><time>2026-04-09T12:16:50.926Z</time></trkpt><trkpt lat="9.9254377" lon="-84.0562504"><ele>1180.0</ele><time>2026-04-09T12:16:51.926Z</time></trkpt><trkpt lat="9.925574" lon="-84.0561598"><ele>1180.0</ele><time>2026-04-09T12:16:52.926Z</time></trkpt><trkpt lat="9.9257078" lon="-84.0560679"><ele>1180.0</ele><time>2026-04-09T12:16:53.926Z</time></trkpt><trkpt lat="9.9258344" lon="-84.0559698"><ele>1180.0</ele><time>2026-04-09T12:16:54.926Z</time></trkpt><trkpt lat="9.9259608" lon="-84.0558615"><ele>1180.3333333333333</ele><time>2026-04-09T12:16:55.927Z</time></trkpt><trkpt lat="9.9260739" lon="-84.0557543"><ele>1180.6666666666667</ele><time>2026-04-09T12:16:56.926Z</time></trkpt><trkpt lat="9.926192" lon="-84.0556397"><ele>1181.0</ele><time>2026-04-09T12:16:57.926Z</time></trkpt><trkpt lat="9.9263097" lon="-84.0555255"><ele>1181.0</ele><time>2026-04-09T12:16:58.926Z</time></trkpt><trkpt lat="9.9264334" lon="-84.0554078"><ele>1181.0</ele><time>2026-04-09T12:16:59.926Z</time></trkpt><trkpt lat="9.926559" lon="-84.0553013"><ele>1181.0</ele><time>2026-04-09T12:17:00.926Z</time></trkpt><trkpt lat="9.9266851" lon="-84.0551998"><ele>1183.0</ele><time>2026-04-09T12:17:01.926Z</time></trkpt><trkpt lat="9.9268193" lon="-84.0551085"><ele>1185.0</ele><time>2026-04-09T12:17:02.926Z</time></trkpt><trkpt lat="9.9269548" lon="-84.0550321"><ele>1187.0</ele><time>2026-04-09T12:17:03.926Z</time></trkpt><trkpt lat="9.9270963" lon="-84.0549628"><ele>1185.6666666666667</ele><time>2026-04-09T12:17:04.926Z</time></trkpt><trkpt lat="9.9272429" lon="-84.0549024"><ele>1184.3333333333333</ele><time>2026-04-09T12:17:05.926Z</time></trkpt><trkpt lat="9.9273856" lon="-84.054855"><ele>1183.0</ele><time>2026-04-09T12:17:06.926Z</time></trkpt><trkpt lat="9.927534" lon="-84.0548134"><ele>1183.5</ele><time>2026-04-09T12:17:07.926Z</time></trkpt><trkpt lat="9.9276809" lon="-84.0547781"><ele>1184.0</ele><time>2026-04-09T12:17:08.926Z</time></trkpt><trkpt lat="9.9278261" lon="-84.0547577"><ele>1184.5</ele><time>2026-04-09T12:17:09.926Z</time></trkpt><trkpt lat="9.9279677" lon="-84.0547502"><ele>1185.0</ele><time>2026-04-09T12:17:10.926Z</time></trkpt><trkpt lat="9.9281034" lon="-84.0547452"><ele>1185.0</ele><time>2026-04-09T12:17:11.926Z</time></trkpt><trkpt lat="9.9282272" lon="-84.0547487"><ele>1185.0</ele><time>2026-04-09T12:17:12.926Z</time></trkpt><trkpt lat="9.9283474" lon="-84.0547559"><ele>1185.0</ele><time>2026-04-09T12:17:13.926Z</time></trkpt><trkpt lat="9.9284625" lon="-84.0547707"><ele>1185.0</ele><time>2026-04-09T12:17:14.926Z</time></trkpt><trkpt lat="9.9285615" lon="-84.0547891"><ele>1186.4</ele><time>2026-04-09T12:17:15.926Z</time></trkpt><trkpt lat="9.9286458" lon="-84.0548081"><ele>1187.8</ele><time>2026-04-09T12:17:16.926Z</time></trkpt><trkpt lat="9.9287227" lon="-84.054823"><ele>1189.2</ele><time>2026-04-09T12:17:17.926Z</time></trkpt><trkpt lat="9.9287901" lon="-84.0548399"><ele>1190.6</ele><time>2026-04-09T12:17:18.926Z</time></trkpt><trkpt lat="9.9288996" lon="-84.0548743"><ele>1192.0</ele><time>2026-04-09T12:17:20.926Z</time></trkpt><trkpt lat="9.9289991" lon="-84.0549142"><ele>1192.3333333333333</ele><time>2026-04-09T12:17:22.927Z</time></trkpt><trkpt lat="9.9291118" lon="-84.0549688"><ele>1192.6666666666665</ele><time>2026-04-09T12:17:24.926Z</time></trkpt><trkpt lat="9.929174" lon="-84.0549996"><ele>1193.0</ele><time>2026-04-09T12:17:25.926Z</time></trkpt><trkpt lat="9.9292384" lon="-84.055028"><ele>1193.3333333333333</ele><time>2026-04-09T12:17:26.926Z</time></trkpt><trkpt lat="9.9293104" lon="-84.0550603"><ele>1193.6666666666667</ele><time>2026-04-09T12:17:27.927Z</time></trkpt><trkpt lat="9.9293795" lon="-84.0550917"><ele>1194.0</ele><time>2026-04-09T12:17:28.926Z</time></trkpt><trkpt lat="9.9294511" lon="-84.0551273"><ele>1194.0</ele><time>2026-04-09T12:17:29.926Z</time></trkpt><trkpt lat="9.9295288" lon="-84.0551657"><ele>1194.0</ele><time>2026-04-09T12:17:30.926Z</time></trkpt><trkpt lat="9.929606" lon="-84.0552086"><ele>1194.0</ele><time>2026-04-09T12:17:31.926Z</time></trkpt><trkpt lat="9.9296938" lon="-84.0552429"><ele>1194.0</ele><time>2026-04-09T12:17:32.926Z</time></trkpt><trkpt lat="9.9297845" lon="-84.0552757"><ele>1194.0</ele><time>2026-04-09T12:17:33.927Z</time></trkpt><trkpt lat="9.9298835" lon="-84.0553136"><ele>1194.0</ele><time>2026-04-09T12:17:34.926Z</time></trkpt><trkpt lat="9.9299946" lon="-84.0553491"><ele>1194.0</ele><time>2026-04-09T12:17:35.926Z</time></trkpt><trkpt lat="9.9301151" lon="-84.0553793"><ele>1194.0</ele><time>2026-04-09T12:17:36.926Z</time></trkpt><trkpt lat="9.9302427" lon="-84.0554123"><ele>1194.0</ele><time>2026-04-09T12:17:37.926Z</time></trkpt><trkpt lat="9.9303683" lon="-84.0554428"><ele>1195.5</ele><time>2026-04-09T12:17:38.926Z</time></trkpt><trkpt lat="9.9304989" lon="-84.0554758"><ele>1197.0</ele><time>2026-04-09T12:17:39.926Z</time></trkpt><trkpt lat="9.9306348" lon="-84.055513"><ele>1198.5</ele><time>2026-04-09T12:17:40.926Z</time></trkpt><trkpt lat="9.9307694" lon="-84.0555459"><ele>1200.0</ele><time>2026-04-09T12:17:41.926Z</time></trkpt><trkpt lat="9.9309068" lon="-84.0555778"><ele>1200.75</ele><time>2026-04-09T12:17:42.926Z</time></trkpt><trkpt lat="9.9310424" lon="-84.0556072"><ele>1201.5</ele><time>2026-04-09T12:17:43.926Z</time></trkpt><trkpt lat="9.9311783" lon="-84.0556363"><ele>1202.25</ele><time>2026-04-09T12:17:44.926Z</time></trkpt><trkpt lat="9.9313112" lon="-84.0556674"><ele>1203.0</ele><time>2026-04-09T12:17:45.926Z</time></trkpt><trkpt lat="9.9314352" lon="-84.0556887"><ele>1203.0</ele><time>2026-04-09T12:17:46.926Z</time></trkpt><trkpt lat="9.9315602" lon="-84.0557176"><ele>1203.0</ele><time>2026-04-09T12:17:47.926Z</time></trkpt><trkpt lat="9.9316797" lon="-84.0557453"><ele>1203.0</ele><time>2026-04-09T12:17:48.926Z</time></trkpt><trkpt lat="9.9318064" lon="-84.0557704"><ele>1203.0</ele><time>2026-04-09T12:17:49.926Z</time></trkpt><trkpt lat="9.9319295" lon="-84.0557922"><ele>1201.75</ele><time>2026-04-09T12:17:50.926Z</time></trkpt><trkpt lat="9.9320494" lon="-84.0558111"><ele>1200.5</ele><time>2026-04-09T12:17:51.926Z</time></trkpt><trkpt lat="9.9321745" lon="-84.0558285"><ele>1199.25</ele><time>2026-04-09T12:17:52.926Z</time></trkpt><trkpt lat="9.9322902" lon="-84.05585"><ele>1198.0</ele><time>2026-04-09T12:17:53.926Z</time></trkpt><trkpt lat="9.932423" lon="-84.0558698"><ele>1198.0</ele><time>2026-04-09T12:17:54.927Z</time></trkpt><trkpt lat="9.9325525" lon="-84.0558849"><ele>1198.0</ele><time>2026-04-09T12:17:55.926Z</time></trkpt><trkpt lat="9.932677" lon="-84.0559001"><ele>1198.0</ele><time>2026-04-09T12:17:56.926Z</time></trkpt><trkpt lat="9.9328052" lon="-84.0559167"><ele>1198.0</ele><time>2026-04-09T12:17:57.926Z</time></trkpt><trkpt lat="9.9329314" lon="-84.0559313"><ele>1199.75</ele><time>2026-04-09T12:17:58.927Z</time></trkpt><trkpt lat="9.9330514" lon="-84.0559452"><ele>1201.5</ele><time>2026-04-09T12:17:59.926Z</time></trkpt><trkpt lat="9.9331723" lon="-84.0559551"><ele>1203.25</ele><time>2026-04-09T12:18:00.926Z</time></trkpt><trkpt lat="9.9332921" lon="-84.0559654"><ele>1205.0</ele><time>2026-04-09T12:18:01.926Z</time></trkpt><trkpt lat="9.9333937" lon="-84.0559621"><ele>1206.6</ele><time>2026-04-09T12:18:02.926Z</time></trkpt><trkpt lat="9.9334986" lon="-84.0559618"><ele>1208.2</ele><time>2026-04-09T12:18:03.926Z</time></trkpt><trkpt lat="9.9335923" lon="-84.0559505"><ele>1209.8</ele><time>2026-04-09T12:18:04.927Z</time></trkpt><trkpt lat="9.9336909" lon="-84.0559347"><ele>1211.4</ele><time>2026-04-09T12:18:05.926Z</time></trkpt><trkpt lat="9.9337724" lon="-84.0559166"><ele>1213.0</ele><time>2026-04-09T12:18:06.926Z</time></trkpt><trkpt lat="9.9338626" lon="-84.055898"><ele>1213.0</ele><time>2026-04-09T12:18:07.926Z</time></trkpt><trkpt lat="9.9339573" lon="-84.0558678"><ele>1213.0</ele><time>2026-04-09T12:18:08.926Z</time></trkpt><trkpt lat="9.9340426" lon="-84.055842"><ele>1213.0</ele><time>2026-04-09T12:18:09.926Z</time></trkpt><trkpt lat="9.9341395" lon="-84.0558074"><ele>1213.0</ele><time>2026-04-09T12:18:10.926Z</time></trkpt><trkpt lat="9.9342339" lon="-84.0557667"><ele>1213.0</ele><time>2026-04-09T12:18:11.927Z</time></trkpt><trkpt lat="9.9343261" lon="-84.0557249"><ele>1211.8</ele><time>2026-04-09T12:18:12.926Z</time></trkpt><trkpt lat="9.9344217" lon="-84.0556729"><ele>1210.6</ele><time>2026-04-09T12:18:13.926Z</time></trkpt><trkpt lat="9.9345062" lon="-84.0556252"><ele>1209.4</ele><time>2026-04-09T12:18:14.927Z</time></trkpt><trkpt lat="9.9345887" lon="-84.0555696"><ele>1208.2</ele><time>2026-04-09T12:18:15.926Z</time></trkpt><trkpt lat="9.9346742" lon="-84.0555218"><ele>1207.0</ele><time>2026-04-09T12:18:16.926Z</time></trkpt><trkpt lat="9.9347427" lon="-84.0554782"><ele>1207.0</ele><time>2026-04-09T12:18:17.926Z</time></trkpt><trkpt lat="9.9348101" lon="-84.0554339"><ele>1207.0</ele><time>2026-04-09T12:18:18.926Z</time></trkpt><trkpt lat="9.9348827" lon="-84.0553885"><ele>1207.0</ele><time>2026-04-09T12:18:19.926Z</time></trkpt><trkpt lat="9.9349492" lon="-84.0553539"><ele>1207.0</ele><time>2026-04-09T12:18:20.926Z</time></trkpt><trkpt lat="9.9350347" lon="-84.0553014"><ele>1207.0</ele><time>2026-04-09T12:18:21.926Z</time></trkpt><trkpt lat="9.9351278" lon="-84.0552462"><ele>1207.0</ele><time>2026-04-09T12:18:22.926Z</time></trkpt><trkpt lat="9.9352249" lon="-84.0551779"><ele>1206.0</ele><time>2026-04-09T12:18:23.926Z</time></trkpt><trkpt lat="9.9353241" lon="-84.0551082"><ele>1205.0</ele><time>2026-04-09T12:18:24.926Z</time></trkpt><trkpt lat="9.9354249" lon="-84.0550368"><ele>1204.0</ele><time>2026-04-09T12:18:25.926Z</time></trkpt><trkpt lat="9.9355378" lon="-84.0549522"><ele>1203.0</ele><time>2026-04-09T12:18:26.927Z</time></trkpt><trkpt lat="9.9356602" lon="-84.0548685"><ele>1202.6666666666667</ele><time>2026-04-09T12:18:27.926Z</time></trkpt><trkpt lat="9.9357848" lon="-84.0547869"><ele>1202.3333333333335</ele><time>2026-04-09T12:18:28.926Z</time></trkpt><trkpt lat="9.9359137" lon="-84.054704"><ele>1202.0</ele><time>2026-04-09T12:18:29.926Z</time></trkpt><trkpt lat="9.9360449" lon="-84.0546215"><ele>1200.6666666666667</ele><time>2026-04-09T12:18:30.927Z</time></trkpt><trkpt lat="9.9361822" lon="-84.0545422"><ele>1199.3333333333333</ele><time>2026-04-09T12:18:31.926Z</time></trkpt><trkpt lat="9.9363238" lon="-84.0544668"><ele>1198.0</ele><time>2026-04-09T12:18:32.926Z</time></trkpt><trkpt lat="9.9364613" lon="-84.0544026"><ele>1198.0</ele><time>2026-04-09T12:18:33.926Z</time></trkpt><trkpt lat="9.9366152" lon="-84.0543417"><ele>1198.0</ele><time>2026-04-09T12:18:34.926Z</time></trkpt><trkpt lat="9.936763" lon="-84.0542949"><ele>1198.0</ele><time>2026-04-09T12:18:35.926Z</time></trkpt><trkpt lat="9.9369166" lon="-84.0542548"><ele>1198.0</ele><time>2026-04-09T12:18:36.926Z</time></trkpt><trkpt lat="9.9370744" lon="-84.0542223"><ele>1198.0</ele><time>2026-04-09T12:18:37.926Z</time></trkpt><trkpt lat="9.9372343" lon="-84.0542035"><ele>1198.0</ele><time>2026-04-09T12:18:38.926Z</time></trkpt><trkpt lat="9.9373879" lon="-84.0541882"><ele>1198.0</ele><time>2026-04-09T12:18:39.926Z</time></trkpt><trkpt lat="9.9375435" lon="-84.054187"><ele>1198.0</ele><time>2026-04-09T12:18:40.926Z</time></trkpt><trkpt lat="9.9377011" lon="-84.0541925"><ele>1198.0</ele><time>2026-04-09T12:18:41.926Z</time></trkpt><trkpt lat="9.9378586" lon="-84.0542095"><ele>1199.0</ele><time>2026-04-09T12:18:42.926Z</time></trkpt><trkpt lat="9.9380122" lon="-84.0542333"><ele>1200.0</ele><time>2026-04-09T12:18:43.926Z</time></trkpt><trkpt lat="9.9381721" lon="-84.0542678"><ele>1201.0</ele><time>2026-04-09T12:18:44.926Z</time></trkpt><trkpt lat="9.9383333" lon="-84.0543041"><ele>1201.3333333333333</ele><time>2026-04-09T12:18:45.926Z</time></trkpt><trkpt lat="9.9384996" lon="-84.0543404"><ele>1201.6666666666667</ele><time>2026-04-09T12:18:46.926Z</time></trkpt><trkpt lat="9.9386655" lon="-84.0543762"><ele>1202.0</ele><time>2026-04-09T12:18:47.926Z</time></trkpt><trkpt lat="9.9388278" lon="-84.0544113"><ele>1202.0</ele><time>2026-04-09T12:18:48.926Z</time></trkpt><trkpt lat="9.9389923" lon="-84.0544495"><ele>1202.0</ele><time>2026-04-09T12:18:49.926Z</time></trkpt><trkpt lat="9.939153" lon="-84.0544907"><ele>1202.0</ele><time>2026-04-09T12:18:50.926Z</time></trkpt><trkpt lat="9.9393128" lon="-84.0545334"><ele>1203.0</ele><time>2026-04-09T12:18:51.926Z</time></trkpt><trkpt lat="9.9399083" lon="-84.0547642"><ele>1202.3333333333333</ele><time>2026-04-09T12:18:55.926Z</time></trkpt><trkpt lat="9.9400969" lon="-84.0548686"><ele>1201.6666666666665</ele><time>2026-04-09T12:18:56.926Z</time></trkpt><trkpt lat="9.9402082" lon="-84.0549464"><ele>1201.0</ele><time>2026-04-09T12:18:57.926Z</time></trkpt><trkpt lat="9.9403111" lon="-84.0550125"><ele>1199.6</ele><time>2026-04-09T12:18:58.926Z</time></trkpt><trkpt lat="9.9403887" lon="-84.0550858"><ele>1198.1999999999998</ele><time>2026-04-09T12:18:59.926Z</time></trkpt><trkpt lat="9.940439" lon="-84.0551347"><ele>1196.8000000000002</ele><time>2026-04-09T12:19:00.926Z</time></trkpt><trkpt lat="9.9405101" lon="-84.0552194"><ele>1195.4</ele><time>2026-04-09T12:19:02.926Z</time></trkpt><trkpt lat="9.9405871" lon="-84.0553017"><ele>1194.0</ele><time>2026-04-09T12:19:04.926Z</time></trkpt><trkpt lat="9.9406358" lon="-84.0553635"><ele>1194.0</ele><time>2026-04-09T12:19:05.926Z</time></trkpt><trkpt lat="9.9406944" lon="-84.0554245"><ele>1194.0</ele><time>2026-04-09T12:19:06.926Z</time></trkpt><trkpt lat="9.9407518" lon="-84.0554989"><ele>1194.0</ele><time>2026-04-09T12:19:07.926Z</time></trkpt><trkpt lat="9.940816" lon="-84.0555737"><ele>1194.0</ele><time>2026-04-09T12:19:08.926Z</time></trkpt><trkpt lat="9.9408833" lon="-84.0556565"><ele>1194.0</ele><time>2026-04-09T12:19:09.926Z</time></trkpt><trkpt lat="9.9409521" lon="-84.0557424"><ele>1193.0</ele><time>2026-04-09T12:19:10.926Z</time></trkpt><trkpt lat="9.9410258" lon="-84.055837"><ele>1192.0</ele><time>2026-04-09T12:19:11.926Z</time></trkpt><trkpt lat="9.9410999" lon="-84.0559284"><ele>1191.0</ele><time>2026-04-09T12:19:12.926Z</time></trkpt><trkpt lat="9.9411735" lon="-84.0560201"><ele>1190.0</ele><time>2026-04-09T12:19:13.926Z</time></trkpt><trkpt lat="9.9412422" lon="-84.056107"><ele>1190.0</ele><time>2026-04-09T12:19:14.926Z</time></trkpt><trkpt lat="9.9413084" lon="-84.0561948"><ele>1190.0</ele><time>2026-04-09T12:19:15.926Z</time></trkpt><trkpt lat="9.9413711" lon="-84.0562802"><ele>1190.0</ele><time>2026-04-09T12:19:16.926Z</time></trkpt><trkpt lat="9.9414338" lon="-84.0563729"><ele>1190.0</ele><time>2026-04-09T12:19:17.926Z</time></trkpt><trkpt lat="9.941492" lon="-84.0564687"><ele>1190.0</ele><time>2026-04-09T12:19:18.926Z</time></trkpt><trkpt lat="9.9415489" lon="-84.0565711"><ele>1190.0</ele><time>2026-04-09T12:19:19.926Z</time></trkpt><trkpt lat="9.9416026" lon="-84.0566787"><ele>1190.0</ele><time>2026-04-09T12:19:20.926Z</time></trkpt><trkpt lat="9.9416532" lon="-84.0567952"><ele>1190.0</ele><time>2026-04-09T12:19:21.926Z</time></trkpt><trkpt lat="9.9417037" lon="-84.0569128"><ele>1190.0</ele><time>2026-04-09T12:19:22.926Z</time></trkpt><trkpt lat="9.9417455" lon="-84.0570342"><ele>1190.0</ele><time>2026-04-09T12:19:23.926Z</time></trkpt><trkpt lat="9.9417802" lon="-84.0571636"><ele>1190.0</ele><time>2026-04-09T12:19:24.927Z</time></trkpt><trkpt lat="9.9418111" lon="-84.057295"><ele>1190.0</ele><time>2026-04-09T12:19:25.926Z</time></trkpt><trkpt lat="9.941828" lon="-84.0574289"><ele>1190.0</ele><time>2026-04-09T12:19:26.926Z</time></trkpt><trkpt lat="9.9418425" lon="-84.0575566"><ele>1191.25</ele><time>2026-04-09T12:19:27.926Z</time></trkpt><trkpt lat="9.9418469" lon="-84.057687"><ele>1192.5</ele><time>2026-04-09T12:19:28.926Z</time></trkpt><trkpt lat="9.9418491" lon="-84.057817"><ele>1193.75</ele><time>2026-04-09T12:19:29.926Z</time></trkpt><trkpt lat="9.941847" lon="-84.0579459"><ele>1195.0</ele><time>2026-04-09T12:19:30.926Z</time></trkpt><trkpt lat="9.9418411" lon="-84.058076"><ele>1195.0</ele><time>2026-04-09T12:19:31.926Z</time></trkpt><trkpt lat="9.9418382" lon="-84.058205"><ele>1195.0</ele><time>2026-04-09T12:19:32.926Z</time></trkpt><trkpt lat="9.9418313" lon="-84.0583321"><ele>1195.0</ele><time>2026-04-09T12:19:33.927Z</time></trkpt><trkpt lat="9.9418203" lon="-84.0584561"><ele>1195.0</ele><time>2026-04-09T12:19:34.926Z</time></trkpt><trkpt lat="9.9418065" lon="-84.0585726"><ele>1195.25</ele><time>2026-04-09T12:19:35.926Z</time></trkpt><trkpt lat="9.9418029" lon="-84.0586953"><ele>1195.5</ele><time>2026-04-09T12:19:36.926Z</time></trkpt><trkpt lat="9.9418022" lon="-84.058822"><ele>1195.75</ele><time>2026-04-09T12:19:37.926Z</time></trkpt><trkpt lat="9.9418132" lon="-84.0589501"><ele>1196.0</ele><time>2026-04-09T12:19:38.926Z</time></trkpt><trkpt lat="9.9418311" lon="-84.0590785"><ele>1196.25</ele><time>2026-04-09T12:19:39.926Z</time></trkpt><trkpt lat="9.9418551" lon="-84.0591992"><ele>1196.5</ele><time>2026-04-09T12:19:40.926Z</time></trkpt><trkpt lat="9.9418872" lon="-84.0593156"><ele>1196.75</ele><time>2026-04-09T12:19:41.926Z</time></trkpt><trkpt lat="9.9419257" lon="-84.0594319"><ele>1197.0</ele><time>2026-04-09T12:19:42.926Z</time></trkpt><trkpt lat="9.9419658" lon="-84.059529"><ele>1197.0</ele><time>2026-04-09T12:19:43.926Z</time></trkpt><trkpt lat="9.9420121" lon="-84.0596255"><ele>1197.0</ele><time>2026-04-09T12:19:44.926Z</time></trkpt><trkpt lat="9.9420634" lon="-84.0597184"><ele>1197.0</ele><time>2026-04-09T12:19:45.927Z</time></trkpt><trkpt lat="9.9421307" lon="-84.0598222"><ele>1197.0</ele><time>2026-04-09T12:19:46.926Z</time></trkpt><trkpt lat="9.9422155" lon="-84.0599265"><ele>1196.75</ele><time>2026-04-09T12:19:47.926Z</time></trkpt><trkpt lat="9.9422927" lon="-84.0600245"><ele>1196.5</ele><time>2026-04-09T12:19:48.926Z</time></trkpt><trkpt lat="9.9423683" lon="-84.0601137"><ele>1196.25</ele><time>2026-04-09T12:19:49.926Z</time></trkpt><trkpt lat="9.9424622" lon="-84.0602067"><ele>1196.0</ele><time>2026-04-09T12:19:50.926Z</time></trkpt><trkpt lat="9.9425488" lon="-84.0602636"><ele>1195.5</ele><time>2026-04-09T12:19:51.926Z</time></trkpt><trkpt lat="9.9426321" lon="-84.060332"><ele>1195.0</ele><time>2026-04-09T12:19:52.926Z</time></trkpt><trkpt lat="9.9427209" lon="-84.0603928"><ele>1194.5</ele><time>2026-04-09T12:19:53.926Z</time></trkpt><trkpt lat="9.9428127" lon="-84.0604468"><ele>1194.0</ele><time>2026-04-09T12:19:54.926Z</time></trkpt><trkpt lat="9.9435269" lon="-84.0606606"><ele>1193.8</ele><time>2026-04-09T12:20:00.926Z</time></trkpt><trkpt lat="9.9436135" lon="-84.060699"><ele>1193.6000000000001</ele><time>2026-04-09T12:20:01.926Z</time></trkpt><trkpt lat="9.9437348" lon="-84.0607338"><ele>1193.4</ele><time>2026-04-09T12:20:02.926Z</time></trkpt><trkpt lat="9.9438415" lon="-84.0607672"><ele>1193.2</ele><time>2026-04-09T12:20:03.926Z</time></trkpt><trkpt lat="9.9439488" lon="-84.0607991"><ele>1193.0</ele><time>2026-04-09T12:20:04.926Z</time></trkpt><trkpt lat="9.9440573" lon="-84.0608265"><ele>1192.5</ele><time>2026-04-09T12:20:05.926Z</time></trkpt><trkpt lat="9.9441699" lon="-84.0608597"><ele>1192.0</ele><time>2026-04-09T12:20:06.927Z</time></trkpt><trkpt lat="9.9442908" lon="-84.0608955"><ele>1191.5</ele><time>2026-04-09T12:20:07.926Z</time></trkpt><trkpt lat="9.9444173" lon="-84.0609358"><ele>1191.0</ele><time>2026-04-09T12:20:08.926Z</time></trkpt><trkpt lat="9.9445484" lon="-84.0609827"><ele>1191.0</ele><time>2026-04-09T12:20:09.926Z</time></trkpt><trkpt lat="9.9446828" lon="-84.0610397"><ele>1191.0</ele><time>2026-04-09T12:20:10.926Z</time></trkpt><trkpt lat="9.9448184" lon="-84.0611001"><ele>1191.0</ele><time>2026-04-09T12:20:11.926Z</time></trkpt><trkpt lat="9.9449504" lon="-84.0611661"><ele>1191.0</ele><time>2026-04-09T12:20:12.926Z</time></trkpt><trkpt lat="9.9450791" lon="-84.0612403"><ele>1192.0</ele><time>2026-04-09T12:20:13.926Z</time></trkpt><trkpt lat="9.9451999" lon="-84.0613201"><ele>1193.0</ele><time>2026-04-09T12:20:14.926Z</time></trkpt><trkpt lat="9.9453029" lon="-84.0614008"><ele>1194.0</ele><time>2026-04-09T12:20:15.926Z</time></trkpt><trkpt lat="9.9454194" lon="-84.0614904"><ele>1195.0</ele><time>2026-04-09T12:20:16.926Z</time></trkpt><trkpt lat="9.9455327" lon="-84.0615823"><ele>1194.25</ele><time>2026-04-09T12:20:17.926Z</time></trkpt><trkpt lat="9.9456401" lon="-84.0616697"><ele>1193.5</ele><time>2026-04-09T12:20:18.926Z</time></trkpt><trkpt lat="9.9457492" lon="-84.0617674"><ele>1192.75</ele><time>2026-04-09T12:20:19.926Z</time></trkpt><trkpt lat="9.9458581" lon="-84.0618763"><ele>1192.0</ele><time>2026-04-09T12:20:20.926Z</time></trkpt><trkpt lat="9.9459563" lon="-84.0619896"><ele>1192.0</ele><time>2026-04-09T12:20:21.926Z</time></trkpt><trkpt lat="9.9460515" lon="-84.0621084"><ele>1192.0</ele><time>2026-04-09T12:20:22.926Z</time></trkpt><trkpt lat="9.9461422" lon="-84.0622345"><ele>1192.0</ele><time>2026-04-09T12:20:23.926Z</time></trkpt><trkpt lat="9.9462303" lon="-84.0623665"><ele>1193.0</ele><time>2026-04-09T12:20:24.926Z</time></trkpt><trkpt lat="9.9463097" lon="-84.0625019"><ele>1194.0</ele><time>2026-04-09T12:20:25.926Z</time></trkpt><trkpt lat="9.9463551" lon="-84.0627594"><ele>1195.0</ele><time>2026-04-09T12:20:26.926Z</time></trkpt><trkpt lat="9.946408" lon="-84.0628706"><ele>1195.0</ele><time>2026-04-09T12:20:27.926Z</time></trkpt><trkpt lat="9.9464674" lon="-84.0630145"><ele>1195.0</ele><time>2026-04-09T12:20:28.926Z</time></trkpt><trkpt lat="9.9465342" lon="-84.0631543"><ele>1195.0</ele><time>2026-04-09T12:20:29.926Z</time></trkpt><trkpt lat="9.9466013" lon="-84.0632949"><ele>1188.0</ele><time>2026-04-09T12:20:30.926Z</time></trkpt><trkpt lat="9.9467128" lon="-84.0664602"><ele>1188.0</ele><time>2026-04-09T12:20:44.811Z</time></trkpt><trkpt lat="9.9465537" lon="-84.0662217"><ele>1188.0</ele><time>2026-04-09T12:20:49.926Z</time></trkpt><trkpt lat="9.9465696" lon="-84.0663654"><ele>1188.0</ele><time>2026-04-09T12:20:50.926Z</time></trkpt><trkpt lat="9.9465642" lon="-84.0665065"><ele>1187.25</ele><time>2026-04-09T12:20:51.926Z</time></trkpt><trkpt lat="9.9465657" lon="-84.0666477"><ele>1186.5</ele><time>2026-04-09T12:20:52.926Z</time></trkpt><trkpt lat="9.9465703" lon="-84.0667934"><ele>1185.75</ele><time>2026-04-09T12:20:53.926Z</time></trkpt><trkpt lat="9.9465836" lon="-84.0669366"><ele>1185.0</ele><time>2026-04-09T12:20:54.926Z</time></trkpt><trkpt lat="9.9466095" lon="-84.0670767"><ele>1185.0</ele><time>2026-04-09T12:20:55.926Z</time></trkpt><trkpt lat="9.9466362" lon="-84.0672144"><ele>1185.0</ele><time>2026-04-09T12:20:56.926Z</time></trkpt><trkpt lat="9.946675" lon="-84.0673516"><ele>1185.0</ele><time>2026-04-09T12:20:57.926Z</time></trkpt><trkpt lat="9.9467184" lon="-84.0674882"><ele>1185.0</ele><time>2026-04-09T12:20:58.926Z</time></trkpt><trkpt lat="9.9467728" lon="-84.067622"><ele>1184.25</ele><time>2026-04-09T12:20:59.926Z</time></trkpt><trkpt lat="9.9468344" lon="-84.0677522"><ele>1183.5</ele><time>2026-04-09T12:21:00.926Z</time></trkpt><trkpt lat="9.9469037" lon="-84.0678821"><ele>1182.75</ele><time>2026-04-09T12:21:01.926Z</time></trkpt><trkpt lat="9.9469847" lon="-84.068005"><ele>1182.0</ele><time>2026-04-09T12:21:02.926Z</time></trkpt><trkpt lat="9.9470703" lon="-84.0681179"><ele>1182.0</ele><time>2026-04-09T12:21:03.926Z</time></trkpt><trkpt lat="9.9471594" lon="-84.0682308"><ele>1182.0</ele><time>2026-04-09T12:21:04.926Z</time></trkpt><trkpt lat="9.9472513" lon="-84.068343"><ele>1182.0</ele><time>2026-04-09T12:21:05.926Z</time></trkpt><trkpt lat="9.94734" lon="-84.0684535"><ele>1182.0</ele><time>2026-04-09T12:21:06.926Z</time></trkpt><trkpt lat="9.9474299" lon="-84.0685586"><ele>1181.25</ele><time>2026-04-09T12:21:07.926Z</time></trkpt><trkpt lat="9.9475187" lon="-84.0686612"><ele>1180.5</ele><time>2026-04-09T12:21:08.926Z</time></trkpt><trkpt lat="9.9476126" lon="-84.0687622"><ele>1179.75</ele><time>2026-04-09T12:21:09.926Z</time></trkpt><trkpt lat="9.9477069" lon="-84.0688633"><ele>1179.0</ele><time>2026-04-09T12:21:10.926Z</time></trkpt><trkpt lat="9.9478027" lon="-84.0689683"><ele>1179.0</ele><time>2026-04-09T12:21:11.926Z</time></trkpt><trkpt lat="9.9478922" lon="-84.0690794"><ele>1179.0</ele><time>2026-04-09T12:21:12.926Z</time></trkpt><trkpt lat="9.9479755" lon="-84.0691952"><ele>1179.0</ele><time>2026-04-09T12:21:13.927Z</time></trkpt><trkpt lat="9.9480449" lon="-84.0693182"><ele>1179.0</ele><time>2026-04-09T12:21:14.926Z</time></trkpt><trkpt lat="9.9481086" lon="-84.0694126"><ele>1179.0</ele><time>2026-04-09T12:21:15.926Z</time></trkpt><trkpt lat="9.9481723" lon="-84.0694882"><ele>1179.0</ele><time>2026-04-09T12:21:16.926Z</time></trkpt><trkpt lat="9.9482235" lon="-84.0695606"><ele>1179.0</ele><time>2026-04-09T12:21:17.926Z</time></trkpt><trkpt lat="9.9482725" lon="-84.0696255"><ele>1179.0</ele><time>2026-04-09T12:21:18.926Z</time></trkpt><trkpt lat="9.9483378" lon="-84.0696964"><ele>1179.0</ele><time>2026-04-09T12:21:20.926Z</time></trkpt><trkpt lat="9.9483952" lon="-84.0697686"><ele>1179.0</ele><time>2026-04-09T12:21:23.926Z</time></trkpt><trkpt lat="9.9484564" lon="-84.0698379"><ele>1179.0</ele><time>2026-04-09T12:21:29.926Z</time></trkpt><trkpt lat="9.9485142" lon="-84.0698977"><ele>1179.0</ele><time>2026-04-09T12:21:31.926Z</time></trkpt><trkpt lat="9.9485738" lon="-84.0699625"><ele>1179.0</ele><time>2026-04-09T12:21:33.926Z</time></trkpt><trkpt lat="9.9486585" lon="-84.0700882"><ele>1179.0</ele><time>2026-04-09T12:21:35.926Z</time></trkpt><trkpt lat="9.948709" lon="-84.0701426"><ele>1177.2</ele><time>2026-04-09T12:21:36.926Z</time></trkpt><trkpt lat="9.9487584" lon="-84.0702161"><ele>1175.4</ele><time>2026-04-09T12:21:37.926Z</time></trkpt><trkpt lat="9.9488018" lon="-84.0702891"><ele>1173.6</ele><time>2026-04-09T12:21:38.926Z</time></trkpt><trkpt lat="9.9488445" lon="-84.0703602"><ele>1171.8</ele><time>2026-04-09T12:21:39.926Z</time></trkpt><trkpt lat="9.9488969" lon="-84.0704533"><ele>1170.0</ele><time>2026-04-09T12:21:40.926Z</time></trkpt><trkpt lat="9.9489445" lon="-84.0705383"><ele>1170.0</ele><time>2026-04-09T12:21:41.926Z</time></trkpt><trkpt lat="9.9489932" lon="-84.0706342"><ele>1170.0</ele><time>2026-04-09T12:21:42.926Z</time></trkpt><trkpt lat="9.9490407" lon="-84.0707291"><ele>1170.0</ele><time>2026-04-09T12:21:43.926Z</time></trkpt><trkpt lat="9.9490865" lon="-84.0708277"><ele>1170.0</ele><time>2026-04-09T12:21:44.926Z</time></trkpt><trkpt lat="9.949136" lon="-84.070931"><ele>1170.0</ele><time>2026-04-09T12:21:45.926Z</time></trkpt><trkpt lat="9.9491754" lon="-84.0710331"><ele>1170.2</ele><time>2026-04-09T12:21:46.927Z</time></trkpt><trkpt lat="9.9492114" lon="-84.0711382"><ele>1170.4</ele><time>2026-04-09T12:21:47.926Z</time></trkpt><trkpt lat="9.9492466" lon="-84.0712498"><ele>1170.6</ele><time>2026-04-09T12:21:48.926Z</time></trkpt><trkpt lat="9.9492781" lon="-84.0713589"><ele>1170.8</ele><time>2026-04-09T12:21:49.926Z</time></trkpt><trkpt lat="9.9493097" lon="-84.0714675"><ele>1171.0</ele><time>2026-04-09T12:21:50.927Z</time></trkpt><trkpt lat="9.9493417" lon="-84.0715765"><ele>1170.0</ele><time>2026-04-09T12:21:51.926Z</time></trkpt><trkpt lat="9.9493725" lon="-84.0716801"><ele>1169.0</ele><time>2026-04-09T12:21:52.926Z</time></trkpt><trkpt lat="9.949404" lon="-84.0717802"><ele>1168.0</ele><time>2026-04-09T12:21:53.926Z</time></trkpt><trkpt lat="9.9494282" lon="-84.0718776"><ele>1167.0</ele><time>2026-04-09T12:21:54.926Z</time></trkpt><trkpt lat="9.9494653" lon="-84.0719662"><ele>1166.0</ele><time>2026-04-09T12:21:55.926Z</time></trkpt><trkpt lat="9.9494955" lon="-84.0720499"><ele>1166.0</ele><time>2026-04-09T12:21:56.926Z</time></trkpt><trkpt lat="9.9495345" lon="-84.0721197"><ele>1166.0</ele><time>2026-04-09T12:21:57.926Z</time></trkpt><trkpt lat="9.949611" lon="-84.0722123"><ele>1166.0</ele><time>2026-04-09T12:21:59.926Z</time></trkpt><trkpt lat="9.9496777" lon="-84.072261"><ele>1166.0</ele><time>2026-04-09T12:22:01.926Z</time></trkpt><trkpt lat="9.9497884" lon="-84.0723042"><ele>1166.0</ele><time>2026-04-09T12:22:03.926Z</time></trkpt><trkpt lat="9.9498618" lon="-84.0723138"><ele>1166.0</ele><time>2026-04-09T12:22:04.926Z</time></trkpt><trkpt lat="9.9499411" lon="-84.0723176"><ele>1166.0</ele><time>2026-04-09T12:22:05.926Z</time></trkpt><trkpt lat="9.9500268" lon="-84.0723164"><ele>1166.0</ele><time>2026-04-09T12:22:06.926Z</time></trkpt><trkpt lat="9.9501192" lon="-84.0723122"><ele>1166.0</ele><time>2026-04-09T12:22:07.927Z</time></trkpt><trkpt lat="9.9502118" lon="-84.0723028"><ele>1166.0</ele><time>2026-04-09T12:22:08.926Z</time></trkpt><trkpt lat="9.9503033" lon="-84.0722906"><ele>1166.0</ele><time>2026-04-09T12:22:09.927Z</time></trkpt><trkpt lat="9.9504001" lon="-84.072277"><ele>1165.2</ele><time>2026-04-09T12:22:10.926Z</time></trkpt><trkpt lat="9.9504999" lon="-84.0722622"><ele>1164.3999999999999</ele><time>2026-04-09T12:22:11.926Z</time></trkpt><trkpt lat="9.950603" lon="-84.0722484"><ele>1163.6</ele><time>2026-04-09T12:22:12.926Z</time></trkpt><trkpt lat="9.9507046" lon="-84.072237"><ele>1162.8</ele><time>2026-04-09T12:22:13.926Z</time></trkpt><trkpt lat="9.9507974" lon="-84.0722228"><ele>1162.0</ele><time>2026-04-09T12:22:14.926Z</time></trkpt><trkpt lat="9.9508967" lon="-84.0722085"><ele>1161.0</ele><time>2026-04-09T12:22:15.926Z</time></trkpt><trkpt lat="9.9509894" lon="-84.0721952"><ele>1160.0</ele><time>2026-04-09T12:22:16.926Z</time></trkpt><trkpt lat="9.9510774" lon="-84.0721793"><ele>1159.0</ele><time>2026-04-09T12:22:17.926Z</time></trkpt><trkpt lat="9.951177" lon="-84.0721611"><ele>1158.0</ele><time>2026-04-09T12:22:18.926Z</time></trkpt><trkpt lat="9.9512799" lon="-84.0721476"><ele>1157.0</ele><time>2026-04-09T12:22:19.926Z</time></trkpt><trkpt lat="9.9513885" lon="-84.0721384"><ele>1157.0</ele><time>2026-04-09T12:22:20.926Z</time></trkpt><trkpt lat="9.9515065" lon="-84.0721263"><ele>1157.0</ele><time>2026-04-09T12:22:21.926Z</time></trkpt><trkpt lat="9.9516226" lon="-84.0721113"><ele>1157.0</ele><time>2026-04-09T12:22:22.927Z</time></trkpt><trkpt lat="9.9517359" lon="-84.0720961"><ele>1157.0</ele><time>2026-04-09T12:22:23.926Z</time></trkpt><trkpt lat="9.9518306" lon="-84.0720817"><ele>1157.0</ele><time>2026-04-09T12:22:24.927Z</time></trkpt><trkpt lat="9.9519132" lon="-84.0720721"><ele>1156.4</ele><time>2026-04-09T12:22:25.926Z</time></trkpt><trkpt lat="9.9519881" lon="-84.0720614"><ele>1155.8000000000002</ele><time>2026-04-09T12:22:26.926Z</time></trkpt><trkpt lat="9.9520651" lon="-84.0720546"><ele>1155.2</ele><time>2026-04-09T12:22:27.926Z</time></trkpt><trkpt lat="9.952128" lon="-84.0720464"><ele>1154.6000000000001</ele><time>2026-04-09T12:22:28.926Z</time></trkpt><trkpt lat="9.9522373" lon="-84.0720264"><ele>1154.0</ele><time>2026-04-09T12:22:30.926Z</time></trkpt><trkpt lat="9.9523691" lon="-84.0720084"><ele>1154.0</ele><time>2026-04-09T12:22:32.926Z</time></trkpt><trkpt lat="9.9524628" lon="-84.0719907"><ele>1154.0</ele><time>2026-04-09T12:22:33.926Z</time></trkpt><trkpt lat="9.9525637" lon="-84.0719775"><ele>1154.0</ele><time>2026-04-09T12:22:34.926Z</time></trkpt><trkpt lat="9.9526765" lon="-84.0719627"><ele>1154.0</ele><time>2026-04-09T12:22:35.926Z</time></trkpt><trkpt lat="9.9528015" lon="-84.0719479"><ele>1154.0</ele><time>2026-04-09T12:22:36.926Z</time></trkpt><trkpt lat="9.9529338" lon="-84.0719286"><ele>1154.25</ele><time>2026-04-09T12:22:37.926Z</time></trkpt><trkpt lat="9.9530723" lon="-84.0719067"><ele>1154.5</ele><time>2026-04-09T12:22:38.926Z</time></trkpt><trkpt lat="9.9532135" lon="-84.0718864"><ele>1154.75</ele><time>2026-04-09T12:22:39.926Z</time></trkpt><trkpt lat="9.9533644" lon="-84.0718645"><ele>1155.0</ele><time>2026-04-09T12:22:40.926Z</time></trkpt><trkpt lat="9.9535152" lon="-84.0718394"><ele>1156.0</ele><time>2026-04-09T12:22:41.926Z</time></trkpt><trkpt lat="9.9536664" lon="-84.0718116"><ele>1157.0</ele><time>2026-04-09T12:22:42.926Z</time></trkpt><trkpt lat="9.9538198" lon="-84.0717859"><ele>1158.0</ele><time>2026-04-09T12:22:43.926Z</time></trkpt><trkpt lat="9.9539726" lon="-84.0717615"><ele>1158.0</ele><time>2026-04-09T12:22:44.926Z</time></trkpt><trkpt lat="9.9541288" lon="-84.0717342"><ele>1158.0</ele><time>2026-04-09T12:22:45.926Z</time></trkpt><trkpt lat="9.9542878" lon="-84.0717065"><ele>1158.0</ele><time>2026-04-09T12:22:46.926Z</time></trkpt><trkpt lat="9.9544482" lon="-84.0716837"><ele>1160.0</ele><time>2026-04-09T12:22:47.926Z</time></trkpt><trkpt lat="9.9546039" lon="-84.0716568"><ele>1162.0</ele><time>2026-04-09T12:22:48.926Z</time></trkpt><trkpt lat="9.9547629" lon="-84.0716307"><ele>1164.0</ele><time>2026-04-09T12:22:49.926Z</time></trkpt><trkpt lat="9.9549183" lon="-84.0716013"><ele>1166.0</ele><time>2026-04-09T12:22:50.926Z</time></trkpt><trkpt lat="9.955075" lon="-84.0715722"><ele>1168.0</ele><time>2026-04-09T12:22:51.926Z</time></trkpt><trkpt lat="9.955231" lon="-84.0715411"><ele>1170.0</ele><time>2026-04-09T12:22:52.926Z</time></trkpt><trkpt lat="9.9553928" lon="-84.0715165"><ele>1170.0</ele><time>2026-04-09T12:22:53.926Z</time></trkpt><trkpt lat="9.9555505" lon="-84.0714919"><ele>1170.0</ele><time>2026-04-09T12:22:54.926Z</time></trkpt><trkpt lat="9.9557057" lon="-84.0714692"><ele>1170.0</ele><time>2026-04-09T12:22:55.926Z</time></trkpt><trkpt lat="9.9558628" lon="-84.0714441"><ele>1169.6666666666667</ele><time>2026-04-09T12:22:56.926Z</time></trkpt><trkpt lat="9.9560174" lon="-84.0714212"><ele>1169.3333333333335</ele><time>2026-04-09T12:22:57.926Z</time></trkpt><trkpt lat="9.956169" lon="-84.0713968"><ele>1169.0</ele><time>2026-04-09T12:22:58.926Z</time></trkpt><trkpt lat="9.9563263" lon="-84.0713709"><ele>1169.0</ele><time>2026-04-09T12:22:59.926Z</time></trkpt><trkpt lat="9.9564846" lon="-84.071345"><ele>1169.0</ele><time>2026-04-09T12:23:00.926Z</time></trkpt><trkpt lat="9.9566466" lon="-84.0713299"><ele>1169.0</ele><time>2026-04-09T12:23:01.926Z</time></trkpt><trkpt lat="9.9568098" lon="-84.0713097"><ele>1168.3333333333335</ele><time>2026-04-09T12:23:02.926Z</time></trkpt><trkpt lat="9.9569763" lon="-84.0712899"><ele>1167.6666666666667</ele><time>2026-04-09T12:23:03.926Z</time></trkpt><trkpt lat="9.9571459" lon="-84.0712712"><ele>1167.0</ele><time>2026-04-09T12:23:04.926Z</time></trkpt><trkpt lat="9.9573116" lon="-84.0712584"><ele>1167.0</ele><time>2026-04-09T12:23:05.926Z</time></trkpt><trkpt lat="9.9574764" lon="-84.071249"><ele>1167.0</ele><time>2026-04-09T12:23:06.926Z</time></trkpt><trkpt lat="9.9576435" lon="-84.071244"><ele>1167.0</ele><time>2026-04-09T12:23:07.926Z</time></trkpt><trkpt lat="9.9578132" lon="-84.0712468"><ele>1167.6666666666667</ele><time>2026-04-09T12:23:08.926Z</time></trkpt><trkpt lat="9.9579837" lon="-84.0712523"><ele>1168.3333333333335</ele><time>2026-04-09T12:23:09.926Z</time></trkpt><trkpt lat="9.958154" lon="-84.0712638"><ele>1169.0</ele><time>2026-04-09T12:23:10.926Z</time></trkpt><trkpt lat="9.958328" lon="-84.0712792"><ele>1169.6666666666667</ele><time>2026-04-09T12:23:11.926Z</time></trkpt><trkpt lat="9.958495" lon="-84.0712992"><ele>1170.3333333333333</ele><time>2026-04-09T12:23:12.926Z</time></trkpt><trkpt lat="9.9586637" lon="-84.0713255"><ele>1171.0</ele><time>2026-04-09T12:23:13.926Z</time></trkpt><trkpt lat="9.9588372" lon="-84.0713561"><ele>1171.0</ele><time>2026-04-09T12:23:14.927Z</time></trkpt><trkpt lat="9.9590074" lon="-84.0714001"><ele>1171.0</ele><time>2026-04-09T12:23:15.926Z</time></trkpt><trkpt lat="9.9591771" lon="-84.0714469"><ele>1171.0</ele><time>2026-04-09T12:23:16.926Z</time></trkpt><trkpt lat="9.959348" lon="-84.0715027"><ele>1171.3333333333333</ele><time>2026-04-09T12:23:17.926Z</time></trkpt><trkpt lat="9.9595166" lon="-84.0715615"><ele>1171.6666666666667</ele><time>2026-04-09T12:23:18.926Z</time></trkpt><trkpt lat="9.959684" lon="-84.0716221"><ele>1172.0</ele><time>2026-04-09T12:23:19.926Z</time></trkpt><trkpt lat="9.9598505" lon="-84.0716864"><ele>1172.0</ele><time>2026-04-09T12:23:20.927Z</time></trkpt><trkpt lat="9.9600122" lon="-84.0717534"><ele>1172.0</ele><time>2026-04-09T12:23:21.927Z</time></trkpt><trkpt lat="9.9601704" lon="-84.0718184"><ele>1172.0</ele><time>2026-04-09T12:23:22.926Z</time></trkpt><trkpt lat="9.9603326" lon="-84.0718868"><ele>1172.0</ele><time>2026-04-09T12:23:23.926Z</time></trkpt><trkpt lat="9.9604907" lon="-84.0719603"><ele>1172.0</ele><time>2026-04-09T12:23:24.926Z</time></trkpt><trkpt lat="9.9606578" lon="-84.0720278"><ele>1172.0</ele><time>2026-04-09T12:23:25.926Z</time></trkpt><trkpt lat="9.9608233" lon="-84.0720943"><ele>1172.6666666666667</ele><time>2026-04-09T12:23:26.926Z</time></trkpt><trkpt lat="9.9609878" lon="-84.0721667"><ele>1173.3333333333333</ele><time>2026-04-09T12:23:27.926Z</time></trkpt><trkpt lat="9.9611529" lon="-84.0722394"><ele>1174.0</ele><time>2026-04-09T12:23:28.926Z</time></trkpt><trkpt lat="9.961318" lon="-84.0723134"><ele>1174.0</ele><time>2026-04-09T12:23:29.926Z</time></trkpt><trkpt lat="9.9614825" lon="-84.0723837"><ele>1174.0</ele><time>2026-04-09T12:23:30.926Z</time></trkpt><trkpt lat="9.9616475" lon="-84.0724539"><ele>1174.0</ele><time>2026-04-09T12:23:31.926Z</time></trkpt><trkpt lat="9.9618122" lon="-84.072525"><ele>1174.3333333333333</ele><time>2026-04-09T12:23:32.926Z</time></trkpt><trkpt lat="9.9619744" lon="-84.0725938"><ele>1174.6666666666667</ele><time>2026-04-09T12:23:33.927Z</time></trkpt><trkpt lat="9.9621391" lon="-84.0726601"><ele>1175.0</ele><time>2026-04-09T12:23:34.926Z</time></trkpt><trkpt lat="9.9622981" lon="-84.0727263"><ele>1175.0</ele><time>2026-04-09T12:23:35.926Z</time></trkpt><trkpt lat="9.9624516" lon="-84.0727919"><ele>1175.0</ele><time>2026-04-09T12:23:36.926Z</time></trkpt><trkpt lat="9.9626159" lon="-84.0728559"><ele>1175.0</ele><time>2026-04-09T12:23:37.926Z</time></trkpt><trkpt lat="9.9627859" lon="-84.0729217"><ele>1175.6666666666667</ele><time>2026-04-09T12:23:38.926Z</time></trkpt><trkpt lat="9.9629445" lon="-84.0729831"><ele>1176.3333333333333</ele><time>2026-04-09T12:23:39.926Z</time></trkpt><trkpt lat="9.9631026" lon="-84.0730464"><ele>1177.0</ele><time>2026-04-09T12:23:40.926Z</time></trkpt><trkpt lat="9.963257" lon="-84.0731046"><ele>1178.0</ele><time>2026-04-09T12:23:41.927Z</time></trkpt><trkpt lat="9.9634066" lon="-84.0731596"><ele>1179.0</ele><time>2026-04-09T12:23:42.926Z</time></trkpt><trkpt lat="9.9635583" lon="-84.0732039"><ele>1180.0</ele><time>2026-04-09T12:23:43.926Z</time></trkpt><trkpt lat="9.9637107" lon="-84.0732382"><ele>1180.0</ele><time>2026-04-09T12:23:44.926Z</time></trkpt><trkpt lat="9.9638695" lon="-84.0732636"><ele>1180.0</ele><time>2026-04-09T12:23:45.926Z</time></trkpt><trkpt lat="9.9640289" lon="-84.0732893"><ele>1180.0</ele><time>2026-04-09T12:23:46.926Z</time></trkpt><trkpt lat="9.964191" lon="-84.0733135"><ele>1179.6666666666665</ele><time>2026-04-09T12:23:47.926Z</time></trkpt><trkpt lat="9.9643573" lon="-84.0733347"><ele>1179.3333333333333</ele><time>2026-04-09T12:23:48.926Z</time></trkpt><trkpt lat="9.9645349" lon="-84.0733528"><ele>1179.0</ele><time>2026-04-09T12:23:49.926Z</time></trkpt><trkpt lat="9.9647137" lon="-84.0733692"><ele>1179.0</ele><time>2026-04-09T12:23:50.926Z</time></trkpt><trkpt lat="9.9648948" lon="-84.0733809"><ele>1179.0</ele><time>2026-04-09T12:23:51.926Z</time></trkpt><trkpt lat="9.9650768" lon="-84.0733875"><ele>1179.0</ele><time>2026-04-09T12:23:52.926Z</time></trkpt><trkpt lat="9.9652641" lon="-84.0733981"><ele>1179.3333333333333</ele><time>2026-04-09T12:23:53.926Z</time></trkpt><trkpt lat="9.9654502" lon="-84.0734113"><ele>1179.6666666666665</ele><time>2026-04-09T12:23:54.926Z</time></trkpt><trkpt lat="9.9656407" lon="-84.0734259"><ele>1180.0</ele><time>2026-04-09T12:23:55.926Z</time></trkpt><trkpt lat="9.9658277" lon="-84.0734406"><ele>1179.3333333333333</ele><time>2026-04-09T12:23:56.926Z</time></trkpt><trkpt lat="9.9660172" lon="-84.0734604"><ele>1178.6666666666667</ele><time>2026-04-09T12:23:57.926Z</time></trkpt><trkpt lat="9.9662011" lon="-84.0734814"><ele>1178.0</ele><time>2026-04-09T12:23:58.926Z</time></trkpt><trkpt lat="9.9663841" lon="-84.0735079"><ele>1178.0</ele><time>2026-04-09T12:23:59.926Z</time></trkpt><trkpt lat="9.9665691" lon="-84.0735354"><ele>1178.0</ele><time>2026-04-09T12:24:00.926Z</time></trkpt><trkpt lat="9.9667494" lon="-84.0735618"><ele>1178.0</ele><time>2026-04-09T12:24:01.926Z</time></trkpt><trkpt lat="9.9669362" lon="-84.0735871"><ele>1174.6666666666667</ele><time>2026-04-09T12:24:02.926Z</time></trkpt><trkpt lat="9.9671163" lon="-84.0736063"><ele>1171.3333333333333</ele><time>2026-04-09T12:24:03.926Z</time></trkpt><trkpt lat="9.9672934" lon="-84.0736224"><ele>1168.0</ele><time>2026-04-09T12:24:04.926Z</time></trkpt><trkpt lat="9.9674738" lon="-84.0736371"><ele>1153.0</ele><time>2026-04-09T12:24:05.926Z</time></trkpt><trkpt lat="9.9676532" lon="-84.0736519"><ele>1138.0</ele><time>2026-04-09T12:24:06.926Z</time></trkpt><trkpt lat="9.9678234" lon="-84.0736575"><ele>1123.0</ele><time>2026-04-09T12:24:07.926Z</time></trkpt><trkpt lat="9.9680061" lon="-84.0736658"><ele>1123.0</ele><time>2026-04-09T12:24:08.926Z</time></trkpt><trkpt lat="9.9681825" lon="-84.0736777"><ele>1123.0</ele><time>2026-04-09T12:24:09.926Z</time></trkpt><trkpt lat="9.9683513" lon="-84.0736874"><ele>1123.0</ele><time>2026-04-09T12:24:10.926Z</time></trkpt><trkpt lat="9.9685228" lon="-84.0736924"><ele>1127.0</ele><time>2026-04-09T12:24:11.926Z</time></trkpt><trkpt lat="9.9686996" lon="-84.0737004"><ele>1131.0</ele><time>2026-04-09T12:24:12.926Z</time></trkpt><trkpt lat="9.9688626" lon="-84.0737123"><ele>1135.0</ele><time>2026-04-09T12:24:13.926Z</time></trkpt><trkpt lat="9.9690331" lon="-84.0737162"><ele>1149.0</ele><time>2026-04-09T12:24:14.926Z</time></trkpt><trkpt lat="9.9692086" lon="-84.0737317"><ele>1163.0</ele><time>2026-04-09T12:24:15.927Z</time></trkpt><trkpt lat="9.9693812" lon="-84.0737375"><ele>1177.0</ele><time>2026-04-09T12:24:16.926Z</time></trkpt><trkpt lat="9.9695543" lon="-84.0737405"><ele>1177.0</ele><time>2026-04-09T12:24:17.926Z</time></trkpt><trkpt lat="9.9697221" lon="-84.0737505"><ele>1177.0</ele><time>2026-04-09T12:24:18.926Z</time></trkpt><trkpt lat="9.9698912" lon="-84.0737641"><ele>1177.0</ele><time>2026-04-09T12:24:19.926Z</time></trkpt><trkpt lat="9.9700544" lon="-84.0737671"><ele>1179.6666666666665</ele><time>2026-04-09T12:24:20.926Z</time></trkpt><trkpt lat="9.9702122" lon="-84.0737683"><ele>1182.3333333333333</ele><time>2026-04-09T12:24:21.926Z</time></trkpt><trkpt lat="9.9703736" lon="-84.0737678"><ele>1185.0</ele><time>2026-04-09T12:24:22.926Z</time></trkpt><trkpt lat="9.97053" lon="-84.0737606"><ele>1185.0</ele><time>2026-04-09T12:24:23.926Z</time></trkpt><trkpt lat="9.9706862" lon="-84.073746"><ele>1185.0</ele><time>2026-04-09T12:24:24.926Z</time></trkpt><trkpt lat="9.9708464" lon="-84.0737267"><ele>1185.0</ele><time>2026-04-09T12:24:25.926Z</time></trkpt><trkpt lat="9.971" lon="-84.0736982"><ele>1187.0</ele><time>2026-04-09T12:24:26.926Z</time></trkpt><trkpt lat="9.971153" lon="-84.0736583"><ele>1189.0</ele><time>2026-04-09T12:24:27.926Z</time></trkpt><trkpt lat="9.9713074" lon="-84.0736128"><ele>1191.0</ele><time>2026-04-09T12:24:28.926Z</time></trkpt><trkpt lat="9.971459" lon="-84.0735584"><ele>1191.0</ele><time>2026-04-09T12:24:29.926Z</time></trkpt><trkpt lat="9.9716094" lon="-84.0735005"><ele>1191.0</ele><time>2026-04-09T12:24:30.926Z</time></trkpt><trkpt lat="9.9717586" lon="-84.0734441"><ele>1191.0</ele><time>2026-04-09T12:24:31.926Z</time></trkpt><trkpt lat="9.9718946" lon="-84.0733717"><ele>1191.0</ele><time>2026-04-09T12:24:32.926Z</time></trkpt><trkpt lat="9.972029" lon="-84.0732966"><ele>1191.0</ele><time>2026-04-09T12:24:33.926Z</time></trkpt><trkpt lat="9.9721591" lon="-84.0732163"><ele>1191.0</ele><time>2026-04-09T12:24:34.926Z</time></trkpt><trkpt lat="9.9722893" lon="-84.0731243"><ele>1191.0</ele><time>2026-04-09T12:24:35.926Z</time></trkpt><trkpt lat="9.9724143" lon="-84.0730252"><ele>1191.0</ele><time>2026-04-09T12:24:36.926Z</time></trkpt><trkpt lat="9.9725338" lon="-84.0729222"><ele>1191.0</ele><time>2026-04-09T12:24:37.926Z</time></trkpt><trkpt lat="9.9726502" lon="-84.0728081"><ele>1191.0</ele><time>2026-04-09T12:24:38.926Z</time></trkpt><trkpt lat="9.9727622" lon="-84.0726854"><ele>1191.0</ele><time>2026-04-09T12:24:39.926Z</time></trkpt><trkpt lat="9.9728675" lon="-84.0725625"><ele>1191.0</ele><time>2026-04-09T12:24:40.926Z</time></trkpt><trkpt lat="9.9729656" lon="-84.072432"><ele>1191.0</ele><time>2026-04-09T12:24:41.926Z</time></trkpt><trkpt lat="9.9730571" lon="-84.0722955"><ele>1191.0</ele><time>2026-04-09T12:24:42.926Z</time></trkpt><trkpt lat="9.9731385" lon="-84.0721519"><ele>1191.0</ele><time>2026-04-09T12:24:43.927Z</time></trkpt><trkpt lat="9.9732106" lon="-84.0720033"><ele>1191.0</ele><time>2026-04-09T12:24:44.926Z</time></trkpt><trkpt lat="9.9732744" lon="-84.0718576"><ele>1191.0</ele><time>2026-04-09T12:24:45.926Z</time></trkpt><trkpt lat="9.9733286" lon="-84.0717158"><ele>1191.0</ele><time>2026-04-09T12:24:46.926Z</time></trkpt><trkpt lat="9.9733703" lon="-84.0715759"><ele>1186.5</ele><time>2026-04-09T12:24:47.926Z</time></trkpt><trkpt lat="9.9734095" lon="-84.0714415"><ele>1182.0</ele><time>2026-04-09T12:24:48.926Z</time></trkpt><trkpt lat="9.9734486" lon="-84.0713117"><ele>1177.5</ele><time>2026-04-09T12:24:49.926Z</time></trkpt><trkpt lat="9.9734823" lon="-84.0711823"><ele>1173.0</ele><time>2026-04-09T12:24:50.926Z</time></trkpt><trkpt lat="9.9735127" lon="-84.0710575"><ele>1173.0</ele><time>2026-04-09T12:24:51.926Z</time></trkpt><trkpt lat="9.9735469" lon="-84.0709394"><ele>1173.0</ele><time>2026-04-09T12:24:52.926Z</time></trkpt><trkpt lat="9.9735721" lon="-84.0708314"><ele>1173.0</ele><time>2026-04-09T12:24:53.926Z</time></trkpt><trkpt lat="9.9735971" lon="-84.0707296"><ele>1173.0</ele><time>2026-04-09T12:24:54.926Z</time></trkpt><trkpt lat="9.9736179" lon="-84.070639"><ele>1173.0</ele><time>2026-04-09T12:24:55.926Z</time></trkpt><trkpt lat="9.97364" lon="-84.0705585"><ele>1175.0000000000002</ele><time>2026-04-09T12:24:56.926Z</time></trkpt><trkpt lat="9.9736582" lon="-84.07048"><ele>1177.0</ele><time>2026-04-09T12:24:57.926Z</time></trkpt><trkpt lat="9.9736739" lon="-84.0704061"><ele>1179.0</ele><time>2026-04-09T12:24:58.926Z</time></trkpt><trkpt lat="9.9736876" lon="-84.0703355"><ele>1181.0</ele><time>2026-04-09T12:24:59.926Z</time></trkpt><trkpt lat="9.9737012" lon="-84.0702677"><ele>1183.0</ele><time>2026-04-09T12:25:00.927Z</time></trkpt><trkpt lat="9.9737187" lon="-84.0701931"><ele>1185.0000000000002</ele><time>2026-04-09T12:25:01.926Z</time></trkpt><trkpt lat="9.9737426" lon="-84.0701161"><ele>1187.0</ele><time>2026-04-09T12:25:02.926Z</time></trkpt><trkpt lat="9.9737626" lon="-84.070035"><ele>1187.0</ele><time>2026-04-09T12:25:03.927Z</time></trkpt><trkpt lat="9.9737793" lon="-84.0699516"><ele>1187.0</ele><time>2026-04-09T12:25:04.926Z</time></trkpt><trkpt lat="9.9738031" lon="-84.0698629"><ele>1187.0</ele><time>2026-04-09T12:25:05.927Z</time></trkpt><trkpt lat="9.9738276" lon="-84.0697712"><ele>1187.0</ele><time>2026-04-09T12:25:06.926Z</time></trkpt><trkpt lat="9.9738501" lon="-84.0696834"><ele>1187.0</ele><time>2026-04-09T12:25:07.926Z</time></trkpt><trkpt lat="9.9738728" lon="-84.0695954"><ele>1187.0</ele><time>2026-04-09T12:25:08.926Z</time></trkpt><trkpt lat="9.973894" lon="-84.0695071"><ele>1188.0</ele><time>2026-04-09T12:25:09.926Z</time></trkpt><trkpt lat="9.9739189" lon="-84.0694167"><ele>1189.0</ele><time>2026-04-09T12:25:10.926Z</time></trkpt><trkpt lat="9.9739437" lon="-84.069324"><ele>1190.0</ele><time>2026-04-09T12:25:11.926Z</time></trkpt><trkpt lat="9.9739686" lon="-84.0692294"><ele>1191.0</ele><time>2026-04-09T12:25:12.926Z</time></trkpt><trkpt lat="9.9739921" lon="-84.0691323"><ele>1192.0</ele><time>2026-04-09T12:25:13.926Z</time></trkpt><trkpt lat="9.9740137" lon="-84.0690366"><ele>1192.2</ele><time>2026-04-09T12:25:14.926Z</time></trkpt><trkpt lat="9.9740397" lon="-84.0689414"><ele>1192.4</ele><time>2026-04-09T12:25:15.926Z</time></trkpt><trkpt lat="9.9740668" lon="-84.0688431"><ele>1192.6</ele><time>2026-04-09T12:25:16.926Z</time></trkpt><trkpt lat="9.9740947" lon="-84.0687415"><ele>1192.8</ele><time>2026-04-09T12:25:17.926Z</time></trkpt><trkpt lat="9.9741162" lon="-84.0686437"><ele>1193.0</ele><time>2026-04-09T12:25:18.926Z</time></trkpt><trkpt lat="9.974145" lon="-84.068536"><ele>1193.0</ele><time>2026-04-09T12:25:19.926Z</time></trkpt><trkpt lat="9.9741762" lon="-84.068425"><ele>1193.0</ele><time>2026-04-09T12:25:20.926Z</time></trkpt><trkpt lat="9.9742082" lon="-84.0683135"><ele>1193.0</ele><time>2026-04-09T12:25:21.926Z</time></trkpt><trkpt lat="9.9742439" lon="-84.0681988"><ele>1193.0</ele><time>2026-04-09T12:25:22.926Z</time></trkpt><trkpt lat="9.9742779" lon="-84.0680845"><ele>1188.0</ele><time>2026-04-09T12:25:23.926Z</time></trkpt><trkpt lat="9.9743104" lon="-84.0679654"><ele>1183.0</ele><time>2026-04-09T12:25:24.926Z</time></trkpt><trkpt lat="9.9743471" lon="-84.0678449"><ele>1178.0</ele><time>2026-04-09T12:25:25.926Z</time></trkpt><trkpt lat="9.9743792" lon="-84.0677267"><ele>1173.0</ele><time>2026-04-09T12:25:26.926Z</time></trkpt><trkpt lat="9.9744187" lon="-84.0676048"><ele>1173.0</ele><time>2026-04-09T12:25:27.926Z</time></trkpt><trkpt lat="9.9744595" lon="-84.0674826"><ele>1173.0</ele><time>2026-04-09T12:25:28.926Z</time></trkpt><trkpt lat="9.9744997" lon="-84.0673541"><ele>1173.0</ele><time>2026-04-09T12:25:29.926Z</time></trkpt><trkpt lat="9.9745439" lon="-84.0672291"><ele>1173.0</ele><time>2026-04-09T12:25:30.926Z</time></trkpt><trkpt lat="9.9745858" lon="-84.067108"><ele>1176.75</ele><time>2026-04-09T12:25:31.926Z</time></trkpt><trkpt lat="9.9746296" lon="-84.0669844"><ele>1180.5</ele><time>2026-04-09T12:25:32.926Z</time></trkpt><trkpt lat="9.9746744" lon="-84.0668633"><ele>1184.25</ele><time>2026-04-09T12:25:33.926Z</time></trkpt><trkpt lat="9.97472" lon="-84.0667391"><ele>1188.0</ele><time>2026-04-09T12:25:34.926Z</time></trkpt><trkpt lat="9.9747648" lon="-84.0666167"><ele>1188.75</ele><time>2026-04-09T12:25:35.926Z</time></trkpt><trkpt lat="9.9748086" lon="-84.0664944"><ele>1189.5</ele><time>2026-04-09T12:25:36.926Z</time></trkpt><trkpt lat="9.974859" lon="-84.06637"><ele>1190.25</ele><time>2026-04-09T12:25:37.926Z</time></trkpt><trkpt lat="9.9749114" lon="-84.0662466"><ele>1191.0</ele><time>2026-04-09T12:25:38.926Z</time></trkpt><trkpt lat="9.974963" lon="-84.066118"><ele>1191.0</ele><time>2026-04-09T12:25:39.926Z</time></trkpt><trkpt lat="9.9750149" lon="-84.0659941"><ele>1191.0</ele><time>2026-04-09T12:25:40.926Z</time></trkpt><trkpt lat="9.9750624" lon="-84.0658658"><ele>1191.0</ele><time>2026-04-09T12:25:41.927Z</time></trkpt><trkpt lat="9.9751042" lon="-84.0657355"><ele>1191.0</ele><time>2026-04-09T12:25:42.926Z</time></trkpt><trkpt lat="9.9751504" lon="-84.0656008"><ele>1191.5</ele><time>2026-04-09T12:25:43.926Z</time></trkpt><trkpt lat="9.9752017" lon="-84.0654628"><ele>1192.0</ele><time>2026-04-09T12:25:44.927Z</time></trkpt><trkpt lat="9.9752519" lon="-84.0653223"><ele>1192.5</ele><time>2026-04-09T12:25:45.926Z</time></trkpt><trkpt lat="9.9753066" lon="-84.0651824"><ele>1193.0</ele><time>2026-04-09T12:25:46.926Z</time></trkpt><trkpt lat="9.9753599" lon="-84.0650433"><ele>1196.6666666666667</ele><time>2026-04-09T12:25:47.926Z</time></trkpt><trkpt lat="9.9754152" lon="-84.0649012"><ele>1200.3333333333333</ele><time>2026-04-09T12:25:48.926Z</time></trkpt><trkpt lat="9.9754781" lon="-84.0647536"><ele>1204.0</ele><time>2026-04-09T12:25:49.926Z</time></trkpt><trkpt lat="9.9755432" lon="-84.0646055"><ele>1204.0</ele><time>2026-04-09T12:25:50.926Z</time></trkpt><trkpt lat="9.9756101" lon="-84.0644546"><ele>1204.0</ele><time>2026-04-09T12:25:51.926Z</time></trkpt><trkpt lat="9.9756743" lon="-84.0643082"><ele>1204.0</ele><time>2026-04-09T12:25:52.926Z</time></trkpt><trkpt lat="9.9757365" lon="-84.0641586"><ele>1204.0</ele><time>2026-04-09T12:25:53.926Z</time></trkpt><trkpt lat="9.9757999" lon="-84.064008"><ele>1204.0</ele><time>2026-04-09T12:25:54.926Z</time></trkpt><trkpt lat="9.9758631" lon="-84.0638607"><ele>1204.0</ele><time>2026-04-09T12:25:55.926Z</time></trkpt><trkpt lat="9.9759254" lon="-84.063714"><ele>1204.0</ele><time>2026-04-09T12:25:56.926Z</time></trkpt><trkpt lat="9.9759926" lon="-84.0635672"><ele>1204.0</ele><time>2026-04-09T12:25:57.926Z</time></trkpt><trkpt lat="9.9760551" lon="-84.0634186"><ele>1204.0</ele><time>2026-04-09T12:25:58.926Z</time></trkpt><trkpt lat="9.9761096" lon="-84.0632739"><ele>1205.6666666666665</ele><time>2026-04-09T12:25:59.926Z</time></trkpt><trkpt lat="9.976172" lon="-84.0631289"><ele>1207.3333333333333</ele><time>2026-04-09T12:26:00.926Z</time></trkpt><trkpt lat="9.9762324" lon="-84.0629845"><ele>1209.0</ele><time>2026-04-09T12:26:01.927Z</time></trkpt><trkpt lat="9.9762913" lon="-84.0628375"><ele>1209.0</ele><time>2026-04-09T12:26:02.926Z</time></trkpt><trkpt lat="9.9763542" lon="-84.0626929"><ele>1209.0</ele><time>2026-04-09T12:26:03.926Z</time></trkpt><trkpt lat="9.9764198" lon="-84.0625491"><ele>1209.0</ele><time>2026-04-09T12:26:04.926Z</time></trkpt><trkpt lat="9.9764823" lon="-84.062403"><ele>1209.3333333333333</ele><time>2026-04-09T12:26:05.926Z</time></trkpt><trkpt lat="9.9765473" lon="-84.0622633"><ele>1209.6666666666665</ele><time>2026-04-09T12:26:06.926Z</time></trkpt><trkpt lat="9.9766122" lon="-84.06212"><ele>1210.0</ele><time>2026-04-09T12:26:07.926Z</time></trkpt><trkpt lat="9.9766802" lon="-84.0619718"><ele>1209.3333333333333</ele><time>2026-04-09T12:26:08.927Z</time></trkpt><trkpt lat="9.976745" lon="-84.0618218"><ele>1208.6666666666667</ele><time>2026-04-09T12:26:09.926Z</time></trkpt><trkpt lat="9.9768051" lon="-84.0616767"><ele>1208.0</ele><time>2026-04-09T12:26:10.926Z</time></trkpt><trkpt lat="9.9768666" lon="-84.0615318"><ele>1208.0</ele><time>2026-04-09T12:26:11.926Z</time></trkpt><trkpt lat="9.9769215" lon="-84.0613835"><ele>1208.0</ele><time>2026-04-09T12:26:12.926Z</time></trkpt><trkpt lat="9.9769853" lon="-84.0612378"><ele>1208.0</ele><time>2026-04-09T12:26:13.926Z</time></trkpt><trkpt lat="9.9770499" lon="-84.0610935"><ele>1208.0</ele><time>2026-04-09T12:26:14.926Z</time></trkpt><trkpt lat="9.9771139" lon="-84.0609484"><ele>1208.0</ele><time>2026-04-09T12:26:15.926Z</time></trkpt><trkpt lat="9.977176" lon="-84.0608026"><ele>1208.0</ele><time>2026-04-09T12:26:16.926Z</time></trkpt><trkpt lat="9.977238" lon="-84.0606572"><ele>1210.3333333333335</ele><time>2026-04-09T12:26:17.926Z</time></trkpt><trkpt lat="9.9773034" lon="-84.0605078"><ele>1212.6666666666667</ele><time>2026-04-09T12:26:18.926Z</time></trkpt><trkpt lat="9.977368" lon="-84.0603586"><ele>1215.0</ele><time>2026-04-09T12:26:19.926Z</time></trkpt><trkpt lat="9.9774238" lon="-84.0602162"><ele>1215.0</ele><time>2026-04-09T12:26:20.926Z</time></trkpt><trkpt lat="9.9774882" lon="-84.0600712"><ele>1215.0</ele><time>2026-04-09T12:26:21.926Z</time></trkpt><trkpt lat="9.9775513" lon="-84.0599256"><ele>1215.0</ele><time>2026-04-09T12:26:22.926Z</time></trkpt><trkpt lat="9.9776134" lon="-84.0597805"><ele>1216.3333333333333</ele><time>2026-04-09T12:26:23.926Z</time></trkpt><trkpt lat="9.9776676" lon="-84.0596377"><ele>1217.6666666666665</ele><time>2026-04-09T12:26:24.926Z</time></trkpt><trkpt lat="9.9777334" lon="-84.0594919"><ele>1219.0</ele><time>2026-04-09T12:26:25.926Z</time></trkpt><trkpt lat="9.9777942" lon="-84.0593463"><ele>1219.0</ele><time>2026-04-09T12:26:26.926Z</time></trkpt><trkpt lat="9.977856" lon="-84.059202"><ele>1219.0</ele><time>2026-04-09T12:26:27.926Z</time></trkpt><trkpt lat="9.9779194" lon="-84.0590542"><ele>1219.0</ele><time>2026-04-09T12:26:28.926Z</time></trkpt><trkpt lat="9.9779863" lon="-84.0589072"><ele>1218.6666666666665</ele><time>2026-04-09T12:26:29.926Z</time></trkpt><trkpt lat="9.9780486" lon="-84.0587619"><ele>1218.3333333333333</ele><time>2026-04-09T12:26:30.926Z</time></trkpt><trkpt lat="9.9781122" lon="-84.0586172"><ele>1218.0</ele><time>2026-04-09T12:26:31.926Z</time></trkpt><trkpt lat="9.9781746" lon="-84.0584701"><ele>1218.0</ele><time>2026-04-09T12:26:32.926Z</time></trkpt><trkpt lat="9.9782358" lon="-84.0583302"><ele>1218.0</ele><time>2026-04-09T12:26:33.926Z</time></trkpt><trkpt lat="9.9783007" lon="-84.0581854"><ele>1218.0</ele><time>2026-04-09T12:26:34.926Z</time></trkpt><trkpt lat="9.9783574" lon="-84.0580491"><ele>1218.5</ele><time>2026-04-09T12:26:35.926Z</time></trkpt><trkpt lat="9.9784121" lon="-84.0579065"><ele>1219.0</ele><time>2026-04-09T12:26:36.926Z</time></trkpt><trkpt lat="9.9784694" lon="-84.0577676"><ele>1219.5</ele><time>2026-04-09T12:26:37.926Z</time></trkpt><trkpt lat="9.9785224" lon="-84.0576295"><ele>1220.0</ele><time>2026-04-09T12:26:38.926Z</time></trkpt><trkpt lat="9.9785777" lon="-84.0574851"><ele>1222.6666666666667</ele><time>2026-04-09T12:26:39.926Z</time></trkpt><trkpt lat="9.978627" lon="-84.0573391"><ele>1225.3333333333333</ele><time>2026-04-09T12:26:40.926Z</time></trkpt><trkpt lat="9.9786706" lon="-84.057193"><ele>1228.0</ele><time>2026-04-09T12:26:41.926Z</time></trkpt><trkpt lat="9.978715" lon="-84.0570491"><ele>1228.0</ele><time>2026-04-09T12:26:42.926Z</time></trkpt><trkpt lat="9.978758" lon="-84.0569013"><ele>1228.0</ele><time>2026-04-09T12:26:43.926Z</time></trkpt><trkpt lat="9.9787982" lon="-84.0567532"><ele>1228.0</ele><time>2026-04-09T12:26:44.926Z</time></trkpt><trkpt lat="9.9788362" lon="-84.0566039"><ele>1229.25</ele><time>2026-04-09T12:26:45.926Z</time></trkpt><trkpt lat="9.978868" lon="-84.0564548"><ele>1230.5</ele><time>2026-04-09T12:26:46.926Z</time></trkpt><trkpt lat="9.9788981" lon="-84.0563069"><ele>1231.75</ele><time>2026-04-09T12:26:47.926Z</time></trkpt><trkpt lat="9.9789248" lon="-84.05616"><ele>1233.0</ele><time>2026-04-09T12:26:48.926Z</time></trkpt><trkpt lat="9.9789574" lon="-84.0560108"><ele>1233.0</ele><time>2026-04-09T12:26:49.926Z</time></trkpt><trkpt lat="9.9789858" lon="-84.0558643"><ele>1233.0</ele><time>2026-04-09T12:26:50.926Z</time></trkpt><trkpt lat="9.9790166" lon="-84.0557039"><ele>1233.0</ele><time>2026-04-09T12:26:51.926Z</time></trkpt><trkpt lat="9.9790425" lon="-84.0555461"><ele>1233.25</ele><time>2026-04-09T12:26:52.926Z</time></trkpt><trkpt lat="9.9790649" lon="-84.0554005"><ele>1233.5</ele><time>2026-04-09T12:26:53.926Z</time></trkpt><trkpt lat="9.9790872" lon="-84.0552506"><ele>1233.75</ele><time>2026-04-09T12:26:54.926Z</time></trkpt><trkpt lat="9.9791023" lon="-84.0550946"><ele>1234.0</ele><time>2026-04-09T12:26:55.927Z</time></trkpt><trkpt lat="9.9791099" lon="-84.0549397"><ele>1235.0</ele><time>2026-04-09T12:26:56.926Z</time></trkpt><trkpt lat="9.9791147" lon="-84.0547808"><ele>1236.0</ele><time>2026-04-09T12:26:57.926Z</time></trkpt><trkpt lat="9.9791183" lon="-84.0546255"><ele>1237.0</ele><time>2026-04-09T12:26:58.926Z</time></trkpt><trkpt lat="9.9791183" lon="-84.0544805"><ele>1237.0</ele><time>2026-04-09T12:26:59.926Z</time></trkpt><trkpt lat="9.9791122" lon="-84.054345"><ele>1237.0</ele><time>2026-04-09T12:27:00.926Z</time></trkpt><trkpt lat="9.9791085" lon="-84.0542107"><ele>1237.0</ele><time>2026-04-09T12:27:01.926Z</time></trkpt><trkpt lat="9.9791079" lon="-84.0540824"><ele>1237.0</ele><time>2026-04-09T12:27:02.926Z</time></trkpt><trkpt lat="9.9791083" lon="-84.053963"><ele>1237.5</ele><time>2026-04-09T12:27:03.927Z</time></trkpt><trkpt lat="9.9791109" lon="-84.0538534"><ele>1238.0</ele><time>2026-04-09T12:27:04.926Z</time></trkpt><trkpt lat="9.9791102" lon="-84.053746"><ele>1238.5</ele><time>2026-04-09T12:27:05.926Z</time></trkpt><trkpt lat="9.9791116" lon="-84.0536701"><ele>1239.0</ele><time>2026-04-09T12:27:06.926Z</time></trkpt><trkpt lat="9.9791041" lon="-84.0536012"><ele>1239.5</ele><time>2026-04-09T12:27:07.926Z</time></trkpt><trkpt lat="9.9791069" lon="-84.0535174"><ele>1240.0</ele><time>2026-04-09T12:27:09.926Z</time></trkpt><trkpt lat="9.979095" lon="-84.0534137"><ele>1240.0</ele><time>2026-04-09T12:27:40.926Z</time></trkpt><trkpt lat="9.9790942" lon="-84.0533488"><ele>1240.0</ele><time>2026-04-09T12:27:41.927Z</time></trkpt><trkpt lat="9.9790948" lon="-84.0532721"><ele>1240.0</ele><time>2026-04-09T12:27:42.926Z</time></trkpt><trkpt lat="9.9790975" lon="-84.0531831"><ele>1240.0</ele><time>2026-04-09T12:27:43.926Z</time></trkpt><trkpt lat="9.9791009" lon="-84.0530848"><ele>1240.0</ele><time>2026-04-09T12:27:44.926Z</time></trkpt><trkpt lat="9.9791064" lon="-84.0529645"><ele>1240.0</ele><time>2026-04-09T12:27:45.926Z</time></trkpt><trkpt lat="9.9791094" lon="-84.0528516"><ele>1241.0</ele><time>2026-04-09T12:27:46.927Z</time></trkpt><trkpt lat="9.9791148" lon="-84.0527308"><ele>1242.0</ele><time>2026-04-09T12:27:47.926Z</time></trkpt><trkpt lat="9.9791214" lon="-84.0526035"><ele>1243.0</ele><time>2026-04-09T12:27:48.926Z</time></trkpt><trkpt lat="9.9791314" lon="-84.0524718"><ele>1244.0</ele><time>2026-04-09T12:27:49.926Z</time></trkpt><trkpt lat="9.9791432" lon="-84.0523321"><ele>1244.75</ele><time>2026-04-09T12:27:50.926Z</time></trkpt><trkpt lat="9.9791527" lon="-84.0521967"><ele>1245.5</ele><time>2026-04-09T12:27:51.926Z</time></trkpt><trkpt lat="9.9791705" lon="-84.0520472"><ele>1246.25</ele><time>2026-04-09T12:27:52.926Z</time></trkpt><trkpt lat="9.9791871" lon="-84.0518999"><ele>1247.0</ele><time>2026-04-09T12:27:53.926Z</time></trkpt><trkpt lat="9.9792153" lon="-84.0517513"><ele>1249.6666666666667</ele><time>2026-04-09T12:27:54.926Z</time></trkpt><trkpt lat="9.9792455" lon="-84.0516001"><ele>1252.3333333333333</ele><time>2026-04-09T12:27:55.926Z</time></trkpt><trkpt lat="9.9792746" lon="-84.0514419"><ele>1255.0</ele><time>2026-04-09T12:27:56.926Z</time></trkpt><trkpt lat="9.979311" lon="-84.0512837"><ele>1255.0</ele><time>2026-04-09T12:27:57.926Z</time></trkpt><trkpt lat="9.9793494" lon="-84.0511251"><ele>1255.0</ele><time>2026-04-09T12:27:58.926Z</time></trkpt><trkpt lat="9.9793993" lon="-84.0509672"><ele>1255.0</ele><time>2026-04-09T12:27:59.926Z</time></trkpt><trkpt lat="9.9794489" lon="-84.0508093"><ele>1255.6666666666665</ele><time>2026-04-09T12:28:00.926Z</time></trkpt><trkpt lat="9.9795066" lon="-84.0506641"><ele>1256.3333333333333</ele><time>2026-04-09T12:28:01.927Z</time></trkpt><trkpt lat="9.9795672" lon="-84.0505116"><ele>1257.0</ele><time>2026-04-09T12:28:02.926Z</time></trkpt><trkpt lat="9.9796321" lon="-84.0503617"><ele>1257.0</ele><time>2026-04-09T12:28:03.926Z</time></trkpt><trkpt lat="9.9796983" lon="-84.0502111"><ele>1257.0</ele><time>2026-04-09T12:28:04.926Z</time></trkpt><trkpt lat="9.9797689" lon="-84.0500612"><ele>1257.0</ele><time>2026-04-09T12:28:05.926Z</time></trkpt><trkpt lat="9.9798397" lon="-84.0499128"><ele>1258.0</ele><time>2026-04-09T12:28:06.926Z</time></trkpt><trkpt lat="9.979918" lon="-84.0497742"><ele>1259.0</ele><time>2026-04-09T12:28:07.926Z</time></trkpt><trkpt lat="9.980001" lon="-84.0496289"><ele>1260.0</ele><time>2026-04-09T12:28:08.926Z</time></trkpt><trkpt lat="9.9800795" lon="-84.0494929"><ele>1261.6666666666667</ele><time>2026-04-09T12:28:09.926Z</time></trkpt><trkpt lat="9.9801691" lon="-84.0493518"><ele>1263.3333333333335</ele><time>2026-04-09T12:28:10.927Z</time></trkpt><trkpt lat="9.9802579" lon="-84.0492175"><ele>1265.0</ele><time>2026-04-09T12:28:11.926Z</time></trkpt><trkpt lat="9.9803527" lon="-84.0490848"><ele>1265.6666666666667</ele><time>2026-04-09T12:28:12.926Z</time></trkpt><trkpt lat="9.9804497" lon="-84.0489545"><ele>1266.3333333333333</ele><time>2026-04-09T12:28:13.926Z</time></trkpt><trkpt lat="9.9805515" lon="-84.048825"><ele>1267.0</ele><time>2026-04-09T12:28:14.926Z</time></trkpt><trkpt lat="9.9806586" lon="-84.0486986"><ele>1267.0</ele><time>2026-04-09T12:28:15.926Z</time></trkpt><trkpt lat="9.9807717" lon="-84.0485741"><ele>1267.0</ele><time>2026-04-09T12:28:16.926Z</time></trkpt><trkpt lat="9.980889" lon="-84.0484541"><ele>1267.0</ele><time>2026-04-09T12:28:17.926Z</time></trkpt><trkpt lat="9.9810063" lon="-84.0483405"><ele>1268.3333333333333</ele><time>2026-04-09T12:28:18.926Z</time></trkpt><trkpt lat="9.9811218" lon="-84.0482247"><ele>1269.6666666666667</ele><time>2026-04-09T12:28:19.926Z</time></trkpt><trkpt lat="9.9812428" lon="-84.048112"><ele>1271.0</ele><time>2026-04-09T12:28:20.926Z</time></trkpt><trkpt lat="9.9813676" lon="-84.0480016"><ele>1271.0</ele><time>2026-04-09T12:28:21.926Z</time></trkpt><trkpt lat="9.9815003" lon="-84.0478944"><ele>1271.0</ele><time>2026-04-09T12:28:22.926Z</time></trkpt><trkpt lat="9.9816327" lon="-84.0477913"><ele>1271.0</ele><time>2026-04-09T12:28:23.926Z</time></trkpt><trkpt lat="9.9817666" lon="-84.0476927"><ele>1272.6666666666667</ele><time>2026-04-09T12:28:24.926Z</time></trkpt><trkpt lat="9.9819069" lon="-84.0475952"><ele>1274.3333333333333</ele><time>2026-04-09T12:28:25.926Z</time></trkpt><trkpt lat="9.9820463" lon="-84.0475007"><ele>1276.0</ele><time>2026-04-09T12:28:26.926Z</time></trkpt><trkpt lat="9.9821856" lon="-84.0474099"><ele>1276.0</ele><time>2026-04-09T12:28:27.926Z</time></trkpt><trkpt lat="9.9823263" lon="-84.047325"><ele>1276.0</ele><time>2026-04-09T12:28:28.926Z</time></trkpt><trkpt lat="9.9824693" lon="-84.0472409"><ele>1276.0</ele><time>2026-04-09T12:28:29.926Z</time></trkpt><trkpt lat="9.9826182" lon="-84.0471563"><ele>1278.6666666666665</ele><time>2026-04-09T12:28:30.926Z</time></trkpt><trkpt lat="9.9827651" lon="-84.047074"><ele>1281.3333333333333</ele><time>2026-04-09T12:28:31.926Z</time></trkpt><trkpt lat="9.982914" lon="-84.04699"><ele>1284.0</ele><time>2026-04-09T12:28:32.927Z</time></trkpt><trkpt lat="9.9830642" lon="-84.0469058"><ele>1284.0</ele><time>2026-04-09T12:28:33.926Z</time></trkpt><trkpt lat="9.9832168" lon="-84.0468233"><ele>1284.0</ele><time>2026-04-09T12:28:34.926Z</time></trkpt><trkpt lat="9.9833708" lon="-84.0467356"><ele>1284.0</ele><time>2026-04-09T12:28:35.926Z</time></trkpt><trkpt lat="9.9835225" lon="-84.0466518"><ele>1285.0</ele><time>2026-04-09T12:28:36.927Z</time></trkpt><trkpt lat="9.9836721" lon="-84.0465688"><ele>1286.0</ele><time>2026-04-09T12:28:37.927Z</time></trkpt><trkpt lat="9.9838279" lon="-84.0464865"><ele>1287.0</ele><time>2026-04-09T12:28:38.926Z</time></trkpt><trkpt lat="9.9839818" lon="-84.0464005"><ele>1287.0</ele><time>2026-04-09T12:28:39.926Z</time></trkpt><trkpt lat="9.9841405" lon="-84.0463137"><ele>1287.0</ele><time>2026-04-09T12:28:40.926Z</time></trkpt><trkpt lat="9.9843029" lon="-84.0462284"><ele>1287.0</ele><time>2026-04-09T12:28:41.926Z</time></trkpt><trkpt lat="9.9844591" lon="-84.0461496"><ele>1287.3333333333333</ele><time>2026-04-09T12:28:42.927Z</time></trkpt><trkpt lat="9.9846156" lon="-84.0460656"><ele>1287.6666666666665</ele><time>2026-04-09T12:28:43.926Z</time></trkpt><trkpt lat="9.9847738" lon="-84.0459841"><ele>1288.0</ele><time>2026-04-09T12:28:44.926Z</time></trkpt><trkpt lat="9.9849302" lon="-84.0459065"><ele>1288.0</ele><time>2026-04-09T12:28:45.926Z</time></trkpt><trkpt lat="9.98508" lon="-84.0458252"><ele>1288.0</ele><time>2026-04-09T12:28:46.926Z</time></trkpt><trkpt lat="9.9852391" lon="-84.0457427"><ele>1288.0</ele><time>2026-04-09T12:28:47.926Z</time></trkpt><trkpt lat="9.9853982" lon="-84.0456596"><ele>1287.6666666666665</ele><time>2026-04-09T12:28:48.926Z</time></trkpt><trkpt lat="9.9855574" lon="-84.0455749"><ele>1287.3333333333333</ele><time>2026-04-09T12:28:49.926Z</time></trkpt><trkpt lat="9.9857118" lon="-84.0454859"><ele>1287.0</ele><time>2026-04-09T12:28:50.926Z</time></trkpt><trkpt lat="9.9858717" lon="-84.045396"><ele>1288.0</ele><time>2026-04-09T12:28:51.926Z</time></trkpt><trkpt lat="9.9860352" lon="-84.0453058"><ele>1289.0</ele><time>2026-04-09T12:28:52.926Z</time></trkpt><trkpt lat="9.9861975" lon="-84.0452148"><ele>1290.0</ele><time>2026-04-09T12:28:53.926Z</time></trkpt><trkpt lat="9.9863646" lon="-84.0451215"><ele>1290.0</ele><time>2026-04-09T12:28:54.926Z</time></trkpt><trkpt lat="9.9865294" lon="-84.0450293"><ele>1290.0</ele><time>2026-04-09T12:28:55.926Z</time></trkpt><trkpt lat="9.9866967" lon="-84.0449343"><ele>1290.0</ele><time>2026-04-09T12:28:56.926Z</time></trkpt><trkpt lat="9.986857" lon="-84.0448328"><ele>1289.3333333333333</ele><time>2026-04-09T12:28:57.926Z</time></trkpt><trkpt lat="9.9870193" lon="-84.0447285"><ele>1288.6666666666665</ele><time>2026-04-09T12:28:58.926Z</time></trkpt><trkpt lat="9.9871789" lon="-84.0446193"><ele>1288.0</ele><time>2026-04-09T12:28:59.926Z</time></trkpt><trkpt lat="9.9873353" lon="-84.0445055"><ele>1288.0</ele><time>2026-04-09T12:29:00.926Z</time></trkpt><trkpt lat="9.9874885" lon="-84.0443872"><ele>1288.0</ele><time>2026-04-09T12:29:01.926Z</time></trkpt><trkpt lat="9.9876403" lon="-84.04426"><ele>1288.0</ele><time>2026-04-09T12:29:02.926Z</time></trkpt><trkpt lat="9.9877843" lon="-84.0441364"><ele>1288.6666666666665</ele><time>2026-04-09T12:29:03.926Z</time></trkpt><trkpt lat="9.9879251" lon="-84.0440094"><ele>1289.3333333333333</ele><time>2026-04-09T12:29:04.927Z</time></trkpt><trkpt lat="9.9880621" lon="-84.0438746"><ele>1290.0</ele><time>2026-04-09T12:29:05.926Z</time></trkpt><trkpt lat="9.9881938" lon="-84.0437376"><ele>1290.0</ele><time>2026-04-09T12:29:06.926Z</time></trkpt><trkpt lat="9.9883211" lon="-84.0435915"><ele>1290.0</ele><time>2026-04-09T12:29:07.926Z</time></trkpt><trkpt lat="9.9884521" lon="-84.0434452"><ele>1290.0</ele><time>2026-04-09T12:29:08.926Z</time></trkpt><trkpt lat="9.9885784" lon="-84.0433005"><ele>1292.3333333333333</ele><time>2026-04-09T12:29:09.926Z</time></trkpt><trkpt lat="9.9887" lon="-84.0431542"><ele>1294.6666666666665</ele><time>2026-04-09T12:29:10.926Z</time></trkpt><trkpt lat="9.9888191" lon="-84.0430065"><ele>1297.0</ele><time>2026-04-09T12:29:11.926Z</time></trkpt><trkpt lat="9.9889344" lon="-84.0428588"><ele>1297.0</ele><time>2026-04-09T12:29:12.926Z</time></trkpt><trkpt lat="9.9890533" lon="-84.0427084"><ele>1297.0</ele><time>2026-04-09T12:29:13.926Z</time></trkpt><trkpt lat="9.9891725" lon="-84.0425575"><ele>1297.0</ele><time>2026-04-09T12:29:14.926Z</time></trkpt><trkpt lat="9.9892883" lon="-84.0424114"><ele>1297.3333333333333</ele><time>2026-04-09T12:29:15.926Z</time></trkpt><trkpt lat="9.989406" lon="-84.0422655"><ele>1297.6666666666667</ele><time>2026-04-09T12:29:16.926Z</time></trkpt><trkpt lat="9.9895221" lon="-84.0421174"><ele>1298.0</ele><time>2026-04-09T12:29:17.926Z</time></trkpt><trkpt lat="9.9896447" lon="-84.0419688"><ele>1298.0</ele><time>2026-04-09T12:29:18.926Z</time></trkpt><trkpt lat="9.9897642" lon="-84.0418205"><ele>1298.0</ele><time>2026-04-09T12:29:19.926Z</time></trkpt><trkpt lat="9.9898801" lon="-84.0416724"><ele>1298.0</ele><time>2026-04-09T12:29:20.926Z</time></trkpt><trkpt lat="9.9899972" lon="-84.0415259"><ele>1297.6666666666667</ele><time>2026-04-09T12:29:21.926Z</time></trkpt><trkpt lat="9.9901119" lon="-84.0413822"><ele>1297.3333333333333</ele><time>2026-04-09T12:29:22.926Z</time></trkpt><trkpt lat="9.9902303" lon="-84.0412327"><ele>1297.0</ele><time>2026-04-09T12:29:23.926Z</time></trkpt><trkpt lat="9.9903385" lon="-84.0410913"><ele>1297.0</ele><time>2026-04-09T12:29:24.927Z</time></trkpt><trkpt lat="9.9904487" lon="-84.0409585"><ele>1297.0</ele><time>2026-04-09T12:29:25.926Z</time></trkpt><trkpt lat="9.9905548" lon="-84.0408257"><ele>1297.0</ele><time>2026-04-09T12:29:26.926Z</time></trkpt><trkpt lat="9.9906541" lon="-84.0407042"><ele>1297.25</ele><time>2026-04-09T12:29:27.926Z</time></trkpt><trkpt lat="9.99074" lon="-84.0405923"><ele>1297.5</ele><time>2026-04-09T12:29:28.926Z</time></trkpt><trkpt lat="9.9908268" lon="-84.040481"><ele>1297.75</ele><time>2026-04-09T12:29:29.926Z</time></trkpt><trkpt lat="9.9909054" lon="-84.0403775"><ele>1298.0</ele><time>2026-04-09T12:29:30.926Z</time></trkpt><trkpt lat="9.9909843" lon="-84.040277"><ele>1298.0</ele><time>2026-04-09T12:29:31.927Z</time></trkpt><trkpt lat="9.9910676" lon="-84.0401751"><ele>1298.0</ele><time>2026-04-09T12:29:32.926Z</time></trkpt><trkpt lat="9.9911545" lon="-84.0400724"><ele>1298.0</ele><time>2026-04-09T12:29:33.926Z</time></trkpt><trkpt lat="9.9912432" lon="-84.039965"><ele>1298.0</ele><time>2026-04-09T12:29:34.926Z</time></trkpt><trkpt lat="9.991335" lon="-84.0398502"><ele>1299.0</ele><time>2026-04-09T12:29:35.926Z</time></trkpt><trkpt lat="9.991429" lon="-84.0397281"><ele>1300.0</ele><time>2026-04-09T12:29:36.926Z</time></trkpt><trkpt lat="9.9915252" lon="-84.0396059"><ele>1301.0</ele><time>2026-04-09T12:29:37.926Z</time></trkpt><trkpt lat="9.9916276" lon="-84.0394755"><ele>1300.3333333333335</ele><time>2026-04-09T12:29:38.926Z</time></trkpt><trkpt lat="9.9917297" lon="-84.0393449"><ele>1299.6666666666667</ele><time>2026-04-09T12:29:39.926Z</time></trkpt><trkpt lat="9.9918315" lon="-84.0392145"><ele>1299.0</ele><time>2026-04-09T12:29:40.926Z</time></trkpt><trkpt lat="9.9919423" lon="-84.0390812"><ele>1299.0</ele><time>2026-04-09T12:29:41.926Z</time></trkpt><trkpt lat="9.9920539" lon="-84.0389499"><ele>1299.0</ele><time>2026-04-09T12:29:42.926Z</time></trkpt><trkpt lat="9.9921647" lon="-84.0388083"><ele>1299.0</ele><time>2026-04-09T12:29:43.926Z</time></trkpt><trkpt lat="9.9922755" lon="-84.0386675"><ele>1299.0</ele><time>2026-04-09T12:29:44.926Z</time></trkpt><trkpt lat="9.9923888" lon="-84.0385272"><ele>1299.0</ele><time>2026-04-09T12:29:45.926Z</time></trkpt><trkpt lat="9.9925014" lon="-84.0383853"><ele>1299.0</ele><time>2026-04-09T12:29:46.926Z</time></trkpt><trkpt lat="9.9926179" lon="-84.0382475"><ele>1299.6666666666667</ele><time>2026-04-09T12:29:47.926Z</time></trkpt><trkpt lat="9.9927384" lon="-84.0381061"><ele>1300.3333333333335</ele><time>2026-04-09T12:29:48.926Z</time></trkpt><trkpt lat="9.992863" lon="-84.0379666"><ele>1301.0</ele><time>2026-04-09T12:29:49.926Z</time></trkpt><trkpt lat="9.9929969" lon="-84.0378284"><ele>1301.0</ele><time>2026-04-09T12:29:50.927Z</time></trkpt><trkpt lat="9.9931289" lon="-84.0376967"><ele>1301.0</ele><time>2026-04-09T12:29:51.926Z</time></trkpt><trkpt lat="9.9932697" lon="-84.0375683"><ele>1301.0</ele><time>2026-04-09T12:29:52.926Z</time></trkpt><trkpt lat="9.9934121" lon="-84.0374435"><ele>1302.0</ele><time>2026-04-09T12:29:53.926Z</time></trkpt><trkpt lat="9.9935557" lon="-84.037327"><ele>1303.0</ele><time>2026-04-09T12:29:54.926Z</time></trkpt><trkpt lat="9.9936972" lon="-84.0372121"><ele>1304.0</ele><time>2026-04-09T12:29:55.926Z</time></trkpt><trkpt lat="9.9938405" lon="-84.0371062"><ele>1304.0</ele><time>2026-04-09T12:29:56.926Z</time></trkpt><trkpt lat="9.9939881" lon="-84.0369968"><ele>1304.0</ele><time>2026-04-09T12:29:57.926Z</time></trkpt><trkpt lat="9.994136" lon="-84.0368972"><ele>1304.0</ele><time>2026-04-09T12:29:58.926Z</time></trkpt><trkpt lat="9.9942829" lon="-84.0368028"><ele>1304.3333333333335</ele><time>2026-04-09T12:29:59.926Z</time></trkpt><trkpt lat="9.9944353" lon="-84.0367099"><ele>1304.6666666666667</ele><time>2026-04-09T12:30:00.926Z</time></trkpt><trkpt lat="9.9945924" lon="-84.0366198"><ele>1305.0</ele><time>2026-04-09T12:30:01.926Z</time></trkpt><trkpt lat="9.9947494" lon="-84.0365348"><ele>1305.0</ele><time>2026-04-09T12:30:02.926Z</time></trkpt><trkpt lat="9.9949127" lon="-84.0364558"><ele>1305.0</ele><time>2026-04-09T12:30:03.926Z</time></trkpt><trkpt lat="9.9950778" lon="-84.0363762"><ele>1305.0</ele><time>2026-04-09T12:30:04.926Z</time></trkpt><trkpt lat="9.995247" lon="-84.0363024"><ele>1305.3333333333333</ele><time>2026-04-09T12:30:05.926Z</time></trkpt><trkpt lat="9.9954091" lon="-84.0362355"><ele>1305.6666666666665</ele><time>2026-04-09T12:30:06.926Z</time></trkpt><trkpt lat="9.9955741" lon="-84.0361718"><ele>1306.0</ele><time>2026-04-09T12:30:07.926Z</time></trkpt><trkpt lat="9.9957349" lon="-84.0361131"><ele>1305.3333333333333</ele><time>2026-04-09T12:30:08.926Z</time></trkpt><trkpt lat="9.9958979" lon="-84.0360496"><ele>1304.6666666666667</ele><time>2026-04-09T12:30:09.926Z</time></trkpt><trkpt lat="9.9960584" lon="-84.0359851"><ele>1304.0</ele><time>2026-04-09T12:30:10.926Z</time></trkpt><trkpt lat="9.9961985" lon="-84.0359351"><ele>1304.0</ele><time>2026-04-09T12:30:11.926Z</time></trkpt><trkpt lat="9.9963616" lon="-84.0358788"><ele>1304.0</ele><time>2026-04-09T12:30:12.926Z</time></trkpt><trkpt lat="9.9965162" lon="-84.0358224"><ele>1304.0</ele><time>2026-04-09T12:30:13.926Z</time></trkpt><trkpt lat="9.9966607" lon="-84.0357663"><ele>1305.75</ele><time>2026-04-09T12:30:14.926Z</time></trkpt><trkpt lat="9.9968046" lon="-84.0357113"><ele>1307.5</ele><time>2026-04-09T12:30:15.926Z</time></trkpt><trkpt lat="9.9969398" lon="-84.0356609"><ele>1309.25</ele><time>2026-04-09T12:30:16.926Z</time></trkpt><trkpt lat="9.9970712" lon="-84.0356131"><ele>1311.0</ele><time>2026-04-09T12:30:17.926Z</time></trkpt><trkpt lat="9.9971909" lon="-84.0355706"><ele>1311.0</ele><time>2026-04-09T12:30:18.926Z</time></trkpt><trkpt lat="9.9972953" lon="-84.0355345"><ele>1311.0</ele><time>2026-04-09T12:30:19.926Z</time></trkpt><trkpt lat="9.9973829" lon="-84.0354981"><ele>1311.0</ele><time>2026-04-09T12:30:20.926Z</time></trkpt><trkpt lat="9.9974603" lon="-84.0354665"><ele>1311.0</ele><time>2026-04-09T12:30:21.926Z</time></trkpt><trkpt lat="9.9975252" lon="-84.0354419"><ele>1311.0</ele><time>2026-04-09T12:30:22.926Z</time></trkpt><trkpt lat="9.9975954" lon="-84.0354175"><ele>1311.0</ele><time>2026-04-09T12:30:23.926Z</time></trkpt><trkpt lat="9.9976648" lon="-84.0353905"><ele>1311.3333333333333</ele><time>2026-04-09T12:30:24.926Z</time></trkpt><trkpt lat="9.9977382" lon="-84.0353624"><ele>1311.6666666666667</ele><time>2026-04-09T12:30:25.926Z</time></trkpt><trkpt lat="9.9978148" lon="-84.0353373"><ele>1312.0</ele><time>2026-04-09T12:30:26.926Z</time></trkpt><trkpt lat="9.9978993" lon="-84.0353078"><ele>1312.3333333333335</ele><time>2026-04-09T12:30:27.926Z</time></trkpt><trkpt lat="9.9979861" lon="-84.0352769"><ele>1312.6666666666667</ele><time>2026-04-09T12:30:28.926Z</time></trkpt><trkpt lat="9.9980795" lon="-84.0352397"><ele>1313.0</ele><time>2026-04-09T12:30:29.926Z</time></trkpt><trkpt lat="9.998177" lon="-84.035203"><ele>1313.0</ele><time>2026-04-09T12:30:30.926Z</time></trkpt><trkpt lat="9.9982748" lon="-84.035163"><ele>1313.0</ele><time>2026-04-09T12:30:31.926Z</time></trkpt><trkpt lat="9.9983844" lon="-84.0351212"><ele>1313.0</ele><time>2026-04-09T12:30:32.926Z</time></trkpt><trkpt lat="9.9985005" lon="-84.0350818"><ele>1313.0</ele><time>2026-04-09T12:30:33.926Z</time></trkpt><trkpt lat="9.9986129" lon="-84.0350414"><ele>1313.75</ele><time>2026-04-09T12:30:34.926Z</time></trkpt><trkpt lat="9.998733" lon="-84.0349983"><ele>1314.5</ele><time>2026-04-09T12:30:35.926Z</time></trkpt><trkpt lat="9.9988566" lon="-84.034952"><ele>1315.25</ele><time>2026-04-09T12:30:36.926Z</time></trkpt><trkpt lat="9.9989807" lon="-84.0349001"><ele>1316.0</ele><time>2026-04-09T12:30:37.926Z</time></trkpt><trkpt lat="9.9991103" lon="-84.0348491"><ele>1317.0</ele><time>2026-04-09T12:30:38.926Z</time></trkpt><trkpt lat="9.9992435" lon="-84.0347945"><ele>1318.0</ele><time>2026-04-09T12:30:39.926Z</time></trkpt><trkpt lat="9.9993861" lon="-84.0347425"><ele>1319.0</ele><time>2026-04-09T12:30:40.926Z</time></trkpt><trkpt lat="9.9995297" lon="-84.0346892"><ele>1320.0</ele><time>2026-04-09T12:30:41.926Z</time></trkpt><trkpt lat="9.9996779" lon="-84.034637"><ele>1320.0</ele><time>2026-04-09T12:30:42.927Z</time></trkpt><trkpt lat="9.9998269" lon="-84.0345843"><ele>1320.0</ele><time>2026-04-09T12:30:43.926Z</time></trkpt><trkpt lat="9.9999801" lon="-84.034528"><ele>1320.0</ele><time>2026-04-09T12:30:44.926Z</time></trkpt><trkpt lat="10.0001346" lon="-84.034475"><ele>1320.0</ele><time>2026-04-09T12:30:45.926Z</time></trkpt><trkpt lat="10.0002877" lon="-84.0344187"><ele>1320.0</ele><time>2026-04-09T12:30:46.926Z</time></trkpt><trkpt lat="10.0004344" lon="-84.0343594"><ele>1320.0</ele><time>2026-04-09T12:30:47.926Z</time></trkpt><trkpt lat="10.0005925" lon="-84.0343017"><ele>1320.0</ele><time>2026-04-09T12:30:48.926Z</time></trkpt><trkpt lat="10.0007499" lon="-84.0342444"><ele>1320.0</ele><time>2026-04-09T12:30:49.926Z</time></trkpt><trkpt lat="10.0009055" lon="-84.0341879"><ele>1320.0</ele><time>2026-04-09T12:30:50.926Z</time></trkpt><trkpt lat="10.0010682" lon="-84.0341306"><ele>1321.6666666666667</ele><time>2026-04-09T12:30:51.926Z</time></trkpt><trkpt lat="10.0012278" lon="-84.0340744"><ele>1323.3333333333335</ele><time>2026-04-09T12:30:52.926Z</time></trkpt><trkpt lat="10.0013863" lon="-84.0340158"><ele>1325.0</ele><time>2026-04-09T12:30:53.926Z</time></trkpt><trkpt lat="10.0015459" lon="-84.033954"><ele>1325.3333333333335</ele><time>2026-04-09T12:30:54.926Z</time></trkpt><trkpt lat="10.0017081" lon="-84.0338914"><ele>1325.6666666666667</ele><time>2026-04-09T12:30:55.927Z</time></trkpt><trkpt lat="10.0018681" lon="-84.0338293"><ele>1326.0</ele><time>2026-04-09T12:30:56.926Z</time></trkpt><trkpt lat="10.0020307" lon="-84.0337684"><ele>1326.0</ele><time>2026-04-09T12:30:57.926Z</time></trkpt><trkpt lat="10.0021916" lon="-84.0337091"><ele>1326.0</ele><time>2026-04-09T12:30:58.926Z</time></trkpt><trkpt lat="10.0023533" lon="-84.0336502"><ele>1326.0</ele><time>2026-04-09T12:30:59.926Z</time></trkpt><trkpt lat="10.0025198" lon="-84.0335909"><ele>1327.3333333333333</ele><time>2026-04-09T12:31:00.926Z</time></trkpt><trkpt lat="10.0026841" lon="-84.0335259"><ele>1328.6666666666665</ele><time>2026-04-09T12:31:01.926Z</time></trkpt><trkpt lat="10.0028505" lon="-84.0334659"><ele>1330.0</ele><time>2026-04-09T12:31:02.926Z</time></trkpt><trkpt lat="10.0030117" lon="-84.0334087"><ele>1330.0</ele><time>2026-04-09T12:31:03.926Z</time></trkpt><trkpt lat="10.0031755" lon="-84.0333506"><ele>1330.0</ele><time>2026-04-09T12:31:04.926Z</time></trkpt><trkpt lat="10.0033349" lon="-84.0332904"><ele>1330.0</ele><time>2026-04-09T12:31:05.926Z</time></trkpt><trkpt lat="10.003497" lon="-84.0332294"><ele>1331.6666666666665</ele><time>2026-04-09T12:31:06.926Z</time></trkpt><trkpt lat="10.0036578" lon="-84.0331658"><ele>1333.3333333333333</ele><time>2026-04-09T12:31:07.926Z</time></trkpt><trkpt lat="10.0038208" lon="-84.0331071"><ele>1335.0</ele><time>2026-04-09T12:31:08.926Z</time></trkpt><trkpt lat="10.0039752" lon="-84.0330506"><ele>1335.0</ele><time>2026-04-09T12:31:09.926Z</time></trkpt><trkpt lat="10.0041406" lon="-84.0329894"><ele>1335.0</ele><time>2026-04-09T12:31:10.927Z</time></trkpt><trkpt lat="10.0043038" lon="-84.0329295"><ele>1335.0</ele><time>2026-04-09T12:31:11.926Z</time></trkpt><trkpt lat="10.004464" lon="-84.0328702"><ele>1335.0</ele><time>2026-04-09T12:31:12.926Z</time></trkpt><trkpt lat="10.0046272" lon="-84.0328105"><ele>1335.0</ele><time>2026-04-09T12:31:13.926Z</time></trkpt><trkpt lat="10.0047878" lon="-84.0327533"><ele>1335.0</ele><time>2026-04-09T12:31:14.926Z</time></trkpt><trkpt lat="10.004944" lon="-84.0326942"><ele>1335.3333333333333</ele><time>2026-04-09T12:31:15.926Z</time></trkpt><trkpt lat="10.005104" lon="-84.0326351"><ele>1335.6666666666665</ele><time>2026-04-09T12:31:16.926Z</time></trkpt><trkpt lat="10.0052637" lon="-84.0325741"><ele>1336.0</ele><time>2026-04-09T12:31:17.926Z</time></trkpt><trkpt lat="10.0054244" lon="-84.0325118"><ele>1338.0</ele><time>2026-04-09T12:31:18.926Z</time></trkpt><trkpt lat="10.005574" lon="-84.0324535"><ele>1340.0</ele><time>2026-04-09T12:31:19.926Z</time></trkpt><trkpt lat="10.0057205" lon="-84.0324"><ele>1342.0</ele><time>2026-04-09T12:31:20.926Z</time></trkpt><trkpt lat="10.0058589" lon="-84.0323451"><ele>1342.0</ele><time>2026-04-09T12:31:21.926Z</time></trkpt><trkpt lat="10.0059898" lon="-84.0322948"><ele>1342.0</ele><time>2026-04-09T12:31:22.926Z</time></trkpt><trkpt lat="10.0061081" lon="-84.0322499"><ele>1342.0</ele><time>2026-04-09T12:31:23.926Z</time></trkpt><trkpt lat="10.0062095" lon="-84.0322135"><ele>1342.0</ele><time>2026-04-09T12:31:24.926Z</time></trkpt><trkpt lat="10.0062979" lon="-84.0321806"><ele>1342.0</ele><time>2026-04-09T12:31:25.927Z</time></trkpt><trkpt lat="10.0063849" lon="-84.0321442"><ele>1342.0</ele><time>2026-04-09T12:31:26.926Z</time></trkpt><trkpt lat="10.0064613" lon="-84.0321155"><ele>1342.0</ele><time>2026-04-09T12:31:27.926Z</time></trkpt><trkpt lat="10.0065325" lon="-84.032089"><ele>1342.0</ele><time>2026-04-09T12:31:28.926Z</time></trkpt><trkpt lat="10.0065968" lon="-84.0320612"><ele>1342.0</ele><time>2026-04-09T12:31:29.926Z</time></trkpt><trkpt lat="10.0066986" lon="-84.0320234"><ele>1342.0</ele><time>2026-04-09T12:31:31.926Z</time></trkpt><trkpt lat="10.00677" lon="-84.0319949"><ele>1341.6666666666665</ele><time>2026-04-09T12:31:34.926Z</time></trkpt><trkpt lat="10.0068426" lon="-84.0319726"><ele>1341.3333333333333</ele><time>2026-04-09T12:31:46.926Z</time></trkpt><trkpt lat="10.0069078" lon="-84.0319519"><ele>1341.0</ele><time>2026-04-09T12:31:52.926Z</time></trkpt><trkpt lat="10.0069796" lon="-84.0319248"><ele>1340.6666666666667</ele><time>2026-04-09T12:31:54.926Z</time></trkpt><trkpt lat="10.0070608" lon="-84.0318917"><ele>1340.3333333333335</ele><time>2026-04-09T12:31:56.926Z</time></trkpt><trkpt lat="10.0071524" lon="-84.0318597"><ele>1340.0</ele><time>2026-04-09T12:31:58.926Z</time></trkpt><trkpt lat="10.007252" lon="-84.0318246"><ele>1340.0</ele><time>2026-04-09T12:32:00.926Z</time></trkpt><trkpt lat="10.0073112" lon="-84.0317999"><ele>1340.0</ele><time>2026-04-09T12:32:01.926Z</time></trkpt><trkpt lat="10.0073801" lon="-84.0317758"><ele>1340.0</ele><time>2026-04-09T12:32:02.926Z</time></trkpt><trkpt lat="10.0074524" lon="-84.0317499"><ele>1340.0</ele><time>2026-04-09T12:32:03.926Z</time></trkpt><trkpt lat="10.0075465" lon="-84.0317172"><ele>1340.0</ele><time>2026-04-09T12:32:05.926Z</time></trkpt><trkpt lat="10.0076176" lon="-84.0316861"><ele>1340.0</ele><time>2026-04-09T12:32:07.926Z</time></trkpt><trkpt lat="10.0077278" lon="-84.031645"><ele>1341.5</ele><time>2026-04-09T12:32:09.926Z</time></trkpt><trkpt lat="10.007793" lon="-84.0316214"><ele>1343.0</ele><time>2026-04-09T12:32:10.927Z</time></trkpt><trkpt lat="10.0078614" lon="-84.0315986"><ele>1344.5</ele><time>2026-04-09T12:32:11.926Z</time></trkpt><trkpt lat="10.0079326" lon="-84.0315747"><ele>1346.0</ele><time>2026-04-09T12:32:12.926Z</time></trkpt><trkpt lat="10.0080091" lon="-84.0315454"><ele>1347.5</ele><time>2026-04-09T12:32:13.926Z</time></trkpt><trkpt lat="10.0080857" lon="-84.0315214"><ele>1349.0</ele><time>2026-04-09T12:32:14.926Z</time></trkpt><trkpt lat="10.0081746" lon="-84.0314967"><ele>1349.0</ele><time>2026-04-09T12:32:15.926Z</time></trkpt><trkpt lat="10.0082636" lon="-84.0314639"><ele>1349.0</ele><time>2026-04-09T12:32:16.926Z</time></trkpt><trkpt lat="10.0083546" lon="-84.0314283"><ele>1349.0</ele><time>2026-04-09T12:32:17.927Z</time></trkpt><trkpt lat="10.0084368" lon="-84.0313944"><ele>1349.0</ele><time>2026-04-09T12:32:18.927Z</time></trkpt><trkpt lat="10.0085183" lon="-84.0313579"><ele>1349.0</ele><time>2026-04-09T12:32:19.926Z</time></trkpt><trkpt lat="10.0085991" lon="-84.0313266"><ele>1348.6666666666667</ele><time>2026-04-09T12:32:20.926Z</time></trkpt><trkpt lat="10.0086691" lon="-84.0312951"><ele>1348.3333333333335</ele><time>2026-04-09T12:32:21.927Z</time></trkpt><trkpt lat="10.008742" lon="-84.0312644"><ele>1348.0</ele><time>2026-04-09T12:32:22.926Z</time></trkpt><trkpt lat="10.0088107" lon="-84.0312368"><ele>1347.6666666666667</ele><time>2026-04-09T12:32:23.926Z</time></trkpt><trkpt lat="10.0088863" lon="-84.0312074"><ele>1347.3333333333333</ele><time>2026-04-09T12:32:24.926Z</time></trkpt><trkpt lat="10.0089706" lon="-84.0311845"><ele>1347.0</ele><time>2026-04-09T12:32:25.926Z</time></trkpt><trkpt lat="10.0090562" lon="-84.0311535"><ele>1347.0</ele><time>2026-04-09T12:32:26.926Z</time></trkpt><trkpt lat="10.0091528" lon="-84.0311207"><ele>1347.0</ele><time>2026-04-09T12:32:27.926Z</time></trkpt><trkpt lat="10.0092483" lon="-84.0310941"><ele>1347.0</ele><time>2026-04-09T12:32:28.926Z</time></trkpt><trkpt lat="10.009341" lon="-84.0310563"><ele>1347.0</ele><time>2026-04-09T12:32:29.926Z</time></trkpt><trkpt lat="10.0094399" lon="-84.0310188"><ele>1347.0</ele><time>2026-04-09T12:32:30.926Z</time></trkpt><trkpt lat="10.0095389" lon="-84.0309791"><ele>1346.0</ele><time>2026-04-09T12:32:31.926Z</time></trkpt><trkpt lat="10.0096391" lon="-84.0309426"><ele>1345.0</ele><time>2026-04-09T12:32:32.926Z</time></trkpt><trkpt lat="10.0097476" lon="-84.030902"><ele>1344.0</ele><time>2026-04-09T12:32:33.926Z</time></trkpt><trkpt lat="10.0098515" lon="-84.0308606"><ele>1343.0</ele><time>2026-04-09T12:32:34.926Z</time></trkpt><trkpt lat="10.0099593" lon="-84.0308228"><ele>1342.0</ele><time>2026-04-09T12:32:35.926Z</time></trkpt><trkpt lat="10.0100702" lon="-84.0307781"><ele>1345.0</ele><time>2026-04-09T12:32:36.926Z</time></trkpt><trkpt lat="10.0101818" lon="-84.0307353"><ele>1348.0</ele><time>2026-04-09T12:32:37.927Z</time></trkpt><trkpt lat="10.0103027" lon="-84.0306908"><ele>1351.0</ele><time>2026-04-09T12:32:38.926Z</time></trkpt><trkpt lat="10.0104123" lon="-84.0306516"><ele>1354.0</ele><time>2026-04-09T12:32:39.926Z</time></trkpt><trkpt lat="10.0105187" lon="-84.0306132"><ele>1354.0</ele><time>2026-04-09T12:32:40.926Z</time></trkpt><trkpt lat="10.0106251" lon="-84.0305731"><ele>1354.0</ele><time>2026-04-09T12:32:41.926Z</time></trkpt><trkpt lat="10.0107259" lon="-84.030534"><ele>1354.0</ele><time>2026-04-09T12:32:42.926Z</time></trkpt><trkpt lat="10.0108231" lon="-84.0304984"><ele>1354.0</ele><time>2026-04-09T12:32:43.926Z</time></trkpt><trkpt lat="10.0109145" lon="-84.0304601"><ele>1354.0</ele><time>2026-04-09T12:32:44.926Z</time></trkpt><trkpt lat="10.0110039" lon="-84.0304273"><ele>1353.6</ele><time>2026-04-09T12:32:45.926Z</time></trkpt><trkpt lat="10.0110885" lon="-84.0303955"><ele>1353.2</ele><time>2026-04-09T12:32:46.926Z</time></trkpt><trkpt lat="10.0111703" lon="-84.0303652"><ele>1352.8</ele><time>2026-04-09T12:32:47.926Z</time></trkpt><trkpt lat="10.011256" lon="-84.0303335"><ele>1352.3999999999999</ele><time>2026-04-09T12:32:48.926Z</time></trkpt><trkpt lat="10.0113449" lon="-84.0302996"><ele>1352.0</ele><time>2026-04-09T12:32:49.926Z</time></trkpt><trkpt lat="10.0114356" lon="-84.0302629"><ele>1352.0</ele><time>2026-04-09T12:32:50.926Z</time></trkpt><trkpt lat="10.0115276" lon="-84.0302285"><ele>1352.0</ele><time>2026-04-09T12:32:51.926Z</time></trkpt><trkpt lat="10.0116243" lon="-84.0301929"><ele>1352.0</ele><time>2026-04-09T12:32:52.926Z</time></trkpt><trkpt lat="10.0117183" lon="-84.0301569"><ele>1352.0</ele><time>2026-04-09T12:32:53.926Z</time></trkpt><trkpt lat="10.0118093" lon="-84.0301198"><ele>1352.0</ele><time>2026-04-09T12:32:54.926Z</time></trkpt><trkpt lat="10.0119061" lon="-84.0300848"><ele>1351.6</ele><time>2026-04-09T12:32:55.926Z</time></trkpt><trkpt lat="10.0120071" lon="-84.0300507"><ele>1351.1999999999998</ele><time>2026-04-09T12:32:56.926Z</time></trkpt><trkpt lat="10.0121067" lon="-84.0300144"><ele>1350.8</ele><time>2026-04-09T12:32:57.926Z</time></trkpt><trkpt lat="10.0122101" lon="-84.0299768"><ele>1350.4</ele><time>2026-04-09T12:32:58.926Z</time></trkpt><trkpt lat="10.0123163" lon="-84.0299388"><ele>1350.0</ele><time>2026-04-09T12:32:59.926Z</time></trkpt><trkpt lat="10.0124215" lon="-84.0298985"><ele>1350.75</ele><time>2026-04-09T12:33:00.926Z</time></trkpt><trkpt lat="10.0125305" lon="-84.0298573"><ele>1351.5</ele><time>2026-04-09T12:33:01.926Z</time></trkpt><trkpt lat="10.0126431" lon="-84.0298147"><ele>1352.25</ele><time>2026-04-09T12:33:02.926Z</time></trkpt><trkpt lat="10.0127568" lon="-84.0297748"><ele>1353.0</ele><time>2026-04-09T12:33:03.926Z</time></trkpt><trkpt lat="10.0128705" lon="-84.0297316"><ele>1353.0</ele><time>2026-04-09T12:33:04.926Z</time></trkpt><trkpt lat="10.0129833" lon="-84.0296882"><ele>1353.0</ele><time>2026-04-09T12:33:05.926Z</time></trkpt><trkpt lat="10.0130966" lon="-84.0296473"><ele>1353.0</ele><time>2026-04-09T12:33:06.926Z</time></trkpt><trkpt lat="10.013203" lon="-84.029609"><ele>1353.0</ele><time>2026-04-09T12:33:07.926Z</time></trkpt><trkpt lat="10.0133081" lon="-84.0295717"><ele>1351.0</ele><time>2026-04-09T12:33:08.926Z</time></trkpt><trkpt lat="10.0134132" lon="-84.029535"><ele>1349.0</ele><time>2026-04-09T12:33:09.927Z</time></trkpt><trkpt lat="10.013516" lon="-84.0294985"><ele>1347.0</ele><time>2026-04-09T12:33:10.926Z</time></trkpt><trkpt lat="10.0136223" lon="-84.0294577"><ele>1345.0</ele><time>2026-04-09T12:33:11.926Z</time></trkpt><trkpt lat="10.0137338" lon="-84.0294142"><ele>1345.0</ele><time>2026-04-09T12:33:12.926Z</time></trkpt><trkpt lat="10.0138513" lon="-84.0293708"><ele>1345.0</ele><time>2026-04-09T12:33:13.926Z</time></trkpt><trkpt lat="10.0139673" lon="-84.0293279"><ele>1345.0</ele><time>2026-04-09T12:33:14.926Z</time></trkpt><trkpt lat="10.0140838" lon="-84.0292834"><ele>1345.0</ele><time>2026-04-09T12:33:15.926Z</time></trkpt><trkpt lat="10.014201" lon="-84.0292381"><ele>1343.25</ele><time>2026-04-09T12:33:16.926Z</time></trkpt><trkpt lat="10.0143237" lon="-84.0291971"><ele>1341.5</ele><time>2026-04-09T12:33:17.926Z</time></trkpt><trkpt lat="10.0144518" lon="-84.02915"><ele>1339.75</ele><time>2026-04-09T12:33:18.926Z</time></trkpt><trkpt lat="10.0145751" lon="-84.0291067"><ele>1338.0</ele><time>2026-04-09T12:33:19.926Z</time></trkpt><trkpt lat="10.0146959" lon="-84.0290611"><ele>1338.25</ele><time>2026-04-09T12:33:20.926Z</time></trkpt><trkpt lat="10.0148197" lon="-84.0290144"><ele>1338.5</ele><time>2026-04-09T12:33:21.926Z</time></trkpt><trkpt lat="10.0149418" lon="-84.0289688"><ele>1338.75</ele><time>2026-04-09T12:33:22.926Z</time></trkpt><trkpt lat="10.0150709" lon="-84.0289182"><ele>1339.0</ele><time>2026-04-09T12:33:23.926Z</time></trkpt><trkpt lat="10.0152009" lon="-84.0288677"><ele>1339.0</ele><time>2026-04-09T12:33:24.926Z</time></trkpt><trkpt lat="10.0153218" lon="-84.0288222"><ele>1339.0</ele><time>2026-04-09T12:33:25.926Z</time></trkpt><trkpt lat="10.0154454" lon="-84.0287762"><ele>1339.0</ele><time>2026-04-09T12:33:26.926Z</time></trkpt><trkpt lat="10.0155658" lon="-84.028732"><ele>1339.0</ele><time>2026-04-09T12:33:27.926Z</time></trkpt><trkpt lat="10.0156854" lon="-84.0286879"><ele>1339.0</ele><time>2026-04-09T12:33:28.926Z</time></trkpt><trkpt lat="10.0158016" lon="-84.028648"><ele>1339.0</ele><time>2026-04-09T12:33:29.926Z</time></trkpt><trkpt lat="10.0159138" lon="-84.0286056"><ele>1339.0</ele><time>2026-04-09T12:33:30.926Z</time></trkpt><trkpt lat="10.0160279" lon="-84.0285639"><ele>1339.0</ele><time>2026-04-09T12:33:31.926Z</time></trkpt><trkpt lat="10.0161382" lon="-84.0285223"><ele>1340.5</ele><time>2026-04-09T12:33:32.926Z</time></trkpt><trkpt lat="10.016247" lon="-84.028478"><ele>1342.0</ele><time>2026-04-09T12:33:33.926Z</time></trkpt><trkpt lat="10.0163599" lon="-84.0284342"><ele>1343.5</ele><time>2026-04-09T12:33:34.926Z</time></trkpt><trkpt lat="10.016476" lon="-84.0283914"><ele>1345.0</ele><time>2026-04-09T12:33:35.926Z</time></trkpt><trkpt lat="10.0165918" lon="-84.0283461"><ele>1345.25</ele><time>2026-04-09T12:33:36.926Z</time></trkpt><trkpt lat="10.016707" lon="-84.0283043"><ele>1345.5</ele><time>2026-04-09T12:33:37.926Z</time></trkpt><trkpt lat="10.0168269" lon="-84.0282578"><ele>1345.75</ele><time>2026-04-09T12:33:38.926Z</time></trkpt><trkpt lat="10.0169445" lon="-84.0282135"><ele>1346.0</ele><time>2026-04-09T12:33:39.926Z</time></trkpt><trkpt lat="10.017063" lon="-84.0281697"><ele>1346.0</ele><time>2026-04-09T12:33:40.926Z</time></trkpt><trkpt lat="10.0171841" lon="-84.0281214"><ele>1346.0</ele><time>2026-04-09T12:33:41.926Z</time></trkpt><trkpt lat="10.0173088" lon="-84.0280753"><ele>1346.0</ele><time>2026-04-09T12:33:42.926Z</time></trkpt><trkpt lat="10.0174309" lon="-84.0280355"><ele>1346.0</ele><time>2026-04-09T12:33:43.926Z</time></trkpt><trkpt lat="10.0175559" lon="-84.027989"><ele>1347.0</ele><time>2026-04-09T12:33:44.927Z</time></trkpt><trkpt lat="10.0176845" lon="-84.027942"><ele>1348.0</ele><time>2026-04-09T12:33:45.926Z</time></trkpt><trkpt lat="10.0178136" lon="-84.0278945"><ele>1349.0</ele><time>2026-04-09T12:33:46.926Z</time></trkpt><trkpt lat="10.0179431" lon="-84.027849"><ele>1350.0</ele><time>2026-04-09T12:33:47.926Z</time></trkpt><trkpt lat="10.0180718" lon="-84.0277997"><ele>1350.0</ele><time>2026-04-09T12:33:48.927Z</time></trkpt><trkpt lat="10.018202" lon="-84.0277471"><ele>1350.0</ele><time>2026-04-09T12:33:49.926Z</time></trkpt><trkpt lat="10.018328" lon="-84.0277"><ele>1350.0</ele><time>2026-04-09T12:33:50.927Z</time></trkpt><trkpt lat="10.0184562" lon="-84.0276492"><ele>1350.0</ele><time>2026-04-09T12:33:51.926Z</time></trkpt><trkpt lat="10.0185831" lon="-84.0276074"><ele>1351.25</ele><time>2026-04-09T12:33:52.926Z</time></trkpt><trkpt lat="10.0187042" lon="-84.0275588"><ele>1352.5</ele><time>2026-04-09T12:33:53.926Z</time></trkpt><trkpt lat="10.0188252" lon="-84.0275119"><ele>1353.75</ele><time>2026-04-09T12:33:54.926Z</time></trkpt><trkpt lat="10.0189543" lon="-84.0274644"><ele>1355.0</ele><time>2026-04-09T12:33:55.926Z</time></trkpt><trkpt lat="10.0190771" lon="-84.0274253"><ele>1356.25</ele><time>2026-04-09T12:33:56.926Z</time></trkpt><trkpt lat="10.0192058" lon="-84.0273734"><ele>1357.5</ele><time>2026-04-09T12:33:57.926Z</time></trkpt><trkpt lat="10.0193327" lon="-84.0273279"><ele>1358.75</ele><time>2026-04-09T12:33:58.926Z</time></trkpt><trkpt lat="10.0194548" lon="-84.027277"><ele>1360.0</ele><time>2026-04-09T12:33:59.926Z</time></trkpt><trkpt lat="10.0195746" lon="-84.0272319"><ele>1360.0</ele><time>2026-04-09T12:34:00.926Z</time></trkpt><trkpt lat="10.019693" lon="-84.0271894"><ele>1360.0</ele><time>2026-04-09T12:34:01.926Z</time></trkpt><trkpt lat="10.0198093" lon="-84.0271427"><ele>1360.0</ele><time>2026-04-09T12:34:02.926Z</time></trkpt><trkpt lat="10.0199256" lon="-84.0271012"><ele>1360.0</ele><time>2026-04-09T12:34:03.926Z</time></trkpt><trkpt lat="10.0200365" lon="-84.0270618"><ele>1361.4</ele><time>2026-04-09T12:34:04.926Z</time></trkpt><trkpt lat="10.0201393" lon="-84.0270244"><ele>1362.8</ele><time>2026-04-09T12:34:05.926Z</time></trkpt><trkpt lat="10.0202435" lon="-84.0269852"><ele>1364.1999999999998</ele><time>2026-04-09T12:34:06.926Z</time></trkpt><trkpt lat="10.0203442" lon="-84.0269447"><ele>1365.6</ele><time>2026-04-09T12:34:07.926Z</time></trkpt><trkpt lat="10.0204394" lon="-84.0269068"><ele>1367.0</ele><time>2026-04-09T12:34:08.926Z</time></trkpt><trkpt lat="10.0205328" lon="-84.0268746"><ele>1367.0</ele><time>2026-04-09T12:34:09.926Z</time></trkpt><trkpt lat="10.0206221" lon="-84.026838"><ele>1367.0</ele><time>2026-04-09T12:34:10.926Z</time></trkpt><trkpt lat="10.0207116" lon="-84.0268072"><ele>1367.0</ele><time>2026-04-09T12:34:11.926Z</time></trkpt><trkpt lat="10.0208003" lon="-84.0267765"><ele>1367.0</ele><time>2026-04-09T12:34:12.926Z</time></trkpt><trkpt lat="10.0208915" lon="-84.0267422"><ele>1367.0</ele><time>2026-04-09T12:34:13.926Z</time></trkpt><trkpt lat="10.0209863" lon="-84.026708"><ele>1367.8</ele><time>2026-04-09T12:34:14.926Z</time></trkpt><trkpt lat="10.0210824" lon="-84.026674"><ele>1368.6</ele><time>2026-04-09T12:34:15.926Z</time></trkpt><trkpt lat="10.0211827" lon="-84.0266376"><ele>1369.3999999999999</ele><time>2026-04-09T12:34:16.926Z</time></trkpt><trkpt lat="10.0212842" lon="-84.0266012"><ele>1370.1999999999998</ele><time>2026-04-09T12:34:17.926Z</time></trkpt><trkpt lat="10.021385" lon="-84.0265575"><ele>1371.0</ele><time>2026-04-09T12:34:18.926Z</time></trkpt><trkpt lat="10.0214866" lon="-84.0265197"><ele>1372.4</ele><time>2026-04-09T12:34:19.926Z</time></trkpt><trkpt lat="10.0215852" lon="-84.026484"><ele>1373.8</ele><time>2026-04-09T12:34:20.926Z</time></trkpt><trkpt lat="10.0216891" lon="-84.0264447"><ele>1375.2</ele><time>2026-04-09T12:34:21.926Z</time></trkpt><trkpt lat="10.0217959" lon="-84.0264015"><ele>1376.6000000000001</ele><time>2026-04-09T12:34:22.926Z</time></trkpt><trkpt lat="10.0218974" lon="-84.0263611"><ele>1378.0</ele><time>2026-04-09T12:34:23.927Z</time></trkpt><trkpt lat="10.0220016" lon="-84.0263234"><ele>1378.4</ele><time>2026-04-09T12:34:24.927Z</time></trkpt><trkpt lat="10.0221006" lon="-84.0262895"><ele>1378.8000000000002</ele><time>2026-04-09T12:34:25.926Z</time></trkpt><trkpt lat="10.0222054" lon="-84.0262505"><ele>1379.2</ele><time>2026-04-09T12:34:26.926Z</time></trkpt><trkpt lat="10.0223121" lon="-84.0262083"><ele>1379.6</ele><time>2026-04-09T12:34:27.926Z</time></trkpt><trkpt lat="10.0224134" lon="-84.0261715"><ele>1380.0</ele><time>2026-04-09T12:34:28.926Z</time></trkpt><trkpt lat="10.0225189" lon="-84.0261329"><ele>1381.0</ele><time>2026-04-09T12:34:29.926Z</time></trkpt><trkpt lat="10.0226228" lon="-84.0260935"><ele>1382.0</ele><time>2026-04-09T12:34:30.927Z</time></trkpt><trkpt lat="10.0227283" lon="-84.0260564"><ele>1383.0</ele><time>2026-04-09T12:34:31.926Z</time></trkpt><trkpt lat="10.0228302" lon="-84.0260196"><ele>1384.0</ele><time>2026-04-09T12:34:32.926Z</time></trkpt><trkpt lat="10.0229341" lon="-84.0259809"><ele>1385.0</ele><time>2026-04-09T12:34:33.926Z</time></trkpt><trkpt lat="10.0230373" lon="-84.0259406"><ele>1385.0</ele><time>2026-04-09T12:34:34.926Z</time></trkpt><trkpt lat="10.0231411" lon="-84.0259009"><ele>1385.0</ele><time>2026-04-09T12:34:35.926Z</time></trkpt><trkpt lat="10.0232516" lon="-84.0258614"><ele>1385.0</ele><time>2026-04-09T12:34:36.926Z</time></trkpt><trkpt lat="10.0233604" lon="-84.0258204"><ele>1385.0</ele><time>2026-04-09T12:34:37.927Z</time></trkpt><trkpt lat="10.0234734" lon="-84.0257784"><ele>1386.5</ele><time>2026-04-09T12:34:38.927Z</time></trkpt><trkpt lat="10.0235857" lon="-84.0257293"><ele>1388.0</ele><time>2026-04-09T12:34:39.926Z</time></trkpt><trkpt lat="10.0237014" lon="-84.0256872"><ele>1389.5</ele><time>2026-04-09T12:34:40.926Z</time></trkpt><trkpt lat="10.0238204" lon="-84.0256417"><ele>1391.0</ele><time>2026-04-09T12:34:41.926Z</time></trkpt><trkpt lat="10.0239448" lon="-84.0255967"><ele>1391.0</ele><time>2026-04-09T12:34:42.926Z</time></trkpt><trkpt lat="10.0240607" lon="-84.0255528"><ele>1391.0</ele><time>2026-04-09T12:34:43.926Z</time></trkpt><trkpt lat="10.0241775" lon="-84.025509"><ele>1391.0</ele><time>2026-04-09T12:34:44.926Z</time></trkpt><trkpt lat="10.0242986" lon="-84.0254613"><ele>1391.0</ele><time>2026-04-09T12:34:45.926Z</time></trkpt><trkpt lat="10.0244251" lon="-84.0254107"><ele>1392.25</ele><time>2026-04-09T12:34:46.926Z</time></trkpt><trkpt lat="10.0245466" lon="-84.0253642"><ele>1393.5</ele><time>2026-04-09T12:34:47.926Z</time></trkpt><trkpt lat="10.0246634" lon="-84.0253202"><ele>1394.75</ele><time>2026-04-09T12:34:48.926Z</time></trkpt><trkpt lat="10.0247737" lon="-84.0252779"><ele>1396.0</ele><time>2026-04-09T12:34:49.926Z</time></trkpt><trkpt lat="10.0248728" lon="-84.0252378"><ele>1396.0</ele><time>2026-04-09T12:34:50.926Z</time></trkpt><trkpt lat="10.0249707" lon="-84.0251961"><ele>1396.0</ele><time>2026-04-09T12:34:51.926Z</time></trkpt><trkpt lat="10.0250664" lon="-84.0251537"><ele>1396.0</ele><time>2026-04-09T12:34:52.926Z</time></trkpt><trkpt lat="10.0251661" lon="-84.0250991"><ele>1396.0</ele><time>2026-04-09T12:34:53.926Z</time></trkpt><trkpt lat="10.0252706" lon="-84.0250379"><ele>1396.0</ele><time>2026-04-09T12:34:54.926Z</time></trkpt><trkpt lat="10.0253791" lon="-84.0249743"><ele>1397.75</ele><time>2026-04-09T12:34:55.927Z</time></trkpt><trkpt lat="10.025493" lon="-84.0249089"><ele>1399.5</ele><time>2026-04-09T12:34:56.926Z</time></trkpt><trkpt lat="10.0256068" lon="-84.0248402"><ele>1401.25</ele><time>2026-04-09T12:34:57.926Z</time></trkpt><trkpt lat="10.0257199" lon="-84.02477"><ele>1403.0</ele><time>2026-04-09T12:34:58.926Z</time></trkpt><trkpt lat="10.0258295" lon="-84.024696"><ele>1403.0</ele><time>2026-04-09T12:34:59.926Z</time></trkpt><trkpt lat="10.0259404" lon="-84.0246193"><ele>1403.0</ele><time>2026-04-09T12:35:00.926Z</time></trkpt><trkpt lat="10.0260472" lon="-84.0245407"><ele>1403.0</ele><time>2026-04-09T12:35:01.926Z</time></trkpt><trkpt lat="10.0261533" lon="-84.024465"><ele>1403.0</ele><time>2026-04-09T12:35:02.926Z</time></trkpt><trkpt lat="10.0262572" lon="-84.0243897"><ele>1403.0</ele><time>2026-04-09T12:35:03.926Z</time></trkpt><trkpt lat="10.0263581" lon="-84.0243125"><ele>1403.0</ele><time>2026-04-09T12:35:04.926Z</time></trkpt><trkpt lat="10.0264625" lon="-84.0242265"><ele>1403.0</ele><time>2026-04-09T12:35:05.926Z</time></trkpt><trkpt lat="10.0265753" lon="-84.0241366"><ele>1403.0</ele><time>2026-04-09T12:35:06.926Z</time></trkpt><trkpt lat="10.0266851" lon="-84.0240419"><ele>1403.5</ele><time>2026-04-09T12:35:07.926Z</time></trkpt><trkpt lat="10.0267903" lon="-84.0239426"><ele>1404.0</ele><time>2026-04-09T12:35:08.926Z</time></trkpt><trkpt lat="10.0268948" lon="-84.0238449"><ele>1404.5</ele><time>2026-04-09T12:35:09.926Z</time></trkpt><trkpt lat="10.0269937" lon="-84.023742"><ele>1405.0</ele><time>2026-04-09T12:35:10.926Z</time></trkpt><trkpt lat="10.0270953" lon="-84.0236374"><ele>1405.0</ele><time>2026-04-09T12:35:11.926Z</time></trkpt><trkpt lat="10.0271981" lon="-84.023534"><ele>1405.0</ele><time>2026-04-09T12:35:12.926Z</time></trkpt><trkpt lat="10.0272985" lon="-84.0234301"><ele>1405.0</ele><time>2026-04-09T12:35:13.926Z</time></trkpt><trkpt lat="10.0273955" lon="-84.0233253"><ele>1405.0</ele><time>2026-04-09T12:35:14.926Z</time></trkpt><trkpt lat="10.0274902" lon="-84.0232155"><ele>1406.25</ele><time>2026-04-09T12:35:15.926Z</time></trkpt><trkpt lat="10.0275816" lon="-84.0230988"><ele>1407.5</ele><time>2026-04-09T12:35:16.926Z</time></trkpt><trkpt lat="10.0276679" lon="-84.0229783"><ele>1408.75</ele><time>2026-04-09T12:35:17.926Z</time></trkpt><trkpt lat="10.0277573" lon="-84.022856"><ele>1410.0</ele><time>2026-04-09T12:35:18.926Z</time></trkpt><trkpt lat="10.0278435" lon="-84.0227321"><ele>1410.0</ele><time>2026-04-09T12:35:19.926Z</time></trkpt><trkpt lat="10.027931" lon="-84.0226081"><ele>1410.0</ele><time>2026-04-09T12:35:20.926Z</time></trkpt><trkpt lat="10.02801" lon="-84.022482"><ele>1410.0</ele><time>2026-04-09T12:35:21.926Z</time></trkpt><trkpt lat="10.0280841" lon="-84.0223528"><ele>1410.0</ele><time>2026-04-09T12:35:22.926Z</time></trkpt><trkpt lat="10.0281594" lon="-84.0222198"><ele>1409.75</ele><time>2026-04-09T12:35:23.926Z</time></trkpt><trkpt lat="10.0282296" lon="-84.0220863"><ele>1409.5</ele><time>2026-04-09T12:35:24.926Z</time></trkpt><trkpt lat="10.0282942" lon="-84.0219513"><ele>1409.25</ele><time>2026-04-09T12:35:25.926Z</time></trkpt><trkpt lat="10.0283579" lon="-84.0218185"><ele>1409.0</ele><time>2026-04-09T12:35:26.926Z</time></trkpt><trkpt lat="10.0284146" lon="-84.0216822"><ele>1410.25</ele><time>2026-04-09T12:35:27.926Z</time></trkpt><trkpt lat="10.028471" lon="-84.021543"><ele>1411.5</ele><time>2026-04-09T12:35:28.926Z</time></trkpt><trkpt lat="10.0285208" lon="-84.0214004"><ele>1412.75</ele><time>2026-04-09T12:35:29.926Z</time></trkpt><trkpt lat="10.028574" lon="-84.0212577"><ele>1414.0</ele><time>2026-04-09T12:35:30.926Z</time></trkpt><trkpt lat="10.0286255" lon="-84.0211138"><ele>1414.0</ele><time>2026-04-09T12:35:31.926Z</time></trkpt><trkpt lat="10.0286743" lon="-84.0209671"><ele>1414.0</ele><time>2026-04-09T12:35:32.926Z</time></trkpt><trkpt lat="10.0287187" lon="-84.0208179"><ele>1414.0</ele><time>2026-04-09T12:35:33.926Z</time></trkpt><trkpt lat="10.0287553" lon="-84.0206655"><ele>1413.3333333333333</ele><time>2026-04-09T12:35:34.926Z</time></trkpt><trkpt lat="10.0287929" lon="-84.0205122"><ele>1412.6666666666667</ele><time>2026-04-09T12:35:35.926Z</time></trkpt><trkpt lat="10.0288249" lon="-84.0203579"><ele>1412.0</ele><time>2026-04-09T12:35:36.926Z</time></trkpt><trkpt lat="10.0288611" lon="-84.0201983"><ele>1412.0</ele><time>2026-04-09T12:35:37.926Z</time></trkpt><trkpt lat="10.0288907" lon="-84.0200395"><ele>1412.0</ele><time>2026-04-09T12:35:38.926Z</time></trkpt><trkpt lat="10.0289153" lon="-84.0198758"><ele>1412.0</ele><time>2026-04-09T12:35:39.926Z</time></trkpt><trkpt lat="10.0289424" lon="-84.0197126"><ele>1412.0</ele><time>2026-04-09T12:35:40.926Z</time></trkpt><trkpt lat="10.0289634" lon="-84.0195476"><ele>1412.0</ele><time>2026-04-09T12:35:41.926Z</time></trkpt><trkpt lat="10.0289897" lon="-84.0193876"><ele>1412.0</ele><time>2026-04-09T12:35:42.927Z</time></trkpt><trkpt lat="10.0290125" lon="-84.0192295"><ele>1413.6666666666667</ele><time>2026-04-09T12:35:43.926Z</time></trkpt><trkpt lat="10.0290386" lon="-84.0190739"><ele>1415.3333333333333</ele><time>2026-04-09T12:35:44.926Z</time></trkpt><trkpt lat="10.029064" lon="-84.0189146"><ele>1417.0</ele><time>2026-04-09T12:35:45.926Z</time></trkpt><trkpt lat="10.0290877" lon="-84.0187547"><ele>1417.0</ele><time>2026-04-09T12:35:46.926Z</time></trkpt><trkpt lat="10.0291087" lon="-84.0185934"><ele>1417.0</ele><time>2026-04-09T12:35:47.927Z</time></trkpt><trkpt lat="10.0291312" lon="-84.018429"><ele>1417.0</ele><time>2026-04-09T12:35:48.926Z</time></trkpt><trkpt lat="10.0291518" lon="-84.0182636"><ele>1419.6666666666665</ele><time>2026-04-09T12:35:49.926Z</time></trkpt><trkpt lat="10.0291772" lon="-84.0180969"><ele>1422.3333333333333</ele><time>2026-04-09T12:35:50.926Z</time></trkpt><trkpt lat="10.0292039" lon="-84.0179333"><ele>1425.0</ele><time>2026-04-09T12:35:51.926Z</time></trkpt><trkpt lat="10.0292301" lon="-84.017768"><ele>1425.0</ele><time>2026-04-09T12:35:52.926Z</time></trkpt><trkpt lat="10.0292559" lon="-84.0176022"><ele>1425.0</ele><time>2026-04-09T12:35:53.926Z</time></trkpt><trkpt lat="10.0292819" lon="-84.0174327"><ele>1425.0</ele><time>2026-04-09T12:35:54.926Z</time></trkpt><trkpt lat="10.0293062" lon="-84.0172646"><ele>1425.6666666666667</ele><time>2026-04-09T12:35:55.926Z</time></trkpt><trkpt lat="10.0293301" lon="-84.0170958"><ele>1426.3333333333335</ele><time>2026-04-09T12:35:56.926Z</time></trkpt><trkpt lat="10.0293522" lon="-84.0169295"><ele>1427.0</ele><time>2026-04-09T12:35:57.926Z</time></trkpt><trkpt lat="10.0293789" lon="-84.0167595"><ele>1427.6666666666667</ele><time>2026-04-09T12:35:58.926Z</time></trkpt><trkpt lat="10.0294055" lon="-84.0165914"><ele>1428.3333333333333</ele><time>2026-04-09T12:35:59.926Z</time></trkpt><trkpt lat="10.0294316" lon="-84.0164238"><ele>1429.0</ele><time>2026-04-09T12:36:00.927Z</time></trkpt><trkpt lat="10.0294574" lon="-84.0162574"><ele>1429.0</ele><time>2026-04-09T12:36:01.926Z</time></trkpt><trkpt lat="10.0294825" lon="-84.016087"><ele>1429.0</ele><time>2026-04-09T12:36:02.926Z</time></trkpt><trkpt lat="10.0295055" lon="-84.015922"><ele>1429.0</ele><time>2026-04-09T12:36:03.926Z</time></trkpt><trkpt lat="10.0295285" lon="-84.0157538"><ele>1430.3333333333333</ele><time>2026-04-09T12:36:04.926Z</time></trkpt><trkpt lat="10.0295533" lon="-84.015585"><ele>1431.6666666666667</ele><time>2026-04-09T12:36:05.926Z</time></trkpt><trkpt lat="10.0295785" lon="-84.0154163"><ele>1433.0</ele><time>2026-04-09T12:36:06.926Z</time></trkpt><trkpt lat="10.0296072" lon="-84.0152446"><ele>1433.0</ele><time>2026-04-09T12:36:07.927Z</time></trkpt><trkpt lat="10.0296385" lon="-84.0150675"><ele>1433.0</ele><time>2026-04-09T12:36:08.926Z</time></trkpt><trkpt lat="10.0296641" lon="-84.0148923"><ele>1433.0</ele><time>2026-04-09T12:36:09.926Z</time></trkpt><trkpt lat="10.0296922" lon="-84.0147148"><ele>1431.6666666666667</ele><time>2026-04-09T12:36:10.926Z</time></trkpt><trkpt lat="10.0297191" lon="-84.0145386"><ele>1430.3333333333333</ele><time>2026-04-09T12:36:11.926Z</time></trkpt><trkpt lat="10.0297477" lon="-84.0143669"><ele>1429.0</ele><time>2026-04-09T12:36:12.926Z</time></trkpt><trkpt lat="10.0297762" lon="-84.0141938"><ele>1428.3333333333333</ele><time>2026-04-09T12:36:13.927Z</time></trkpt><trkpt lat="10.0298042" lon="-84.014013"><ele>1427.6666666666667</ele><time>2026-04-09T12:36:14.926Z</time></trkpt><trkpt lat="10.0298296" lon="-84.0138364"><ele>1427.0</ele><time>2026-04-09T12:36:15.926Z</time></trkpt><trkpt lat="10.0298596" lon="-84.0136569"><ele>1427.0</ele><time>2026-04-09T12:36:16.926Z</time></trkpt><trkpt lat="10.0298882" lon="-84.0134784"><ele>1427.0</ele><time>2026-04-09T12:36:17.926Z</time></trkpt><trkpt lat="10.0299142" lon="-84.0133007"><ele>1427.0</ele><time>2026-04-09T12:36:18.926Z</time></trkpt><trkpt lat="10.0299411" lon="-84.0131209"><ele>1426.6666666666667</ele><time>2026-04-09T12:36:19.926Z</time></trkpt><trkpt lat="10.0299678" lon="-84.0129407"><ele>1426.3333333333333</ele><time>2026-04-09T12:36:20.926Z</time></trkpt><trkpt lat="10.029998" lon="-84.0127588"><ele>1426.0</ele><time>2026-04-09T12:36:21.926Z</time></trkpt><trkpt lat="10.0300266" lon="-84.0125771"><ele>1425.3333333333333</ele><time>2026-04-09T12:36:22.926Z</time></trkpt><trkpt lat="10.0300565" lon="-84.0123967"><ele>1424.6666666666667</ele><time>2026-04-09T12:36:23.926Z</time></trkpt><trkpt lat="10.0300866" lon="-84.0122203"><ele>1424.0</ele><time>2026-04-09T12:36:24.926Z</time></trkpt><trkpt lat="10.0301143" lon="-84.0120406"><ele>1424.0</ele><time>2026-04-09T12:36:25.926Z</time></trkpt><trkpt lat="10.0301393" lon="-84.0118702"><ele>1424.0</ele><time>2026-04-09T12:36:26.926Z</time></trkpt><trkpt lat="10.0301591" lon="-84.0117051"><ele>1424.0</ele><time>2026-04-09T12:36:27.926Z</time></trkpt><trkpt lat="10.0301841" lon="-84.0115495"><ele>1424.3333333333335</ele><time>2026-04-09T12:36:28.926Z</time></trkpt><trkpt lat="10.0302076" lon="-84.0113938"><ele>1424.6666666666667</ele><time>2026-04-09T12:36:29.926Z</time></trkpt><trkpt lat="10.0302271" lon="-84.0112338"><ele>1425.0</ele><time>2026-04-09T12:36:30.926Z</time></trkpt><trkpt lat="10.0302516" lon="-84.0110738"><ele>1425.0</ele><time>2026-04-09T12:36:31.926Z</time></trkpt><trkpt lat="10.0302774" lon="-84.0109128"><ele>1425.0</ele><time>2026-04-09T12:36:32.926Z</time></trkpt><trkpt lat="10.030303" lon="-84.0107568"><ele>1425.0</ele><time>2026-04-09T12:36:33.927Z</time></trkpt><trkpt lat="10.0303285" lon="-84.0106004"><ele>1428.0</ele><time>2026-04-09T12:36:34.926Z</time></trkpt><trkpt lat="10.0303508" lon="-84.0104476"><ele>1431.0</ele><time>2026-04-09T12:36:35.926Z</time></trkpt><trkpt lat="10.0303657" lon="-84.0102939"><ele>1434.0</ele><time>2026-04-09T12:36:36.926Z</time></trkpt><trkpt lat="10.0303878" lon="-84.0101381"><ele>1436.0</ele><time>2026-04-09T12:36:37.926Z</time></trkpt><trkpt lat="10.0304104" lon="-84.0099838"><ele>1438.0</ele><time>2026-04-09T12:36:38.926Z</time></trkpt><trkpt lat="10.030431" lon="-84.0098274"><ele>1440.0</ele><time>2026-04-09T12:36:39.926Z</time></trkpt><trkpt lat="10.0304455" lon="-84.0096733"><ele>1440.0</ele><time>2026-04-09T12:36:40.926Z</time></trkpt><trkpt lat="10.0304571" lon="-84.0095242"><ele>1440.0</ele><time>2026-04-09T12:36:41.926Z</time></trkpt><trkpt lat="10.0304695" lon="-84.0093792"><ele>1440.0</ele><time>2026-04-09T12:36:42.926Z</time></trkpt><trkpt lat="10.0304744" lon="-84.0092438"><ele>1440.0</ele><time>2026-04-09T12:36:43.926Z</time></trkpt><trkpt lat="10.0304779" lon="-84.0091114"><ele>1437.25</ele><time>2026-04-09T12:36:44.926Z</time></trkpt><trkpt lat="10.0304799" lon="-84.0089832"><ele>1434.5</ele><time>2026-04-09T12:36:45.926Z</time></trkpt><trkpt lat="10.0304816" lon="-84.0088651"><ele>1431.75</ele><time>2026-04-09T12:36:46.926Z</time></trkpt><trkpt lat="10.0304829" lon="-84.0087524"><ele>1429.0</ele><time>2026-04-09T12:36:47.926Z</time></trkpt><trkpt lat="10.030481" lon="-84.0086472"><ele>1429.0</ele><time>2026-04-09T12:36:48.926Z</time></trkpt><trkpt lat="10.0304788" lon="-84.0085476"><ele>1429.0</ele><time>2026-04-09T12:36:49.926Z</time></trkpt><trkpt lat="10.0304715" lon="-84.0084585"><ele>1429.0</ele><time>2026-04-09T12:36:50.926Z</time></trkpt><trkpt lat="10.0304656" lon="-84.0083747"><ele>1429.0</ele><time>2026-04-09T12:36:51.926Z</time></trkpt><trkpt lat="10.0304594" lon="-84.0082972"><ele>1429.0</ele><time>2026-04-09T12:36:52.926Z</time></trkpt><trkpt lat="10.0304591" lon="-84.008219"><ele>1429.0</ele><time>2026-04-09T12:36:53.926Z</time></trkpt><trkpt lat="10.0304578" lon="-84.008155"><ele>1428.2</ele><time>2026-04-09T12:36:54.927Z</time></trkpt><trkpt lat="10.0304507" lon="-84.0080468"><ele>1427.4</ele><time>2026-04-09T12:36:56.926Z</time></trkpt><trkpt lat="10.0304441" lon="-84.0079393"><ele>1426.6</ele><time>2026-04-09T12:36:58.926Z</time></trkpt><trkpt lat="10.0304292" lon="-84.0078435"><ele>1425.8</ele><time>2026-04-09T12:37:00.926Z</time></trkpt><trkpt lat="10.0304113" lon="-84.007755"><ele>1425.0</ele><time>2026-04-09T12:37:02.926Z</time></trkpt><trkpt lat="10.0304116" lon="-84.0076595"><ele>1425.0</ele><time>2026-04-09T12:37:04.926Z</time></trkpt><trkpt lat="10.0304321" lon="-84.0075909"><ele>1425.0</ele><time>2026-04-09T12:37:08.926Z</time></trkpt><trkpt lat="10.0303965" lon="-84.0075377"><ele>1425.0</ele><time>2026-04-09T12:38:03.926Z</time></trkpt><trkpt lat="10.0304049" lon="-84.0074177"><ele>1425.0</ele><time>2026-04-09T12:38:05.926Z</time></trkpt><trkpt lat="10.0304138" lon="-84.0073513"><ele>1425.0</ele><time>2026-04-09T12:38:06.926Z</time></trkpt><trkpt lat="10.0304288" lon="-84.0072695"><ele>1425.0</ele><time>2026-04-09T12:38:07.926Z</time></trkpt><trkpt lat="10.0304433" lon="-84.007184"><ele>1425.6</ele><time>2026-04-09T12:38:08.926Z</time></trkpt><trkpt lat="10.0304521" lon="-84.0071022"><ele>1426.2</ele><time>2026-04-09T12:38:09.926Z</time></trkpt><trkpt lat="10.0304678" lon="-84.0070135"><ele>1426.8000000000002</ele><time>2026-04-09T12:38:10.926Z</time></trkpt><trkpt lat="10.0304823" lon="-84.0069193"><ele>1427.4</ele><time>2026-04-09T12:38:11.926Z</time></trkpt><trkpt lat="10.0304931" lon="-84.0068185"><ele>1428.0</ele><time>2026-04-09T12:38:12.926Z</time></trkpt><trkpt lat="10.0305051" lon="-84.0067126"><ele>1428.8000000000002</ele><time>2026-04-09T12:38:13.926Z</time></trkpt><trkpt lat="10.0305202" lon="-84.0066019"><ele>1429.6</ele><time>2026-04-09T12:38:14.926Z</time></trkpt><trkpt lat="10.0305255" lon="-84.0064973"><ele>1430.4</ele><time>2026-04-09T12:38:15.926Z</time></trkpt><trkpt lat="10.0305315" lon="-84.0063874"><ele>1431.1999999999998</ele><time>2026-04-09T12:38:16.926Z</time></trkpt><trkpt lat="10.0305367" lon="-84.0062742"><ele>1432.0</ele><time>2026-04-09T12:38:17.926Z</time></trkpt><trkpt lat="10.030543" lon="-84.0061624"><ele>1432.0</ele><time>2026-04-09T12:38:18.926Z</time></trkpt><trkpt lat="10.0305461" lon="-84.0060481"><ele>1432.0</ele><time>2026-04-09T12:38:19.926Z</time></trkpt><trkpt lat="10.0305469" lon="-84.0059376"><ele>1432.0</ele><time>2026-04-09T12:38:20.926Z</time></trkpt><trkpt lat="10.0305508" lon="-84.0058273"><ele>1432.0</ele><time>2026-04-09T12:38:21.926Z</time></trkpt><trkpt lat="10.0305496" lon="-84.0057178"><ele>1432.0</ele><time>2026-04-09T12:38:22.926Z</time></trkpt><trkpt lat="10.0305511" lon="-84.0056058"><ele>1434.1999999999998</ele><time>2026-04-09T12:38:23.926Z</time></trkpt><trkpt lat="10.0305526" lon="-84.0054926"><ele>1436.4</ele><time>2026-04-09T12:38:24.926Z</time></trkpt><trkpt lat="10.0305508" lon="-84.0053823"><ele>1438.6</ele><time>2026-04-09T12:38:25.927Z</time></trkpt><trkpt lat="10.0305531" lon="-84.0052669"><ele>1440.8000000000002</ele><time>2026-04-09T12:38:26.926Z</time></trkpt><trkpt lat="10.0305549" lon="-84.0051522"><ele>1443.0</ele><time>2026-04-09T12:38:27.926Z</time></trkpt><trkpt lat="10.0305587" lon="-84.0050386"><ele>1444.4</ele><time>2026-04-09T12:38:28.926Z</time></trkpt><trkpt lat="10.0305634" lon="-84.0049242"><ele>1445.8000000000002</ele><time>2026-04-09T12:38:29.926Z</time></trkpt><trkpt lat="10.0305744" lon="-84.0048125"><ele>1447.2</ele><time>2026-04-09T12:38:30.926Z</time></trkpt><trkpt lat="10.0305883" lon="-84.0046997"><ele>1448.6</ele><time>2026-04-09T12:38:31.927Z</time></trkpt><trkpt lat="10.0306104" lon="-84.0045879"><ele>1450.0</ele><time>2026-04-09T12:38:32.926Z</time></trkpt><trkpt lat="10.0306306" lon="-84.0044743"><ele>1450.0</ele><time>2026-04-09T12:38:33.926Z</time></trkpt><trkpt lat="10.0306582" lon="-84.0043606"><ele>1450.0</ele><time>2026-04-09T12:38:34.926Z</time></trkpt><trkpt lat="10.0306952" lon="-84.004251"><ele>1450.0</ele><time>2026-04-09T12:38:35.926Z</time></trkpt><trkpt lat="10.030739" lon="-84.0041397"><ele>1450.0</ele><time>2026-04-09T12:38:36.926Z</time></trkpt><trkpt lat="10.0307871" lon="-84.0040271"><ele>1450.0</ele><time>2026-04-09T12:38:37.926Z</time></trkpt><trkpt lat="10.0308395" lon="-84.0039204"><ele>1450.0</ele><time>2026-04-09T12:38:38.926Z</time></trkpt><trkpt lat="10.0308968" lon="-84.0038183"><ele>1450.0</ele><time>2026-04-09T12:38:39.926Z</time></trkpt><trkpt lat="10.030961" lon="-84.0037207"><ele>1450.0</ele><time>2026-04-09T12:38:40.926Z</time></trkpt><trkpt lat="10.0310314" lon="-84.0036261"><ele>1450.0</ele><time>2026-04-09T12:38:41.926Z</time></trkpt><trkpt lat="10.0311105" lon="-84.0035336"><ele>1450.0</ele><time>2026-04-09T12:38:42.926Z</time></trkpt><trkpt lat="10.0311915" lon="-84.0034413"><ele>1450.0</ele><time>2026-04-09T12:38:43.926Z</time></trkpt><trkpt lat="10.0312785" lon="-84.0033495"><ele>1450.0</ele><time>2026-04-09T12:38:44.926Z</time></trkpt><trkpt lat="10.0313697" lon="-84.003262"><ele>1450.75</ele><time>2026-04-09T12:38:45.926Z</time></trkpt><trkpt lat="10.0314702" lon="-84.0031892"><ele>1451.5</ele><time>2026-04-09T12:38:46.926Z</time></trkpt><trkpt lat="10.0315724" lon="-84.0031195"><ele>1452.25</ele><time>2026-04-09T12:38:47.926Z</time></trkpt><trkpt lat="10.0316788" lon="-84.0030514"><ele>1453.0</ele><time>2026-04-09T12:38:48.926Z</time></trkpt><trkpt lat="10.0317904" lon="-84.002988"><ele>1453.0</ele><time>2026-04-09T12:38:49.926Z</time></trkpt><trkpt lat="10.0319064" lon="-84.0029326"><ele>1453.0</ele><time>2026-04-09T12:38:50.926Z</time></trkpt><trkpt lat="10.0320284" lon="-84.002885"><ele>1453.0</ele><time>2026-04-09T12:38:51.926Z</time></trkpt><trkpt lat="10.0321534" lon="-84.0028428"><ele>1453.0</ele><time>2026-04-09T12:38:52.926Z</time></trkpt><trkpt lat="10.0322787" lon="-84.0028108"><ele>1453.0</ele><time>2026-04-09T12:38:53.926Z</time></trkpt><trkpt lat="10.0324074" lon="-84.0027786"><ele>1453.0</ele><time>2026-04-09T12:38:54.926Z</time></trkpt><trkpt lat="10.0325383" lon="-84.0027586"><ele>1453.0</ele><time>2026-04-09T12:38:55.926Z</time></trkpt><trkpt lat="10.0326698" lon="-84.0027463"><ele>1453.0</ele><time>2026-04-09T12:38:56.926Z</time></trkpt><trkpt lat="10.0328019" lon="-84.0027398"><ele>1454.75</ele><time>2026-04-09T12:38:57.926Z</time></trkpt><trkpt lat="10.0329333" lon="-84.0027398"><ele>1456.5</ele><time>2026-04-09T12:38:58.926Z</time></trkpt><trkpt lat="10.0330621" lon="-84.002749"><ele>1458.25</ele><time>2026-04-09T12:38:59.926Z</time></trkpt><trkpt lat="10.0331904" lon="-84.0027695"><ele>1460.0</ele><time>2026-04-09T12:39:00.926Z</time></trkpt><trkpt lat="10.033319" lon="-84.0027946"><ele>1460.25</ele><time>2026-04-09T12:39:01.926Z</time></trkpt><trkpt lat="10.0334484" lon="-84.0028257"><ele>1460.5</ele><time>2026-04-09T12:39:02.926Z</time></trkpt><trkpt lat="10.0335793" lon="-84.0028548"><ele>1460.75</ele><time>2026-04-09T12:39:03.926Z</time></trkpt><trkpt lat="10.0337029" lon="-84.0028849"><ele>1461.0</ele><time>2026-04-09T12:39:04.926Z</time></trkpt><trkpt lat="10.0338288" lon="-84.0029193"><ele>1461.0</ele><time>2026-04-09T12:39:05.926Z</time></trkpt><trkpt lat="10.033956" lon="-84.002954"><ele>1461.0</ele><time>2026-04-09T12:39:06.926Z</time></trkpt><trkpt lat="10.0340831" lon="-84.002992"><ele>1461.0</ele><time>2026-04-09T12:39:07.926Z</time></trkpt><trkpt lat="10.0342142" lon="-84.0030315"><ele>1461.0</ele><time>2026-04-09T12:39:08.926Z</time></trkpt><trkpt lat="10.0343431" lon="-84.0030703"><ele>1462.5</ele><time>2026-04-09T12:39:09.926Z</time></trkpt><trkpt lat="10.0344714" lon="-84.0031022"><ele>1464.0</ele><time>2026-04-09T12:39:10.926Z</time></trkpt><trkpt lat="10.0346033" lon="-84.0031337"><ele>1465.5</ele><time>2026-04-09T12:39:11.927Z</time></trkpt><trkpt lat="10.0347255" lon="-84.0031685"><ele>1467.0</ele><time>2026-04-09T12:39:12.926Z</time></trkpt><trkpt lat="10.034854" lon="-84.0032037"><ele>1468.0</ele><time>2026-04-09T12:39:13.926Z</time></trkpt><trkpt lat="10.0349788" lon="-84.0032385"><ele>1469.0</ele><time>2026-04-09T12:39:14.926Z</time></trkpt><trkpt lat="10.0351008" lon="-84.0032746"><ele>1470.0</ele><time>2026-04-09T12:39:15.926Z</time></trkpt><trkpt lat="10.0352199" lon="-84.0033062"><ele>1471.0</ele><time>2026-04-09T12:39:16.926Z</time></trkpt><trkpt lat="10.03534" lon="-84.0033407"><ele>1473.25</ele><time>2026-04-09T12:39:17.926Z</time></trkpt><trkpt lat="10.0354598" lon="-84.0033769"><ele>1475.5</ele><time>2026-04-09T12:39:18.927Z</time></trkpt><trkpt lat="10.0355807" lon="-84.0034104"><ele>1477.75</ele><time>2026-04-09T12:39:19.926Z</time></trkpt><trkpt lat="10.035706" lon="-84.0034409"><ele>1480.0</ele><time>2026-04-09T12:39:20.926Z</time></trkpt><trkpt lat="10.0358258" lon="-84.0034748"><ele>1481.25</ele><time>2026-04-09T12:39:21.926Z</time></trkpt><trkpt lat="10.0359493" lon="-84.0035084"><ele>1482.5</ele><time>2026-04-09T12:39:22.926Z</time></trkpt><trkpt lat="10.0360728" lon="-84.003537"><ele>1483.75</ele><time>2026-04-09T12:39:23.926Z</time></trkpt><trkpt lat="10.0361973" lon="-84.0035659"><ele>1485.0</ele><time>2026-04-09T12:39:24.926Z</time></trkpt><trkpt lat="10.0363245" lon="-84.0035909"><ele>1485.0</ele><time>2026-04-09T12:39:25.926Z</time></trkpt><trkpt lat="10.0364544" lon="-84.0036197"><ele>1485.0</ele><time>2026-04-09T12:39:26.926Z</time></trkpt><trkpt lat="10.0365825" lon="-84.0036432"><ele>1485.0</ele><time>2026-04-09T12:39:27.926Z</time></trkpt><trkpt lat="10.0367129" lon="-84.0036657"><ele>1485.0</ele><time>2026-04-09T12:39:28.926Z</time></trkpt><trkpt lat="10.036847" lon="-84.0036846"><ele>1486.75</ele><time>2026-04-09T12:39:29.926Z</time></trkpt><trkpt lat="10.0369784" lon="-84.0037013"><ele>1488.5</ele><time>2026-04-09T12:39:30.926Z</time></trkpt><trkpt lat="10.0371112" lon="-84.0037163"><ele>1490.25</ele><time>2026-04-09T12:39:31.926Z</time></trkpt><trkpt lat="10.0372429" lon="-84.0037245"><ele>1492.0</ele><time>2026-04-09T12:39:32.926Z</time></trkpt><trkpt lat="10.0373736" lon="-84.003732"><ele>1493.25</ele><time>2026-04-09T12:39:33.926Z</time></trkpt><trkpt lat="10.0374996" lon="-84.003734"><ele>1494.5</ele><time>2026-04-09T12:39:34.926Z</time></trkpt><trkpt lat="10.0376229" lon="-84.0037353"><ele>1495.75</ele><time>2026-04-09T12:39:35.926Z</time></trkpt><trkpt lat="10.0377442" lon="-84.0037344"><ele>1497.0</ele><time>2026-04-09T12:39:36.926Z</time></trkpt><trkpt lat="10.0378616" lon="-84.0037362"><ele>1497.0</ele><time>2026-04-09T12:39:37.926Z</time></trkpt><trkpt lat="10.0379761" lon="-84.0037358"><ele>1497.0</ele><time>2026-04-09T12:39:38.926Z</time></trkpt><trkpt lat="10.0380832" lon="-84.0037279"><ele>1497.0</ele><time>2026-04-09T12:39:39.926Z</time></trkpt><trkpt lat="10.0381915" lon="-84.0037237"><ele>1497.0</ele><time>2026-04-09T12:39:40.926Z</time></trkpt><trkpt lat="10.0383" lon="-84.0037231"><ele>1497.0</ele><time>2026-04-09T12:39:41.926Z</time></trkpt><trkpt lat="10.0384135" lon="-84.0037191"><ele>1499.25</ele><time>2026-04-09T12:39:42.926Z</time></trkpt><trkpt lat="10.0385275" lon="-84.0037155"><ele>1501.5</ele><time>2026-04-09T12:39:43.926Z</time></trkpt><trkpt lat="10.0386439" lon="-84.0037136"><ele>1503.75</ele><time>2026-04-09T12:39:44.926Z</time></trkpt><trkpt lat="10.0387632" lon="-84.0037113"><ele>1506.0</ele><time>2026-04-09T12:39:45.926Z</time></trkpt><trkpt lat="10.0388847" lon="-84.0037053"><ele>1506.0</ele><time>2026-04-09T12:39:46.926Z</time></trkpt><trkpt lat="10.0390082" lon="-84.0036987"><ele>1506.0</ele><time>2026-04-09T12:39:47.926Z</time></trkpt><trkpt lat="10.0391344" lon="-84.0036884"><ele>1506.0</ele><time>2026-04-09T12:39:48.926Z</time></trkpt><trkpt lat="10.0392649" lon="-84.0036819"><ele>1506.0</ele><time>2026-04-09T12:39:49.927Z</time></trkpt><trkpt lat="10.0393959" lon="-84.0036749"><ele>1508.5</ele><time>2026-04-09T12:39:50.926Z</time></trkpt><trkpt lat="10.0395275" lon="-84.003665"><ele>1511.0</ele><time>2026-04-09T12:39:51.926Z</time></trkpt><trkpt lat="10.0396619" lon="-84.0036564"><ele>1513.5</ele><time>2026-04-09T12:39:52.926Z</time></trkpt><trkpt lat="10.039799" lon="-84.00365"><ele>1516.0</ele><time>2026-04-09T12:39:53.926Z</time></trkpt><trkpt lat="10.039939" lon="-84.0036459"><ele>1518.75</ele><time>2026-04-09T12:39:54.926Z</time></trkpt><trkpt lat="10.0400758" lon="-84.0036451"><ele>1521.5</ele><time>2026-04-09T12:39:55.926Z</time></trkpt><trkpt lat="10.0402115" lon="-84.0036439"><ele>1524.25</ele><time>2026-04-09T12:39:56.926Z</time></trkpt><trkpt lat="10.0403405" lon="-84.0036458"><ele>1527.0</ele><time>2026-04-09T12:39:57.926Z</time></trkpt><trkpt lat="10.0404737" lon="-84.0036555"><ele>1527.0</ele><time>2026-04-09T12:39:58.927Z</time></trkpt><trkpt lat="10.0406069" lon="-84.0036628"><ele>1527.0</ele><time>2026-04-09T12:39:59.926Z</time></trkpt><trkpt lat="10.0407386" lon="-84.0036703"><ele>1527.0</ele><time>2026-04-09T12:40:00.926Z</time></trkpt><trkpt lat="10.0408768" lon="-84.003686"><ele>1527.0</ele><time>2026-04-09T12:40:01.926Z</time></trkpt><trkpt lat="10.0410133" lon="-84.0037028"><ele>1526.75</ele><time>2026-04-09T12:40:02.926Z</time></trkpt><trkpt lat="10.0411556" lon="-84.0037217"><ele>1526.5</ele><time>2026-04-09T12:40:03.926Z</time></trkpt><trkpt lat="10.0412926" lon="-84.0037435"><ele>1526.25</ele><time>2026-04-09T12:40:04.926Z</time></trkpt><trkpt lat="10.041434" lon="-84.003768"><ele>1526.0</ele><time>2026-04-09T12:40:05.926Z</time></trkpt><trkpt lat="10.0415807" lon="-84.0037954"><ele>1527.6666666666667</ele><time>2026-04-09T12:40:06.926Z</time></trkpt><trkpt lat="10.0417272" lon="-84.0038298"><ele>1529.3333333333333</ele><time>2026-04-09T12:40:07.926Z</time></trkpt><trkpt lat="10.0418732" lon="-84.0038696"><ele>1531.0</ele><time>2026-04-09T12:40:08.926Z</time></trkpt><trkpt lat="10.0420244" lon="-84.0039083"><ele>1531.0</ele><time>2026-04-09T12:40:09.926Z</time></trkpt><trkpt lat="10.0421732" lon="-84.0039533"><ele>1531.0</ele><time>2026-04-09T12:40:10.926Z</time></trkpt><trkpt lat="10.0423154" lon="-84.0040015"><ele>1531.0</ele><time>2026-04-09T12:40:11.926Z</time></trkpt><trkpt lat="10.0424582" lon="-84.0040511"><ele>1532.25</ele><time>2026-04-09T12:40:12.926Z</time></trkpt><trkpt lat="10.0425907" lon="-84.0040984"><ele>1533.5</ele><time>2026-04-09T12:40:13.926Z</time></trkpt><trkpt lat="10.042725" lon="-84.0041501"><ele>1534.75</ele><time>2026-04-09T12:40:14.926Z</time></trkpt><trkpt lat="10.0428593" lon="-84.0042088"><ele>1536.0</ele><time>2026-04-09T12:40:15.926Z</time></trkpt><trkpt lat="10.0429906" lon="-84.0042671"><ele>1536.0</ele><time>2026-04-09T12:40:16.926Z</time></trkpt><trkpt lat="10.0431196" lon="-84.004331"><ele>1536.0</ele><time>2026-04-09T12:40:17.926Z</time></trkpt><trkpt lat="10.0432488" lon="-84.0043951"><ele>1536.0</ele><time>2026-04-09T12:40:18.926Z</time></trkpt><trkpt lat="10.0433748" lon="-84.0044606"><ele>1536.0</ele><time>2026-04-09T12:40:19.926Z</time></trkpt><trkpt lat="10.0435031" lon="-84.0045312"><ele>1537.25</ele><time>2026-04-09T12:40:20.926Z</time></trkpt><trkpt lat="10.0436317" lon="-84.0046031"><ele>1538.5</ele><time>2026-04-09T12:40:21.926Z</time></trkpt><trkpt lat="10.0437587" lon="-84.0046754"><ele>1539.75</ele><time>2026-04-09T12:40:22.927Z</time></trkpt><trkpt lat="10.0438876" lon="-84.0047514"><ele>1541.0</ele><time>2026-04-09T12:40:23.926Z</time></trkpt><trkpt lat="10.0440134" lon="-84.0048322"><ele>1543.3333333333333</ele><time>2026-04-09T12:40:24.926Z</time></trkpt><trkpt lat="10.0441362" lon="-84.0049167"><ele>1545.6666666666665</ele><time>2026-04-09T12:40:25.926Z</time></trkpt><trkpt lat="10.0442575" lon="-84.005005"><ele>1548.0</ele><time>2026-04-09T12:40:26.926Z</time></trkpt><trkpt lat="10.0443794" lon="-84.0050977"><ele>1548.0</ele><time>2026-04-09T12:40:27.927Z</time></trkpt><trkpt lat="10.0444985" lon="-84.0051883"><ele>1548.0</ele><time>2026-04-09T12:40:28.927Z</time></trkpt><trkpt lat="10.0446193" lon="-84.0052784"><ele>1548.0</ele><time>2026-04-09T12:40:29.926Z</time></trkpt><trkpt lat="10.0447395" lon="-84.0053733"><ele>1548.0</ele><time>2026-04-09T12:40:30.927Z</time></trkpt><trkpt lat="10.0448593" lon="-84.005469"><ele>1548.0</ele><time>2026-04-09T12:40:31.926Z</time></trkpt><trkpt lat="10.0449805" lon="-84.005565"><ele>1548.0</ele><time>2026-04-09T12:40:32.926Z</time></trkpt><trkpt lat="10.0451025" lon="-84.0056604"><ele>1550.3333333333335</ele><time>2026-04-09T12:40:33.926Z</time></trkpt><trkpt lat="10.0452248" lon="-84.0057564"><ele>1552.6666666666667</ele><time>2026-04-09T12:40:34.926Z</time></trkpt><trkpt lat="10.0453471" lon="-84.0058541"><ele>1555.0</ele><time>2026-04-09T12:40:35.926Z</time></trkpt><trkpt lat="10.0454723" lon="-84.005948"><ele>1555.0</ele><time>2026-04-09T12:40:36.926Z</time></trkpt><trkpt lat="10.0455994" lon="-84.0060419"><ele>1555.0</ele><time>2026-04-09T12:40:37.927Z</time></trkpt><trkpt lat="10.0457209" lon="-84.0061384"><ele>1555.0</ele><time>2026-04-09T12:40:38.926Z</time></trkpt><trkpt lat="10.045842" lon="-84.0062343"><ele>1558.0</ele><time>2026-04-09T12:40:39.926Z</time></trkpt><trkpt lat="10.0459642" lon="-84.0063291"><ele>1561.0</ele><time>2026-04-09T12:40:40.926Z</time></trkpt><trkpt lat="10.0460897" lon="-84.0064206"><ele>1564.0</ele><time>2026-04-09T12:40:41.926Z</time></trkpt><trkpt lat="10.0462151" lon="-84.0065134"><ele>1564.0</ele><time>2026-04-09T12:40:42.926Z</time></trkpt><trkpt lat="10.0463385" lon="-84.0066055"><ele>1564.0</ele><time>2026-04-09T12:40:43.926Z</time></trkpt><trkpt lat="10.0464608" lon="-84.006696"><ele>1564.0</ele><time>2026-04-09T12:40:44.926Z</time></trkpt><trkpt lat="10.0465798" lon="-84.0067822"><ele>1566.25</ele><time>2026-04-09T12:40:45.926Z</time></trkpt><trkpt lat="10.0467052" lon="-84.0068632"><ele>1568.5</ele><time>2026-04-09T12:40:46.926Z</time></trkpt><trkpt lat="10.0468268" lon="-84.0069458"><ele>1570.75</ele><time>2026-04-09T12:40:47.926Z</time></trkpt><trkpt lat="10.0469523" lon="-84.0070208"><ele>1573.0</ele><time>2026-04-09T12:40:48.926Z</time></trkpt><trkpt lat="10.0470804" lon="-84.0070914"><ele>1573.0</ele><time>2026-04-09T12:40:49.926Z</time></trkpt><trkpt lat="10.0472107" lon="-84.0071505"><ele>1573.0</ele><time>2026-04-09T12:40:50.926Z</time></trkpt><trkpt lat="10.0473459" lon="-84.0072047"><ele>1573.0</ele><time>2026-04-09T12:40:51.926Z</time></trkpt><trkpt lat="10.0474808" lon="-84.0072539"><ele>1573.0</ele><time>2026-04-09T12:40:52.927Z</time></trkpt><trkpt lat="10.0476189" lon="-84.0072934"><ele>1576.0</ele><time>2026-04-09T12:40:53.926Z</time></trkpt><trkpt lat="10.047754" lon="-84.007324"><ele>1579.0</ele><time>2026-04-09T12:40:54.927Z</time></trkpt><trkpt lat="10.0478918" lon="-84.0073435"><ele>1582.0</ele><time>2026-04-09T12:40:55.926Z</time></trkpt><trkpt lat="10.0480321" lon="-84.0073562"><ele>1585.0</ele><time>2026-04-09T12:40:56.926Z</time></trkpt><trkpt lat="10.0481718" lon="-84.0073612"><ele>1586.0</ele><time>2026-04-09T12:40:57.926Z</time></trkpt><trkpt lat="10.048313" lon="-84.0073638"><ele>1587.0</ele><time>2026-04-09T12:40:58.926Z</time></trkpt><trkpt lat="10.0484519" lon="-84.007356"><ele>1588.0</ele><time>2026-04-09T12:40:59.926Z</time></trkpt><trkpt lat="10.0485914" lon="-84.0073393"><ele>1589.0</ele><time>2026-04-09T12:41:00.926Z</time></trkpt><trkpt lat="10.0487317" lon="-84.0073193"><ele>1589.0</ele><time>2026-04-09T12:41:01.926Z</time></trkpt><trkpt lat="10.0488667" lon="-84.007289"><ele>1589.0</ele><time>2026-04-09T12:41:02.927Z</time></trkpt><trkpt lat="10.0489993" lon="-84.0072545"><ele>1589.0</ele><time>2026-04-09T12:41:03.926Z</time></trkpt><trkpt lat="10.0491286" lon="-84.0072053"><ele>1589.0</ele><time>2026-04-09T12:41:04.926Z</time></trkpt><trkpt lat="10.0492571" lon="-84.007154"><ele>1589.25</ele><time>2026-04-09T12:41:05.926Z</time></trkpt><trkpt lat="10.0493846" lon="-84.007096"><ele>1589.5</ele><time>2026-04-09T12:41:06.926Z</time></trkpt><trkpt lat="10.0495115" lon="-84.0070346"><ele>1589.75</ele><time>2026-04-09T12:41:07.926Z</time></trkpt><trkpt lat="10.0496331" lon="-84.0069632"><ele>1590.0</ele><time>2026-04-09T12:41:08.926Z</time></trkpt><trkpt lat="10.0497492" lon="-84.0068869"><ele>1590.0</ele><time>2026-04-09T12:41:09.926Z</time></trkpt><trkpt lat="10.0498655" lon="-84.0068017"><ele>1590.0</ele><time>2026-04-09T12:41:10.926Z</time></trkpt><trkpt lat="10.0499772" lon="-84.0067136"><ele>1590.0</ele><time>2026-04-09T12:41:11.926Z</time></trkpt><trkpt lat="10.0500775" lon="-84.0066235"><ele>1590.0</ele><time>2026-04-09T12:41:12.926Z</time></trkpt><trkpt lat="10.0501721" lon="-84.0065274"><ele>1593.75</ele><time>2026-04-09T12:41:13.926Z</time></trkpt><trkpt lat="10.0502583" lon="-84.0064287"><ele>1597.5</ele><time>2026-04-09T12:41:14.926Z</time></trkpt><trkpt lat="10.0503384" lon="-84.0063253"><ele>1601.25</ele><time>2026-04-09T12:41:15.926Z</time></trkpt><trkpt lat="10.0504119" lon="-84.0062195"><ele>1605.0</ele><time>2026-04-09T12:41:16.926Z</time></trkpt><trkpt lat="10.0504851" lon="-84.006111"><ele>1605.0</ele><time>2026-04-09T12:41:17.926Z</time></trkpt><trkpt lat="10.0505567" lon="-84.005999"><ele>1605.0</ele><time>2026-04-09T12:41:18.926Z</time></trkpt><trkpt lat="10.0506152" lon="-84.0058839"><ele>1605.0</ele><time>2026-04-09T12:41:19.926Z</time></trkpt><trkpt lat="10.0506713" lon="-84.0057726"><ele>1605.0</ele><time>2026-04-09T12:41:20.926Z</time></trkpt><trkpt lat="10.0507283" lon="-84.0056623"><ele>1605.75</ele><time>2026-04-09T12:41:21.926Z</time></trkpt><trkpt lat="10.0507817" lon="-84.005553"><ele>1606.5</ele><time>2026-04-09T12:41:22.926Z</time></trkpt><trkpt lat="10.0508334" lon="-84.0054448"><ele>1607.25</ele><time>2026-04-09T12:41:23.926Z</time></trkpt><trkpt lat="10.0508852" lon="-84.0053343"><ele>1608.0</ele><time>2026-04-09T12:41:24.926Z</time></trkpt><trkpt lat="10.0509359" lon="-84.0052189"><ele>1608.0</ele><time>2026-04-09T12:41:25.926Z</time></trkpt><trkpt lat="10.0509852" lon="-84.0051014"><ele>1608.0</ele><time>2026-04-09T12:41:26.927Z</time></trkpt><trkpt lat="10.0510342" lon="-84.0049878"><ele>1608.0</ele><time>2026-04-09T12:41:27.926Z</time></trkpt><trkpt lat="10.0510859" lon="-84.0048753"><ele>1608.0</ele><time>2026-04-09T12:41:28.926Z</time></trkpt><trkpt lat="10.0511383" lon="-84.004761"><ele>1609.0</ele><time>2026-04-09T12:41:29.926Z</time></trkpt><trkpt lat="10.051189" lon="-84.0046456"><ele>1610.0</ele><time>2026-04-09T12:41:30.926Z</time></trkpt><trkpt lat="10.0512451" lon="-84.0045229"><ele>1611.0</ele><time>2026-04-09T12:41:31.926Z</time></trkpt><trkpt lat="10.0513019" lon="-84.0044023"><ele>1612.0</ele><time>2026-04-09T12:41:32.926Z</time></trkpt><trkpt lat="10.0513598" lon="-84.0042846"><ele>1612.0</ele><time>2026-04-09T12:41:33.927Z</time></trkpt><trkpt lat="10.0514187" lon="-84.0041686"><ele>1612.0</ele><time>2026-04-09T12:41:34.926Z</time></trkpt><trkpt lat="10.0514762" lon="-84.0040518"><ele>1612.0</ele><time>2026-04-09T12:41:35.926Z</time></trkpt><trkpt lat="10.0515358" lon="-84.0039386"><ele>1612.0</ele><time>2026-04-09T12:41:36.926Z</time></trkpt><trkpt lat="10.0515995" lon="-84.0038319"><ele>1615.5</ele><time>2026-04-09T12:41:37.926Z</time></trkpt><trkpt lat="10.0516661" lon="-84.0037262"><ele>1619.0</ele><time>2026-04-09T12:41:38.926Z</time></trkpt><trkpt lat="10.0517365" lon="-84.0036257"><ele>1622.5</ele><time>2026-04-09T12:41:39.926Z</time></trkpt><trkpt lat="10.0518146" lon="-84.0035352"><ele>1626.0</ele><time>2026-04-09T12:41:40.926Z</time></trkpt><trkpt lat="10.0519024" lon="-84.0034521"><ele>1626.0</ele><time>2026-04-09T12:41:41.926Z</time></trkpt><trkpt lat="10.0519979" lon="-84.0033783"><ele>1626.0</ele><time>2026-04-09T12:41:42.926Z</time></trkpt><trkpt lat="10.0520998" lon="-84.0033135"><ele>1626.0</ele><time>2026-04-09T12:41:43.927Z</time></trkpt><trkpt lat="10.0522106" lon="-84.0032575"><ele>1626.0</ele><time>2026-04-09T12:41:44.926Z</time></trkpt><trkpt lat="10.0523283" lon="-84.0032111"><ele>1624.75</ele><time>2026-04-09T12:41:45.926Z</time></trkpt><trkpt lat="10.0524496" lon="-84.0031686"><ele>1623.5</ele><time>2026-04-09T12:41:46.926Z</time></trkpt><trkpt lat="10.0525767" lon="-84.0031414"><ele>1622.25</ele><time>2026-04-09T12:41:47.926Z</time></trkpt><trkpt lat="10.0527086" lon="-84.0031257"><ele>1621.0</ele><time>2026-04-09T12:41:48.926Z</time></trkpt><trkpt lat="10.0528427" lon="-84.0031251"><ele>1621.0</ele><time>2026-04-09T12:41:49.926Z</time></trkpt><trkpt lat="10.0529793" lon="-84.0031371"><ele>1621.0</ele><time>2026-04-09T12:41:50.926Z</time></trkpt><trkpt lat="10.0531143" lon="-84.0031622"><ele>1621.0</ele><time>2026-04-09T12:41:51.926Z</time></trkpt><trkpt lat="10.0532444" lon="-84.0032101"><ele>1621.0</ele><time>2026-04-09T12:41:52.926Z</time></trkpt><trkpt lat="10.053367" lon="-84.0032697"><ele>1621.5</ele><time>2026-04-09T12:41:53.926Z</time></trkpt><trkpt lat="10.0534806" lon="-84.0033373"><ele>1622.0</ele><time>2026-04-09T12:41:54.926Z</time></trkpt><trkpt lat="10.0535904" lon="-84.0034147"><ele>1622.5</ele><time>2026-04-09T12:41:55.926Z</time></trkpt><trkpt lat="10.05369" lon="-84.0035044"><ele>1623.0</ele><time>2026-04-09T12:41:56.926Z</time></trkpt><trkpt lat="10.053785" lon="-84.0036048"><ele>1623.0</ele><time>2026-04-09T12:41:57.926Z</time></trkpt><trkpt lat="10.0538716" lon="-84.0037184"><ele>1623.0</ele><time>2026-04-09T12:41:58.926Z</time></trkpt><trkpt lat="10.0539378" lon="-84.003838"><ele>1623.0</ele><time>2026-04-09T12:41:59.926Z</time></trkpt><trkpt lat="10.0539938" lon="-84.0039639"><ele>1623.0</ele><time>2026-04-09T12:42:00.926Z</time></trkpt><trkpt lat="10.0540361" lon="-84.0040932"><ele>1624.75</ele><time>2026-04-09T12:42:01.926Z</time></trkpt><trkpt lat="10.0540736" lon="-84.0042281"><ele>1626.5</ele><time>2026-04-09T12:42:02.926Z</time></trkpt><trkpt lat="10.0541065" lon="-84.0043627"><ele>1628.25</ele><time>2026-04-09T12:42:03.926Z</time></trkpt><trkpt lat="10.0541374" lon="-84.0044996"><ele>1630.0</ele><time>2026-04-09T12:42:04.927Z</time></trkpt><trkpt lat="10.0541644" lon="-84.0046372"><ele>1626.0</ele><time>2026-04-09T12:42:05.926Z</time></trkpt><trkpt lat="10.0541964" lon="-84.0047774"><ele>1622.0</ele><time>2026-04-09T12:42:06.926Z</time></trkpt><trkpt lat="10.0542297" lon="-84.0049194"><ele>1618.0</ele><time>2026-04-09T12:42:07.926Z</time></trkpt><trkpt lat="10.0542713" lon="-84.0050552"><ele>1614.0</ele><time>2026-04-09T12:42:08.926Z</time></trkpt><trkpt lat="10.0543223" lon="-84.0051803"><ele>1614.0</ele><time>2026-04-09T12:42:09.926Z</time></trkpt><trkpt lat="10.054385" lon="-84.0052969"><ele>1614.0</ele><time>2026-04-09T12:42:10.926Z</time></trkpt><trkpt lat="10.05446" lon="-84.0054033"><ele>1614.0</ele><time>2026-04-09T12:42:11.926Z</time></trkpt><trkpt lat="10.0545434" lon="-84.0055045"><ele>1614.0</ele><time>2026-04-09T12:42:12.926Z</time></trkpt><trkpt lat="10.0546319" lon="-84.0056016"><ele>1614.0</ele><time>2026-04-09T12:42:13.926Z</time></trkpt><trkpt lat="10.0547218" lon="-84.0056973"><ele>1614.0</ele><time>2026-04-09T12:42:14.926Z</time></trkpt><trkpt lat="10.0548123" lon="-84.0057929"><ele>1614.0</ele><time>2026-04-09T12:42:15.926Z</time></trkpt><trkpt lat="10.0548982" lon="-84.0058877"><ele>1614.0</ele><time>2026-04-09T12:42:16.926Z</time></trkpt><trkpt lat="10.0549814" lon="-84.0059804"><ele>1607.75</ele><time>2026-04-09T12:42:17.926Z</time></trkpt><trkpt lat="10.0550632" lon="-84.0060747"><ele>1601.5</ele><time>2026-04-09T12:42:18.926Z</time></trkpt><trkpt lat="10.0551402" lon="-84.0061645"><ele>1595.25</ele><time>2026-04-09T12:42:19.926Z</time></trkpt><trkpt lat="10.055217" lon="-84.0062498"><ele>1589.0</ele><time>2026-04-09T12:42:20.926Z</time></trkpt><trkpt lat="10.0552938" lon="-84.0063354"><ele>1589.0</ele><time>2026-04-09T12:42:21.926Z</time></trkpt><trkpt lat="10.0553706" lon="-84.0064206"><ele>1589.0</ele><time>2026-04-09T12:42:22.926Z</time></trkpt><trkpt lat="10.0554411" lon="-84.0065033"><ele>1589.0</ele><time>2026-04-09T12:42:23.926Z</time></trkpt><trkpt lat="10.0555059" lon="-84.0065837"><ele>1589.0</ele><time>2026-04-09T12:42:24.926Z</time></trkpt><trkpt lat="10.0555659" lon="-84.0066655"><ele>1589.0</ele><time>2026-04-09T12:42:25.926Z</time></trkpt><trkpt lat="10.0556248" lon="-84.0067461"><ele>1585.0</ele><time>2026-04-09T12:42:26.926Z</time></trkpt><trkpt lat="10.0556767" lon="-84.0068317"><ele>1581.0</ele><time>2026-04-09T12:42:27.926Z</time></trkpt><trkpt lat="10.0557274" lon="-84.0069171"><ele>1577.0</ele><time>2026-04-09T12:42:28.927Z</time></trkpt><trkpt lat="10.0557734" lon="-84.0070039"><ele>1573.0</ele><time>2026-04-09T12:42:29.926Z</time></trkpt><trkpt lat="10.0558191" lon="-84.0070896"><ele>1569.0</ele><time>2026-04-09T12:42:30.927Z</time></trkpt><trkpt lat="10.0558595" lon="-84.007176"><ele>1569.0</ele><time>2026-04-09T12:42:31.926Z</time></trkpt><trkpt lat="10.0559007" lon="-84.0072613"><ele>1569.0</ele><time>2026-04-09T12:42:32.926Z</time></trkpt><trkpt lat="10.0559404" lon="-84.0073465"><ele>1569.0</ele><time>2026-04-09T12:42:33.926Z</time></trkpt><trkpt lat="10.055982" lon="-84.00743"><ele>1569.0</ele><time>2026-04-09T12:42:34.926Z</time></trkpt><trkpt lat="10.0560233" lon="-84.0075156"><ele>1569.0</ele><time>2026-04-09T12:42:35.927Z</time></trkpt><trkpt lat="10.0560554" lon="-84.0076007"><ele>1574.1666666666667</ele><time>2026-04-09T12:42:36.926Z</time></trkpt><trkpt lat="10.0560796" lon="-84.00769"><ele>1579.3333333333335</ele><time>2026-04-09T12:42:37.926Z</time></trkpt><trkpt lat="10.0561076" lon="-84.0077705"><ele>1584.5</ele><time>2026-04-09T12:42:38.926Z</time></trkpt><trkpt lat="10.0561281" lon="-84.0078513"><ele>1589.6666666666667</ele><time>2026-04-09T12:42:39.926Z</time></trkpt><trkpt lat="10.0561558" lon="-84.0079282"><ele>1594.8333333333335</ele><time>2026-04-09T12:42:40.926Z</time></trkpt><trkpt lat="10.0561667" lon="-84.0080058"><ele>1600.0</ele><time>2026-04-09T12:42:41.926Z</time></trkpt><trkpt lat="10.0561708" lon="-84.0080888"><ele>1600.0000000000002</ele><time>2026-04-09T12:42:42.926Z</time></trkpt><trkpt lat="10.0561722" lon="-84.008172"><ele>1600.0</ele><time>2026-04-09T12:42:43.926Z</time></trkpt><trkpt lat="10.0561629" lon="-84.0082588"><ele>1600.0</ele><time>2026-04-09T12:42:44.926Z</time></trkpt><trkpt lat="10.0561446" lon="-84.0083445"><ele>1600.0</ele><time>2026-04-09T12:42:45.926Z</time></trkpt><trkpt lat="10.056121" lon="-84.0084324"><ele>1600.0000000000002</ele><time>2026-04-09T12:42:46.926Z</time></trkpt><trkpt lat="10.0560916" lon="-84.0085137"><ele>1600.0</ele><time>2026-04-09T12:42:47.926Z</time></trkpt><trkpt lat="10.0560571" lon="-84.0085938"><ele>1599.8333333333335</ele><time>2026-04-09T12:42:48.926Z</time></trkpt><trkpt lat="10.0560194" lon="-84.0086751"><ele>1599.6666666666667</ele><time>2026-04-09T12:42:49.926Z</time></trkpt><trkpt lat="10.0559782" lon="-84.0087542"><ele>1599.5</ele><time>2026-04-09T12:42:50.926Z</time></trkpt><trkpt lat="10.0559326" lon="-84.0088322"><ele>1599.3333333333335</ele><time>2026-04-09T12:42:51.927Z</time></trkpt><trkpt lat="10.0558841" lon="-84.0089089"><ele>1599.1666666666667</ele><time>2026-04-09T12:42:52.926Z</time></trkpt><trkpt lat="10.0558364" lon="-84.0089869"><ele>1599.0</ele><time>2026-04-09T12:42:53.926Z</time></trkpt><trkpt lat="10.0557899" lon="-84.0090582"><ele>1605.0</ele><time>2026-04-09T12:42:54.926Z</time></trkpt><trkpt lat="10.0557421" lon="-84.0091312"><ele>1611.0</ele><time>2026-04-09T12:42:55.926Z</time></trkpt><trkpt lat="10.0557025" lon="-84.0092048"><ele>1617.0</ele><time>2026-04-09T12:42:56.926Z</time></trkpt><trkpt lat="10.05566" lon="-84.0092766"><ele>1623.0</ele><time>2026-04-09T12:42:57.926Z</time></trkpt><trkpt lat="10.0556205" lon="-84.0093496"><ele>1629.0</ele><time>2026-04-09T12:42:58.926Z</time></trkpt><trkpt lat="10.0555807" lon="-84.0094201"><ele>1635.0</ele><time>2026-04-09T12:42:59.926Z</time></trkpt><trkpt lat="10.0555345" lon="-84.0094931"><ele>1635.0</ele><time>2026-04-09T12:43:00.926Z</time></trkpt><trkpt lat="10.0554883" lon="-84.0095712"><ele>1635.0</ele><time>2026-04-09T12:43:01.926Z</time></trkpt><trkpt lat="10.055444" lon="-84.0096525"><ele>1635.0</ele><time>2026-04-09T12:43:02.926Z</time></trkpt><trkpt lat="10.0554014" lon="-84.0097358"><ele>1635.0</ele><time>2026-04-09T12:43:03.926Z</time></trkpt><trkpt lat="10.055359" lon="-84.0098188"><ele>1635.0</ele><time>2026-04-09T12:43:04.926Z</time></trkpt><trkpt lat="10.0553204" lon="-84.0099031"><ele>1635.0</ele><time>2026-04-09T12:43:05.926Z</time></trkpt><trkpt lat="10.0552851" lon="-84.0099897"><ele>1635.0</ele><time>2026-04-09T12:43:06.926Z</time></trkpt><trkpt lat="10.0552513" lon="-84.0100723"><ele>1635.0</ele><time>2026-04-09T12:43:07.926Z</time></trkpt><trkpt lat="10.0552204" lon="-84.0101559"><ele>1635.0</ele><time>2026-04-09T12:43:08.926Z</time></trkpt><trkpt lat="10.0551941" lon="-84.0102397"><ele>1635.0</ele><time>2026-04-09T12:43:09.926Z</time></trkpt><trkpt lat="10.0551702" lon="-84.0103261"><ele>1635.0</ele><time>2026-04-09T12:43:10.926Z</time></trkpt><trkpt lat="10.055149" lon="-84.0104131"><ele>1630.3333333333333</ele><time>2026-04-09T12:43:11.927Z</time></trkpt><trkpt lat="10.0551331" lon="-84.0105037"><ele>1625.6666666666665</ele><time>2026-04-09T12:43:12.926Z</time></trkpt><trkpt lat="10.055128" lon="-84.0105916"><ele>1621.0</ele><time>2026-04-09T12:43:13.926Z</time></trkpt><trkpt lat="10.0551352" lon="-84.0106805"><ele>1616.3333333333333</ele><time>2026-04-09T12:43:14.926Z</time></trkpt><trkpt lat="10.0551428" lon="-84.0107664"><ele>1611.6666666666665</ele><time>2026-04-09T12:43:15.926Z</time></trkpt><trkpt lat="10.0551617" lon="-84.0108534"><ele>1607.0</ele><time>2026-04-09T12:43:16.926Z</time></trkpt><trkpt lat="10.0551827" lon="-84.0109438"><ele>1604.8</ele><time>2026-04-09T12:43:17.926Z</time></trkpt><trkpt lat="10.0552043" lon="-84.0110364"><ele>1602.6</ele><time>2026-04-09T12:43:18.926Z</time></trkpt><trkpt lat="10.0552263" lon="-84.011131"><ele>1600.3999999999999</ele><time>2026-04-09T12:43:19.926Z</time></trkpt><trkpt lat="10.0552496" lon="-84.0112255"><ele>1598.1999999999998</ele><time>2026-04-09T12:43:20.926Z</time></trkpt><trkpt lat="10.0552742" lon="-84.0113171"><ele>1596.0</ele><time>2026-04-09T12:43:21.926Z</time></trkpt><trkpt lat="10.0553015" lon="-84.0114071"><ele>1596.0</ele><time>2026-04-09T12:43:22.926Z</time></trkpt><trkpt lat="10.0553287" lon="-84.0114963"><ele>1596.0</ele><time>2026-04-09T12:43:23.927Z</time></trkpt><trkpt lat="10.0553529" lon="-84.0115843"><ele>1596.0</ele><time>2026-04-09T12:43:24.926Z</time></trkpt><trkpt lat="10.0553809" lon="-84.0116723"><ele>1596.0</ele><time>2026-04-09T12:43:25.926Z</time></trkpt><trkpt lat="10.0554098" lon="-84.0117616"><ele>1596.0</ele><time>2026-04-09T12:43:26.926Z</time></trkpt><trkpt lat="10.0554333" lon="-84.0118532"><ele>1597.0</ele><time>2026-04-09T12:43:27.926Z</time></trkpt><trkpt lat="10.0554562" lon="-84.0119486"><ele>1598.0</ele><time>2026-04-09T12:43:28.926Z</time></trkpt><trkpt lat="10.055484" lon="-84.012044"><ele>1599.0</ele><time>2026-04-09T12:43:29.926Z</time></trkpt><trkpt lat="10.0555105" lon="-84.0121444"><ele>1600.0</ele><time>2026-04-09T12:43:30.926Z</time></trkpt><trkpt lat="10.0555385" lon="-84.0122471"><ele>1601.0</ele><time>2026-04-09T12:43:31.926Z</time></trkpt><trkpt lat="10.055565" lon="-84.0123545"><ele>1601.0</ele><time>2026-04-09T12:43:32.926Z</time></trkpt><trkpt lat="10.0555908" lon="-84.0124617"><ele>1601.0</ele><time>2026-04-09T12:43:33.926Z</time></trkpt><trkpt lat="10.0556165" lon="-84.0125665"><ele>1601.0</ele><time>2026-04-09T12:43:34.926Z</time></trkpt><trkpt lat="10.0556454" lon="-84.0126695"><ele>1601.0</ele><time>2026-04-09T12:43:35.926Z</time></trkpt><trkpt lat="10.0556742" lon="-84.012774"><ele>1601.0</ele><time>2026-04-09T12:43:36.926Z</time></trkpt><trkpt lat="10.0557043" lon="-84.01288"><ele>1602.5</ele><time>2026-04-09T12:43:37.926Z</time></trkpt><trkpt lat="10.0557366" lon="-84.0129887"><ele>1604.0</ele><time>2026-04-09T12:43:38.926Z</time></trkpt><trkpt lat="10.0557762" lon="-84.0130957"><ele>1605.5</ele><time>2026-04-09T12:43:39.926Z</time></trkpt><trkpt lat="10.0558168" lon="-84.0132049"><ele>1607.0</ele><time>2026-04-09T12:43:40.926Z</time></trkpt><trkpt lat="10.0558693" lon="-84.0133152"><ele>1599.0</ele><time>2026-04-09T12:43:41.926Z</time></trkpt><trkpt lat="10.0559313" lon="-84.0134222"><ele>1591.0</ele><time>2026-04-09T12:43:42.926Z</time></trkpt><trkpt lat="10.0560066" lon="-84.0135174"><ele>1583.0</ele><time>2026-04-09T12:43:43.926Z</time></trkpt><trkpt lat="10.0560903" lon="-84.0135966"><ele>1575.0</ele><time>2026-04-09T12:43:44.926Z</time></trkpt><trkpt lat="10.0561821" lon="-84.0136635"><ele>1575.0</ele><time>2026-04-09T12:43:45.926Z</time></trkpt><trkpt lat="10.0562795" lon="-84.0137152"><ele>1575.0</ele><time>2026-04-09T12:43:46.926Z</time></trkpt><trkpt lat="10.0563839" lon="-84.0137521"><ele>1575.0</ele><time>2026-04-09T12:43:47.926Z</time></trkpt><trkpt lat="10.0564939" lon="-84.0137757"><ele>1575.0</ele><time>2026-04-09T12:43:48.926Z</time></trkpt><trkpt lat="10.0566067" lon="-84.013786"><ele>1575.0</ele><time>2026-04-09T12:43:49.926Z</time></trkpt><trkpt lat="10.0567177" lon="-84.0137778"><ele>1569.0</ele><time>2026-04-09T12:43:50.926Z</time></trkpt><trkpt lat="10.0568288" lon="-84.0137572"><ele>1563.0</ele><time>2026-04-09T12:43:51.926Z</time></trkpt><trkpt lat="10.056938" lon="-84.0137232"><ele>1557.0</ele><time>2026-04-09T12:43:52.926Z</time></trkpt><trkpt lat="10.0570431" lon="-84.0136765"><ele>1551.0</ele><time>2026-04-09T12:43:53.926Z</time></trkpt><trkpt lat="10.0571402" lon="-84.0136157"><ele>1551.0</ele><time>2026-04-09T12:43:54.927Z</time></trkpt><trkpt lat="10.0572259" lon="-84.0135414"><ele>1551.0</ele><time>2026-04-09T12:43:55.926Z</time></trkpt><trkpt lat="10.0573006" lon="-84.0134543"><ele>1551.0</ele><time>2026-04-09T12:43:56.927Z</time></trkpt><trkpt lat="10.0573661" lon="-84.0133572"><ele>1551.0</ele><time>2026-04-09T12:43:57.926Z</time></trkpt><trkpt lat="10.0574232" lon="-84.0132584"><ele>1553.4</ele><time>2026-04-09T12:43:58.926Z</time></trkpt><trkpt lat="10.0574633" lon="-84.0131564"><ele>1555.8</ele><time>2026-04-09T12:43:59.926Z</time></trkpt><trkpt lat="10.0574981" lon="-84.013058"><ele>1558.2</ele><time>2026-04-09T12:44:00.926Z</time></trkpt><trkpt lat="10.0575274" lon="-84.0129548"><ele>1560.6000000000001</ele><time>2026-04-09T12:44:01.926Z</time></trkpt><trkpt lat="10.0575553" lon="-84.0128576"><ele>1563.0</ele><time>2026-04-09T12:44:02.926Z</time></trkpt><trkpt lat="10.0575839" lon="-84.0127642"><ele>1563.0</ele><time>2026-04-09T12:44:03.926Z</time></trkpt><trkpt lat="10.0576124" lon="-84.0126581"><ele>1563.0</ele><time>2026-04-09T12:44:04.926Z</time></trkpt><trkpt lat="10.05764" lon="-84.0125468"><ele>1563.0</ele><time>2026-04-09T12:44:05.926Z</time></trkpt><trkpt lat="10.0576653" lon="-84.0124248"><ele>1563.0</ele><time>2026-04-09T12:44:06.926Z</time></trkpt><trkpt lat="10.0576866" lon="-84.0122964"><ele>1560.75</ele><time>2026-04-09T12:44:07.926Z</time></trkpt><trkpt lat="10.0577036" lon="-84.0121595"><ele>1558.5</ele><time>2026-04-09T12:44:08.926Z</time></trkpt><trkpt lat="10.0577111" lon="-84.0120171"><ele>1556.25</ele><time>2026-04-09T12:44:09.926Z</time></trkpt><trkpt lat="10.0577037" lon="-84.0118701"><ele>1554.0</ele><time>2026-04-09T12:44:10.926Z</time></trkpt><trkpt lat="10.0576773" lon="-84.0117238"><ele>1552.25</ele><time>2026-04-09T12:44:11.926Z</time></trkpt><trkpt lat="10.0576379" lon="-84.0115792"><ele>1550.5</ele><time>2026-04-09T12:44:12.926Z</time></trkpt><trkpt lat="10.0575945" lon="-84.011434"><ele>1548.75</ele><time>2026-04-09T12:44:13.926Z</time></trkpt><trkpt lat="10.0575528" lon="-84.0112895"><ele>1547.0</ele><time>2026-04-09T12:44:14.926Z</time></trkpt><trkpt lat="10.0575126" lon="-84.011145"><ele>1547.0</ele><time>2026-04-09T12:44:15.926Z</time></trkpt><trkpt lat="10.0574801" lon="-84.0110001"><ele>1547.0</ele><time>2026-04-09T12:44:16.926Z</time></trkpt><trkpt lat="10.0574609" lon="-84.0108586"><ele>1547.0</ele><time>2026-04-09T12:44:17.926Z</time></trkpt><trkpt lat="10.0574597" lon="-84.010727"><ele>1547.0</ele><time>2026-04-09T12:44:18.926Z</time></trkpt><trkpt lat="10.057476" lon="-84.0106052"><ele>1543.0</ele><time>2026-04-09T12:44:19.926Z</time></trkpt><trkpt lat="10.0575082" lon="-84.0104875"><ele>1539.0</ele><time>2026-04-09T12:44:20.926Z</time></trkpt><trkpt lat="10.0575547" lon="-84.0103741"><ele>1535.0</ele><time>2026-04-09T12:44:21.926Z</time></trkpt><trkpt lat="10.0576087" lon="-84.0102649"><ele>1531.0</ele><time>2026-04-09T12:44:22.926Z</time></trkpt><trkpt lat="10.057675" lon="-84.0101603"><ele>1531.0</ele><time>2026-04-09T12:44:23.926Z</time></trkpt><trkpt lat="10.0577538" lon="-84.0100664"><ele>1531.0</ele><time>2026-04-09T12:44:24.927Z</time></trkpt><trkpt lat="10.0578392" lon="-84.0099788"><ele>1531.0</ele><time>2026-04-09T12:44:25.926Z</time></trkpt><trkpt lat="10.0579302" lon="-84.0098919"><ele>1531.0</ele><time>2026-04-09T12:44:26.926Z</time></trkpt><trkpt lat="10.0580272" lon="-84.0098009"><ele>1532.25</ele><time>2026-04-09T12:44:27.927Z</time></trkpt><trkpt lat="10.058128" lon="-84.009706"><ele>1533.5</ele><time>2026-04-09T12:44:28.926Z</time></trkpt><trkpt lat="10.0582253" lon="-84.0096069"><ele>1534.75</ele><time>2026-04-09T12:44:29.926Z</time></trkpt><trkpt lat="10.0583126" lon="-84.0094953"><ele>1536.0</ele><time>2026-04-09T12:44:30.926Z</time></trkpt><trkpt lat="10.0583793" lon="-84.0093715"><ele>1536.0</ele><time>2026-04-09T12:44:31.926Z</time></trkpt><trkpt lat="10.0584274" lon="-84.0092378"><ele>1536.0</ele><time>2026-04-09T12:44:32.926Z</time></trkpt><trkpt lat="10.0584684" lon="-84.0090992"><ele>1536.0</ele><time>2026-04-09T12:44:33.926Z</time></trkpt><trkpt lat="10.0585104" lon="-84.0089569"><ele>1536.0</ele><time>2026-04-09T12:44:34.926Z</time></trkpt><trkpt lat="10.0585556" lon="-84.0088116"><ele>1528.0</ele><time>2026-04-09T12:44:35.926Z</time></trkpt><trkpt lat="10.0586107" lon="-84.0086749"><ele>1520.0</ele><time>2026-04-09T12:44:36.926Z</time></trkpt><trkpt lat="10.058678" lon="-84.0085475"><ele>1512.0</ele><time>2026-04-09T12:44:37.926Z</time></trkpt><trkpt lat="10.0587617" lon="-84.0084348"><ele>1504.0</ele><time>2026-04-09T12:44:38.926Z</time></trkpt><trkpt lat="10.0588533" lon="-84.0083379"><ele>1502.5</ele><time>2026-04-09T12:44:39.926Z</time></trkpt><trkpt lat="10.0589571" lon="-84.0082512"><ele>1501.0</ele><time>2026-04-09T12:44:40.926Z</time></trkpt><trkpt lat="10.0590693" lon="-84.0081799"><ele>1499.5</ele><time>2026-04-09T12:44:41.926Z</time></trkpt><trkpt lat="10.059183" lon="-84.0081161"><ele>1498.0</ele><time>2026-04-09T12:44:42.926Z</time></trkpt><trkpt lat="10.0592983" lon="-84.0080714"><ele>1498.0</ele><time>2026-04-09T12:44:43.926Z</time></trkpt><trkpt lat="10.0594165" lon="-84.0080536"><ele>1498.0</ele><time>2026-04-09T12:44:44.926Z</time></trkpt><trkpt lat="10.05953" lon="-84.0080505"><ele>1498.0</ele><time>2026-04-09T12:44:45.927Z</time></trkpt><trkpt lat="10.0596425" lon="-84.0080602"><ele>1498.0</ele><time>2026-04-09T12:44:46.926Z</time></trkpt><trkpt lat="10.0597546" lon="-84.0080823"><ele>1498.0</ele><time>2026-04-09T12:44:47.926Z</time></trkpt><trkpt lat="10.0598712" lon="-84.0081068"><ele>1498.0</ele><time>2026-04-09T12:44:48.926Z</time></trkpt><trkpt lat="10.0599861" lon="-84.0081332"><ele>1498.0</ele><time>2026-04-09T12:44:49.926Z</time></trkpt><trkpt lat="10.0601072" lon="-84.0081583"><ele>1498.0</ele><time>2026-04-09T12:44:50.926Z</time></trkpt><trkpt lat="10.0602271" lon="-84.0081818"><ele>1501.75</ele><time>2026-04-09T12:44:51.926Z</time></trkpt><trkpt lat="10.0603439" lon="-84.0082033"><ele>1505.5</ele><time>2026-04-09T12:44:52.926Z</time></trkpt><trkpt lat="10.0604636" lon="-84.0082161"><ele>1509.25</ele><time>2026-04-09T12:44:53.926Z</time></trkpt><trkpt lat="10.0605824" lon="-84.008215"><ele>1513.0</ele><time>2026-04-09T12:44:54.926Z</time></trkpt><trkpt lat="10.0607011" lon="-84.0082021"><ele>1523.0</ele><time>2026-04-09T12:44:55.926Z</time></trkpt><trkpt lat="10.060823" lon="-84.0081825"><ele>1533.0</ele><time>2026-04-09T12:44:56.926Z</time></trkpt><trkpt lat="10.0609446" lon="-84.0081593"><ele>1543.0</ele><time>2026-04-09T12:44:57.926Z</time></trkpt><trkpt lat="10.0610687" lon="-84.008128"><ele>1553.0</ele><time>2026-04-09T12:44:58.926Z</time></trkpt><trkpt lat="10.0611902" lon="-84.0080923"><ele>1553.0</ele><time>2026-04-09T12:44:59.926Z</time></trkpt><trkpt lat="10.0613114" lon="-84.0080562"><ele>1553.0</ele><time>2026-04-09T12:45:00.927Z</time></trkpt><trkpt lat="10.061433" lon="-84.0080219"><ele>1553.0</ele><time>2026-04-09T12:45:01.926Z</time></trkpt><trkpt lat="10.0664138" lon="-84.0065316"><ele>1556.75</ele><time>2026-04-09T12:45:41.926Z</time></trkpt><trkpt lat="10.0665249" lon="-84.006436"><ele>1560.5</ele><time>2026-04-09T12:45:42.926Z</time></trkpt><trkpt lat="10.0665999" lon="-84.0063597"><ele>1564.25</ele><time>2026-04-09T12:45:43.926Z</time></trkpt><trkpt lat="10.0666627" lon="-84.0062665"><ele>1568.0</ele><time>2026-04-09T12:45:44.926Z</time></trkpt><trkpt lat="10.0667155" lon="-84.0061649"><ele>1560.0</ele><time>2026-04-09T12:45:45.926Z</time></trkpt><trkpt lat="10.0667573" lon="-84.0060511"><ele>1552.0</ele><time>2026-04-09T12:45:46.926Z</time></trkpt><trkpt lat="10.0667892" lon="-84.0059265"><ele>1544.0</ele><time>2026-04-09T12:45:47.927Z</time></trkpt><trkpt lat="10.0668181" lon="-84.0057971"><ele>1536.0</ele><time>2026-04-09T12:45:48.926Z</time></trkpt><trkpt lat="10.0668454" lon="-84.0056601"><ele>1531.25</ele><time>2026-04-09T12:45:49.926Z</time></trkpt><trkpt lat="10.0668806" lon="-84.0055276"><ele>1526.5</ele><time>2026-04-09T12:45:50.926Z</time></trkpt><trkpt lat="10.0669301" lon="-84.0054058"><ele>1521.75</ele><time>2026-04-09T12:45:51.926Z</time></trkpt><trkpt lat="10.0669985" lon="-84.0052921"><ele>1517.0</ele><time>2026-04-09T12:45:52.926Z</time></trkpt><trkpt lat="10.0670808" lon="-84.0051859"><ele>1517.0</ele><time>2026-04-09T12:45:53.926Z</time></trkpt><trkpt lat="10.0671695" lon="-84.0050815"><ele>1517.0</ele><time>2026-04-09T12:45:54.926Z</time></trkpt><trkpt lat="10.0672613" lon="-84.0049781"><ele>1517.0</ele><time>2026-04-09T12:45:55.926Z</time></trkpt><trkpt lat="10.0673496" lon="-84.0048698"><ele>1517.0</ele><time>2026-04-09T12:45:56.927Z</time></trkpt><trkpt lat="10.0674284" lon="-84.0047544"><ele>1513.75</ele><time>2026-04-09T12:45:57.926Z</time></trkpt><trkpt lat="10.067496" lon="-84.0046317"><ele>1510.5</ele><time>2026-04-09T12:45:58.926Z</time></trkpt><trkpt lat="10.0675516" lon="-84.0045024"><ele>1507.25</ele><time>2026-04-09T12:45:59.926Z</time></trkpt><trkpt lat="10.0675964" lon="-84.004368"><ele>1504.0</ele><time>2026-04-09T12:46:00.926Z</time></trkpt><trkpt lat="10.0676346" lon="-84.0042261"><ele>1498.6666666666665</ele><time>2026-04-09T12:46:01.926Z</time></trkpt><trkpt lat="10.0676677" lon="-84.0040801"><ele>1493.3333333333333</ele><time>2026-04-09T12:46:02.926Z</time></trkpt><trkpt lat="10.0676973" lon="-84.0039273"><ele>1488.0</ele><time>2026-04-09T12:46:03.926Z</time></trkpt><trkpt lat="10.0677286" lon="-84.0037719"><ele>1488.0</ele><time>2026-04-09T12:46:04.926Z</time></trkpt><trkpt lat="10.0677606" lon="-84.0036173"><ele>1488.0</ele><time>2026-04-09T12:46:05.926Z</time></trkpt><trkpt lat="10.0677916" lon="-84.0034593"><ele>1488.0</ele><time>2026-04-09T12:46:06.926Z</time></trkpt><trkpt lat="10.0678226" lon="-84.0033"><ele>1486.6666666666667</ele><time>2026-04-09T12:46:07.926Z</time></trkpt><trkpt lat="10.0678526" lon="-84.0031385"><ele>1485.3333333333335</ele><time>2026-04-09T12:46:08.926Z</time></trkpt><trkpt lat="10.0678788" lon="-84.0029781"><ele>1484.0</ele><time>2026-04-09T12:46:09.926Z</time></trkpt><trkpt lat="10.0678945" lon="-84.0028131"><ele>1484.0</ele><time>2026-04-09T12:46:10.927Z</time></trkpt><trkpt lat="10.0678955" lon="-84.0026484"><ele>1484.0</ele><time>2026-04-09T12:46:11.926Z</time></trkpt><trkpt lat="10.0678911" lon="-84.002493"><ele>1484.0</ele><time>2026-04-09T12:46:12.926Z</time></trkpt><trkpt lat="10.0678814" lon="-84.0023453"><ele>1480.25</ele><time>2026-04-09T12:46:13.926Z</time></trkpt><trkpt lat="10.0678762" lon="-84.0021992"><ele>1476.5</ele><time>2026-04-09T12:46:14.926Z</time></trkpt><trkpt lat="10.0678842" lon="-84.0020581"><ele>1472.75</ele><time>2026-04-09T12:46:15.926Z</time></trkpt><trkpt lat="10.0679075" lon="-84.0019207"><ele>1469.0</ele><time>2026-04-09T12:46:16.926Z</time></trkpt><trkpt lat="10.0679488" lon="-84.0017873"><ele>1471.0</ele><time>2026-04-09T12:46:17.926Z</time></trkpt><trkpt lat="10.0680072" lon="-84.0016597"><ele>1473.0</ele><time>2026-04-09T12:46:18.926Z</time></trkpt><trkpt lat="10.0680825" lon="-84.0015404"><ele>1475.0</ele><time>2026-04-09T12:46:19.926Z</time></trkpt><trkpt lat="10.0681781" lon="-84.0014341"><ele>1477.0</ele><time>2026-04-09T12:46:20.926Z</time></trkpt><trkpt lat="10.0682883" lon="-84.0013476"><ele>1477.0</ele><time>2026-04-09T12:46:21.926Z</time></trkpt><trkpt lat="10.0684134" lon="-84.0012812"><ele>1477.0</ele><time>2026-04-09T12:46:22.926Z</time></trkpt><trkpt lat="10.0685437" lon="-84.0012331"><ele>1477.0</ele><time>2026-04-09T12:46:23.927Z</time></trkpt><trkpt lat="10.0686809" lon="-84.0012013"><ele>1477.0</ele><time>2026-04-09T12:46:24.926Z</time></trkpt><trkpt lat="10.0688263" lon="-84.0011823"><ele>1477.0</ele><time>2026-04-09T12:46:25.926Z</time></trkpt><trkpt lat="10.0689753" lon="-84.0011669"><ele>1477.0</ele><time>2026-04-09T12:46:26.926Z</time></trkpt><trkpt lat="10.0691254" lon="-84.0011475"><ele>1477.0</ele><time>2026-04-09T12:46:27.926Z</time></trkpt><trkpt lat="10.0692704" lon="-84.0011168"><ele>1477.0</ele><time>2026-04-09T12:46:28.926Z</time></trkpt><trkpt lat="10.0694089" lon="-84.0010836"><ele>1475.5</ele><time>2026-04-09T12:46:29.926Z</time></trkpt><trkpt lat="10.0695406" lon="-84.0010399"><ele>1474.0</ele><time>2026-04-09T12:46:30.926Z</time></trkpt><trkpt lat="10.0696664" lon="-84.0009857"><ele>1472.5</ele><time>2026-04-09T12:46:31.926Z</time></trkpt><trkpt lat="10.0697827" lon="-84.0009158"><ele>1471.0</ele><time>2026-04-09T12:46:32.926Z</time></trkpt><trkpt lat="10.069882" lon="-84.0008258"><ele>1475.25</ele><time>2026-04-09T12:46:33.926Z</time></trkpt><trkpt lat="10.0699637" lon="-84.0007215"><ele>1479.5</ele><time>2026-04-09T12:46:34.926Z</time></trkpt><trkpt lat="10.0700297" lon="-84.0006057"><ele>1483.75</ele><time>2026-04-09T12:46:35.926Z</time></trkpt><trkpt lat="10.0700783" lon="-84.0004835"><ele>1488.0</ele><time>2026-04-09T12:46:36.926Z</time></trkpt><trkpt lat="10.0701116" lon="-84.0003541"><ele>1488.0</ele><time>2026-04-09T12:46:37.926Z</time></trkpt><trkpt lat="10.0701253" lon="-84.0002191"><ele>1488.0</ele><time>2026-04-09T12:46:38.926Z</time></trkpt><trkpt lat="10.0701206" lon="-84.0000856"><ele>1488.0</ele><time>2026-04-09T12:46:39.926Z</time></trkpt><trkpt lat="10.0701047" lon="-83.9999526"><ele>1488.0</ele><time>2026-04-09T12:46:40.926Z</time></trkpt><trkpt lat="10.0700819" lon="-83.9998157"><ele>1488.0</ele><time>2026-04-09T12:46:41.926Z</time></trkpt><trkpt lat="10.0700558" lon="-83.9996744"><ele>1488.0</ele><time>2026-04-09T12:46:42.926Z</time></trkpt><trkpt lat="10.0700276" lon="-83.9995276"><ele>1488.0</ele><time>2026-04-09T12:46:43.926Z</time></trkpt><trkpt lat="10.0699956" lon="-83.9993745"><ele>1488.0</ele><time>2026-04-09T12:46:44.926Z</time></trkpt><trkpt lat="10.069964" lon="-83.999224"><ele>1465.0</ele><time>2026-04-09T12:46:45.926Z</time></trkpt><trkpt lat="10.0699343" lon="-83.9990702"><ele>1442.0</ele><time>2026-04-09T12:46:46.926Z</time></trkpt><trkpt lat="10.0699025" lon="-83.9989145"><ele>1419.0</ele><time>2026-04-09T12:46:47.926Z</time></trkpt><trkpt lat="10.0698646" lon="-83.9987622"><ele>1419.0</ele><time>2026-04-09T12:46:48.926Z</time></trkpt><trkpt lat="10.0698147" lon="-83.9986121"><ele>1419.0</ele><time>2026-04-09T12:46:49.926Z</time></trkpt><trkpt lat="10.0697509" lon="-83.9984651"><ele>1419.0</ele><time>2026-04-09T12:46:50.926Z</time></trkpt><trkpt lat="10.0696815" lon="-83.9983181"><ele>1418.6666666666667</ele><time>2026-04-09T12:46:51.926Z</time></trkpt><trkpt lat="10.0696074" lon="-83.9981733"><ele>1418.3333333333335</ele><time>2026-04-09T12:46:52.926Z</time></trkpt><trkpt lat="10.069538" lon="-83.9980286"><ele>1418.0</ele><time>2026-04-09T12:46:53.926Z</time></trkpt><trkpt lat="10.0694676" lon="-83.997886"><ele>1418.0</ele><time>2026-04-09T12:46:54.926Z</time></trkpt><trkpt lat="10.0693983" lon="-83.997747"><ele>1418.0</ele><time>2026-04-09T12:46:55.926Z</time></trkpt><trkpt lat="10.0693431" lon="-83.9976024"><ele>1418.0</ele><time>2026-04-09T12:46:56.926Z</time></trkpt><trkpt lat="10.0693038" lon="-83.9974594"><ele>1424.0</ele><time>2026-04-09T12:46:57.926Z</time></trkpt><trkpt lat="10.0692778" lon="-83.997311"><ele>1430.0</ele><time>2026-04-09T12:46:58.926Z</time></trkpt><trkpt lat="10.0692602" lon="-83.9971594"><ele>1436.0</ele><time>2026-04-09T12:46:59.926Z</time></trkpt><trkpt lat="10.0692457" lon="-83.9970101"><ele>1442.0</ele><time>2026-04-09T12:47:00.926Z</time></trkpt><trkpt lat="10.0692351" lon="-83.9968616"><ele>1442.0</ele><time>2026-04-09T12:47:01.926Z</time></trkpt><trkpt lat="10.0692257" lon="-83.9967133"><ele>1442.0</ele><time>2026-04-09T12:47:02.926Z</time></trkpt><trkpt lat="10.0692123" lon="-83.9965698"><ele>1442.0</ele><time>2026-04-09T12:47:03.926Z</time></trkpt><trkpt lat="10.0691938" lon="-83.9964221"><ele>1442.0</ele><time>2026-04-09T12:47:04.926Z</time></trkpt><trkpt lat="10.0691625" lon="-83.9962799"><ele>1443.25</ele><time>2026-04-09T12:47:05.926Z</time></trkpt><trkpt lat="10.0691161" lon="-83.9961427"><ele>1444.5</ele><time>2026-04-09T12:47:06.926Z</time></trkpt><trkpt lat="10.0690604" lon="-83.9960095"><ele>1445.75</ele><time>2026-04-09T12:47:07.926Z</time></trkpt><trkpt lat="10.0689997" lon="-83.9958755"><ele>1447.0</ele><time>2026-04-09T12:47:08.926Z</time></trkpt><trkpt lat="10.0689385" lon="-83.9957387"><ele>1425.6666666666665</ele><time>2026-04-09T12:47:09.926Z</time></trkpt><trkpt lat="10.0688775" lon="-83.9955963"><ele>1404.3333333333333</ele><time>2026-04-09T12:47:10.926Z</time></trkpt><trkpt lat="10.0688151" lon="-83.9954487"><ele>1383.0</ele><time>2026-04-09T12:47:11.927Z</time></trkpt><trkpt lat="10.0687577" lon="-83.9953009"><ele>1383.0</ele><time>2026-04-09T12:47:12.926Z</time></trkpt><trkpt lat="10.0687177" lon="-83.9951526"><ele>1383.0</ele><time>2026-04-09T12:47:13.926Z</time></trkpt><trkpt lat="10.0686863" lon="-83.9949995"><ele>1383.0</ele><time>2026-04-09T12:47:14.926Z</time></trkpt><trkpt lat="10.0686737" lon="-83.9948482"><ele>1389.3333333333333</ele><time>2026-04-09T12:47:15.926Z</time></trkpt><trkpt lat="10.0686679" lon="-83.9946958"><ele>1395.6666666666665</ele><time>2026-04-09T12:47:16.926Z</time></trkpt><trkpt lat="10.0686654" lon="-83.994544"><ele>1402.0</ele><time>2026-04-09T12:47:17.926Z</time></trkpt><trkpt lat="10.0686625" lon="-83.9943917"><ele>1402.0</ele><time>2026-04-09T12:47:18.926Z</time></trkpt><trkpt lat="10.0686623" lon="-83.994241"><ele>1402.0</ele><time>2026-04-09T12:47:19.927Z</time></trkpt><trkpt lat="10.0686643" lon="-83.9940849"><ele>1402.0</ele><time>2026-04-09T12:47:20.926Z</time></trkpt><trkpt lat="10.0686698" lon="-83.9939342"><ele>1402.25</ele><time>2026-04-09T12:47:21.926Z</time></trkpt><trkpt lat="10.0686719" lon="-83.9937862"><ele>1402.5</ele><time>2026-04-09T12:47:22.926Z</time></trkpt><trkpt lat="10.0686718" lon="-83.9936415"><ele>1402.75</ele><time>2026-04-09T12:47:23.926Z</time></trkpt><trkpt lat="10.0686676" lon="-83.9934918"><ele>1403.0</ele><time>2026-04-09T12:47:24.926Z</time></trkpt><trkpt lat="10.0686567" lon="-83.9933434"><ele>1403.25</ele><time>2026-04-09T12:47:25.927Z</time></trkpt><trkpt lat="10.0686299" lon="-83.993194"><ele>1403.5</ele><time>2026-04-09T12:47:26.926Z</time></trkpt><trkpt lat="10.0685928" lon="-83.9930511"><ele>1403.75</ele><time>2026-04-09T12:47:27.926Z</time></trkpt><trkpt lat="10.0685529" lon="-83.9929163"><ele>1404.0</ele><time>2026-04-09T12:47:28.926Z</time></trkpt><trkpt lat="10.0684945" lon="-83.9927806"><ele>1404.0</ele><time>2026-04-09T12:47:29.926Z</time></trkpt><trkpt lat="10.068431" lon="-83.9926447"><ele>1404.0</ele><time>2026-04-09T12:47:30.926Z</time></trkpt><trkpt lat="10.0683649" lon="-83.9925182"><ele>1404.0</ele><time>2026-04-09T12:47:31.926Z</time></trkpt><trkpt lat="10.0683014" lon="-83.9923941"><ele>1404.0</ele><time>2026-04-09T12:47:32.927Z</time></trkpt><trkpt lat="10.0682407" lon="-83.9922683"><ele>1389.0</ele><time>2026-04-09T12:47:33.926Z</time></trkpt><trkpt lat="10.0681766" lon="-83.9921389"><ele>1374.0</ele><time>2026-04-09T12:47:34.926Z</time></trkpt><trkpt lat="10.0681158" lon="-83.9920132"><ele>1359.0</ele><time>2026-04-09T12:47:35.926Z</time></trkpt><trkpt lat="10.0680482" lon="-83.9918876"><ele>1344.0</ele><time>2026-04-09T12:47:36.926Z</time></trkpt><trkpt lat="10.0679821" lon="-83.9917617"><ele>1352.25</ele><time>2026-04-09T12:47:37.926Z</time></trkpt><trkpt lat="10.0679162" lon="-83.9916288"><ele>1360.5</ele><time>2026-04-09T12:47:38.926Z</time></trkpt><trkpt lat="10.0678577" lon="-83.9914924"><ele>1368.75</ele><time>2026-04-09T12:47:39.926Z</time></trkpt><trkpt lat="10.0678129" lon="-83.9913486"><ele>1377.0</ele><time>2026-04-09T12:47:40.926Z</time></trkpt><trkpt lat="10.0677864" lon="-83.9912035"><ele>1377.0</ele><time>2026-04-09T12:47:41.926Z</time></trkpt><trkpt lat="10.0677809" lon="-83.9910544"><ele>1377.0</ele><time>2026-04-09T12:47:42.926Z</time></trkpt><trkpt lat="10.0677952" lon="-83.9909051"><ele>1377.0</ele><time>2026-04-09T12:47:43.926Z</time></trkpt><trkpt lat="10.0678259" lon="-83.9907558"><ele>1377.0</ele><time>2026-04-09T12:47:44.926Z</time></trkpt><trkpt lat="10.0678674" lon="-83.9906084"><ele>1380.5</ele><time>2026-04-09T12:47:45.926Z</time></trkpt><trkpt lat="10.0679178" lon="-83.9904641"><ele>1384.0</ele><time>2026-04-09T12:47:46.926Z</time></trkpt><trkpt lat="10.067972" lon="-83.990321"><ele>1387.5</ele><time>2026-04-09T12:47:47.926Z</time></trkpt><trkpt lat="10.0680272" lon="-83.990184"><ele>1391.0</ele><time>2026-04-09T12:47:48.926Z</time></trkpt><trkpt lat="10.0680721" lon="-83.9900444"><ele>1382.5</ele><time>2026-04-09T12:47:49.926Z</time></trkpt><trkpt lat="10.068102" lon="-83.9899026"><ele>1374.0</ele><time>2026-04-09T12:47:50.926Z</time></trkpt><trkpt lat="10.0681133" lon="-83.9897603"><ele>1365.5</ele><time>2026-04-09T12:47:51.926Z</time></trkpt><trkpt lat="10.0681022" lon="-83.9896158"><ele>1357.0</ele><time>2026-04-09T12:47:52.926Z</time></trkpt><trkpt lat="10.0680745" lon="-83.9894789"><ele>1357.0</ele><time>2026-04-09T12:47:53.926Z</time></trkpt><trkpt lat="10.0680355" lon="-83.9893474"><ele>1357.0</ele><time>2026-04-09T12:47:54.926Z</time></trkpt><trkpt lat="10.0679875" lon="-83.9892158"><ele>1357.0</ele><time>2026-04-09T12:47:55.926Z</time></trkpt><trkpt lat="10.0679409" lon="-83.9890885"><ele>1357.0</ele><time>2026-04-09T12:47:56.927Z</time></trkpt><trkpt lat="10.0678968" lon="-83.9889591"><ele>1358.0</ele><time>2026-04-09T12:47:57.926Z</time></trkpt><trkpt lat="10.0678589" lon="-83.9888265"><ele>1359.0</ele><time>2026-04-09T12:47:58.926Z</time></trkpt><trkpt lat="10.0678283" lon="-83.9886868"><ele>1360.0</ele><time>2026-04-09T12:47:59.926Z</time></trkpt><trkpt lat="10.0678073" lon="-83.988541"><ele>1361.0</ele><time>2026-04-09T12:48:00.926Z</time></trkpt><trkpt lat="10.0677994" lon="-83.9883911"><ele>1362.6666666666667</ele><time>2026-04-09T12:48:01.926Z</time></trkpt><trkpt lat="10.0678075" lon="-83.9882441"><ele>1364.3333333333333</ele><time>2026-04-09T12:48:02.926Z</time></trkpt><trkpt lat="10.0678341" lon="-83.988093"><ele>1366.0</ele><time>2026-04-09T12:48:03.926Z</time></trkpt><trkpt lat="10.0678812" lon="-83.9879433"><ele>1366.0</ele><time>2026-04-09T12:48:04.926Z</time></trkpt><trkpt lat="10.0679484" lon="-83.9877997"><ele>1366.0</ele><time>2026-04-09T12:48:05.926Z</time></trkpt><trkpt lat="10.0680328" lon="-83.9876696"><ele>1366.0</ele><time>2026-04-09T12:48:06.926Z</time></trkpt><trkpt lat="10.0681258" lon="-83.9875467"><ele>1361.0</ele><time>2026-04-09T12:48:07.926Z</time></trkpt><trkpt lat="10.0682254" lon="-83.9874283"><ele>1356.0</ele><time>2026-04-09T12:48:08.926Z</time></trkpt><trkpt lat="10.0683262" lon="-83.9873165"><ele>1351.0</ele><time>2026-04-09T12:48:09.926Z</time></trkpt><trkpt lat="10.0684275" lon="-83.9872064"><ele>1359.5</ele><time>2026-04-09T12:48:10.926Z</time></trkpt><trkpt lat="10.0685271" lon="-83.9870953"><ele>1368.0</ele><time>2026-04-09T12:48:11.926Z</time></trkpt><trkpt lat="10.0686267" lon="-83.9869885"><ele>1376.5</ele><time>2026-04-09T12:48:12.926Z</time></trkpt><trkpt lat="10.0687238" lon="-83.9868826"><ele>1385.0</ele><time>2026-04-09T12:48:13.926Z</time></trkpt><trkpt lat="10.0688134" lon="-83.9867758"><ele>1374.5</ele><time>2026-04-09T12:48:14.926Z</time></trkpt><trkpt lat="10.0688938" lon="-83.9866636"><ele>1364.0</ele><time>2026-04-09T12:48:15.927Z</time></trkpt><trkpt lat="10.0689582" lon="-83.9865423"><ele>1353.5</ele><time>2026-04-09T12:48:16.926Z</time></trkpt><trkpt lat="10.0690045" lon="-83.9864131"><ele>1343.0</ele><time>2026-04-09T12:48:17.926Z</time></trkpt><trkpt lat="10.0690344" lon="-83.9862793"><ele>1343.0</ele><time>2026-04-09T12:48:18.926Z</time></trkpt><trkpt lat="10.0690628" lon="-83.9861421"><ele>1343.0</ele><time>2026-04-09T12:48:19.926Z</time></trkpt><trkpt lat="10.0690917" lon="-83.9860091"><ele>1343.0</ele><time>2026-04-09T12:48:20.926Z</time></trkpt><trkpt lat="10.0691247" lon="-83.9858713"><ele>1343.0</ele><time>2026-04-09T12:48:21.926Z</time></trkpt><trkpt lat="10.0691638" lon="-83.9857369"><ele>1350.25</ele><time>2026-04-09T12:48:22.926Z</time></trkpt><trkpt lat="10.0692147" lon="-83.9856152"><ele>1357.5</ele><time>2026-04-09T12:48:23.926Z</time></trkpt><trkpt lat="10.0692776" lon="-83.9855011"><ele>1364.75</ele><time>2026-04-09T12:48:24.926Z</time></trkpt><trkpt lat="10.0693578" lon="-83.9853986"><ele>1372.0</ele><time>2026-04-09T12:48:25.927Z</time></trkpt><trkpt lat="10.0694574" lon="-83.9853142"><ele>1372.0</ele><time>2026-04-09T12:48:26.926Z</time></trkpt><trkpt lat="10.0695698" lon="-83.985238"><ele>1372.0</ele><time>2026-04-09T12:48:27.926Z</time></trkpt><trkpt lat="10.0696861" lon="-83.9851697"><ele>1372.0</ele><time>2026-04-09T12:48:28.926Z</time></trkpt><trkpt lat="10.0698117" lon="-83.9851069"><ele>1372.0</ele><time>2026-04-09T12:48:29.926Z</time></trkpt><trkpt lat="10.0699363" lon="-83.9850453"><ele>1374.25</ele><time>2026-04-09T12:48:30.926Z</time></trkpt><trkpt lat="10.0700585" lon="-83.9849755"><ele>1376.5</ele><time>2026-04-09T12:48:31.926Z</time></trkpt><trkpt lat="10.0701754" lon="-83.9848969"><ele>1378.75</ele><time>2026-04-09T12:48:32.926Z</time></trkpt><trkpt lat="10.0702818" lon="-83.9848079"><ele>1381.0</ele><time>2026-04-09T12:48:33.927Z</time></trkpt><trkpt lat="10.07038" lon="-83.98471"><ele>1381.0</ele><time>2026-04-09T12:48:34.926Z</time></trkpt><trkpt lat="10.070468" lon="-83.9846058"><ele>1381.0</ele><time>2026-04-09T12:48:35.926Z</time></trkpt><trkpt lat="10.0705533" lon="-83.9845011"><ele>1381.0</ele><time>2026-04-09T12:48:36.926Z</time></trkpt><trkpt lat="10.0706406" lon="-83.9843913"><ele>1381.0</ele><time>2026-04-09T12:48:37.926Z</time></trkpt><trkpt lat="10.0707329" lon="-83.9842851"><ele>1381.25</ele><time>2026-04-09T12:48:38.926Z</time></trkpt><trkpt lat="10.070838" lon="-83.9841967"><ele>1381.5</ele><time>2026-04-09T12:48:39.926Z</time></trkpt><trkpt lat="10.0709504" lon="-83.984119"><ele>1381.75</ele><time>2026-04-09T12:48:40.926Z</time></trkpt><trkpt lat="10.0710672" lon="-83.9840504"><ele>1382.0</ele><time>2026-04-09T12:48:41.927Z</time></trkpt><trkpt lat="10.0711909" lon="-83.9839876"><ele>1382.0</ele><time>2026-04-09T12:48:42.926Z</time></trkpt><trkpt lat="10.0713159" lon="-83.9839288"><ele>1382.0</ele><time>2026-04-09T12:48:43.926Z</time></trkpt><trkpt lat="10.0714393" lon="-83.9838697"><ele>1382.0</ele><time>2026-04-09T12:48:44.926Z</time></trkpt><trkpt lat="10.0715611" lon="-83.9838048"><ele>1382.0</ele><time>2026-04-09T12:48:45.926Z</time></trkpt><trkpt lat="10.0716755" lon="-83.983732"><ele>1382.0</ele><time>2026-04-09T12:48:46.926Z</time></trkpt><trkpt lat="10.0717808" lon="-83.9836511"><ele>1382.0</ele><time>2026-04-09T12:48:47.926Z</time></trkpt><trkpt lat="10.0718714" lon="-83.9835674"><ele>1382.0</ele><time>2026-04-09T12:48:48.926Z</time></trkpt><trkpt lat="10.0719524" lon="-83.9834626"><ele>1382.0</ele><time>2026-04-09T12:48:49.926Z</time></trkpt><trkpt lat="10.0720201" lon="-83.9833462"><ele>1386.25</ele><time>2026-04-09T12:48:50.927Z</time></trkpt><trkpt lat="10.0720908" lon="-83.9832318"><ele>1390.5</ele><time>2026-04-09T12:48:51.926Z</time></trkpt><trkpt lat="10.0721655" lon="-83.9831137"><ele>1394.75</ele><time>2026-04-09T12:48:52.926Z</time></trkpt><trkpt lat="10.0722378" lon="-83.9829978"><ele>1399.0</ele><time>2026-04-09T12:48:53.927Z</time></trkpt><trkpt lat="10.0723051" lon="-83.98289"><ele>1399.0</ele><time>2026-04-09T12:48:54.926Z</time></trkpt><trkpt lat="10.0723805" lon="-83.9827836"><ele>1399.0</ele><time>2026-04-09T12:48:55.926Z</time></trkpt><trkpt lat="10.0724702" lon="-83.9826786"><ele>1399.0</ele><time>2026-04-09T12:48:56.926Z</time></trkpt><trkpt lat="10.072566" lon="-83.9825931"><ele>1399.0</ele><time>2026-04-09T12:48:57.926Z</time></trkpt><trkpt lat="10.0726653" lon="-83.9825269"><ele>1394.75</ele><time>2026-04-09T12:48:58.926Z</time></trkpt><trkpt lat="10.0727704" lon="-83.9824701"><ele>1390.5</ele><time>2026-04-09T12:48:59.926Z</time></trkpt><trkpt lat="10.0728833" lon="-83.9824165"><ele>1386.25</ele><time>2026-04-09T12:49:00.926Z</time></trkpt><trkpt lat="10.073009" lon="-83.9823675"><ele>1382.0</ele><time>2026-04-09T12:49:01.926Z</time></trkpt><trkpt lat="10.07314" lon="-83.982321"><ele>1374.5</ele><time>2026-04-09T12:49:02.926Z</time></trkpt><trkpt lat="10.0732741" lon="-83.9822733"><ele>1367.0</ele><time>2026-04-09T12:49:03.926Z</time></trkpt><trkpt lat="10.0734151" lon="-83.9822213"><ele>1359.5</ele><time>2026-04-09T12:49:04.926Z</time></trkpt><trkpt lat="10.073551" lon="-83.982186"><ele>1352.0</ele><time>2026-04-09T12:49:05.926Z</time></trkpt><trkpt lat="10.0736822" lon="-83.9821586"><ele>1352.0</ele><time>2026-04-09T12:49:06.926Z</time></trkpt><trkpt lat="10.0738135" lon="-83.9821454"><ele>1352.0</ele><time>2026-04-09T12:49:07.926Z</time></trkpt><trkpt lat="10.0739362" lon="-83.9821461"><ele>1352.0</ele><time>2026-04-09T12:49:08.926Z</time></trkpt><trkpt lat="10.0740595" lon="-83.9821662"><ele>1352.0</ele><time>2026-04-09T12:49:09.926Z</time></trkpt><trkpt lat="10.0741886" lon="-83.9821919"><ele>1349.5</ele><time>2026-04-09T12:49:10.926Z</time></trkpt><trkpt lat="10.0743214" lon="-83.9822206"><ele>1347.0</ele><time>2026-04-09T12:49:11.926Z</time></trkpt><trkpt lat="10.0744558" lon="-83.9822485"><ele>1344.5</ele><time>2026-04-09T12:49:12.926Z</time></trkpt><trkpt lat="10.0746022" lon="-83.9822827"><ele>1342.0</ele><time>2026-04-09T12:49:13.926Z</time></trkpt><trkpt lat="10.0747483" lon="-83.9823077"><ele>1342.0</ele><time>2026-04-09T12:49:14.926Z</time></trkpt><trkpt lat="10.0748898" lon="-83.982326"><ele>1342.0</ele><time>2026-04-09T12:49:15.926Z</time></trkpt><trkpt lat="10.075032" lon="-83.9823322"><ele>1342.0</ele><time>2026-04-09T12:49:16.927Z</time></trkpt><trkpt lat="10.0751773" lon="-83.9823293"><ele>1342.0</ele><time>2026-04-09T12:49:17.926Z</time></trkpt><trkpt lat="10.0753202" lon="-83.9823075"><ele>1343.3333333333333</ele><time>2026-04-09T12:49:18.926Z</time></trkpt><trkpt lat="10.075464" lon="-83.9822815"><ele>1344.6666666666667</ele><time>2026-04-09T12:49:19.927Z</time></trkpt><trkpt lat="10.0756107" lon="-83.9822485"><ele>1346.0</ele><time>2026-04-09T12:49:20.926Z</time></trkpt><trkpt lat="10.0757645" lon="-83.9822115"><ele>1341.3333333333335</ele><time>2026-04-09T12:49:21.926Z</time></trkpt><trkpt lat="10.0759208" lon="-83.9821714"><ele>1336.6666666666667</ele><time>2026-04-09T12:49:22.926Z</time></trkpt><trkpt lat="10.0760768" lon="-83.9821324"><ele>1332.0</ele><time>2026-04-09T12:49:23.926Z</time></trkpt><trkpt lat="10.0762334" lon="-83.9820904"><ele>1332.0</ele><time>2026-04-09T12:49:24.926Z</time></trkpt><trkpt lat="10.0763878" lon="-83.9820482"><ele>1332.0</ele><time>2026-04-09T12:49:25.926Z</time></trkpt><trkpt lat="10.0765405" lon="-83.9820104"><ele>1332.0</ele><time>2026-04-09T12:49:26.926Z</time></trkpt><trkpt lat="10.0766903" lon="-83.9819728"><ele>1325.0</ele><time>2026-04-09T12:49:27.926Z</time></trkpt><trkpt lat="10.0768383" lon="-83.9819266"><ele>1318.0</ele><time>2026-04-09T12:49:28.926Z</time></trkpt><trkpt lat="10.0769834" lon="-83.9818886"><ele>1311.0</ele><time>2026-04-09T12:49:29.926Z</time></trkpt><trkpt lat="10.0771307" lon="-83.9818499"><ele>1311.0</ele><time>2026-04-09T12:49:30.926Z</time></trkpt><trkpt lat="10.0772712" lon="-83.9818128"><ele>1311.0</ele><time>2026-04-09T12:49:31.926Z</time></trkpt><trkpt lat="10.0774135" lon="-83.9817821"><ele>1311.0</ele><time>2026-04-09T12:49:32.926Z</time></trkpt><trkpt lat="10.0775503" lon="-83.9817548"><ele>1311.0</ele><time>2026-04-09T12:49:33.926Z</time></trkpt><trkpt lat="10.0776878" lon="-83.9817402"><ele>1309.0</ele><time>2026-04-09T12:49:34.926Z</time></trkpt><trkpt lat="10.0778251" lon="-83.9817442"><ele>1307.0</ele><time>2026-04-09T12:49:35.926Z</time></trkpt><trkpt lat="10.0779595" lon="-83.9817602"><ele>1305.0</ele><time>2026-04-09T12:49:36.926Z</time></trkpt><trkpt lat="10.0780887" lon="-83.9817878"><ele>1303.0</ele><time>2026-04-09T12:49:37.926Z</time></trkpt><trkpt lat="10.0782257" lon="-83.9818152"><ele>1303.0</ele><time>2026-04-09T12:49:38.926Z</time></trkpt><trkpt lat="10.0783697" lon="-83.9818495"><ele>1303.0</ele><time>2026-04-09T12:49:39.926Z</time></trkpt><trkpt lat="10.0785167" lon="-83.9818847"><ele>1303.0</ele><time>2026-04-09T12:49:40.926Z</time></trkpt><trkpt lat="10.0786738" lon="-83.9819199"><ele>1303.0</ele><time>2026-04-09T12:49:41.926Z</time></trkpt><trkpt lat="10.078829" lon="-83.9819551"><ele>1303.0</ele><time>2026-04-09T12:49:42.926Z</time></trkpt><trkpt lat="10.0789934" lon="-83.981995"><ele>1303.0</ele><time>2026-04-09T12:49:43.926Z</time></trkpt><trkpt lat="10.0791535" lon="-83.9820339"><ele>1303.0</ele><time>2026-04-09T12:49:44.926Z</time></trkpt><trkpt lat="10.0793172" lon="-83.9820691"><ele>1303.0</ele><time>2026-04-09T12:49:45.926Z</time></trkpt><trkpt lat="10.0794747" lon="-83.9821031"><ele>1303.0</ele><time>2026-04-09T12:49:46.926Z</time></trkpt><trkpt lat="10.0796299" lon="-83.9821463"><ele>1303.0</ele><time>2026-04-09T12:49:47.926Z</time></trkpt><trkpt lat="10.0797873" lon="-83.9821836"><ele>1303.0</ele><time>2026-04-09T12:49:48.926Z</time></trkpt><trkpt lat="10.0799404" lon="-83.9822217"><ele>1303.0</ele><time>2026-04-09T12:49:49.926Z</time></trkpt><trkpt lat="10.0800922" lon="-83.9822603"><ele>1305.3333333333333</ele><time>2026-04-09T12:49:50.926Z</time></trkpt><trkpt lat="10.0802461" lon="-83.9822932"><ele>1307.6666666666667</ele><time>2026-04-09T12:49:51.926Z</time></trkpt><trkpt lat="10.0804053" lon="-83.982336"><ele>1310.0</ele><time>2026-04-09T12:49:52.926Z</time></trkpt><trkpt lat="10.0805613" lon="-83.9823748"><ele>1310.0</ele><time>2026-04-09T12:49:53.926Z</time></trkpt><trkpt lat="10.080714" lon="-83.9824144"><ele>1310.0</ele><time>2026-04-09T12:49:54.926Z</time></trkpt><trkpt lat="10.0808617" lon="-83.9824483"><ele>1310.0</ele><time>2026-04-09T12:49:55.926Z</time></trkpt><trkpt lat="10.0810096" lon="-83.9824908"><ele>1297.5</ele><time>2026-04-09T12:49:56.926Z</time></trkpt><trkpt lat="10.0811519" lon="-83.9825203"><ele>1285.0</ele><time>2026-04-09T12:49:57.926Z</time></trkpt><trkpt lat="10.0812953" lon="-83.9825429"><ele>1272.5</ele><time>2026-04-09T12:49:58.926Z</time></trkpt><trkpt lat="10.0814372" lon="-83.9825605"><ele>1260.0</ele><time>2026-04-09T12:49:59.926Z</time></trkpt><trkpt lat="10.0815812" lon="-83.9825645"><ele>1259.25</ele><time>2026-04-09T12:50:00.926Z</time></trkpt><trkpt lat="10.0817151" lon="-83.9825532"><ele>1258.5</ele><time>2026-04-09T12:50:01.927Z</time></trkpt><trkpt lat="10.0818524" lon="-83.9825276"><ele>1257.75</ele><time>2026-04-09T12:50:02.926Z</time></trkpt><trkpt lat="10.0819704" lon="-83.9824775"><ele>1257.0</ele><time>2026-04-09T12:50:03.926Z</time></trkpt><trkpt lat="10.0820879" lon="-83.9824109"><ele>1259.5</ele><time>2026-04-09T12:50:04.926Z</time></trkpt><trkpt lat="10.082196" lon="-83.9823306"><ele>1262.0</ele><time>2026-04-09T12:50:05.926Z</time></trkpt><trkpt lat="10.0823046" lon="-83.9822389"><ele>1264.5</ele><time>2026-04-09T12:50:06.926Z</time></trkpt><trkpt lat="10.0824054" lon="-83.9821391"><ele>1267.0</ele><time>2026-04-09T12:50:07.926Z</time></trkpt><trkpt lat="10.0825028" lon="-83.982037"><ele>1267.0</ele><time>2026-04-09T12:50:08.926Z</time></trkpt><trkpt lat="10.0826029" lon="-83.9819345"><ele>1267.0</ele><time>2026-04-09T12:50:09.926Z</time></trkpt><trkpt lat="10.0827028" lon="-83.9818368"><ele>1267.0</ele><time>2026-04-09T12:50:10.926Z</time></trkpt><trkpt lat="10.0828043" lon="-83.9817484"><ele>1267.0</ele><time>2026-04-09T12:50:11.926Z</time></trkpt><trkpt lat="10.0829077" lon="-83.9816741"><ele>1274.5</ele><time>2026-04-09T12:50:12.926Z</time></trkpt><trkpt lat="10.0830246" lon="-83.9816171"><ele>1282.0</ele><time>2026-04-09T12:50:13.926Z</time></trkpt><trkpt lat="10.0831449" lon="-83.9815796"><ele>1289.5</ele><time>2026-04-09T12:50:14.926Z</time></trkpt><trkpt lat="10.0832717" lon="-83.9815629"><ele>1297.0</ele><time>2026-04-09T12:50:15.926Z</time></trkpt><trkpt lat="10.0834076" lon="-83.9815627"><ele>1297.0</ele><time>2026-04-09T12:50:16.926Z</time></trkpt><trkpt lat="10.0835409" lon="-83.9815874"><ele>1297.0</ele><time>2026-04-09T12:50:17.926Z</time></trkpt><trkpt lat="10.0836778" lon="-83.9816255"><ele>1297.0</ele><time>2026-04-09T12:50:18.927Z</time></trkpt><trkpt lat="10.0838167" lon="-83.9816779"><ele>1297.0</ele><time>2026-04-09T12:50:19.926Z</time></trkpt><trkpt lat="10.0839564" lon="-83.981742"><ele>1280.3333333333333</ele><time>2026-04-09T12:50:20.926Z</time></trkpt><trkpt lat="10.0840949" lon="-83.9818169"><ele>1263.6666666666667</ele><time>2026-04-09T12:50:21.926Z</time></trkpt><trkpt lat="10.0842363" lon="-83.9819"><ele>1247.0</ele><time>2026-04-09T12:50:22.926Z</time></trkpt><trkpt lat="10.0843778" lon="-83.9819731"><ele>1247.0</ele><time>2026-04-09T12:50:23.926Z</time></trkpt><trkpt lat="10.0845128" lon="-83.9820311"><ele>1247.0</ele><time>2026-04-09T12:50:24.926Z</time></trkpt><trkpt lat="10.0846574" lon="-83.9820828"><ele>1247.0</ele><time>2026-04-09T12:50:25.926Z</time></trkpt><trkpt lat="10.0848005" lon="-83.9821131"><ele>1247.0</ele><time>2026-04-09T12:50:26.926Z</time></trkpt><trkpt lat="10.0849454" lon="-83.9821229"><ele>1249.75</ele><time>2026-04-09T12:50:27.926Z</time></trkpt><trkpt lat="10.0850912" lon="-83.9821159"><ele>1252.5</ele><time>2026-04-09T12:50:28.926Z</time></trkpt><trkpt lat="10.0852367" lon="-83.9820951"><ele>1255.25</ele><time>2026-04-09T12:50:29.926Z</time></trkpt><trkpt lat="10.0853784" lon="-83.9820617"><ele>1258.0</ele><time>2026-04-09T12:50:30.926Z</time></trkpt><trkpt lat="10.0855185" lon="-83.9820192"><ele>1258.0</ele><time>2026-04-09T12:50:31.926Z</time></trkpt><trkpt lat="10.085663" lon="-83.9819717"><ele>1258.0</ele><time>2026-04-09T12:50:32.926Z</time></trkpt><trkpt lat="10.0858037" lon="-83.9819165"><ele>1258.0</ele><time>2026-04-09T12:50:33.926Z</time></trkpt><trkpt lat="10.0859436" lon="-83.9818535"><ele>1261.0</ele><time>2026-04-09T12:50:34.926Z</time></trkpt><trkpt lat="10.0860849" lon="-83.9817877"><ele>1264.0</ele><time>2026-04-09T12:50:35.926Z</time></trkpt><trkpt lat="10.0862257" lon="-83.9817263"><ele>1267.0</ele><time>2026-04-09T12:50:36.926Z</time></trkpt><trkpt lat="10.0863701" lon="-83.98167"><ele>1269.25</ele><time>2026-04-09T12:50:37.926Z</time></trkpt><trkpt lat="10.0865126" lon="-83.9816242"><ele>1271.5</ele><time>2026-04-09T12:50:38.926Z</time></trkpt><trkpt lat="10.086651" lon="-83.981589"><ele>1273.75</ele><time>2026-04-09T12:50:39.926Z</time></trkpt><trkpt lat="10.0867848" lon="-83.9815796"><ele>1276.0</ele><time>2026-04-09T12:50:40.926Z</time></trkpt><trkpt lat="10.0869129" lon="-83.9815971"><ele>1276.0</ele><time>2026-04-09T12:50:41.926Z</time></trkpt><trkpt lat="10.0870402" lon="-83.9816327"><ele>1276.0</ele><time>2026-04-09T12:50:42.926Z</time></trkpt><trkpt lat="10.0871622" lon="-83.9816816"><ele>1276.0</ele><time>2026-04-09T12:50:43.926Z</time></trkpt><trkpt lat="10.0872947" lon="-83.9817436"><ele>1276.0</ele><time>2026-04-09T12:50:44.926Z</time></trkpt><trkpt lat="10.0874322" lon="-83.9818121"><ele>1262.0</ele><time>2026-04-09T12:50:45.926Z</time></trkpt><trkpt lat="10.0875678" lon="-83.981874"><ele>1248.0</ele><time>2026-04-09T12:50:46.926Z</time></trkpt><trkpt lat="10.0877067" lon="-83.9819314"><ele>1234.0</ele><time>2026-04-09T12:50:47.926Z</time></trkpt><trkpt lat="10.0878523" lon="-83.9819804"><ele>1234.0</ele><time>2026-04-09T12:50:48.926Z</time></trkpt><trkpt lat="10.0879995" lon="-83.9820169"><ele>1234.0</ele><time>2026-04-09T12:50:49.926Z</time></trkpt><trkpt lat="10.0881418" lon="-83.9820286"><ele>1234.0</ele><time>2026-04-09T12:50:50.926Z</time></trkpt><trkpt lat="10.0882914" lon="-83.982032"><ele>1234.0</ele><time>2026-04-09T12:50:51.926Z</time></trkpt><trkpt lat="10.0884354" lon="-83.9820248"><ele>1232.75</ele><time>2026-04-09T12:50:52.927Z</time></trkpt><trkpt lat="10.0885837" lon="-83.9820173"><ele>1231.5</ele><time>2026-04-09T12:50:53.926Z</time></trkpt><trkpt lat="10.0887249" lon="-83.9820108"><ele>1230.25</ele><time>2026-04-09T12:50:54.926Z</time></trkpt><trkpt lat="10.0888684" lon="-83.9820069"><ele>1229.0</ele><time>2026-04-09T12:50:55.926Z</time></trkpt><trkpt lat="10.0890112" lon="-83.9820051"><ele>1229.0</ele><time>2026-04-09T12:50:56.926Z</time></trkpt><trkpt lat="10.0891495" lon="-83.9820191"><ele>1229.0</ele><time>2026-04-09T12:50:57.926Z</time></trkpt><trkpt lat="10.0892872" lon="-83.9820503"><ele>1229.0</ele><time>2026-04-09T12:50:58.926Z</time></trkpt><trkpt lat="10.0894203" lon="-83.9820853"><ele>1229.0</ele><time>2026-04-09T12:50:59.926Z</time></trkpt><trkpt lat="10.0895598" lon="-83.98213"><ele>1229.0</ele><time>2026-04-09T12:51:00.926Z</time></trkpt><trkpt lat="10.0897016" lon="-83.9821761"><ele>1229.0</ele><time>2026-04-09T12:51:01.926Z</time></trkpt><trkpt lat="10.0898474" lon="-83.9822274"><ele>1229.0</ele><time>2026-04-09T12:51:02.926Z</time></trkpt><trkpt lat="10.0899924" lon="-83.9822692"><ele>1230.0</ele><time>2026-04-09T12:51:03.926Z</time></trkpt><trkpt lat="10.0901346" lon="-83.9823097"><ele>1231.0</ele><time>2026-04-09T12:51:04.926Z</time></trkpt><trkpt lat="10.090279" lon="-83.9823566"><ele>1232.0</ele><time>2026-04-09T12:51:05.926Z</time></trkpt><trkpt lat="10.0904248" lon="-83.9823981"><ele>1232.0</ele><time>2026-04-09T12:51:06.926Z</time></trkpt><trkpt lat="10.0905638" lon="-83.9824316"><ele>1232.0</ele><time>2026-04-09T12:51:07.926Z</time></trkpt><trkpt lat="10.0907112" lon="-83.9824688"><ele>1232.0</ele><time>2026-04-09T12:51:08.926Z</time></trkpt><trkpt lat="10.0908569" lon="-83.9825051"><ele>1232.0</ele><time>2026-04-09T12:51:09.926Z</time></trkpt><trkpt lat="10.0910034" lon="-83.9825402"><ele>1221.75</ele><time>2026-04-09T12:51:10.926Z</time></trkpt><trkpt lat="10.0911543" lon="-83.9825632"><ele>1211.5</ele><time>2026-04-09T12:51:11.926Z</time></trkpt><trkpt lat="10.091292" lon="-83.9825787"><ele>1201.25</ele><time>2026-04-09T12:51:12.926Z</time></trkpt><trkpt lat="10.0914369" lon="-83.982596"><ele>1191.0</ele><time>2026-04-09T12:51:13.926Z</time></trkpt><trkpt lat="10.0915867" lon="-83.9826092"><ele>1191.5</ele><time>2026-04-09T12:51:14.926Z</time></trkpt><trkpt lat="10.0917294" lon="-83.982613"><ele>1192.0</ele><time>2026-04-09T12:51:15.926Z</time></trkpt><trkpt lat="10.0918733" lon="-83.9826227"><ele>1192.5</ele><time>2026-04-09T12:51:16.926Z</time></trkpt><trkpt lat="10.0920165" lon="-83.9826369"><ele>1193.0</ele><time>2026-04-09T12:51:17.926Z</time></trkpt><trkpt lat="10.0921558" lon="-83.9826635"><ele>1193.0</ele><time>2026-04-09T12:51:18.926Z</time></trkpt><trkpt lat="10.0922957" lon="-83.9827049"><ele>1193.0</ele><time>2026-04-09T12:51:19.926Z</time></trkpt><trkpt lat="10.0924299" lon="-83.9827511"><ele>1193.0</ele><time>2026-04-09T12:51:20.926Z</time></trkpt><trkpt lat="10.0925635" lon="-83.9828006"><ele>1193.0</ele><time>2026-04-09T12:51:21.926Z</time></trkpt><trkpt lat="10.0926986" lon="-83.9828484"><ele>1192.5</ele><time>2026-04-09T12:51:22.926Z</time></trkpt><trkpt lat="10.0928358" lon="-83.9828955"><ele>1192.0</ele><time>2026-04-09T12:51:23.926Z</time></trkpt><trkpt lat="10.0929741" lon="-83.9829363"><ele>1191.5</ele><time>2026-04-09T12:51:24.926Z</time></trkpt><trkpt lat="10.0931183" lon="-83.9829609"><ele>1191.0</ele><time>2026-04-09T12:51:25.926Z</time></trkpt><trkpt lat="10.0932585" lon="-83.9829653"><ele>1191.0</ele><time>2026-04-09T12:51:26.926Z</time></trkpt><trkpt lat="10.0933951" lon="-83.9829508"><ele>1191.0</ele><time>2026-04-09T12:51:27.926Z</time></trkpt><trkpt lat="10.0935193" lon="-83.9829005"><ele>1191.0</ele><time>2026-04-09T12:51:28.926Z</time></trkpt><trkpt lat="10.0936282" lon="-83.9828314"><ele>1191.0</ele><time>2026-04-09T12:51:29.926Z</time></trkpt><trkpt lat="10.0937345" lon="-83.9827534"><ele>1191.0</ele><time>2026-04-09T12:51:30.926Z</time></trkpt><trkpt lat="10.093837" lon="-83.9826725"><ele>1191.0</ele><time>2026-04-09T12:51:31.926Z</time></trkpt><trkpt lat="10.0939403" lon="-83.9825877"><ele>1191.0</ele><time>2026-04-09T12:51:32.926Z</time></trkpt><trkpt lat="10.0940494" lon="-83.9824999"><ele>1191.0</ele><time>2026-04-09T12:51:33.926Z</time></trkpt><trkpt lat="10.0941655" lon="-83.9824088"><ele>1193.0</ele><time>2026-04-09T12:51:34.927Z</time></trkpt><trkpt lat="10.0942877" lon="-83.9823243"><ele>1195.0</ele><time>2026-04-09T12:51:35.926Z</time></trkpt><trkpt lat="10.0944102" lon="-83.9822454"><ele>1197.0</ele><time>2026-04-09T12:51:36.927Z</time></trkpt><trkpt lat="10.0945406" lon="-83.9821702"><ele>1199.0</ele><time>2026-04-09T12:51:37.926Z</time></trkpt><trkpt lat="10.0946702" lon="-83.9821037"><ele>1199.0</ele><time>2026-04-09T12:51:38.926Z</time></trkpt><trkpt lat="10.0948016" lon="-83.9820411"><ele>1199.0</ele><time>2026-04-09T12:51:39.926Z</time></trkpt><trkpt lat="10.0949311" lon="-83.9819751"><ele>1199.0</ele><time>2026-04-09T12:51:40.926Z</time></trkpt><trkpt lat="10.095064" lon="-83.9819101"><ele>1199.0</ele><time>2026-04-09T12:51:41.926Z</time></trkpt><trkpt lat="10.0951928" lon="-83.9818455"><ele>1202.5</ele><time>2026-04-09T12:51:42.926Z</time></trkpt><trkpt lat="10.0953192" lon="-83.9817822"><ele>1206.0</ele><time>2026-04-09T12:51:43.926Z</time></trkpt><trkpt lat="10.0954481" lon="-83.9817188"><ele>1209.5</ele><time>2026-04-09T12:51:44.926Z</time></trkpt><trkpt lat="10.0955722" lon="-83.9816582"><ele>1213.0</ele><time>2026-04-09T12:51:45.926Z</time></trkpt><trkpt lat="10.0956967" lon="-83.9815987"><ele>1202.75</ele><time>2026-04-09T12:51:46.926Z</time></trkpt><trkpt lat="10.0958238" lon="-83.9815332"><ele>1192.5</ele><time>2026-04-09T12:51:47.926Z</time></trkpt><trkpt lat="10.0959537" lon="-83.9814723"><ele>1182.25</ele><time>2026-04-09T12:51:48.926Z</time></trkpt><trkpt lat="10.0960831" lon="-83.9814137"><ele>1172.0</ele><time>2026-04-09T12:51:49.926Z</time></trkpt><trkpt lat="10.0962131" lon="-83.9813552"><ele>1172.0</ele><time>2026-04-09T12:51:50.926Z</time></trkpt><trkpt lat="10.0963433" lon="-83.981295"><ele>1172.0</ele><time>2026-04-09T12:51:51.926Z</time></trkpt><trkpt lat="10.0964803" lon="-83.9812345"><ele>1172.0</ele><time>2026-04-09T12:51:52.926Z</time></trkpt><trkpt lat="10.0966158" lon="-83.9811698"><ele>1172.0</ele><time>2026-04-09T12:51:53.926Z</time></trkpt><trkpt lat="10.0967511" lon="-83.9811064"><ele>1177.5</ele><time>2026-04-09T12:51:54.926Z</time></trkpt><trkpt lat="10.0968715" lon="-83.9810353"><ele>1183.0</ele><time>2026-04-09T12:51:55.926Z</time></trkpt><trkpt lat="10.0969763" lon="-83.980949"><ele>1188.5</ele><time>2026-04-09T12:51:56.926Z</time></trkpt><trkpt lat="10.0970676" lon="-83.9808505"><ele>1194.0</ele><time>2026-04-09T12:51:57.927Z</time></trkpt><trkpt lat="10.097148" lon="-83.9807373"><ele>1194.0</ele><time>2026-04-09T12:51:58.926Z</time></trkpt><trkpt lat="10.0972274" lon="-83.9806151"><ele>1194.0</ele><time>2026-04-09T12:51:59.926Z</time></trkpt><trkpt lat="10.0973096" lon="-83.9804864"><ele>1194.0</ele><time>2026-04-09T12:52:00.926Z</time></trkpt><trkpt lat="10.0973905" lon="-83.9803573"><ele>1194.0</ele><time>2026-04-09T12:52:01.926Z</time></trkpt><trkpt lat="10.0974706" lon="-83.9802291"><ele>1188.5</ele><time>2026-04-09T12:52:02.926Z</time></trkpt><trkpt lat="10.0975357" lon="-83.9800988"><ele>1183.0</ele><time>2026-04-09T12:52:03.927Z</time></trkpt><trkpt lat="10.097586" lon="-83.9799724"><ele>1177.5</ele><time>2026-04-09T12:52:04.926Z</time></trkpt><trkpt lat="10.0976124" lon="-83.9798433"><ele>1172.0</ele><time>2026-04-09T12:52:05.926Z</time></trkpt><trkpt lat="10.0976312" lon="-83.9797073"><ele>1172.0</ele><time>2026-04-09T12:52:06.926Z</time></trkpt><trkpt lat="10.0976437" lon="-83.9795641"><ele>1172.0</ele><time>2026-04-09T12:52:07.926Z</time></trkpt><trkpt lat="10.0976607" lon="-83.9794179"><ele>1172.0</ele><time>2026-04-09T12:52:08.926Z</time></trkpt><trkpt lat="10.0976878" lon="-83.9792767"><ele>1172.0</ele><time>2026-04-09T12:52:09.926Z</time></trkpt><trkpt lat="10.097723" lon="-83.9791506"><ele>1181.5</ele><time>2026-04-09T12:52:10.926Z</time></trkpt><trkpt lat="10.0977629" lon="-83.9790257"><ele>1191.0</ele><time>2026-04-09T12:52:11.926Z</time></trkpt><trkpt lat="10.0978208" lon="-83.9789033"><ele>1200.5</ele><time>2026-04-09T12:52:12.926Z</time></trkpt><trkpt lat="10.0978997" lon="-83.9787916"><ele>1210.0</ele><time>2026-04-09T12:52:13.926Z</time></trkpt><trkpt lat="10.0979897" lon="-83.9786838"><ele>1210.0</ele><time>2026-04-09T12:52:14.926Z</time></trkpt><trkpt lat="10.0980927" lon="-83.9785826"><ele>1210.0</ele><time>2026-04-09T12:52:15.926Z</time></trkpt><trkpt lat="10.0982047" lon="-83.978477"><ele>1210.0</ele><time>2026-04-09T12:52:16.926Z</time></trkpt><trkpt lat="10.0983187" lon="-83.9783684"><ele>1200.0</ele><time>2026-04-09T12:52:17.926Z</time></trkpt><trkpt lat="10.098438" lon="-83.9782598"><ele>1190.0</ele><time>2026-04-09T12:52:18.926Z</time></trkpt><trkpt lat="10.0985596" lon="-83.9781472"><ele>1180.0</ele><time>2026-04-09T12:52:19.926Z</time></trkpt><trkpt lat="10.0986792" lon="-83.9780372"><ele>1180.0</ele><time>2026-04-09T12:52:20.926Z</time></trkpt><trkpt lat="10.0988045" lon="-83.977933"><ele>1180.0</ele><time>2026-04-09T12:52:21.926Z</time></trkpt><trkpt lat="10.0989301" lon="-83.9778368"><ele>1180.0</ele><time>2026-04-09T12:52:22.926Z</time></trkpt><trkpt lat="10.0990618" lon="-83.9777522"><ele>1163.3333333333333</ele><time>2026-04-09T12:52:23.926Z</time></trkpt><trkpt lat="10.0991988" lon="-83.9776798"><ele>1146.6666666666667</ele><time>2026-04-09T12:52:24.926Z</time></trkpt><trkpt lat="10.0993445" lon="-83.9776132"><ele>1130.0</ele><time>2026-04-09T12:52:25.926Z</time></trkpt><trkpt lat="10.099495" lon="-83.9775532"><ele>1141.0</ele><time>2026-04-09T12:52:26.926Z</time></trkpt><trkpt lat="10.099653" lon="-83.9774948"><ele>1152.0</ele><time>2026-04-09T12:52:27.926Z</time></trkpt><trkpt lat="10.0998126" lon="-83.9774378"><ele>1163.0</ele><time>2026-04-09T12:52:28.926Z</time></trkpt><trkpt lat="10.0999728" lon="-83.9773869"><ele>1163.0</ele><time>2026-04-09T12:52:29.926Z</time></trkpt><trkpt lat="10.1001303" lon="-83.9773396"><ele>1163.0</ele><time>2026-04-09T12:52:30.926Z</time></trkpt><trkpt lat="10.1002891" lon="-83.9772938"><ele>1163.0</ele><time>2026-04-09T12:52:31.926Z</time></trkpt><trkpt lat="10.1004453" lon="-83.9772484"><ele>1163.0</ele><time>2026-04-09T12:52:32.927Z</time></trkpt><trkpt lat="10.1005996" lon="-83.9772052"><ele>1163.0</ele><time>2026-04-09T12:52:33.926Z</time></trkpt><trkpt lat="10.1007542" lon="-83.9771573"><ele>1163.0</ele><time>2026-04-09T12:52:34.926Z</time></trkpt><trkpt lat="10.1009069" lon="-83.9771045"><ele>1154.75</ele><time>2026-04-09T12:52:35.926Z</time></trkpt><trkpt lat="10.1010459" lon="-83.9770461"><ele>1146.5</ele><time>2026-04-09T12:52:36.926Z</time></trkpt><trkpt lat="10.1011782" lon="-83.9769754"><ele>1138.25</ele><time>2026-04-09T12:52:37.926Z</time></trkpt><trkpt lat="10.1013018" lon="-83.9768954"><ele>1130.0</ele><time>2026-04-09T12:52:38.926Z</time></trkpt><trkpt lat="10.1014039" lon="-83.9767933"><ele>1130.0</ele><time>2026-04-09T12:52:39.926Z</time></trkpt><trkpt lat="10.1015017" lon="-83.9766945"><ele>1130.0</ele><time>2026-04-09T12:52:40.926Z</time></trkpt><trkpt lat="10.1015978" lon="-83.9766027"><ele>1130.0</ele><time>2026-04-09T12:52:41.927Z</time></trkpt><trkpt lat="10.1016882" lon="-83.9764998"><ele>1130.0</ele><time>2026-04-09T12:52:42.926Z</time></trkpt><trkpt lat="10.1017728" lon="-83.9764124"><ele>1134.75</ele><time>2026-04-09T12:52:43.926Z</time></trkpt><trkpt lat="10.1018643" lon="-83.9763235"><ele>1139.5</ele><time>2026-04-09T12:52:44.926Z</time></trkpt><trkpt lat="10.1019751" lon="-83.9762409"><ele>1144.25</ele><time>2026-04-09T12:52:45.926Z</time></trkpt><trkpt lat="10.1020897" lon="-83.976163"><ele>1149.0</ele><time>2026-04-09T12:52:46.926Z</time></trkpt><trkpt lat="10.1022135" lon="-83.9760894"><ele>1149.0</ele><time>2026-04-09T12:52:47.926Z</time></trkpt><trkpt lat="10.102344" lon="-83.9760153"><ele>1149.0</ele><time>2026-04-09T12:52:48.926Z</time></trkpt><trkpt lat="10.1024799" lon="-83.975949"><ele>1149.0</ele><time>2026-04-09T12:52:49.926Z</time></trkpt><trkpt lat="10.1026126" lon="-83.975878"><ele>1149.25</ele><time>2026-04-09T12:52:50.926Z</time></trkpt><trkpt lat="10.1027438" lon="-83.9758069"><ele>1149.5</ele><time>2026-04-09T12:52:51.926Z</time></trkpt><trkpt lat="10.1028789" lon="-83.9757421"><ele>1149.75</ele><time>2026-04-09T12:52:52.926Z</time></trkpt><trkpt lat="10.1030065" lon="-83.975675"><ele>1150.0</ele><time>2026-04-09T12:52:53.926Z</time></trkpt><trkpt lat="10.1031326" lon="-83.9756168"><ele>1143.5</ele><time>2026-04-09T12:52:54.926Z</time></trkpt><trkpt lat="10.1032625" lon="-83.9755638"><ele>1137.0</ele><time>2026-04-09T12:52:55.926Z</time></trkpt><trkpt lat="10.1033897" lon="-83.9755269"><ele>1130.5</ele><time>2026-04-09T12:52:56.926Z</time></trkpt><trkpt lat="10.1035187" lon="-83.9755034"><ele>1124.0</ele><time>2026-04-09T12:52:57.926Z</time></trkpt><trkpt lat="10.1036524" lon="-83.9754973"><ele>1124.0</ele><time>2026-04-09T12:52:58.926Z</time></trkpt><trkpt lat="10.103781" lon="-83.9755096"><ele>1124.0</ele><time>2026-04-09T12:52:59.926Z</time></trkpt><trkpt lat="10.1039064" lon="-83.9755391"><ele>1124.0</ele><time>2026-04-09T12:53:00.926Z</time></trkpt><trkpt lat="10.1040299" lon="-83.975577"><ele>1124.0</ele><time>2026-04-09T12:53:01.926Z</time></trkpt><trkpt lat="10.1041512" lon="-83.9756344"><ele>1122.5</ele><time>2026-04-09T12:53:02.926Z</time></trkpt><trkpt lat="10.104279" lon="-83.9756878"><ele>1121.0</ele><time>2026-04-09T12:53:03.926Z</time></trkpt><trkpt lat="10.1044011" lon="-83.9757461"><ele>1119.5</ele><time>2026-04-09T12:53:04.926Z</time></trkpt><trkpt lat="10.1045244" lon="-83.9758002"><ele>1118.0</ele><time>2026-04-09T12:53:05.926Z</time></trkpt><trkpt lat="10.1046485" lon="-83.9758482"><ele>1102.0</ele><time>2026-04-09T12:53:06.926Z</time></trkpt><trkpt lat="10.1047841" lon="-83.9758878"><ele>1086.0</ele><time>2026-04-09T12:53:07.926Z</time></trkpt><trkpt lat="10.1049257" lon="-83.9759097"><ele>1070.0</ele><time>2026-04-09T12:53:08.926Z</time></trkpt><trkpt lat="10.1050668" lon="-83.9759234"><ele>1054.0</ele><time>2026-04-09T12:53:09.926Z</time></trkpt><trkpt lat="10.1052046" lon="-83.9759173"><ele>1052.25</ele><time>2026-04-09T12:53:10.926Z</time></trkpt><trkpt lat="10.1053451" lon="-83.9759089"><ele>1050.5</ele><time>2026-04-09T12:53:11.926Z</time></trkpt><trkpt lat="10.1054837" lon="-83.975894"><ele>1048.75</ele><time>2026-04-09T12:53:12.926Z</time></trkpt><trkpt lat="10.1056223" lon="-83.9758542"><ele>1047.0</ele><time>2026-04-09T12:53:13.926Z</time></trkpt><trkpt lat="10.1057607" lon="-83.9758057"><ele>1057.75</ele><time>2026-04-09T12:53:14.926Z</time></trkpt><trkpt lat="10.1058927" lon="-83.9757403"><ele>1068.5</ele><time>2026-04-09T12:53:15.926Z</time></trkpt><trkpt lat="10.1060221" lon="-83.9756663"><ele>1079.25</ele><time>2026-04-09T12:53:16.926Z</time></trkpt><trkpt lat="10.1061521" lon="-83.9755931"><ele>1090.0</ele><time>2026-04-09T12:53:17.926Z</time></trkpt><trkpt lat="10.1062778" lon="-83.9755261"><ele>1090.0</ele><time>2026-04-09T12:53:18.926Z</time></trkpt><trkpt lat="10.1064003" lon="-83.975463"><ele>1090.0</ele><time>2026-04-09T12:53:19.926Z</time></trkpt><trkpt lat="10.1065275" lon="-83.9754043"><ele>1090.0</ele><time>2026-04-09T12:53:20.926Z</time></trkpt><trkpt lat="10.1066574" lon="-83.9753614"><ele>1090.0</ele><time>2026-04-09T12:53:21.926Z</time></trkpt><trkpt lat="10.1067936" lon="-83.9753354"><ele>1079.6666666666665</ele><time>2026-04-09T12:53:22.926Z</time></trkpt><trkpt lat="10.1069387" lon="-83.9753248"><ele>1069.3333333333333</ele><time>2026-04-09T12:53:23.926Z</time></trkpt><trkpt lat="10.1070898" lon="-83.975328"><ele>1059.0</ele><time>2026-04-09T12:53:24.926Z</time></trkpt><trkpt lat="10.1072468" lon="-83.9753403"><ele>1059.0</ele><time>2026-04-09T12:53:25.926Z</time></trkpt><trkpt lat="10.1073953" lon="-83.9753617"><ele>1059.0</ele><time>2026-04-09T12:53:26.926Z</time></trkpt><trkpt lat="10.1075474" lon="-83.9753786"><ele>1059.0</ele><time>2026-04-09T12:53:27.926Z</time></trkpt><trkpt lat="10.107694" lon="-83.9753921"><ele>1056.25</ele><time>2026-04-09T12:53:28.926Z</time></trkpt><trkpt lat="10.1078405" lon="-83.9754033"><ele>1053.5</ele><time>2026-04-09T12:53:29.926Z</time></trkpt><trkpt lat="10.1079893" lon="-83.9753987"><ele>1050.75</ele><time>2026-04-09T12:53:30.926Z</time></trkpt><trkpt lat="10.108132" lon="-83.9753816"><ele>1048.0</ele><time>2026-04-09T12:53:31.926Z</time></trkpt><trkpt lat="10.1082774" lon="-83.975343"><ele>1044.6666666666665</ele><time>2026-04-09T12:53:32.926Z</time></trkpt><trkpt lat="10.1084254" lon="-83.9752842"><ele>1041.3333333333333</ele><time>2026-04-09T12:53:33.926Z</time></trkpt><trkpt lat="10.1085704" lon="-83.9752209"><ele>1038.0</ele><time>2026-04-09T12:53:34.926Z</time></trkpt><trkpt lat="10.1087183" lon="-83.9751616"><ele>1038.0</ele><time>2026-04-09T12:53:35.926Z</time></trkpt><trkpt lat="10.1088594" lon="-83.9750964"><ele>1038.0</ele><time>2026-04-09T12:53:36.926Z</time></trkpt><trkpt lat="10.1090025" lon="-83.9750338"><ele>1038.0</ele><time>2026-04-09T12:53:37.926Z</time></trkpt><trkpt lat="10.1091471" lon="-83.9749684"><ele>1044.0</ele><time>2026-04-09T12:53:38.926Z</time></trkpt><trkpt lat="10.1092893" lon="-83.9749001"><ele>1050.0</ele><time>2026-04-09T12:53:39.926Z</time></trkpt><trkpt lat="10.1094339" lon="-83.974834"><ele>1056.0</ele><time>2026-04-09T12:53:40.926Z</time></trkpt><trkpt lat="10.1095775" lon="-83.974764"><ele>1056.0</ele><time>2026-04-09T12:53:41.926Z</time></trkpt><trkpt lat="10.1097231" lon="-83.9746934"><ele>1056.0</ele><time>2026-04-09T12:53:42.926Z</time></trkpt><trkpt lat="10.1098788" lon="-83.9746274"><ele>1056.0</ele><time>2026-04-09T12:53:43.926Z</time></trkpt><trkpt lat="10.1100217" lon="-83.9745649"><ele>1052.6666666666667</ele><time>2026-04-09T12:53:44.926Z</time></trkpt><trkpt lat="10.110167" lon="-83.9744999"><ele>1049.3333333333335</ele><time>2026-04-09T12:53:45.926Z</time></trkpt><trkpt lat="10.1103156" lon="-83.9744444"><ele>1046.0</ele><time>2026-04-09T12:53:46.926Z</time></trkpt><trkpt lat="10.110461" lon="-83.9743894"><ele>1046.0</ele><time>2026-04-09T12:53:47.926Z</time></trkpt><trkpt lat="10.1106083" lon="-83.9743458"><ele>1046.0</ele><time>2026-04-09T12:53:48.926Z</time></trkpt><trkpt lat="10.1107597" lon="-83.9743126"><ele>1046.0</ele><time>2026-04-09T12:53:49.926Z</time></trkpt><trkpt lat="10.1109055" lon="-83.9742779"><ele>1041.0</ele><time>2026-04-09T12:53:50.926Z</time></trkpt><trkpt lat="10.111052" lon="-83.9742507"><ele>1036.0</ele><time>2026-04-09T12:53:51.926Z</time></trkpt><trkpt lat="10.1112039" lon="-83.9742289"><ele>1031.0</ele><time>2026-04-09T12:53:52.927Z</time></trkpt><trkpt lat="10.1113522" lon="-83.974209"><ele>1046.3333333333335</ele><time>2026-04-09T12:53:53.926Z</time></trkpt><trkpt lat="10.1115015" lon="-83.9741799"><ele>1061.6666666666667</ele><time>2026-04-09T12:53:54.926Z</time></trkpt><trkpt lat="10.1116558" lon="-83.9741538"><ele>1077.0</ele><time>2026-04-09T12:53:55.926Z</time></trkpt><trkpt lat="10.111804" lon="-83.9741339"><ele>1077.0</ele><time>2026-04-09T12:53:56.926Z</time></trkpt><trkpt lat="10.1119538" lon="-83.974115"><ele>1077.0</ele><time>2026-04-09T12:53:57.926Z</time></trkpt><trkpt lat="10.1121065" lon="-83.9740954"><ele>1077.0</ele><time>2026-04-09T12:53:58.926Z</time></trkpt><trkpt lat="10.112261" lon="-83.9740783"><ele>1070.3333333333333</ele><time>2026-04-09T12:53:59.926Z</time></trkpt><trkpt lat="10.1124138" lon="-83.9740559"><ele>1063.6666666666665</ele><time>2026-04-09T12:54:00.926Z</time></trkpt><trkpt lat="10.1125753" lon="-83.9740348"><ele>1057.0</ele><time>2026-04-09T12:54:01.926Z</time></trkpt><trkpt lat="10.1127304" lon="-83.9740089"><ele>1057.0</ele><time>2026-04-09T12:54:02.926Z</time></trkpt><trkpt lat="10.1128866" lon="-83.9739893"><ele>1057.0</ele><time>2026-04-09T12:54:03.926Z</time></trkpt><trkpt lat="10.1130413" lon="-83.9739688"><ele>1057.0</ele><time>2026-04-09T12:54:04.926Z</time></trkpt><trkpt lat="10.1131875" lon="-83.9739489"><ele>1055.5</ele><time>2026-04-09T12:54:05.926Z</time></trkpt><trkpt lat="10.113335" lon="-83.973912"><ele>1054.0</ele><time>2026-04-09T12:54:06.926Z</time></trkpt><trkpt lat="10.1134783" lon="-83.97388"><ele>1052.5</ele><time>2026-04-09T12:54:07.926Z</time></trkpt><trkpt lat="10.1136201" lon="-83.9738372"><ele>1051.0</ele><time>2026-04-09T12:54:08.926Z</time></trkpt><trkpt lat="10.1137531" lon="-83.9737816"><ele>1051.0</ele><time>2026-04-09T12:54:09.926Z</time></trkpt><trkpt lat="10.1138794" lon="-83.9737266"><ele>1051.0</ele><time>2026-04-09T12:54:10.926Z</time></trkpt><trkpt lat="10.114012" lon="-83.9736662"><ele>1051.0</ele><time>2026-04-09T12:54:11.926Z</time></trkpt><trkpt lat="10.1141454" lon="-83.9735947"><ele>1051.0</ele><time>2026-04-09T12:54:12.926Z</time></trkpt><trkpt lat="10.1142808" lon="-83.9735104"><ele>1056.3333333333333</ele><time>2026-04-09T12:54:13.926Z</time></trkpt><trkpt lat="10.114418" lon="-83.9734231"><ele>1061.6666666666667</ele><time>2026-04-09T12:54:14.926Z</time></trkpt><trkpt lat="10.1145545" lon="-83.9733266"><ele>1067.0</ele><time>2026-04-09T12:54:15.926Z</time></trkpt><trkpt lat="10.1147004" lon="-83.9732271"><ele>1067.0</ele><time>2026-04-09T12:54:16.926Z</time></trkpt><trkpt lat="10.1148458" lon="-83.9731315"><ele>1067.0</ele><time>2026-04-09T12:54:17.926Z</time></trkpt><trkpt lat="10.1149893" lon="-83.9730343"><ele>1067.0</ele><time>2026-04-09T12:54:18.926Z</time></trkpt><trkpt lat="10.1151435" lon="-83.9729423"><ele>1055.6666666666667</ele><time>2026-04-09T12:54:19.926Z</time></trkpt><trkpt lat="10.1152936" lon="-83.9728396"><ele>1044.3333333333333</ele><time>2026-04-09T12:54:20.926Z</time></trkpt><trkpt lat="10.1154463" lon="-83.9727386"><ele>1033.0</ele><time>2026-04-09T12:54:21.926Z</time></trkpt><trkpt lat="10.1156003" lon="-83.9726355"><ele>1035.0</ele><time>2026-04-09T12:54:22.926Z</time></trkpt><trkpt lat="10.1157614" lon="-83.9725342"><ele>1037.0</ele><time>2026-04-09T12:54:23.926Z</time></trkpt><trkpt lat="10.1159137" lon="-83.9724303"><ele>1039.0</ele><time>2026-04-09T12:54:24.926Z</time></trkpt><trkpt lat="10.1160643" lon="-83.9723285"><ele>1039.0</ele><time>2026-04-09T12:54:25.926Z</time></trkpt><trkpt lat="10.1162139" lon="-83.9722295"><ele>1039.0</ele><time>2026-04-09T12:54:26.926Z</time></trkpt><trkpt lat="10.1163675" lon="-83.9721287"><ele>1039.0</ele><time>2026-04-09T12:54:27.926Z</time></trkpt><trkpt lat="10.1165214" lon="-83.9720378"><ele>1030.0</ele><time>2026-04-09T12:54:28.926Z</time></trkpt><trkpt lat="10.1166735" lon="-83.9719444"><ele>1021.0</ele><time>2026-04-09T12:54:29.926Z</time></trkpt><trkpt lat="10.1168278" lon="-83.9718543"><ele>1012.0</ele><time>2026-04-09T12:54:30.926Z</time></trkpt><trkpt lat="10.1169829" lon="-83.9717776"><ele>1012.0</ele><time>2026-04-09T12:54:31.926Z</time></trkpt><trkpt lat="10.1171379" lon="-83.9717091"><ele>1012.0</ele><time>2026-04-09T12:54:32.926Z</time></trkpt><trkpt lat="10.1172967" lon="-83.9716462"><ele>1012.0</ele><time>2026-04-09T12:54:33.926Z</time></trkpt><trkpt lat="10.1174541" lon="-83.9715903"><ele>1018.6666666666666</ele><time>2026-04-09T12:54:34.927Z</time></trkpt><trkpt lat="10.1176149" lon="-83.9715342"><ele>1025.3333333333333</ele><time>2026-04-09T12:54:35.927Z</time></trkpt><trkpt lat="10.1177796" lon="-83.9714802"><ele>1032.0</ele><time>2026-04-09T12:54:36.926Z</time></trkpt><trkpt lat="10.1179467" lon="-83.9714323"><ele>1032.0</ele><time>2026-04-09T12:54:37.926Z</time></trkpt><trkpt lat="10.1181118" lon="-83.9713795"><ele>1032.0</ele><time>2026-04-09T12:54:38.926Z</time></trkpt><trkpt lat="10.1182774" lon="-83.971327"><ele>1032.0</ele><time>2026-04-09T12:54:39.926Z</time></trkpt><trkpt lat="10.1184436" lon="-83.9712756"><ele>1027.3333333333333</ele><time>2026-04-09T12:54:40.926Z</time></trkpt><trkpt lat="10.1186096" lon="-83.9712247"><ele>1022.6666666666666</ele><time>2026-04-09T12:54:41.926Z</time></trkpt><trkpt lat="10.1187727" lon="-83.9711756"><ele>1018.0</ele><time>2026-04-09T12:54:42.926Z</time></trkpt><trkpt lat="10.1189284" lon="-83.971124"><ele>1015.3333333333333</ele><time>2026-04-09T12:54:43.926Z</time></trkpt><trkpt lat="10.1190793" lon="-83.9710754"><ele>1012.6666666666667</ele><time>2026-04-09T12:54:44.926Z</time></trkpt><trkpt lat="10.1192321" lon="-83.9710279"><ele>1010.0</ele><time>2026-04-09T12:54:45.927Z</time></trkpt><trkpt lat="10.1193838" lon="-83.9709779"><ele>1010.0</ele><time>2026-04-09T12:54:46.926Z</time></trkpt><trkpt lat="10.1195307" lon="-83.9709497"><ele>1010.0</ele><time>2026-04-09T12:54:47.927Z</time></trkpt><trkpt lat="10.1196796" lon="-83.9709378"><ele>1010.0</ele><time>2026-04-09T12:54:48.926Z</time></trkpt><trkpt lat="10.1198286" lon="-83.9709528"><ele>1010.0</ele><time>2026-04-09T12:54:49.926Z</time></trkpt><trkpt lat="10.119964" lon="-83.9709774"><ele>1011.5</ele><time>2026-04-09T12:54:50.926Z</time></trkpt><trkpt lat="10.1200963" lon="-83.9710192"><ele>1013.0</ele><time>2026-04-09T12:54:51.926Z</time></trkpt><trkpt lat="10.1202183" lon="-83.9710776"><ele>1014.5</ele><time>2026-04-09T12:54:52.926Z</time></trkpt><trkpt lat="10.1203456" lon="-83.9711387"><ele>1016.0</ele><time>2026-04-09T12:54:53.926Z</time></trkpt><trkpt lat="10.1204737" lon="-83.9712109"><ele>1016.0</ele><time>2026-04-09T12:54:54.926Z</time></trkpt><trkpt lat="10.1206044" lon="-83.9712837"><ele>1016.0</ele><time>2026-04-09T12:54:55.926Z</time></trkpt><trkpt lat="10.120738" lon="-83.9713575"><ele>1016.0</ele><time>2026-04-09T12:54:56.926Z</time></trkpt><trkpt lat="10.1208734" lon="-83.9714306"><ele>1020.6666666666667</ele><time>2026-04-09T12:54:57.926Z</time></trkpt><trkpt lat="10.1210051" lon="-83.9715156"><ele>1025.3333333333333</ele><time>2026-04-09T12:54:58.926Z</time></trkpt><trkpt lat="10.1211449" lon="-83.971583"><ele>1030.0</ele><time>2026-04-09T12:54:59.926Z</time></trkpt><trkpt lat="10.1212745" lon="-83.971639"><ele>1030.0</ele><time>2026-04-09T12:55:00.926Z</time></trkpt><trkpt lat="10.12142" lon="-83.9716864"><ele>1030.0</ele><time>2026-04-09T12:55:01.926Z</time></trkpt><trkpt lat="10.1215516" lon="-83.9717047"><ele>1030.0</ele><time>2026-04-09T12:55:02.926Z</time></trkpt><trkpt lat="10.1216928" lon="-83.9716974"><ele>1030.0</ele><time>2026-04-09T12:55:03.926Z</time></trkpt><trkpt lat="10.1218296" lon="-83.9716751"><ele>1031.75</ele><time>2026-04-09T12:55:04.926Z</time></trkpt><trkpt lat="10.1219717" lon="-83.9716395"><ele>1033.5</ele><time>2026-04-09T12:55:05.926Z</time></trkpt><trkpt lat="10.1221065" lon="-83.9716012"><ele>1035.25</ele><time>2026-04-09T12:55:06.926Z</time></trkpt><trkpt lat="10.1222383" lon="-83.971555"><ele>1037.0</ele><time>2026-04-09T12:55:07.926Z</time></trkpt><trkpt lat="10.1223688" lon="-83.9715012"><ele>1032.25</ele><time>2026-04-09T12:55:08.926Z</time></trkpt><trkpt lat="10.1224974" lon="-83.9714426"><ele>1027.5</ele><time>2026-04-09T12:55:09.926Z</time></trkpt><trkpt lat="10.1226275" lon="-83.9713886"><ele>1022.75</ele><time>2026-04-09T12:55:10.926Z</time></trkpt><trkpt lat="10.1227544" lon="-83.9713361"><ele>1018.0</ele><time>2026-04-09T12:55:11.926Z</time></trkpt><trkpt lat="10.1228767" lon="-83.9712799"><ele>1018.0</ele><time>2026-04-09T12:55:12.926Z</time></trkpt><trkpt lat="10.1229937" lon="-83.9712178"><ele>1018.0</ele><time>2026-04-09T12:55:13.926Z</time></trkpt><trkpt lat="10.1231013" lon="-83.9711479"><ele>1018.0</ele><time>2026-04-09T12:55:14.926Z</time></trkpt><trkpt lat="10.1232025" lon="-83.9710674"><ele>1018.0</ele><time>2026-04-09T12:55:15.926Z</time></trkpt><trkpt lat="10.1232969" lon="-83.9709745"><ele>1021.5</ele><time>2026-04-09T12:55:16.926Z</time></trkpt><trkpt lat="10.1233751" lon="-83.9708685"><ele>1025.0</ele><time>2026-04-09T12:55:17.926Z</time></trkpt><trkpt lat="10.1234373" lon="-83.970752"><ele>1028.5</ele><time>2026-04-09T12:55:18.926Z</time></trkpt><trkpt lat="10.1234891" lon="-83.9706273"><ele>1032.0</ele><time>2026-04-09T12:55:19.926Z</time></trkpt><trkpt lat="10.1235319" lon="-83.9704926"><ele>1034.75</ele><time>2026-04-09T12:55:20.926Z</time></trkpt><trkpt lat="10.1235693" lon="-83.9703613"><ele>1037.5</ele><time>2026-04-09T12:55:21.926Z</time></trkpt><trkpt lat="10.1235997" lon="-83.9702165"><ele>1040.25</ele><time>2026-04-09T12:55:22.926Z</time></trkpt><trkpt lat="10.1236412" lon="-83.9700671"><ele>1043.0</ele><time>2026-04-09T12:55:23.926Z</time></trkpt><trkpt lat="10.1236709" lon="-83.9699173"><ele>1046.6666666666667</ele><time>2026-04-09T12:55:24.926Z</time></trkpt><trkpt lat="10.1237059" lon="-83.9697619"><ele>1050.3333333333333</ele><time>2026-04-09T12:55:25.926Z</time></trkpt><trkpt lat="10.1237513" lon="-83.9696041"><ele>1054.0</ele><time>2026-04-09T12:55:26.926Z</time></trkpt><trkpt lat="10.1238035" lon="-83.9694524"><ele>1054.0</ele><time>2026-04-09T12:55:27.926Z</time></trkpt><trkpt lat="10.1238623" lon="-83.9693047"><ele>1054.0</ele><time>2026-04-09T12:55:28.926Z</time></trkpt><trkpt lat="10.1239534" lon="-83.9691816"><ele>1054.0</ele><time>2026-04-09T12:55:29.926Z</time></trkpt><trkpt lat="10.1240594" lon="-83.9690756"><ele>1045.75</ele><time>2026-04-09T12:55:30.926Z</time></trkpt><trkpt lat="10.1241791" lon="-83.9689861"><ele>1037.5</ele><time>2026-04-09T12:55:31.926Z</time></trkpt><trkpt lat="10.1243078" lon="-83.9689118"><ele>1029.25</ele><time>2026-04-09T12:55:32.926Z</time></trkpt><trkpt lat="10.1244469" lon="-83.9688549"><ele>1021.0</ele><time>2026-04-09T12:55:33.926Z</time></trkpt><trkpt lat="10.1245994" lon="-83.9688117"><ele>1021.0</ele><time>2026-04-09T12:55:34.926Z</time></trkpt><trkpt lat="10.1247543" lon="-83.968776"><ele>1021.0</ele><time>2026-04-09T12:55:35.927Z</time></trkpt><trkpt lat="10.1249102" lon="-83.9687398"><ele>1021.0</ele><time>2026-04-09T12:55:36.926Z</time></trkpt><trkpt lat="10.1250625" lon="-83.9686992"><ele>1014.0</ele><time>2026-04-09T12:55:37.926Z</time></trkpt><trkpt lat="10.1252142" lon="-83.9686521"><ele>1007.0</ele><time>2026-04-09T12:55:38.926Z</time></trkpt><trkpt lat="10.125363" lon="-83.9685925"><ele>1000.0</ele><time>2026-04-09T12:55:39.926Z</time></trkpt><trkpt lat="10.1255068" lon="-83.9685212"><ele>1000.0</ele><time>2026-04-09T12:55:40.926Z</time></trkpt><trkpt lat="10.1256466" lon="-83.9684439"><ele>1000.0</ele><time>2026-04-09T12:55:41.926Z</time></trkpt><trkpt lat="10.1257818" lon="-83.9683583"><ele>1000.0</ele><time>2026-04-09T12:55:42.926Z</time></trkpt><trkpt lat="10.1259187" lon="-83.9682594"><ele>1005.6666666666666</ele><time>2026-04-09T12:55:43.926Z</time></trkpt><trkpt lat="10.1260462" lon="-83.968154"><ele>1011.3333333333333</ele><time>2026-04-09T12:55:44.926Z</time></trkpt><trkpt lat="10.1261705" lon="-83.9680454"><ele>1017.0</ele><time>2026-04-09T12:55:45.926Z</time></trkpt><trkpt lat="10.1262915" lon="-83.9679301"><ele>1017.0</ele><time>2026-04-09T12:55:46.926Z</time></trkpt><trkpt lat="10.1264129" lon="-83.9678158"><ele>1017.0</ele><time>2026-04-09T12:55:47.926Z</time></trkpt><trkpt lat="10.1265372" lon="-83.9676928"><ele>1017.0</ele><time>2026-04-09T12:55:48.926Z</time></trkpt><trkpt lat="10.1266563" lon="-83.9675731"><ele>1018.6666666666667</ele><time>2026-04-09T12:55:49.926Z</time></trkpt><trkpt lat="10.1267692" lon="-83.9674507"><ele>1020.3333333333334</ele><time>2026-04-09T12:55:50.926Z</time></trkpt><trkpt lat="10.1268907" lon="-83.9673354"><ele>1022.0</ele><time>2026-04-09T12:55:51.926Z</time></trkpt><trkpt lat="10.1270091" lon="-83.9672188"><ele>1022.0</ele><time>2026-04-09T12:55:52.926Z</time></trkpt><trkpt lat="10.1271353" lon="-83.9671007"><ele>1022.0</ele><time>2026-04-09T12:55:53.926Z</time></trkpt><trkpt lat="10.1272699" lon="-83.9669841"><ele>1022.0</ele><time>2026-04-09T12:55:54.927Z</time></trkpt><trkpt lat="10.1273958" lon="-83.9668666"><ele>1024.3333333333335</ele><time>2026-04-09T12:55:55.926Z</time></trkpt><trkpt lat="10.1275149" lon="-83.9667508"><ele>1026.6666666666667</ele><time>2026-04-09T12:55:56.926Z</time></trkpt><trkpt lat="10.1276342" lon="-83.9666337"><ele>1029.0</ele><time>2026-04-09T12:55:57.926Z</time></trkpt><trkpt lat="10.1277513" lon="-83.9665187"><ele>1029.0</ele><time>2026-04-09T12:55:58.927Z</time></trkpt><trkpt lat="10.1278574" lon="-83.9664099"><ele>1029.0</ele><time>2026-04-09T12:55:59.926Z</time></trkpt><trkpt lat="10.1279746" lon="-83.9663056"><ele>1029.0</ele><time>2026-04-09T12:56:00.926Z</time></trkpt><trkpt lat="10.1280846" lon="-83.9661998"><ele>1029.0</ele><time>2026-04-09T12:56:01.926Z</time></trkpt><trkpt lat="10.1281972" lon="-83.9660989"><ele>1029.0</ele><time>2026-04-09T12:56:02.926Z</time></trkpt><trkpt lat="10.1283101" lon="-83.9660012"><ele>1029.0</ele><time>2026-04-09T12:56:03.926Z</time></trkpt><trkpt lat="10.128425" lon="-83.9659178"><ele>1029.0</ele><time>2026-04-09T12:56:04.926Z</time></trkpt><trkpt lat="10.1285485" lon="-83.965854"><ele>1027.25</ele><time>2026-04-09T12:56:05.926Z</time></trkpt><trkpt lat="10.1286718" lon="-83.9658087"><ele>1025.5</ele><time>2026-04-09T12:56:06.926Z</time></trkpt><trkpt lat="10.128805" lon="-83.9657905"><ele>1023.75</ele><time>2026-04-09T12:56:07.926Z</time></trkpt><trkpt lat="10.1289412" lon="-83.9657973"><ele>1022.0</ele><time>2026-04-09T12:56:08.926Z</time></trkpt><trkpt lat="10.1290768" lon="-83.9658158"><ele>1022.0</ele><time>2026-04-09T12:56:09.926Z</time></trkpt><trkpt lat="10.129203" lon="-83.9658469"><ele>1022.0</ele><time>2026-04-09T12:56:10.926Z</time></trkpt><trkpt lat="10.1293243" lon="-83.9658953"><ele>1022.0</ele><time>2026-04-09T12:56:11.926Z</time></trkpt><trkpt lat="10.1294347" lon="-83.9659599"><ele>1022.0</ele><time>2026-04-09T12:56:12.926Z</time></trkpt><trkpt lat="10.1295337" lon="-83.9660455"><ele>1013.5</ele><time>2026-04-09T12:56:13.926Z</time></trkpt><trkpt lat="10.1296237" lon="-83.9661508"><ele>1005.0</ele><time>2026-04-09T12:56:14.926Z</time></trkpt><trkpt lat="10.1297027" lon="-83.9662646"><ele>996.5</ele><time>2026-04-09T12:56:15.926Z</time></trkpt><trkpt lat="10.129776" lon="-83.9663951"><ele>988.0</ele><time>2026-04-09T12:56:16.926Z</time></trkpt><trkpt lat="10.1298363" lon="-83.9665303"><ele>993.0</ele><time>2026-04-09T12:56:17.926Z</time></trkpt><trkpt lat="10.1298925" lon="-83.9666724"><ele>998.0</ele><time>2026-04-09T12:56:18.926Z</time></trkpt><trkpt lat="10.1299385" lon="-83.9668228"><ele>1003.0</ele><time>2026-04-09T12:56:19.926Z</time></trkpt><trkpt lat="10.1299745" lon="-83.966979"><ele>1003.0</ele><time>2026-04-09T12:56:20.926Z</time></trkpt><trkpt lat="10.12999" lon="-83.9671354"><ele>1003.0</ele><time>2026-04-09T12:56:21.926Z</time></trkpt><trkpt lat="10.1299804" lon="-83.9672844"><ele>1003.0</ele><time>2026-04-09T12:56:22.926Z</time></trkpt><trkpt lat="10.129946" lon="-83.9674349"><ele>996.0</ele><time>2026-04-09T12:56:23.926Z</time></trkpt><trkpt lat="10.129889" lon="-83.9675738"><ele>989.0</ele><time>2026-04-09T12:56:24.926Z</time></trkpt><trkpt lat="10.1298162" lon="-83.967714"><ele>982.0</ele><time>2026-04-09T12:56:25.926Z</time></trkpt><trkpt lat="10.1297324" lon="-83.9678375"><ele>982.0</ele><time>2026-04-09T12:56:26.926Z</time></trkpt><trkpt lat="10.129653" lon="-83.9679609"><ele>982.0</ele><time>2026-04-09T12:56:27.926Z</time></trkpt><trkpt lat="10.1295626" lon="-83.968093"><ele>982.0</ele><time>2026-04-09T12:56:28.926Z</time></trkpt><trkpt lat="10.1294854" lon="-83.9682274"><ele>985.0</ele><time>2026-04-09T12:56:29.926Z</time></trkpt><trkpt lat="10.129416" lon="-83.9683657"><ele>988.0</ele><time>2026-04-09T12:56:30.926Z</time></trkpt><trkpt lat="10.1293601" lon="-83.9685131"><ele>991.0</ele><time>2026-04-09T12:56:31.926Z</time></trkpt><trkpt lat="10.1293163" lon="-83.9686626"><ele>991.0</ele><time>2026-04-09T12:56:32.926Z</time></trkpt><trkpt lat="10.1292754" lon="-83.9688139"><ele>991.0</ele><time>2026-04-09T12:56:33.926Z</time></trkpt><trkpt lat="10.1292434" lon="-83.9689659"><ele>991.0</ele><time>2026-04-09T12:56:34.926Z</time></trkpt><trkpt lat="10.1292302" lon="-83.9691137"><ele>986.25</ele><time>2026-04-09T12:56:35.926Z</time></trkpt><trkpt lat="10.1292453" lon="-83.9692628"><ele>981.5</ele><time>2026-04-09T12:56:36.926Z</time></trkpt><trkpt lat="10.1292741" lon="-83.9694012"><ele>976.75</ele><time>2026-04-09T12:56:37.926Z</time></trkpt><trkpt lat="10.1293282" lon="-83.9695314"><ele>972.0</ele><time>2026-04-09T12:56:38.926Z</time></trkpt><trkpt lat="10.1293954" lon="-83.9696539"><ele>972.0</ele><time>2026-04-09T12:56:39.926Z</time></trkpt><trkpt lat="10.1294858" lon="-83.9697595"><ele>972.0</ele><time>2026-04-09T12:56:40.926Z</time></trkpt><trkpt lat="10.1295888" lon="-83.9698472"><ele>972.0</ele><time>2026-04-09T12:56:41.926Z</time></trkpt><trkpt lat="10.1297037" lon="-83.9699164"><ele>972.0</ele><time>2026-04-09T12:56:42.926Z</time></trkpt><trkpt lat="10.1298304" lon="-83.9699698"><ele>974.75</ele><time>2026-04-09T12:56:43.927Z</time></trkpt><trkpt lat="10.1299576" lon="-83.9700019"><ele>977.5</ele><time>2026-04-09T12:56:44.926Z</time></trkpt><trkpt lat="10.1300939" lon="-83.9700207"><ele>980.25</ele><time>2026-04-09T12:56:45.927Z</time></trkpt><trkpt lat="10.1302283" lon="-83.9700194"><ele>983.0</ele><time>2026-04-09T12:56:46.926Z</time></trkpt><trkpt lat="10.1303628" lon="-83.9700069"><ele>983.0</ele><time>2026-04-09T12:56:47.926Z</time></trkpt><trkpt lat="10.1304985" lon="-83.9699873"><ele>983.0</ele><time>2026-04-09T12:56:48.926Z</time></trkpt><trkpt lat="10.1306387" lon="-83.9699671"><ele>983.0</ele><time>2026-04-09T12:56:49.926Z</time></trkpt><trkpt lat="10.13078" lon="-83.9699536"><ele>983.0</ele><time>2026-04-09T12:56:50.926Z</time></trkpt><trkpt lat="10.130924" lon="-83.9699471"><ele>984.25</ele><time>2026-04-09T12:56:51.927Z</time></trkpt><trkpt lat="10.131066" lon="-83.969953"><ele>985.5</ele><time>2026-04-09T12:56:52.926Z</time></trkpt><trkpt lat="10.1311984" lon="-83.9699655"><ele>986.75</ele><time>2026-04-09T12:56:53.926Z</time></trkpt><trkpt lat="10.1313269" lon="-83.9699836"><ele>988.0</ele><time>2026-04-09T12:56:54.926Z</time></trkpt><trkpt lat="10.1314492" lon="-83.9699956"><ele>991.25</ele><time>2026-04-09T12:56:55.926Z</time></trkpt><trkpt lat="10.1315714" lon="-83.9700068"><ele>994.5</ele><time>2026-04-09T12:56:56.926Z</time></trkpt><trkpt lat="10.1316894" lon="-83.9700185"><ele>997.75</ele><time>2026-04-09T12:56:57.926Z</time></trkpt><trkpt lat="10.1318014" lon="-83.9700382"><ele>1001.0</ele><time>2026-04-09T12:56:58.926Z</time></trkpt><trkpt lat="10.131917" lon="-83.9700624"><ele>986.5</ele><time>2026-04-09T12:56:59.926Z</time></trkpt><trkpt lat="10.1320228" lon="-83.9700908"><ele>972.0</ele><time>2026-04-09T12:57:00.926Z</time></trkpt><trkpt lat="10.1321288" lon="-83.9701294"><ele>957.5</ele><time>2026-04-09T12:57:01.926Z</time></trkpt><trkpt lat="10.1322267" lon="-83.9701812"><ele>943.0</ele><time>2026-04-09T12:57:02.926Z</time></trkpt><trkpt lat="10.1323296" lon="-83.9702451"><ele>946.25</ele><time>2026-04-09T12:57:03.926Z</time></trkpt><trkpt lat="10.1324275" lon="-83.9703156"><ele>949.5</ele><time>2026-04-09T12:57:04.926Z</time></trkpt><trkpt lat="10.1325294" lon="-83.970392"><ele>952.75</ele><time>2026-04-09T12:57:05.926Z</time></trkpt><trkpt lat="10.1326286" lon="-83.9704817"><ele>956.0</ele><time>2026-04-09T12:57:06.926Z</time></trkpt><trkpt lat="10.1327259" lon="-83.9705733"><ele>956.0</ele><time>2026-04-09T12:57:07.926Z</time></trkpt><trkpt lat="10.132828" lon="-83.9706683"><ele>956.0</ele><time>2026-04-09T12:57:08.927Z</time></trkpt><trkpt lat="10.1329271" lon="-83.9707548"><ele>956.0</ele><time>2026-04-09T12:57:09.927Z</time></trkpt><trkpt lat="10.1330321" lon="-83.970857"><ele>956.0</ele><time>2026-04-09T12:57:10.926Z</time></trkpt><trkpt lat="10.1331281" lon="-83.9709514"><ele>954.0</ele><time>2026-04-09T12:57:11.926Z</time></trkpt><trkpt lat="10.133226" lon="-83.9710527"><ele>952.0</ele><time>2026-04-09T12:57:12.927Z</time></trkpt><trkpt lat="10.1333242" lon="-83.9711565"><ele>950.0</ele><time>2026-04-09T12:57:13.926Z</time></trkpt><trkpt lat="10.1334231" lon="-83.971264"><ele>948.0</ele><time>2026-04-09T12:57:14.926Z</time></trkpt><trkpt lat="10.1335182" lon="-83.9713765"><ele>948.0</ele><time>2026-04-09T12:57:15.926Z</time></trkpt><trkpt lat="10.1336201" lon="-83.9714895"><ele>948.0</ele><time>2026-04-09T12:57:16.927Z</time></trkpt><trkpt lat="10.1337223" lon="-83.9716035"><ele>948.0</ele><time>2026-04-09T12:57:17.926Z</time></trkpt><trkpt lat="10.1338271" lon="-83.9717204"><ele>949.25</ele><time>2026-04-09T12:57:18.926Z</time></trkpt><trkpt lat="10.1339166" lon="-83.9718255"><ele>950.5</ele><time>2026-04-09T12:57:19.926Z</time></trkpt><trkpt lat="10.1340067" lon="-83.9719202"><ele>951.75</ele><time>2026-04-09T12:57:20.926Z</time></trkpt><trkpt lat="10.1340884" lon="-83.972011"><ele>953.0</ele><time>2026-04-09T12:57:21.926Z</time></trkpt><trkpt lat="10.1341746" lon="-83.9720949"><ele>953.0</ele><time>2026-04-09T12:57:22.927Z</time></trkpt><trkpt lat="10.1342722" lon="-83.9721726"><ele>953.0</ele><time>2026-04-09T12:57:23.926Z</time></trkpt><trkpt lat="10.1343767" lon="-83.9722302"><ele>953.0</ele><time>2026-04-09T12:57:24.927Z</time></trkpt><trkpt lat="10.1344847" lon="-83.9722673"><ele>953.0</ele><time>2026-04-09T12:57:25.926Z</time></trkpt><trkpt lat="10.1345977" lon="-83.9722975"><ele>953.0</ele><time>2026-04-09T12:57:26.926Z</time></trkpt><trkpt lat="10.1347279" lon="-83.972309"><ele>953.0</ele><time>2026-04-09T12:57:27.926Z</time></trkpt><trkpt lat="10.1348508" lon="-83.9723088"><ele>953.0</ele><time>2026-04-09T12:57:28.926Z</time></trkpt><trkpt lat="10.1349764" lon="-83.9722968"><ele>953.0</ele><time>2026-04-09T12:57:29.926Z</time></trkpt><trkpt lat="10.1351019" lon="-83.972273"><ele>956.75</ele><time>2026-04-09T12:57:30.926Z</time></trkpt><trkpt lat="10.1352278" lon="-83.9722384"><ele>960.5</ele><time>2026-04-09T12:57:31.926Z</time></trkpt><trkpt lat="10.1353533" lon="-83.9721893"><ele>964.25</ele><time>2026-04-09T12:57:32.926Z</time></trkpt><trkpt lat="10.1354786" lon="-83.9721447"><ele>968.0</ele><time>2026-04-09T12:57:33.927Z</time></trkpt><trkpt lat="10.1356064" lon="-83.9721025"><ele>962.25</ele><time>2026-04-09T12:57:34.926Z</time></trkpt><trkpt lat="10.1357302" lon="-83.9720551"><ele>956.5</ele><time>2026-04-09T12:57:35.926Z</time></trkpt><trkpt lat="10.1358476" lon="-83.972009"><ele>950.75</ele><time>2026-04-09T12:57:36.926Z</time></trkpt><trkpt lat="10.1359731" lon="-83.9719737"><ele>945.0</ele><time>2026-04-09T12:57:37.926Z</time></trkpt><trkpt lat="10.1360927" lon="-83.9719413"><ele>945.0</ele><time>2026-04-09T12:57:38.926Z</time></trkpt><trkpt lat="10.1362142" lon="-83.9719277"><ele>945.0</ele><time>2026-04-09T12:57:39.926Z</time></trkpt><trkpt lat="10.1363383" lon="-83.9719304"><ele>945.0</ele><time>2026-04-09T12:57:40.926Z</time></trkpt><trkpt lat="10.1364571" lon="-83.971947"><ele>945.0</ele><time>2026-04-09T12:57:41.926Z</time></trkpt><trkpt lat="10.1365816" lon="-83.9719866"><ele>946.0</ele><time>2026-04-09T12:57:42.926Z</time></trkpt><trkpt lat="10.1367031" lon="-83.9720362"><ele>947.0</ele><time>2026-04-09T12:57:43.926Z</time></trkpt><trkpt lat="10.1368271" lon="-83.9720936"><ele>948.0</ele><time>2026-04-09T12:57:44.926Z</time></trkpt><trkpt lat="10.1369622" lon="-83.9721549"><ele>949.0</ele><time>2026-04-09T12:57:45.926Z</time></trkpt><trkpt lat="10.1370863" lon="-83.9722144"><ele>949.0</ele><time>2026-04-09T12:57:46.926Z</time></trkpt><trkpt lat="10.137219" lon="-83.9722747"><ele>949.0</ele><time>2026-04-09T12:57:47.926Z</time></trkpt><trkpt lat="10.1373506" lon="-83.9723319"><ele>949.0</ele><time>2026-04-09T12:57:48.926Z</time></trkpt><trkpt lat="10.1374849" lon="-83.9723905"><ele>949.0</ele><time>2026-04-09T12:57:49.926Z</time></trkpt><trkpt lat="10.1376359" lon="-83.9724366"><ele>955.0</ele><time>2026-04-09T12:57:50.926Z</time></trkpt><trkpt lat="10.1377687" lon="-83.9724639"><ele>961.0</ele><time>2026-04-09T12:57:51.926Z</time></trkpt><trkpt lat="10.1379044" lon="-83.9724624"><ele>967.0</ele><time>2026-04-09T12:57:52.926Z</time></trkpt><trkpt lat="10.1380515" lon="-83.9724576"><ele>973.0</ele><time>2026-04-09T12:57:53.926Z</time></trkpt><trkpt lat="10.138193" lon="-83.9724534"><ele>975.25</ele><time>2026-04-09T12:57:54.926Z</time></trkpt><trkpt lat="10.1383332" lon="-83.9724469"><ele>977.5</ele><time>2026-04-09T12:57:55.926Z</time></trkpt><trkpt lat="10.1384731" lon="-83.9724467"><ele>979.75</ele><time>2026-04-09T12:57:56.926Z</time></trkpt><trkpt lat="10.1386117" lon="-83.9724643"><ele>982.0</ele><time>2026-04-09T12:57:57.926Z</time></trkpt><trkpt lat="10.1387517" lon="-83.9724959"><ele>973.75</ele><time>2026-04-09T12:57:58.926Z</time></trkpt><trkpt lat="10.1388693" lon="-83.9725271"><ele>965.5</ele><time>2026-04-09T12:57:59.926Z</time></trkpt><trkpt lat="10.138988" lon="-83.9725788"><ele>957.25</ele><time>2026-04-09T12:58:00.926Z</time></trkpt><trkpt lat="10.1391116" lon="-83.9726623"><ele>949.0</ele><time>2026-04-09T12:58:01.926Z</time></trkpt><trkpt lat="10.1392333" lon="-83.9727393"><ele>949.0</ele><time>2026-04-09T12:58:02.926Z</time></trkpt><trkpt lat="10.139347" lon="-83.972816"><ele>949.0</ele><time>2026-04-09T12:58:03.926Z</time></trkpt><trkpt lat="10.1394598" lon="-83.9728837"><ele>949.0</ele><time>2026-04-09T12:58:04.926Z</time></trkpt><trkpt lat="10.1395747" lon="-83.9729345"><ele>949.0</ele><time>2026-04-09T12:58:05.926Z</time></trkpt><trkpt lat="10.1397011" lon="-83.9729709"><ele>949.0</ele><time>2026-04-09T12:58:06.926Z</time></trkpt><trkpt lat="10.1398286" lon="-83.9729945"><ele>949.0</ele><time>2026-04-09T12:58:07.926Z</time></trkpt><trkpt lat="10.1399588" lon="-83.9730046"><ele>949.0</ele><time>2026-04-09T12:58:08.926Z</time></trkpt><trkpt lat="10.1401055" lon="-83.9730063"><ele>949.0</ele><time>2026-04-09T12:58:09.926Z</time></trkpt><trkpt lat="10.140258" lon="-83.9730049"><ele>949.0</ele><time>2026-04-09T12:58:10.926Z</time></trkpt><trkpt lat="10.1404166" lon="-83.97301"><ele>949.0</ele><time>2026-04-09T12:58:11.926Z</time></trkpt><trkpt lat="10.140572" lon="-83.9730087"><ele>949.0</ele><time>2026-04-09T12:58:12.926Z</time></trkpt><trkpt lat="10.1407293" lon="-83.9730261"><ele>949.0</ele><time>2026-04-09T12:58:13.926Z</time></trkpt><trkpt lat="10.1408861" lon="-83.9730518"><ele>949.0</ele><time>2026-04-09T12:58:14.926Z</time></trkpt><trkpt lat="10.1410471" lon="-83.973087"><ele>949.0</ele><time>2026-04-09T12:58:15.926Z</time></trkpt><trkpt lat="10.1412009" lon="-83.9731298"><ele>949.0</ele><time>2026-04-09T12:58:16.926Z</time></trkpt><trkpt lat="10.1413467" lon="-83.9731676"><ele>949.0</ele><time>2026-04-09T12:58:17.926Z</time></trkpt><trkpt lat="10.1415078" lon="-83.9731972"><ele>949.0</ele><time>2026-04-09T12:58:18.926Z</time></trkpt><trkpt lat="10.1416641" lon="-83.9732227"><ele>951.25</ele><time>2026-04-09T12:58:19.926Z</time></trkpt><trkpt lat="10.141814" lon="-83.9732312"><ele>953.5</ele><time>2026-04-09T12:58:20.926Z</time></trkpt><trkpt lat="10.1419564" lon="-83.9732155"><ele>955.75</ele><time>2026-04-09T12:58:21.926Z</time></trkpt><trkpt lat="10.1420998" lon="-83.9731829"><ele>958.0</ele><time>2026-04-09T12:58:22.926Z</time></trkpt><trkpt lat="10.1422335" lon="-83.9731332"><ele>958.0</ele><time>2026-04-09T12:58:23.926Z</time></trkpt><trkpt lat="10.1423703" lon="-83.9730748"><ele>958.0</ele><time>2026-04-09T12:58:24.927Z</time></trkpt><trkpt lat="10.1424991" lon="-83.9730219"><ele>958.0</ele><time>2026-04-09T12:58:25.926Z</time></trkpt><trkpt lat="10.142637" lon="-83.9729918"><ele>958.0</ele><time>2026-04-09T12:58:26.926Z</time></trkpt><trkpt lat="10.1427767" lon="-83.9729985"><ele>955.25</ele><time>2026-04-09T12:58:27.926Z</time></trkpt><trkpt lat="10.1429144" lon="-83.9730191"><ele>952.5</ele><time>2026-04-09T12:58:28.926Z</time></trkpt><trkpt lat="10.1430509" lon="-83.9730594"><ele>949.75</ele><time>2026-04-09T12:58:29.926Z</time></trkpt><trkpt lat="10.1431883" lon="-83.9731155"><ele>947.0</ele><time>2026-04-09T12:58:30.926Z</time></trkpt><trkpt lat="10.1433288" lon="-83.973187"><ele>947.0</ele><time>2026-04-09T12:58:31.927Z</time></trkpt><trkpt lat="10.1434691" lon="-83.9732594"><ele>947.0</ele><time>2026-04-09T12:58:32.926Z</time></trkpt><trkpt lat="10.143605" lon="-83.9733262"><ele>947.0</ele><time>2026-04-09T12:58:33.926Z</time></trkpt><trkpt lat="10.1437453" lon="-83.9733946"><ele>940.0</ele><time>2026-04-09T12:58:34.926Z</time></trkpt><trkpt lat="10.1438881" lon="-83.9734663"><ele>933.0</ele><time>2026-04-09T12:58:35.926Z</time></trkpt><trkpt lat="10.1440283" lon="-83.9735417"><ele>926.0</ele><time>2026-04-09T12:58:36.926Z</time></trkpt><trkpt lat="10.1441745" lon="-83.9736159"><ele>925.0</ele><time>2026-04-09T12:58:37.926Z</time></trkpt><trkpt lat="10.1443215" lon="-83.9736926"><ele>924.0</ele><time>2026-04-09T12:58:38.926Z</time></trkpt><trkpt lat="10.144465" lon="-83.9737675"><ele>923.0</ele><time>2026-04-09T12:58:39.926Z</time></trkpt><trkpt lat="10.1446246" lon="-83.9738486"><ele>923.0</ele><time>2026-04-09T12:58:40.926Z</time></trkpt><trkpt lat="10.144762" lon="-83.9739181"><ele>923.0</ele><time>2026-04-09T12:58:41.926Z</time></trkpt><trkpt lat="10.1448977" lon="-83.9739963"><ele>923.0</ele><time>2026-04-09T12:58:42.926Z</time></trkpt><trkpt lat="10.1450363" lon="-83.9740637"><ele>924.0</ele><time>2026-04-09T12:58:43.926Z</time></trkpt><trkpt lat="10.1451671" lon="-83.9741281"><ele>925.0</ele><time>2026-04-09T12:58:44.926Z</time></trkpt><trkpt lat="10.1453076" lon="-83.9741727"><ele>926.0</ele><time>2026-04-09T12:58:45.926Z</time></trkpt><trkpt lat="10.1454575" lon="-83.9742139"><ele>927.0</ele><time>2026-04-09T12:58:46.926Z</time></trkpt><trkpt lat="10.145622" lon="-83.9742543"><ele>911.0</ele><time>2026-04-09T12:58:47.926Z</time></trkpt><trkpt lat="10.1457641" lon="-83.9742706"><ele>895.0</ele><time>2026-04-09T12:58:48.926Z</time></trkpt><trkpt lat="10.1459147" lon="-83.9742937"><ele>879.0</ele><time>2026-04-09T12:58:49.926Z</time></trkpt><trkpt lat="10.1460592" lon="-83.9743053"><ele>863.0</ele><time>2026-04-09T12:58:50.926Z</time></trkpt><trkpt lat="10.1462112" lon="-83.9743166"><ele>863.0</ele><time>2026-04-09T12:58:51.927Z</time></trkpt><trkpt lat="10.1463563" lon="-83.9743321"><ele>863.0</ele><time>2026-04-09T12:58:52.926Z</time></trkpt><trkpt lat="10.1465016" lon="-83.9743415"><ele>863.0</ele><time>2026-04-09T12:58:53.926Z</time></trkpt><trkpt lat="10.1466486" lon="-83.9743427"><ele>863.0</ele><time>2026-04-09T12:58:54.926Z</time></trkpt><trkpt lat="10.1467968" lon="-83.9743333"><ele>868.0</ele><time>2026-04-09T12:58:55.926Z</time></trkpt><trkpt lat="10.1469428" lon="-83.9743136"><ele>873.0</ele><time>2026-04-09T12:58:56.927Z</time></trkpt><trkpt lat="10.1470868" lon="-83.9742836"><ele>878.0</ele><time>2026-04-09T12:58:57.926Z</time></trkpt><trkpt lat="10.1472407" lon="-83.9742528"><ele>870.6666666666667</ele><time>2026-04-09T12:58:58.926Z</time></trkpt><trkpt lat="10.1473883" lon="-83.9742191"><ele>863.3333333333333</ele><time>2026-04-09T12:58:59.926Z</time></trkpt><trkpt lat="10.1475506" lon="-83.9741831"><ele>856.0</ele><time>2026-04-09T12:59:00.926Z</time></trkpt><trkpt lat="10.1477168" lon="-83.9741486"><ele>875.6666666666666</ele><time>2026-04-09T12:59:01.926Z</time></trkpt><trkpt lat="10.1478793" lon="-83.9741084"><ele>895.3333333333333</ele><time>2026-04-09T12:59:02.926Z</time></trkpt><trkpt lat="10.1480427" lon="-83.974076"><ele>915.0</ele><time>2026-04-09T12:59:03.927Z</time></trkpt><trkpt lat="10.1482004" lon="-83.9740442"><ele>909.0</ele><time>2026-04-09T12:59:04.926Z</time></trkpt><trkpt lat="10.1483519" lon="-83.9740053"><ele>903.0</ele><time>2026-04-09T12:59:05.926Z</time></trkpt><trkpt lat="10.1485068" lon="-83.9739613"><ele>897.0</ele><time>2026-04-09T12:59:06.926Z</time></trkpt><trkpt lat="10.1486607" lon="-83.9739097"><ele>897.0</ele><time>2026-04-09T12:59:07.926Z</time></trkpt><trkpt lat="10.1487992" lon="-83.973842"><ele>897.0</ele><time>2026-04-09T12:59:08.926Z</time></trkpt><trkpt lat="10.1489338" lon="-83.9737656"><ele>897.0</ele><time>2026-04-09T12:59:09.926Z</time></trkpt><trkpt lat="10.1490548" lon="-83.9736692"><ele>897.6666666666667</ele><time>2026-04-09T12:59:10.926Z</time></trkpt><trkpt lat="10.1491641" lon="-83.9735629"><ele>898.3333333333334</ele><time>2026-04-09T12:59:11.927Z</time></trkpt><trkpt lat="10.1492728" lon="-83.9734579"><ele>899.0</ele><time>2026-04-09T12:59:12.926Z</time></trkpt><trkpt lat="10.1493817" lon="-83.9733519"><ele>899.0</ele><time>2026-04-09T12:59:13.926Z</time></trkpt><trkpt lat="10.1494933" lon="-83.9732514"><ele>899.0</ele><time>2026-04-09T12:59:14.926Z</time></trkpt><trkpt lat="10.1496108" lon="-83.9731579"><ele>899.0</ele><time>2026-04-09T12:59:15.926Z</time></trkpt><trkpt lat="10.1497413" lon="-83.9730777"><ele>899.0</ele><time>2026-04-09T12:59:16.926Z</time></trkpt><trkpt lat="10.1498744" lon="-83.9730163"><ele>899.0</ele><time>2026-04-09T12:59:17.926Z</time></trkpt><trkpt lat="10.1500106" lon="-83.9729704"><ele>899.0</ele><time>2026-04-09T12:59:18.926Z</time></trkpt><trkpt lat="10.1501508" lon="-83.9729408"><ele>899.0</ele><time>2026-04-09T12:59:19.926Z</time></trkpt><trkpt lat="10.1502905" lon="-83.972912"><ele>893.0</ele><time>2026-04-09T12:59:20.926Z</time></trkpt><trkpt lat="10.1504349" lon="-83.9728868"><ele>887.0</ele><time>2026-04-09T12:59:21.926Z</time></trkpt><trkpt lat="10.1505817" lon="-83.9728625"><ele>881.0</ele><time>2026-04-09T12:59:22.926Z</time></trkpt><trkpt lat="10.1507274" lon="-83.9728372"><ele>875.0</ele><time>2026-04-09T12:59:23.927Z</time></trkpt><trkpt lat="10.1508724" lon="-83.9728108"><ele>867.0</ele><time>2026-04-09T12:59:24.926Z</time></trkpt><trkpt lat="10.151021" lon="-83.9727832"><ele>859.0</ele><time>2026-04-09T12:59:25.926Z</time></trkpt><trkpt lat="10.1511717" lon="-83.972756"><ele>851.0</ele><time>2026-04-09T12:59:26.926Z</time></trkpt><trkpt lat="10.1513208" lon="-83.9727146"><ele>851.0</ele><time>2026-04-09T12:59:27.926Z</time></trkpt><trkpt lat="10.1514637" lon="-83.9726519"><ele>851.0</ele><time>2026-04-09T12:59:28.926Z</time></trkpt><trkpt lat="10.1515884" lon="-83.9725684"><ele>851.0</ele><time>2026-04-09T12:59:29.926Z</time></trkpt><trkpt lat="10.1517073" lon="-83.9724775"><ele>857.0</ele><time>2026-04-09T12:59:30.927Z</time></trkpt><trkpt lat="10.1518248" lon="-83.9723828"><ele>863.0</ele><time>2026-04-09T12:59:31.926Z</time></trkpt><trkpt lat="10.1519388" lon="-83.9722866"><ele>869.0</ele><time>2026-04-09T12:59:32.926Z</time></trkpt><trkpt lat="10.1520546" lon="-83.9721877"><ele>875.0</ele><time>2026-04-09T12:59:33.926Z</time></trkpt><trkpt lat="10.1521736" lon="-83.9720865"><ele>875.0</ele><time>2026-04-09T12:59:34.926Z</time></trkpt><trkpt lat="10.1522947" lon="-83.9719846"><ele>875.0</ele><time>2026-04-09T12:59:35.926Z</time></trkpt><trkpt lat="10.1524154" lon="-83.9718847"><ele>875.0</ele><time>2026-04-09T12:59:36.926Z</time></trkpt><trkpt lat="10.152536" lon="-83.9717867"><ele>872.5</ele><time>2026-04-09T12:59:37.926Z</time></trkpt><trkpt lat="10.152656" lon="-83.9716916"><ele>870.0</ele><time>2026-04-09T12:59:38.926Z</time></trkpt><trkpt lat="10.1527758" lon="-83.9716054"><ele>867.5</ele><time>2026-04-09T12:59:39.926Z</time></trkpt><trkpt lat="10.1528929" lon="-83.9715329"><ele>865.0</ele><time>2026-04-09T12:59:40.927Z</time></trkpt><trkpt lat="10.1530121" lon="-83.9714741"><ele>865.0</ele><time>2026-04-09T12:59:41.926Z</time></trkpt><trkpt lat="10.1531438" lon="-83.9714515"><ele>865.0</ele><time>2026-04-09T12:59:42.926Z</time></trkpt><trkpt lat="10.1532756" lon="-83.9714403"><ele>865.0</ele><time>2026-04-09T12:59:43.926Z</time></trkpt><trkpt lat="10.1534046" lon="-83.9714404"><ele>865.0</ele><time>2026-04-09T12:59:44.926Z</time></trkpt><trkpt lat="10.1535395" lon="-83.9714676"><ele>859.3333333333333</ele><time>2026-04-09T12:59:45.926Z</time></trkpt><trkpt lat="10.1536799" lon="-83.9715139"><ele>853.6666666666667</ele><time>2026-04-09T12:59:46.926Z</time></trkpt><trkpt lat="10.1538216" lon="-83.9715763"><ele>848.0</ele><time>2026-04-09T12:59:47.926Z</time></trkpt><trkpt lat="10.1539625" lon="-83.9716607"><ele>836.6666666666667</ele><time>2026-04-09T12:59:48.926Z</time></trkpt><trkpt lat="10.1541144" lon="-83.97175"><ele>825.3333333333333</ele><time>2026-04-09T12:59:49.926Z</time></trkpt><trkpt lat="10.1542641" lon="-83.9718344"><ele>814.0</ele><time>2026-04-09T12:59:50.926Z</time></trkpt><trkpt lat="10.1544149" lon="-83.9719054"><ele>814.0</ele><time>2026-04-09T12:59:51.926Z</time></trkpt><trkpt lat="10.1545612" lon="-83.9719698"><ele>814.0</ele><time>2026-04-09T12:59:52.926Z</time></trkpt><trkpt lat="10.1547154" lon="-83.9720218"><ele>814.0</ele><time>2026-04-09T12:59:53.926Z</time></trkpt><trkpt lat="10.1548623" lon="-83.9720579"><ele>821.0</ele><time>2026-04-09T12:59:54.926Z</time></trkpt><trkpt lat="10.1550109" lon="-83.9720618"><ele>828.0</ele><time>2026-04-09T12:59:55.926Z</time></trkpt><trkpt lat="10.1551575" lon="-83.9720375"><ele>835.0</ele><time>2026-04-09T12:59:56.926Z</time></trkpt><trkpt lat="10.1553042" lon="-83.9719871"><ele>835.0</ele><time>2026-04-09T12:59:57.926Z</time></trkpt><trkpt lat="10.1554385" lon="-83.9719187"><ele>835.0</ele><time>2026-04-09T12:59:58.926Z</time></trkpt><trkpt lat="10.1555621" lon="-83.9718265"><ele>835.0</ele><time>2026-04-09T12:59:59.926Z</time></trkpt><trkpt lat="10.1556702" lon="-83.9717185"><ele>834.5</ele><time>2026-04-09T13:00:00.926Z</time></trkpt><trkpt lat="10.1557605" lon="-83.9716008"><ele>834.0</ele><time>2026-04-09T13:00:01.926Z</time></trkpt><trkpt lat="10.1558218" lon="-83.9714677"><ele>833.5</ele><time>2026-04-09T13:00:02.926Z</time></trkpt><trkpt lat="10.1558667" lon="-83.9713242"><ele>833.0</ele><time>2026-04-09T13:00:03.926Z</time></trkpt><trkpt lat="10.1559069" lon="-83.9711755"><ele>833.0</ele><time>2026-04-09T13:00:04.926Z</time></trkpt><trkpt lat="10.155959" lon="-83.9710192"><ele>833.0</ele><time>2026-04-09T13:00:05.926Z</time></trkpt><trkpt lat="10.1560075" lon="-83.970865"><ele>833.0</ele><time>2026-04-09T13:00:06.926Z</time></trkpt><trkpt lat="10.1560644" lon="-83.970702"><ele>836.6666666666667</ele><time>2026-04-09T13:00:07.926Z</time></trkpt><trkpt lat="10.1561174" lon="-83.9705433"><ele>840.3333333333333</ele><time>2026-04-09T13:00:08.926Z</time></trkpt><trkpt lat="10.1561666" lon="-83.9703773"><ele>844.0</ele><time>2026-04-09T13:00:09.926Z</time></trkpt><trkpt lat="10.1562115" lon="-83.9702093"><ele>844.0</ele><time>2026-04-09T13:00:10.926Z</time></trkpt><trkpt lat="10.1562621" lon="-83.9700497"><ele>844.0</ele><time>2026-04-09T13:00:11.926Z</time></trkpt><trkpt lat="10.1563108" lon="-83.9698933"><ele>844.0</ele><time>2026-04-09T13:00:12.926Z</time></trkpt><trkpt lat="10.1563618" lon="-83.9697388"><ele>841.6666666666666</ele><time>2026-04-09T13:00:13.926Z</time></trkpt><trkpt lat="10.1564086" lon="-83.9695871"><ele>839.3333333333333</ele><time>2026-04-09T13:00:14.926Z</time></trkpt><trkpt lat="10.1564532" lon="-83.9694395"><ele>837.0</ele><time>2026-04-09T13:00:15.926Z</time></trkpt><trkpt lat="10.1565012" lon="-83.9692837"><ele>826.3333333333333</ele><time>2026-04-09T13:00:16.926Z</time></trkpt><trkpt lat="10.1565473" lon="-83.9691325"><ele>815.6666666666666</ele><time>2026-04-09T13:00:17.926Z</time></trkpt><trkpt lat="10.1566058" lon="-83.9689867"><ele>805.0</ele><time>2026-04-09T13:00:18.926Z</time></trkpt><trkpt lat="10.1566434" lon="-83.9688484"><ele>805.0</ele><time>2026-04-09T13:00:19.926Z</time></trkpt><trkpt lat="10.1566861" lon="-83.9686989"><ele>805.0</ele><time>2026-04-09T13:00:20.926Z</time></trkpt><trkpt lat="10.1567332" lon="-83.9685496"><ele>805.0</ele><time>2026-04-09T13:00:21.926Z</time></trkpt><trkpt lat="10.1567863" lon="-83.9683981"><ele>808.3333333333333</ele><time>2026-04-09T13:00:22.926Z</time></trkpt><trkpt lat="10.1568391" lon="-83.9682478"><ele>811.6666666666667</ele><time>2026-04-09T13:00:23.926Z</time></trkpt><trkpt lat="10.1568931" lon="-83.9680943"><ele>815.0</ele><time>2026-04-09T13:00:24.926Z</time></trkpt><trkpt lat="10.1569497" lon="-83.9679531"><ele>815.0</ele><time>2026-04-09T13:00:25.926Z</time></trkpt><trkpt lat="10.1570122" lon="-83.9678197"><ele>815.0</ele><time>2026-04-09T13:00:26.926Z</time></trkpt><trkpt lat="10.1571046" lon="-83.9676892"><ele>815.0</ele><time>2026-04-09T13:00:27.926Z</time></trkpt><trkpt lat="10.1572094" lon="-83.9675574"><ele>812.6666666666667</ele><time>2026-04-09T13:00:28.926Z</time></trkpt><trkpt lat="10.1573196" lon="-83.9674315"><ele>810.3333333333333</ele><time>2026-04-09T13:00:29.926Z</time></trkpt><trkpt lat="10.157431" lon="-83.967309"><ele>808.0</ele><time>2026-04-09T13:00:30.926Z</time></trkpt><trkpt lat="10.1575357" lon="-83.9671904"><ele>808.0</ele><time>2026-04-09T13:00:31.926Z</time></trkpt><trkpt lat="10.1576462" lon="-83.9670623"><ele>808.0</ele><time>2026-04-09T13:00:32.926Z</time></trkpt><trkpt lat="10.1577521" lon="-83.9669409"><ele>808.0</ele><time>2026-04-09T13:00:33.926Z</time></trkpt><trkpt lat="10.1578573" lon="-83.9668158"><ele>813.0</ele><time>2026-04-09T13:00:34.926Z</time></trkpt><trkpt lat="10.1579634" lon="-83.9666926"><ele>818.0</ele><time>2026-04-09T13:00:35.926Z</time></trkpt><trkpt lat="10.1580661" lon="-83.9665732"><ele>823.0</ele><time>2026-04-09T13:00:36.926Z</time></trkpt><trkpt lat="10.1581626" lon="-83.9664536"><ele>815.0</ele><time>2026-04-09T13:00:37.926Z</time></trkpt><trkpt lat="10.1582369" lon="-83.9663212"><ele>807.0</ele><time>2026-04-09T13:00:38.926Z</time></trkpt><trkpt lat="10.1582919" lon="-83.9661842"><ele>799.0</ele><time>2026-04-09T13:00:39.926Z</time></trkpt><trkpt lat="10.1583352" lon="-83.9660416"><ele>791.0</ele><time>2026-04-09T13:00:40.926Z</time></trkpt><trkpt lat="10.1583655" lon="-83.9659093"><ele>792.0</ele><time>2026-04-09T13:00:41.926Z</time></trkpt><trkpt lat="10.1583731" lon="-83.9657888"><ele>793.0</ele><time>2026-04-09T13:00:42.926Z</time></trkpt><trkpt lat="10.1583779" lon="-83.9656883"><ele>794.0</ele><time>2026-04-09T13:00:43.926Z</time></trkpt><trkpt lat="10.1583813" lon="-83.9655997"><ele>795.0</ele><time>2026-04-09T13:00:44.926Z</time></trkpt><trkpt lat="10.1583757" lon="-83.9655089"><ele>796.0</ele><time>2026-04-09T13:00:45.926Z</time></trkpt><trkpt lat="10.1583735" lon="-83.965434"><ele>796.0</ele><time>2026-04-09T13:00:46.926Z</time></trkpt><trkpt lat="10.1583681" lon="-83.9653102"><ele>796.0</ele><time>2026-04-09T13:00:48.926Z</time></trkpt><trkpt lat="10.1583626" lon="-83.965182"><ele>796.0</ele><time>2026-04-09T13:00:50.926Z</time></trkpt><trkpt lat="10.1583433" lon="-83.9650612"><ele>796.0</ele><time>2026-04-09T13:00:52.926Z</time></trkpt><trkpt lat="10.1583446" lon="-83.9649858"><ele>796.0</ele><time>2026-04-09T13:00:53.926Z</time></trkpt><trkpt lat="10.1583454" lon="-83.9648619"><ele>794.6666666666666</ele><time>2026-04-09T13:00:55.926Z</time></trkpt><trkpt lat="10.1583491" lon="-83.9647877"><ele>793.3333333333333</ele><time>2026-04-09T13:00:56.927Z</time></trkpt><trkpt lat="10.1583523" lon="-83.9647115"><ele>792.0</ele><time>2026-04-09T13:00:57.926Z</time></trkpt><trkpt lat="10.1583611" lon="-83.9646326"><ele>790.6666666666667</ele><time>2026-04-09T13:00:58.926Z</time></trkpt><trkpt lat="10.1583653" lon="-83.964554"><ele>789.3333333333334</ele><time>2026-04-09T13:00:59.926Z</time></trkpt><trkpt lat="10.1583705" lon="-83.9644676"><ele>788.0</ele><time>2026-04-09T13:01:00.926Z</time></trkpt><trkpt lat="10.1583738" lon="-83.9643847"><ele>788.0000000000001</ele><time>2026-04-09T13:01:01.926Z</time></trkpt><trkpt lat="10.1583845" lon="-83.964297"><ele>788.0</ele><time>2026-04-09T13:01:02.926Z</time></trkpt><trkpt lat="10.1583974" lon="-83.964212"><ele>788.0</ele><time>2026-04-09T13:01:03.927Z</time></trkpt><trkpt lat="10.1584203" lon="-83.9641278"><ele>788.0</ele><time>2026-04-09T13:01:04.926Z</time></trkpt><trkpt lat="10.1584562" lon="-83.9640482"><ele>788.0000000000001</ele><time>2026-04-09T13:01:05.926Z</time></trkpt><trkpt lat="10.158496" lon="-83.963978"><ele>788.0</ele><time>2026-04-09T13:01:06.926Z</time></trkpt><trkpt lat="10.1585364" lon="-83.9639152"><ele>787.1666666666667</ele><time>2026-04-09T13:01:07.926Z</time></trkpt><trkpt lat="10.1585775" lon="-83.9638557"><ele>786.3333333333334</ele><time>2026-04-09T13:01:08.926Z</time></trkpt><trkpt lat="10.1586238" lon="-83.9637987"><ele>785.5</ele><time>2026-04-09T13:01:09.926Z</time></trkpt><trkpt lat="10.1586738" lon="-83.96374"><ele>784.6666666666667</ele><time>2026-04-09T13:01:10.926Z</time></trkpt><trkpt lat="10.1587248" lon="-83.96368"><ele>783.8333333333334</ele><time>2026-04-09T13:01:11.926Z</time></trkpt><trkpt lat="10.1587735" lon="-83.9636278"><ele>783.0</ele><time>2026-04-09T13:01:12.926Z</time></trkpt><trkpt lat="10.1588673" lon="-83.9635358"><ele>783.0</ele><time>2026-04-09T13:01:14.926Z</time></trkpt><trkpt lat="10.1589177" lon="-83.9634918"><ele>783.0</ele><time>2026-04-09T13:01:15.926Z</time></trkpt><trkpt lat="10.1589726" lon="-83.9634454"><ele>783.0</ele><time>2026-04-09T13:01:16.926Z</time></trkpt><trkpt lat="10.1590186" lon="-83.9633965"><ele>783.0</ele><time>2026-04-09T13:01:17.926Z</time></trkpt><trkpt lat="10.1591" lon="-83.9633102"><ele>783.0</ele><time>2026-04-09T13:01:19.926Z</time></trkpt><trkpt lat="10.1591405" lon="-83.9632608"><ele>783.0</ele><time>2026-04-09T13:01:20.927Z</time></trkpt><trkpt lat="10.1592238" lon="-83.9631776"><ele>780.8571428571428</ele><time>2026-04-09T13:01:22.926Z</time></trkpt><trkpt lat="10.1592712" lon="-83.9631253"><ele>778.7142857142858</ele><time>2026-04-09T13:01:23.926Z</time></trkpt><trkpt lat="10.1593171" lon="-83.9630659"><ele>776.5714285714286</ele><time>2026-04-09T13:01:24.926Z</time></trkpt><trkpt lat="10.1593625" lon="-83.9630073"><ele>774.4285714285713</ele><time>2026-04-09T13:01:25.926Z</time></trkpt><trkpt lat="10.1594085" lon="-83.9629454"><ele>772.2857142857142</ele><time>2026-04-09T13:01:26.926Z</time></trkpt><trkpt lat="10.1594503" lon="-83.9628811"><ele>770.1428571428571</ele><time>2026-04-09T13:01:27.926Z</time></trkpt><trkpt lat="10.1594835" lon="-83.9628118"><ele>768.0</ele><time>2026-04-09T13:01:28.926Z</time></trkpt><trkpt lat="10.1595135" lon="-83.9627333"><ele>768.0</ele><time>2026-04-09T13:01:29.926Z</time></trkpt><trkpt lat="10.1595449" lon="-83.9626476"><ele>768.0</ele><time>2026-04-09T13:01:30.926Z</time></trkpt><trkpt lat="10.1595785" lon="-83.9625607"><ele>768.0</ele><time>2026-04-09T13:01:31.926Z</time></trkpt><trkpt lat="10.1596009" lon="-83.9624747"><ele>768.0</ele><time>2026-04-09T13:01:32.926Z</time></trkpt><trkpt lat="10.1596246" lon="-83.9623918"><ele>768.0</ele><time>2026-04-09T13:01:33.926Z</time></trkpt><trkpt lat="10.159646" lon="-83.9623083"><ele>768.0</ele><time>2026-04-09T13:01:34.926Z</time></trkpt><trkpt lat="10.1596648" lon="-83.9622314"><ele>768.8333333333334</ele><time>2026-04-09T13:01:35.926Z</time></trkpt><trkpt lat="10.1596799" lon="-83.962155"><ele>769.6666666666667</ele><time>2026-04-09T13:01:36.926Z</time></trkpt><trkpt lat="10.1596951" lon="-83.9620759"><ele>770.5</ele><time>2026-04-09T13:01:37.926Z</time></trkpt><trkpt lat="10.1597095" lon="-83.9619957"><ele>771.3333333333334</ele><time>2026-04-09T13:01:38.926Z</time></trkpt><trkpt lat="10.159715" lon="-83.9619188"><ele>772.1666666666667</ele><time>2026-04-09T13:01:39.926Z</time></trkpt><trkpt lat="10.1597177" lon="-83.9618417"><ele>773.0</ele><time>2026-04-09T13:01:40.926Z</time></trkpt><trkpt lat="10.1597146" lon="-83.9617638"><ele>771.5000000000001</ele><time>2026-04-09T13:01:41.926Z</time></trkpt><trkpt lat="10.159713" lon="-83.9616799"><ele>770.0</ele><time>2026-04-09T13:01:42.927Z</time></trkpt><trkpt lat="10.1596951" lon="-83.9616048"><ele>768.5</ele><time>2026-04-09T13:01:43.926Z</time></trkpt><trkpt lat="10.1596852" lon="-83.9615218"><ele>767.0</ele><time>2026-04-09T13:01:44.926Z</time></trkpt><trkpt lat="10.1596646" lon="-83.96145"><ele>765.5</ele><time>2026-04-09T13:01:45.926Z</time></trkpt><trkpt lat="10.1596366" lon="-83.9613805"><ele>764.0</ele><time>2026-04-09T13:01:46.926Z</time></trkpt><trkpt lat="10.1596093" lon="-83.9613118"><ele>764.0</ele><time>2026-04-09T13:01:47.926Z</time></trkpt><trkpt lat="10.1595847" lon="-83.9612469"><ele>764.0</ele><time>2026-04-09T13:01:48.926Z</time></trkpt><trkpt lat="10.1595624" lon="-83.9611867"><ele>764.0</ele><time>2026-04-09T13:01:49.926Z</time></trkpt><trkpt lat="10.1595163" lon="-83.9610744"><ele>764.0</ele><time>2026-04-09T13:01:51.926Z</time></trkpt><trkpt lat="10.1594757" lon="-83.9609512"><ele>764.0</ele><time>2026-04-09T13:01:53.926Z</time></trkpt><trkpt lat="10.1594491" lon="-83.960883"><ele>763.2857142857143</ele><time>2026-04-09T13:01:54.926Z</time></trkpt><trkpt lat="10.1594253" lon="-83.960819"><ele>762.5714285714286</ele><time>2026-04-09T13:01:55.926Z</time></trkpt><trkpt lat="10.1593992" lon="-83.9607492"><ele>761.8571428571429</ele><time>2026-04-09T13:01:56.926Z</time></trkpt><trkpt lat="10.159374" lon="-83.9606782"><ele>761.1428571428571</ele><time>2026-04-09T13:01:57.926Z</time></trkpt><trkpt lat="10.1593466" lon="-83.9606048"><ele>760.4285714285713</ele><time>2026-04-09T13:01:58.926Z</time></trkpt><trkpt lat="10.1593198" lon="-83.9605307"><ele>759.7142857142857</ele><time>2026-04-09T13:01:59.927Z</time></trkpt><trkpt lat="10.1592933" lon="-83.9604596"><ele>759.0</ele><time>2026-04-09T13:02:00.926Z</time></trkpt><trkpt lat="10.1592694" lon="-83.9603895"><ele>759.0</ele><time>2026-04-09T13:02:01.926Z</time></trkpt><trkpt lat="10.1592485" lon="-83.9603204"><ele>759.0</ele><time>2026-04-09T13:02:02.926Z</time></trkpt><trkpt lat="10.1592287" lon="-83.9602552"><ele>759.0</ele><time>2026-04-09T13:02:03.926Z</time></trkpt><trkpt lat="10.1592085" lon="-83.9601936"><ele>759.0</ele><time>2026-04-09T13:02:04.926Z</time></trkpt><trkpt lat="10.1591848" lon="-83.9601283"><ele>759.0</ele><time>2026-04-09T13:02:05.926Z</time></trkpt><trkpt lat="10.1591606" lon="-83.9600601"><ele>759.0</ele><time>2026-04-09T13:02:06.926Z</time></trkpt><trkpt lat="10.1591291" lon="-83.9599894"><ele>759.0</ele><time>2026-04-09T13:02:07.926Z</time></trkpt><trkpt lat="10.1591021" lon="-83.9599187"><ele>761.1666666666666</ele><time>2026-04-09T13:02:08.926Z</time></trkpt><trkpt lat="10.1590734" lon="-83.9598468"><ele>763.3333333333333</ele><time>2026-04-09T13:02:09.926Z</time></trkpt><trkpt lat="10.1590448" lon="-83.9597689"><ele>765.5</ele><time>2026-04-09T13:02:10.927Z</time></trkpt><trkpt lat="10.1590171" lon="-83.9596956"><ele>767.6666666666666</ele><time>2026-04-09T13:02:11.926Z</time></trkpt><trkpt lat="10.158986" lon="-83.9596104"><ele>769.8333333333333</ele><time>2026-04-09T13:02:12.926Z</time></trkpt><trkpt lat="10.1589536" lon="-83.9595245"><ele>772.0</ele><time>2026-04-09T13:02:13.926Z</time></trkpt><trkpt lat="10.1589239" lon="-83.9594346"><ele>772.0</ele><time>2026-04-09T13:02:14.926Z</time></trkpt><trkpt lat="10.1588919" lon="-83.9593547"><ele>772.0</ele><time>2026-04-09T13:02:15.926Z</time></trkpt><trkpt lat="10.1588605" lon="-83.9592611"><ele>772.0</ele><time>2026-04-09T13:02:16.926Z</time></trkpt><trkpt lat="10.158827" lon="-83.9591603"><ele>772.0</ele><time>2026-04-09T13:02:17.926Z</time></trkpt><trkpt lat="10.1587955" lon="-83.9590618"><ele>772.0</ele><time>2026-04-09T13:02:18.926Z</time></trkpt><trkpt lat="10.1587625" lon="-83.9589647"><ele>769.2</ele><time>2026-04-09T13:02:19.926Z</time></trkpt><trkpt lat="10.158739" lon="-83.9588655"><ele>766.4000000000001</ele><time>2026-04-09T13:02:20.926Z</time></trkpt><trkpt lat="10.1587219" lon="-83.9587636"><ele>763.5999999999999</ele><time>2026-04-09T13:02:21.926Z</time></trkpt><trkpt lat="10.158706" lon="-83.9586653"><ele>760.8</ele><time>2026-04-09T13:02:22.926Z</time></trkpt><trkpt lat="10.1586986" lon="-83.9585722"><ele>758.0</ele><time>2026-04-09T13:02:23.926Z</time></trkpt><trkpt lat="10.1587038" lon="-83.9584799"><ele>758.0</ele><time>2026-04-09T13:02:24.926Z</time></trkpt><trkpt lat="10.1587127" lon="-83.9583897"><ele>758.0</ele><time>2026-04-09T13:02:25.926Z</time></trkpt><trkpt lat="10.1587388" lon="-83.958299"><ele>758.0</ele><time>2026-04-09T13:02:26.926Z</time></trkpt><trkpt lat="10.1587704" lon="-83.9582166"><ele>758.0</ele><time>2026-04-09T13:02:27.926Z</time></trkpt><trkpt lat="10.1588155" lon="-83.9581331"><ele>758.0</ele><time>2026-04-09T13:02:28.926Z</time></trkpt><trkpt lat="10.1588782" lon="-83.9580558"><ele>756.0</ele><time>2026-04-09T13:02:29.926Z</time></trkpt><trkpt lat="10.1589443" lon="-83.957976"><ele>754.0</ele><time>2026-04-09T13:02:30.926Z</time></trkpt><trkpt lat="10.1590053" lon="-83.957905"><ele>752.0</ele><time>2026-04-09T13:02:31.926Z</time></trkpt><trkpt lat="10.1590728" lon="-83.9578318"><ele>750.0</ele><time>2026-04-09T13:02:32.927Z</time></trkpt><trkpt lat="10.1591411" lon="-83.9577651"><ele>748.0</ele><time>2026-04-09T13:02:33.926Z</time></trkpt><trkpt lat="10.1592146" lon="-83.957694"><ele>744.0</ele><time>2026-04-09T13:02:34.926Z</time></trkpt><trkpt lat="10.1592848" lon="-83.9576252"><ele>740.0</ele><time>2026-04-09T13:02:35.926Z</time></trkpt><trkpt lat="10.1593584" lon="-83.9575553"><ele>736.0</ele><time>2026-04-09T13:02:36.926Z</time></trkpt><trkpt lat="10.1594355" lon="-83.9574836"><ele>732.0</ele><time>2026-04-09T13:02:37.926Z</time></trkpt><trkpt lat="10.1595089" lon="-83.9574115"><ele>728.0</ele><time>2026-04-09T13:02:38.926Z</time></trkpt><trkpt lat="10.1595834" lon="-83.9573451"><ele>728.0</ele><time>2026-04-09T13:02:39.926Z</time></trkpt><trkpt lat="10.1596466" lon="-83.9572831"><ele>728.0</ele><time>2026-04-09T13:02:40.926Z</time></trkpt><trkpt lat="10.1597044" lon="-83.9572234"><ele>728.0</ele><time>2026-04-09T13:02:41.926Z</time></trkpt><trkpt lat="10.1597605" lon="-83.9571689"><ele>728.0</ele><time>2026-04-09T13:02:42.926Z</time></trkpt><trkpt lat="10.1598125" lon="-83.9571127"><ele>728.0</ele><time>2026-04-09T13:02:43.926Z</time></trkpt><trkpt lat="10.1598617" lon="-83.9570648"><ele>728.0</ele><time>2026-04-09T13:02:44.926Z</time></trkpt><trkpt lat="10.1599148" lon="-83.9570183"><ele>725.8571428571429</ele><time>2026-04-09T13:02:45.926Z</time></trkpt><trkpt lat="10.1599629" lon="-83.9569723"><ele>723.7142857142858</ele><time>2026-04-09T13:02:46.926Z</time></trkpt><trkpt lat="10.1600083" lon="-83.9569226"><ele>721.5714285714286</ele><time>2026-04-09T13:02:47.926Z</time></trkpt><trkpt lat="10.1600596" lon="-83.9568679"><ele>719.4285714285714</ele><time>2026-04-09T13:02:48.926Z</time></trkpt><trkpt lat="10.1600979" lon="-83.9568171"><ele>717.2857142857143</ele><time>2026-04-09T13:02:49.926Z</time></trkpt><trkpt lat="10.1601385" lon="-83.9567619"><ele>715.1428571428571</ele><time>2026-04-09T13:02:50.926Z</time></trkpt><trkpt lat="10.1601772" lon="-83.956704"><ele>713.0</ele><time>2026-04-09T13:02:51.926Z</time></trkpt><trkpt lat="10.1602107" lon="-83.9566404"><ele>713.0</ele><time>2026-04-09T13:02:52.926Z</time></trkpt><trkpt lat="10.160242" lon="-83.9565775"><ele>713.0</ele><time>2026-04-09T13:02:53.927Z</time></trkpt><trkpt lat="10.1602618" lon="-83.9565094"><ele>713.0</ele><time>2026-04-09T13:02:54.926Z</time></trkpt><trkpt lat="10.160277" lon="-83.9564411"><ele>713.0</ele><time>2026-04-09T13:02:55.926Z</time></trkpt><trkpt lat="10.1602846" lon="-83.9563674"><ele>713.0</ele><time>2026-04-09T13:02:56.926Z</time></trkpt><trkpt lat="10.1602883" lon="-83.9562966"><ele>713.0</ele><time>2026-04-09T13:02:57.926Z</time></trkpt><trkpt lat="10.1602879" lon="-83.9562255"><ele>713.0</ele><time>2026-04-09T13:02:58.926Z</time></trkpt><trkpt lat="10.1602745" lon="-83.9561046"><ele>713.0</ele><time>2026-04-09T13:03:00.926Z</time></trkpt><trkpt lat="10.1602543" lon="-83.9559946"><ele>713.0</ele><time>2026-04-09T13:03:02.926Z</time></trkpt><trkpt lat="10.1602162" lon="-83.955904"><ele>713.0</ele><time>2026-04-09T13:03:04.926Z</time></trkpt><trkpt lat="10.1601753" lon="-83.9558218"><ele>713.0</ele><time>2026-04-09T13:03:06.926Z</time></trkpt><trkpt lat="10.1601339" lon="-83.9557463"><ele>713.0</ele><time>2026-04-09T13:03:08.926Z</time></trkpt><trkpt lat="10.1600766" lon="-83.9556599"><ele>712.5999999999999</ele><time>2026-04-09T13:03:10.926Z</time></trkpt><trkpt lat="10.1600125" lon="-83.9555756"><ele>712.1999999999999</ele><time>2026-04-09T13:03:12.926Z</time></trkpt><trkpt lat="10.159938" lon="-83.9554943"><ele>711.8</ele><time>2026-04-09T13:03:14.926Z</time></trkpt><trkpt lat="10.1598585" lon="-83.955418"><ele>711.4</ele><time>2026-04-09T13:03:16.926Z</time></trkpt><trkpt lat="10.1597763" lon="-83.9553419"><ele>711.0</ele><time>2026-04-09T13:03:18.926Z</time></trkpt><trkpt lat="10.1596871" lon="-83.9552488"><ele>709.8333333333334</ele><time>2026-04-09T13:03:20.926Z</time></trkpt><trkpt lat="10.159644" lon="-83.9551993"><ele>708.6666666666666</ele><time>2026-04-09T13:03:21.926Z</time></trkpt><trkpt lat="10.1596027" lon="-83.9551506"><ele>707.5</ele><time>2026-04-09T13:03:22.926Z</time></trkpt><trkpt lat="10.1595143" lon="-83.9550617"><ele>706.3333333333333</ele><time>2026-04-09T13:03:24.926Z</time></trkpt><trkpt lat="10.159424" lon="-83.9549838"><ele>705.1666666666666</ele><time>2026-04-09T13:03:26.926Z</time></trkpt><trkpt lat="10.1593768" lon="-83.9549406"><ele>704.0</ele><time>2026-04-09T13:03:27.926Z</time></trkpt><trkpt lat="10.1593364" lon="-83.9548902"><ele>704.0</ele><time>2026-04-09T13:03:28.926Z</time></trkpt><trkpt lat="10.1592842" lon="-83.9548453"><ele>704.0</ele><time>2026-04-09T13:03:29.926Z</time></trkpt><trkpt lat="10.1592304" lon="-83.9548039"><ele>704.0</ele><time>2026-04-09T13:03:30.926Z</time></trkpt><trkpt lat="10.1591812" lon="-83.9547613"><ele>704.0</ele><time>2026-04-09T13:03:31.926Z</time></trkpt><trkpt lat="10.159124" lon="-83.9547251"><ele>704.0</ele><time>2026-04-09T13:03:32.926Z</time></trkpt><trkpt lat="10.1590631" lon="-83.9546905"><ele>704.0</ele><time>2026-04-09T13:03:33.926Z</time></trkpt><trkpt lat="10.1589937" lon="-83.9546597"><ele>704.0</ele><time>2026-04-09T13:03:34.926Z</time></trkpt><trkpt lat="10.1589287" lon="-83.954628"><ele>706.5</ele><time>2026-04-09T13:03:35.926Z</time></trkpt><trkpt lat="10.1588601" lon="-83.9546038"><ele>709.0</ele><time>2026-04-09T13:03:36.926Z</time></trkpt><trkpt lat="10.1587907" lon="-83.954587"><ele>711.5</ele><time>2026-04-09T13:03:37.926Z</time></trkpt><trkpt lat="10.1587159" lon="-83.9545702"><ele>714.0</ele><time>2026-04-09T13:03:38.926Z</time></trkpt><trkpt lat="10.1586393" lon="-83.9545575"><ele>716.5</ele><time>2026-04-09T13:03:39.926Z</time></trkpt><trkpt lat="10.1585551" lon="-83.9545537"><ele>719.0</ele><time>2026-04-09T13:03:40.926Z</time></trkpt><trkpt lat="10.1584755" lon="-83.9545559"><ele>719.0</ele><time>2026-04-09T13:03:41.926Z</time></trkpt><trkpt lat="10.1583956" lon="-83.9545607"><ele>719.0</ele><time>2026-04-09T13:03:42.926Z</time></trkpt><trkpt lat="10.1583106" lon="-83.9545665"><ele>719.0</ele><time>2026-04-09T13:03:43.926Z</time></trkpt><trkpt lat="10.1582295" lon="-83.9545779"><ele>719.0</ele><time>2026-04-09T13:03:44.927Z</time></trkpt><trkpt lat="10.1581535" lon="-83.9545996"><ele>719.0</ele><time>2026-04-09T13:03:45.926Z</time></trkpt><trkpt lat="10.1580827" lon="-83.9546305"><ele>719.0</ele><time>2026-04-09T13:03:46.926Z</time></trkpt><trkpt lat="10.1580118" lon="-83.9546642"><ele>717.5</ele><time>2026-04-09T13:03:47.926Z</time></trkpt><trkpt lat="10.1579407" lon="-83.954701"><ele>716.0</ele><time>2026-04-09T13:03:48.926Z</time></trkpt><trkpt lat="10.157867" lon="-83.9547393"><ele>714.5</ele><time>2026-04-09T13:03:49.926Z</time></trkpt><trkpt lat="10.1577923" lon="-83.954777"><ele>713.0</ele><time>2026-04-09T13:03:50.926Z</time></trkpt><trkpt lat="10.1577202" lon="-83.9548122"><ele>711.5</ele><time>2026-04-09T13:03:51.926Z</time></trkpt><trkpt lat="10.1576546" lon="-83.9548506"><ele>710.0</ele><time>2026-04-09T13:03:52.926Z</time></trkpt><trkpt lat="10.1575932" lon="-83.9548849"><ele>710.0</ele><time>2026-04-09T13:03:53.926Z</time></trkpt><trkpt lat="10.1575331" lon="-83.9549159"><ele>710.0</ele><time>2026-04-09T13:03:54.926Z</time></trkpt><trkpt lat="10.157475" lon="-83.9549475"><ele>710.0</ele><time>2026-04-09T13:03:55.926Z</time></trkpt><trkpt lat="10.1574181" lon="-83.954979"><ele>710.0</ele><time>2026-04-09T13:03:56.926Z</time></trkpt><trkpt lat="10.1573595" lon="-83.9550093"><ele>710.0</ele><time>2026-04-09T13:03:57.926Z</time></trkpt><trkpt lat="10.1572975" lon="-83.9550365"><ele>710.0</ele><time>2026-04-09T13:03:58.926Z</time></trkpt><trkpt lat="10.1572359" lon="-83.9550622"><ele>710.0</ele><time>2026-04-09T13:03:59.926Z</time></trkpt><trkpt lat="10.1571747" lon="-83.9550917"><ele>720.4</ele><time>2026-04-09T13:04:00.926Z</time></trkpt><trkpt lat="10.1571177" lon="-83.9551214"><ele>730.8</ele><time>2026-04-09T13:04:01.926Z</time></trkpt><trkpt lat="10.1570056" lon="-83.9551735"><ele>741.2</ele><time>2026-04-09T13:04:03.926Z</time></trkpt><trkpt lat="10.1568931" lon="-83.9552149"><ele>751.6</ele><time>2026-04-09T13:04:05.926Z</time></trkpt><trkpt lat="10.1567711" lon="-83.9552312"><ele>762.0</ele><time>2026-04-09T13:04:07.926Z</time></trkpt><trkpt lat="10.156649" lon="-83.9552179"><ele>767.6</ele><time>2026-04-09T13:04:09.926Z</time></trkpt><trkpt lat="10.1565277" lon="-83.9551977"><ele>773.2</ele><time>2026-04-09T13:04:11.926Z</time></trkpt><trkpt lat="10.1564085" lon="-83.9551599"><ele>778.8</ele><time>2026-04-09T13:04:13.926Z</time></trkpt><trkpt lat="10.1562926" lon="-83.9551094"><ele>784.4</ele><time>2026-04-09T13:04:15.926Z</time></trkpt><trkpt lat="10.1562362" lon="-83.955079"><ele>790.0</ele><time>2026-04-09T13:04:16.926Z</time></trkpt><trkpt lat="10.156179" lon="-83.9550485"><ele>769.0</ele><time>2026-04-09T13:04:17.926Z</time></trkpt><trkpt lat="10.1561277" lon="-83.9550099"><ele>748.0</ele><time>2026-04-09T13:04:18.926Z</time></trkpt><trkpt lat="10.1560439" lon="-83.9549301"><ele>727.0</ele><time>2026-04-09T13:04:20.926Z</time></trkpt><trkpt lat="10.1559631" lon="-83.954845"><ele>706.0</ele><time>2026-04-09T13:04:22.926Z</time></trkpt><trkpt lat="10.155888" lon="-83.9547543"><ele>685.0</ele><time>2026-04-09T13:04:24.926Z</time></trkpt><trkpt lat="10.1558105" lon="-83.9546782"><ele>685.0</ele><time>2026-04-09T13:04:26.926Z</time></trkpt><trkpt lat="10.1557373" lon="-83.9545903"><ele>685.0</ele><time>2026-04-09T13:04:28.927Z</time></trkpt><trkpt lat="10.1556538" lon="-83.9545178"><ele>685.0</ele><time>2026-04-09T13:04:30.926Z</time></trkpt><trkpt lat="10.1555571" lon="-83.9544468"><ele>685.0</ele><time>2026-04-09T13:04:32.926Z</time></trkpt><trkpt lat="10.1554517" lon="-83.9543812"><ele>684.6</ele><time>2026-04-09T13:04:34.926Z</time></trkpt><trkpt lat="10.1553409" lon="-83.9543204"><ele>684.2</ele><time>2026-04-09T13:04:36.926Z</time></trkpt><trkpt lat="10.1552843" lon="-83.9542915"><ele>683.8</ele><time>2026-04-09T13:04:37.926Z</time></trkpt><trkpt lat="10.1551772" lon="-83.9542428"><ele>683.4</ele><time>2026-04-09T13:04:39.926Z</time></trkpt><trkpt lat="10.15506" lon="-83.9541988"><ele>683.0</ele><time>2026-04-09T13:04:41.926Z</time></trkpt><trkpt lat="10.1549467" lon="-83.954159"><ele>683.5999999999999</ele><time>2026-04-09T13:04:43.927Z</time></trkpt><trkpt lat="10.1548446" lon="-83.9541216"><ele>684.1999999999999</ele><time>2026-04-09T13:04:45.926Z</time></trkpt><trkpt lat="10.1547368" lon="-83.9540808"><ele>684.8</ele><time>2026-04-09T13:04:47.926Z</time></trkpt><trkpt lat="10.1546269" lon="-83.9540405"><ele>685.4</ele><time>2026-04-09T13:04:49.926Z</time></trkpt><trkpt lat="10.1545271" lon="-83.9540032"><ele>686.0</ele><time>2026-04-09T13:04:51.926Z</time></trkpt><trkpt lat="10.1544656" lon="-83.9539807"><ele>686.0</ele><time>2026-04-09T13:04:52.926Z</time></trkpt><trkpt lat="10.1543455" lon="-83.9539447"><ele>686.0</ele><time>2026-04-09T13:04:54.926Z</time></trkpt><trkpt lat="10.1542726" lon="-83.9539188"><ele>686.0</ele><time>2026-04-09T13:04:55.926Z</time></trkpt><trkpt lat="10.1542006" lon="-83.9538923"><ele>686.0</ele><time>2026-04-09T13:04:56.926Z</time></trkpt><trkpt lat="10.1541265" lon="-83.9538699"><ele>686.0</ele><time>2026-04-09T13:04:57.927Z</time></trkpt><trkpt lat="10.1540582" lon="-83.9538491"><ele>686.0</ele><time>2026-04-09T13:04:58.926Z</time></trkpt><trkpt lat="10.1539914" lon="-83.953828"><ele>685.1999999999999</ele><time>2026-04-09T13:04:59.926Z</time></trkpt><trkpt lat="10.1539263" lon="-83.9538109"><ele>684.4</ele><time>2026-04-09T13:05:00.926Z</time></trkpt><trkpt lat="10.1538639" lon="-83.9537935"><ele>683.6</ele><time>2026-04-09T13:05:01.926Z</time></trkpt><trkpt lat="10.1537469" lon="-83.9537673"><ele>682.8</ele><time>2026-04-09T13:05:03.926Z</time></trkpt><trkpt lat="10.153631" lon="-83.9537546"><ele>682.0</ele><time>2026-04-09T13:05:05.926Z</time></trkpt><trkpt lat="10.1535238" lon="-83.9537464"><ele>682.0</ele><time>2026-04-09T13:05:07.926Z</time></trkpt><trkpt lat="10.1534121" lon="-83.9537382"><ele>682.0</ele><time>2026-04-09T13:05:09.926Z</time></trkpt><trkpt lat="10.1532818" lon="-83.953737"><ele>682.0</ele><time>2026-04-09T13:05:11.926Z</time></trkpt><trkpt lat="10.1532068" lon="-83.9537357"><ele>682.0</ele><time>2026-04-09T13:05:12.926Z</time></trkpt><trkpt lat="10.1531253" lon="-83.9537406"><ele>682.0</ele><time>2026-04-09T13:05:13.926Z</time></trkpt><trkpt lat="10.1530328" lon="-83.9537538"><ele>675.6</ele><time>2026-04-09T13:05:14.926Z</time></trkpt><trkpt lat="10.1529364" lon="-83.9537756"><ele>669.2</ele><time>2026-04-09T13:05:15.926Z</time></trkpt><trkpt lat="10.1528489" lon="-83.9538153"><ele>662.8</ele><time>2026-04-09T13:05:16.926Z</time></trkpt><trkpt lat="10.1527613" lon="-83.9538627"><ele>656.4</ele><time>2026-04-09T13:05:17.926Z</time></trkpt><trkpt lat="10.1526712" lon="-83.9539247"><ele>650.0</ele><time>2026-04-09T13:05:18.926Z</time></trkpt><trkpt lat="10.1525824" lon="-83.9539946"><ele>650.0</ele><time>2026-04-09T13:05:19.926Z</time></trkpt><trkpt lat="10.1525011" lon="-83.9540797"><ele>650.0</ele><time>2026-04-09T13:05:20.926Z</time></trkpt><trkpt lat="10.1524256" lon="-83.9541773"><ele>650.0</ele><time>2026-04-09T13:05:21.926Z</time></trkpt><trkpt lat="10.152349" lon="-83.9542726"><ele>650.0</ele><time>2026-04-09T13:05:22.926Z</time></trkpt><trkpt lat="10.1522804" lon="-83.9543747"><ele>643.25</ele><time>2026-04-09T13:05:23.926Z</time></trkpt><trkpt lat="10.1522161" lon="-83.9544814"><ele>636.5</ele><time>2026-04-09T13:05:24.926Z</time></trkpt><trkpt lat="10.1521504" lon="-83.954589"><ele>629.75</ele><time>2026-04-09T13:05:25.926Z</time></trkpt><trkpt lat="10.1520828" lon="-83.9546986"><ele>623.0</ele><time>2026-04-09T13:05:26.926Z</time></trkpt><trkpt lat="10.1520166" lon="-83.9548059"><ele>623.0</ele><time>2026-04-09T13:05:27.927Z</time></trkpt><trkpt lat="10.1519513" lon="-83.9549112"><ele>623.0</ele><time>2026-04-09T13:05:28.926Z</time></trkpt><trkpt lat="10.1518888" lon="-83.9550134"><ele>623.0</ele><time>2026-04-09T13:05:29.926Z</time></trkpt><trkpt lat="10.1518261" lon="-83.9551165"><ele>623.0</ele><time>2026-04-09T13:05:30.926Z</time></trkpt><trkpt lat="10.1517648" lon="-83.9552161"><ele>623.0</ele><time>2026-04-09T13:05:31.926Z</time></trkpt><trkpt lat="10.1517051" lon="-83.9553072"><ele>623.0</ele><time>2026-04-09T13:05:32.926Z</time></trkpt><trkpt lat="10.1516493" lon="-83.9553843"><ele>623.0</ele><time>2026-04-09T13:05:33.926Z</time></trkpt><trkpt lat="10.1515959" lon="-83.9554509"><ele>623.0</ele><time>2026-04-09T13:05:34.926Z</time></trkpt><trkpt lat="10.1515429" lon="-83.9555087"><ele>623.0</ele><time>2026-04-09T13:05:35.926Z</time></trkpt><trkpt lat="10.151488" lon="-83.9555573"><ele>623.0</ele><time>2026-04-09T13:05:36.926Z</time></trkpt><trkpt lat="10.1514284" lon="-83.9556028"><ele>623.0</ele><time>2026-04-09T13:05:37.926Z</time></trkpt><trkpt lat="10.1513652" lon="-83.9556456"><ele>623.0</ele><time>2026-04-09T13:05:38.926Z</time></trkpt><trkpt lat="10.151298" lon="-83.9556864"><ele>623.0</ele><time>2026-04-09T13:05:39.926Z</time></trkpt><trkpt lat="10.1512286" lon="-83.955722"><ele>623.0</ele><time>2026-04-09T13:05:40.927Z</time></trkpt><trkpt lat="10.1511696" lon="-83.9557515"><ele>623.0</ele><time>2026-04-09T13:05:41.926Z</time></trkpt><trkpt lat="10.1510636" lon="-83.9558004"><ele>623.0</ele><time>2026-04-09T13:05:43.926Z</time></trkpt><trkpt lat="10.1509663" lon="-83.9558482"><ele>626.5</ele><time>2026-04-09T13:05:45.926Z</time></trkpt><trkpt lat="10.1508616" lon="-83.9558976"><ele>630.0</ele><time>2026-04-09T13:05:47.927Z</time></trkpt><trkpt lat="10.1507472" lon="-83.9559441"><ele>633.5</ele><time>2026-04-09T13:05:49.927Z</time></trkpt><trkpt lat="10.1506851" lon="-83.9559715"><ele>637.0</ele><time>2026-04-09T13:05:50.926Z</time></trkpt><trkpt lat="10.1506243" lon="-83.9559996"><ele>640.5</ele><time>2026-04-09T13:05:51.926Z</time></trkpt><trkpt lat="10.1505611" lon="-83.9560289"><ele>644.0</ele><time>2026-04-09T13:05:52.926Z</time></trkpt><trkpt lat="10.1504921" lon="-83.9560619"><ele>644.0</ele><time>2026-04-09T13:05:53.926Z</time></trkpt><trkpt lat="10.1504201" lon="-83.9560956"><ele>644.0</ele><time>2026-04-09T13:05:54.926Z</time></trkpt><trkpt lat="10.150347" lon="-83.9561314"><ele>644.0</ele><time>2026-04-09T13:05:55.926Z</time></trkpt><trkpt lat="10.1502728" lon="-83.9561644"><ele>644.0</ele><time>2026-04-09T13:05:56.926Z</time></trkpt><trkpt lat="10.1501985" lon="-83.9561973"><ele>644.0</ele><time>2026-04-09T13:05:57.927Z</time></trkpt><trkpt lat="10.150126" lon="-83.956232"><ele>644.0</ele><time>2026-04-09T13:05:58.926Z</time></trkpt><trkpt lat="10.1500521" lon="-83.9562693"><ele>644.0</ele><time>2026-04-09T13:05:59.926Z</time></trkpt><trkpt lat="10.1499777" lon="-83.9563094"><ele>644.0</ele><time>2026-04-09T13:06:00.926Z</time></trkpt><trkpt lat="10.1498985" lon="-83.9563486"><ele>644.0</ele><time>2026-04-09T13:06:01.926Z</time></trkpt><trkpt lat="10.1498194" lon="-83.9563864"><ele>644.0</ele><time>2026-04-09T13:06:02.926Z</time></trkpt><trkpt lat="10.1497301" lon="-83.9564277"><ele>644.0</ele><time>2026-04-09T13:06:03.926Z</time></trkpt><trkpt lat="10.1496341" lon="-83.9564721"><ele>636.5</ele><time>2026-04-09T13:06:04.926Z</time></trkpt><trkpt lat="10.1495304" lon="-83.9565174"><ele>629.0</ele><time>2026-04-09T13:06:05.926Z</time></trkpt><trkpt lat="10.1494168" lon="-83.9565703"><ele>621.5</ele><time>2026-04-09T13:06:06.926Z</time></trkpt><trkpt lat="10.1492974" lon="-83.956625"><ele>614.0</ele><time>2026-04-09T13:06:07.926Z</time></trkpt><trkpt lat="10.1491681" lon="-83.9566792"><ele>619.75</ele><time>2026-04-09T13:06:08.926Z</time></trkpt><trkpt lat="10.149035" lon="-83.9567431"><ele>625.5</ele><time>2026-04-09T13:06:09.926Z</time></trkpt><trkpt lat="10.1489012" lon="-83.956808"><ele>631.25</ele><time>2026-04-09T13:06:10.926Z</time></trkpt><trkpt lat="10.1487623" lon="-83.9568755"><ele>637.0</ele><time>2026-04-09T13:06:11.926Z</time></trkpt><trkpt lat="10.1486159" lon="-83.9569407"><ele>637.0</ele><time>2026-04-09T13:06:12.926Z</time></trkpt><trkpt lat="10.1484694" lon="-83.9570034"><ele>637.0</ele><time>2026-04-09T13:06:13.926Z</time></trkpt><trkpt lat="10.1483275" lon="-83.9570668"><ele>637.0</ele><time>2026-04-09T13:06:14.927Z</time></trkpt><trkpt lat="10.1481861" lon="-83.9571351"><ele>627.0</ele><time>2026-04-09T13:06:15.926Z</time></trkpt><trkpt lat="10.1480427" lon="-83.9571982"><ele>617.0</ele><time>2026-04-09T13:06:16.926Z</time></trkpt><trkpt lat="10.1479006" lon="-83.9572531"><ele>607.0</ele><time>2026-04-09T13:06:17.926Z</time></trkpt><trkpt lat="10.1477591" lon="-83.957299"><ele>607.0</ele><time>2026-04-09T13:06:18.926Z</time></trkpt><trkpt lat="10.1476214" lon="-83.9573281"><ele>607.0</ele><time>2026-04-09T13:06:19.926Z</time></trkpt><trkpt lat="10.1474898" lon="-83.9573376"><ele>607.0</ele><time>2026-04-09T13:06:20.926Z</time></trkpt><trkpt lat="10.1473583" lon="-83.9573157"><ele>607.0</ele><time>2026-04-09T13:06:21.927Z</time></trkpt><trkpt lat="10.1472248" lon="-83.9572952"><ele>609.25</ele><time>2026-04-09T13:06:22.926Z</time></trkpt><trkpt lat="10.1471062" lon="-83.9572292"><ele>611.5</ele><time>2026-04-09T13:06:23.926Z</time></trkpt><trkpt lat="10.1469915" lon="-83.95716"><ele>613.75</ele><time>2026-04-09T13:06:24.926Z</time></trkpt><trkpt lat="10.14689" lon="-83.9570757"><ele>616.0</ele><time>2026-04-09T13:06:25.926Z</time></trkpt><trkpt lat="10.1467922" lon="-83.9569646"><ele>616.0</ele><time>2026-04-09T13:06:26.926Z</time></trkpt><trkpt lat="10.1466932" lon="-83.956851"><ele>616.0</ele><time>2026-04-09T13:06:27.926Z</time></trkpt><trkpt lat="10.1465908" lon="-83.9567335"><ele>616.0</ele><time>2026-04-09T13:06:28.927Z</time></trkpt><trkpt lat="10.1464869" lon="-83.9566071"><ele>623.6666666666667</ele><time>2026-04-09T13:06:29.926Z</time></trkpt><trkpt lat="10.1463802" lon="-83.9564852"><ele>631.3333333333334</ele><time>2026-04-09T13:06:30.926Z</time></trkpt><trkpt lat="10.1462695" lon="-83.9563596"><ele>639.0</ele><time>2026-04-09T13:06:31.926Z</time></trkpt><trkpt lat="10.1461621" lon="-83.9562274"><ele>639.0</ele><time>2026-04-09T13:06:32.926Z</time></trkpt><trkpt lat="10.1460636" lon="-83.9560864"><ele>639.0</ele><time>2026-04-09T13:06:33.926Z</time></trkpt><trkpt lat="10.1459719" lon="-83.9559579"><ele>639.0</ele><time>2026-04-09T13:06:34.926Z</time></trkpt><trkpt lat="10.1458983" lon="-83.9558225"><ele>628.75</ele><time>2026-04-09T13:06:35.926Z</time></trkpt><trkpt lat="10.1458411" lon="-83.955681"><ele>618.5</ele><time>2026-04-09T13:06:36.926Z</time></trkpt><trkpt lat="10.1458098" lon="-83.9555362"><ele>608.25</ele><time>2026-04-09T13:06:37.926Z</time></trkpt><trkpt lat="10.1457961" lon="-83.9553934"><ele>598.0</ele><time>2026-04-09T13:06:38.926Z</time></trkpt><trkpt lat="10.1458139" lon="-83.9552556"><ele>598.0</ele><time>2026-04-09T13:06:39.926Z</time></trkpt><trkpt lat="10.1458529" lon="-83.955123"><ele>598.0</ele><time>2026-04-09T13:06:40.926Z</time></trkpt><trkpt lat="10.145907" lon="-83.9549941"><ele>598.0</ele><time>2026-04-09T13:06:41.926Z</time></trkpt><trkpt lat="10.14598" lon="-83.954878"><ele>598.0</ele><time>2026-04-09T13:06:42.926Z</time></trkpt><trkpt lat="10.1460648" lon="-83.9547698"><ele>594.25</ele><time>2026-04-09T13:06:43.926Z</time></trkpt><trkpt lat="10.1461618" lon="-83.9546779"><ele>590.5</ele><time>2026-04-09T13:06:44.926Z</time></trkpt><trkpt lat="10.1462701" lon="-83.9545973"><ele>586.75</ele><time>2026-04-09T13:06:45.926Z</time></trkpt><trkpt lat="10.1463846" lon="-83.9545253"><ele>583.0</ele><time>2026-04-09T13:06:46.926Z</time></trkpt><trkpt lat="10.1465079" lon="-83.954449"><ele>582.5</ele><time>2026-04-09T13:06:47.926Z</time></trkpt><trkpt lat="10.1466257" lon="-83.9543599"><ele>582.0</ele><time>2026-04-09T13:06:48.926Z</time></trkpt><trkpt lat="10.1467372" lon="-83.9542689"><ele>581.5</ele><time>2026-04-09T13:06:49.926Z</time></trkpt><trkpt lat="10.1468449" lon="-83.9541677"><ele>581.0</ele><time>2026-04-09T13:06:50.926Z</time></trkpt><trkpt lat="10.1469347" lon="-83.954055"><ele>578.0</ele><time>2026-04-09T13:06:51.926Z</time></trkpt><trkpt lat="10.1470106" lon="-83.9539282"><ele>575.0</ele><time>2026-04-09T13:06:52.926Z</time></trkpt><trkpt lat="10.1470609" lon="-83.9537913"><ele>572.0</ele><time>2026-04-09T13:06:53.926Z</time></trkpt><trkpt lat="10.1470854" lon="-83.9536488"><ele>569.0</ele><time>2026-04-09T13:06:54.926Z</time></trkpt><trkpt lat="10.1470874" lon="-83.9535038"><ele>566.75</ele><time>2026-04-09T13:06:55.926Z</time></trkpt><trkpt lat="10.1470712" lon="-83.9533583"><ele>564.5</ele><time>2026-04-09T13:06:56.926Z</time></trkpt><trkpt lat="10.1470402" lon="-83.9532112"><ele>562.25</ele><time>2026-04-09T13:06:57.926Z</time></trkpt><trkpt lat="10.1470099" lon="-83.9530594"><ele>560.0</ele><time>2026-04-09T13:06:58.926Z</time></trkpt><trkpt lat="10.1469806" lon="-83.9529067"><ele>560.0</ele><time>2026-04-09T13:06:59.926Z</time></trkpt><trkpt lat="10.146947" lon="-83.9527554"><ele>560.0</ele><time>2026-04-09T13:07:00.926Z</time></trkpt><trkpt lat="10.1469171" lon="-83.952598"><ele>560.0</ele><time>2026-04-09T13:07:01.926Z</time></trkpt><trkpt lat="10.146887" lon="-83.9524363"><ele>554.6666666666666</ele><time>2026-04-09T13:07:02.926Z</time></trkpt><trkpt lat="10.1468483" lon="-83.9522665"><ele>549.3333333333334</ele><time>2026-04-09T13:07:03.926Z</time></trkpt><trkpt lat="10.1468115" lon="-83.9520994"><ele>544.0</ele><time>2026-04-09T13:07:04.926Z</time></trkpt><trkpt lat="10.1467805" lon="-83.951932"><ele>544.0</ele><time>2026-04-09T13:07:05.926Z</time></trkpt><trkpt lat="10.1467491" lon="-83.9517659"><ele>544.0</ele><time>2026-04-09T13:07:06.926Z</time></trkpt><trkpt lat="10.1467086" lon="-83.951606"><ele>544.0</ele><time>2026-04-09T13:07:07.926Z</time></trkpt><trkpt lat="10.1466586" lon="-83.9514548"><ele>544.3333333333334</ele><time>2026-04-09T13:07:08.926Z</time></trkpt><trkpt lat="10.1465964" lon="-83.9513083"><ele>544.6666666666666</ele><time>2026-04-09T13:07:09.926Z</time></trkpt><trkpt lat="10.1465215" lon="-83.9511723"><ele>545.0</ele><time>2026-04-09T13:07:10.926Z</time></trkpt><trkpt lat="10.1464469" lon="-83.9510513"><ele>545.0</ele><time>2026-04-09T13:07:11.926Z</time></trkpt><trkpt lat="10.1463544" lon="-83.9509249"><ele>545.0</ele><time>2026-04-09T13:07:12.926Z</time></trkpt><trkpt lat="10.1462743" lon="-83.9508184"><ele>545.0</ele><time>2026-04-09T13:07:13.926Z</time></trkpt><trkpt lat="10.1462169" lon="-83.950689"><ele>545.0</ele><time>2026-04-09T13:07:14.926Z</time></trkpt><trkpt lat="10.1461644" lon="-83.9505635"><ele>541.0</ele><time>2026-04-09T13:07:15.926Z</time></trkpt><trkpt lat="10.1461344" lon="-83.9504347"><ele>537.0</ele><time>2026-04-09T13:07:16.927Z</time></trkpt><trkpt lat="10.1461217" lon="-83.9503121"><ele>533.0</ele><time>2026-04-09T13:07:17.926Z</time></trkpt><trkpt lat="10.1461282" lon="-83.9501933"><ele>529.0</ele><time>2026-04-09T13:07:18.926Z</time></trkpt><trkpt lat="10.1461441" lon="-83.950077"><ele>523.75</ele><time>2026-04-09T13:07:19.926Z</time></trkpt><trkpt lat="10.1461763" lon="-83.9499634"><ele>518.5</ele><time>2026-04-09T13:07:20.926Z</time></trkpt><trkpt lat="10.1462154" lon="-83.949855"><ele>513.25</ele><time>2026-04-09T13:07:21.926Z</time></trkpt><trkpt lat="10.1462612" lon="-83.9497511"><ele>508.0</ele><time>2026-04-09T13:07:22.926Z</time></trkpt><trkpt lat="10.146314" lon="-83.949643"><ele>508.0</ele><time>2026-04-09T13:07:23.926Z</time></trkpt><trkpt lat="10.1463746" lon="-83.9495422"><ele>508.0</ele><time>2026-04-09T13:07:24.926Z</time></trkpt><trkpt lat="10.1464353" lon="-83.9494372"><ele>508.0</ele><time>2026-04-09T13:07:25.926Z</time></trkpt><trkpt lat="10.1465027" lon="-83.9493352"><ele>508.0</ele><time>2026-04-09T13:07:26.926Z</time></trkpt><trkpt lat="10.1465755" lon="-83.9492379"><ele>512.25</ele><time>2026-04-09T13:07:27.926Z</time></trkpt><trkpt lat="10.1466532" lon="-83.9491458"><ele>516.5</ele><time>2026-04-09T13:07:28.926Z</time></trkpt><trkpt lat="10.1467355" lon="-83.9490596"><ele>520.75</ele><time>2026-04-09T13:07:29.926Z</time></trkpt><trkpt lat="10.1468199" lon="-83.9489717"><ele>525.0</ele><time>2026-04-09T13:07:30.926Z</time></trkpt><trkpt lat="10.1468984" lon="-83.9488841"><ele>525.0</ele><time>2026-04-09T13:07:31.926Z</time></trkpt><trkpt lat="10.1469746" lon="-83.9487944"><ele>525.0</ele><time>2026-04-09T13:07:32.926Z</time></trkpt><trkpt lat="10.1470431" lon="-83.9487012"><ele>525.0</ele><time>2026-04-09T13:07:33.926Z</time></trkpt><trkpt lat="10.1471046" lon="-83.9486085"><ele>525.0</ele><time>2026-04-09T13:07:34.926Z</time></trkpt><trkpt lat="10.1471497" lon="-83.9485123"><ele>525.0</ele><time>2026-04-09T13:07:35.926Z</time></trkpt><trkpt lat="10.1471785" lon="-83.9484192"><ele>518.8333333333334</ele><time>2026-04-09T13:07:36.927Z</time></trkpt><trkpt lat="10.1471916" lon="-83.9483346"><ele>512.6666666666666</ele><time>2026-04-09T13:07:37.926Z</time></trkpt><trkpt lat="10.1471977" lon="-83.948257"><ele>506.5</ele><time>2026-04-09T13:07:38.926Z</time></trkpt><trkpt lat="10.1472068" lon="-83.9481756"><ele>500.3333333333333</ele><time>2026-04-09T13:07:39.926Z</time></trkpt><trkpt lat="10.1472162" lon="-83.9480914"><ele>494.16666666666663</ele><time>2026-04-09T13:07:40.926Z</time></trkpt><trkpt lat="10.1472255" lon="-83.9480044"><ele>488.0</ele><time>2026-04-09T13:07:41.926Z</time></trkpt><trkpt lat="10.1472348" lon="-83.9479196"><ele>487.99999999999994</ele><time>2026-04-09T13:07:42.926Z</time></trkpt><trkpt lat="10.1472424" lon="-83.9478368"><ele>488.0</ele><time>2026-04-09T13:07:43.926Z</time></trkpt><trkpt lat="10.1472493" lon="-83.9477528"><ele>488.0</ele><time>2026-04-09T13:07:44.926Z</time></trkpt><trkpt lat="10.1472565" lon="-83.9476701"><ele>488.0</ele><time>2026-04-09T13:07:45.926Z</time></trkpt><trkpt lat="10.1472628" lon="-83.9475918"><ele>487.99999999999994</ele><time>2026-04-09T13:07:46.926Z</time></trkpt><trkpt lat="10.1472702" lon="-83.9475129"><ele>488.0</ele><time>2026-04-09T13:07:47.926Z</time></trkpt><trkpt lat="10.1472732" lon="-83.9474343"><ele>484.4</ele><time>2026-04-09T13:07:48.926Z</time></trkpt><trkpt lat="10.147282" lon="-83.9473568"><ele>480.79999999999995</ele><time>2026-04-09T13:07:49.926Z</time></trkpt><trkpt lat="10.1472912" lon="-83.9472719"><ele>477.2</ele><time>2026-04-09T13:07:50.926Z</time></trkpt><trkpt lat="10.1473006" lon="-83.9471749"><ele>473.6</ele><time>2026-04-09T13:07:51.926Z</time></trkpt><trkpt lat="10.1473079" lon="-83.9470755"><ele>470.0</ele><time>2026-04-09T13:07:52.927Z</time></trkpt><trkpt lat="10.1473215" lon="-83.9469619"><ele>470.0</ele><time>2026-04-09T13:07:53.926Z</time></trkpt><trkpt lat="10.1473321" lon="-83.9468505"><ele>470.0</ele><time>2026-04-09T13:07:54.926Z</time></trkpt><trkpt lat="10.1473427" lon="-83.9467282"><ele>470.0</ele><time>2026-04-09T13:07:55.926Z</time></trkpt><trkpt lat="10.1473507" lon="-83.946602"><ele>470.0</ele><time>2026-04-09T13:07:56.926Z</time></trkpt><trkpt lat="10.1473648" lon="-83.9464725"><ele>473.75</ele><time>2026-04-09T13:07:57.926Z</time></trkpt><trkpt lat="10.1473748" lon="-83.9463401"><ele>477.5</ele><time>2026-04-09T13:07:58.926Z</time></trkpt><trkpt lat="10.147389" lon="-83.9462039"><ele>481.25</ele><time>2026-04-09T13:07:59.926Z</time></trkpt><trkpt lat="10.1474057" lon="-83.9460644"><ele>485.0</ele><time>2026-04-09T13:08:00.926Z</time></trkpt><trkpt lat="10.1474246" lon="-83.9459237"><ele>488.0</ele><time>2026-04-09T13:08:01.926Z</time></trkpt><trkpt lat="10.1474458" lon="-83.9457848"><ele>491.0</ele><time>2026-04-09T13:08:02.926Z</time></trkpt><trkpt lat="10.1474716" lon="-83.9456465"><ele>494.0</ele><time>2026-04-09T13:08:03.926Z</time></trkpt><trkpt lat="10.1475141" lon="-83.9455047"><ele>497.0</ele><time>2026-04-09T13:08:04.926Z</time></trkpt><trkpt lat="10.1475546" lon="-83.9453601"><ele>497.0</ele><time>2026-04-09T13:08:05.926Z</time></trkpt><trkpt lat="10.1476071" lon="-83.9452194"><ele>497.0</ele><time>2026-04-09T13:08:06.926Z</time></trkpt><trkpt lat="10.1476782" lon="-83.9450703"><ele>497.0</ele><time>2026-04-09T13:08:07.926Z</time></trkpt><trkpt lat="10.1477547" lon="-83.9449362"><ele>509.3333333333333</ele><time>2026-04-09T13:08:08.926Z</time></trkpt><trkpt lat="10.1478403" lon="-83.9448024"><ele>521.6666666666666</ele><time>2026-04-09T13:08:09.926Z</time></trkpt><trkpt lat="10.1479376" lon="-83.944672"><ele>534.0</ele><time>2026-04-09T13:08:10.926Z</time></trkpt><trkpt lat="10.1480493" lon="-83.9445496"><ele>534.0</ele><time>2026-04-09T13:08:11.926Z</time></trkpt><trkpt lat="10.1481683" lon="-83.9444274"><ele>534.0</ele><time>2026-04-09T13:08:12.926Z</time></trkpt><trkpt lat="10.1482967" lon="-83.9443106"><ele>534.0</ele><time>2026-04-09T13:08:13.926Z</time></trkpt><trkpt lat="10.1484304" lon="-83.944196"><ele>525.3333333333334</ele><time>2026-04-09T13:08:14.926Z</time></trkpt><trkpt lat="10.1485574" lon="-83.9440849"><ele>516.6666666666667</ele><time>2026-04-09T13:08:15.927Z</time></trkpt><trkpt lat="10.148684" lon="-83.9439727"><ele>508.0</ele><time>2026-04-09T13:08:16.926Z</time></trkpt><trkpt lat="10.1488169" lon="-83.9438658"><ele>508.0</ele><time>2026-04-09T13:08:17.926Z</time></trkpt><trkpt lat="10.1489514" lon="-83.9437562"><ele>508.0</ele><time>2026-04-09T13:08:18.926Z</time></trkpt><trkpt lat="10.149092" lon="-83.9436526"><ele>508.0</ele><time>2026-04-09T13:08:19.926Z</time></trkpt><trkpt lat="10.1492359" lon="-83.9435503"><ele>503.33333333333337</ele><time>2026-04-09T13:08:20.926Z</time></trkpt><trkpt lat="10.1493861" lon="-83.9434524"><ele>498.66666666666663</ele><time>2026-04-09T13:08:21.926Z</time></trkpt><trkpt lat="10.1495349" lon="-83.9433597"><ele>494.0</ele><time>2026-04-09T13:08:22.926Z</time></trkpt><trkpt lat="10.1496821" lon="-83.9432684"><ele>494.0</ele><time>2026-04-09T13:08:23.926Z</time></trkpt><trkpt lat="10.1498294" lon="-83.9431836"><ele>494.0</ele><time>2026-04-09T13:08:24.927Z</time></trkpt><trkpt lat="10.149975" lon="-83.9431015"><ele>494.0</ele><time>2026-04-09T13:08:25.926Z</time></trkpt><trkpt lat="10.1501198" lon="-83.9430244"><ele>491.0</ele><time>2026-04-09T13:08:26.926Z</time></trkpt><trkpt lat="10.1502681" lon="-83.9429474"><ele>488.0</ele><time>2026-04-09T13:08:27.926Z</time></trkpt><trkpt lat="10.1504142" lon="-83.9428735"><ele>485.0</ele><time>2026-04-09T13:08:28.926Z</time></trkpt><trkpt lat="10.1505634" lon="-83.9427998"><ele>481.66666666666663</ele><time>2026-04-09T13:08:29.927Z</time></trkpt><trkpt lat="10.1507107" lon="-83.9427228"><ele>478.33333333333337</ele><time>2026-04-09T13:08:30.926Z</time></trkpt><trkpt lat="10.1508593" lon="-83.9426439"><ele>475.0</ele><time>2026-04-09T13:08:31.926Z</time></trkpt><trkpt lat="10.1510052" lon="-83.9425676"><ele>482.33333333333337</ele><time>2026-04-09T13:08:32.927Z</time></trkpt><trkpt lat="10.1511464" lon="-83.9424909"><ele>489.66666666666663</ele><time>2026-04-09T13:08:33.926Z</time></trkpt><trkpt lat="10.1512928" lon="-83.9424167"><ele>497.0</ele><time>2026-04-09T13:08:34.926Z</time></trkpt><trkpt lat="10.1514379" lon="-83.9423457"><ele>493.3333333333333</ele><time>2026-04-09T13:08:35.926Z</time></trkpt><trkpt lat="10.1515793" lon="-83.9422734"><ele>489.66666666666663</ele><time>2026-04-09T13:08:36.926Z</time></trkpt><trkpt lat="10.1517207" lon="-83.9421994"><ele>486.0</ele><time>2026-04-09T13:08:37.926Z</time></trkpt><trkpt lat="10.1518619" lon="-83.9421267"><ele>486.0</ele><time>2026-04-09T13:08:38.926Z</time></trkpt><trkpt lat="10.1519927" lon="-83.9420515"><ele>486.0</ele><time>2026-04-09T13:08:39.926Z</time></trkpt><trkpt lat="10.152119" lon="-83.9419781"><ele>486.0</ele><time>2026-04-09T13:08:40.926Z</time></trkpt><trkpt lat="10.1522476" lon="-83.9419055"><ele>486.0</ele><time>2026-04-09T13:08:41.926Z</time></trkpt><trkpt lat="10.152374" lon="-83.9418267"><ele>485.0</ele><time>2026-04-09T13:08:42.926Z</time></trkpt><trkpt lat="10.1524947" lon="-83.9417423"><ele>484.0</ele><time>2026-04-09T13:08:43.926Z</time></trkpt><trkpt lat="10.1526072" lon="-83.9416503"><ele>483.0</ele><time>2026-04-09T13:08:44.926Z</time></trkpt><trkpt lat="10.1527225" lon="-83.9415614"><ele>482.0</ele><time>2026-04-09T13:08:45.926Z</time></trkpt><trkpt lat="10.1528412" lon="-83.9414696"><ele>482.0</ele><time>2026-04-09T13:08:46.926Z</time></trkpt><trkpt lat="10.1529561" lon="-83.9413761"><ele>482.0</ele><time>2026-04-09T13:08:47.926Z</time></trkpt><trkpt lat="10.1530695" lon="-83.9412814"><ele>482.0</ele><time>2026-04-09T13:08:48.926Z</time></trkpt><trkpt lat="10.1531779" lon="-83.9411811"><ele>482.0</ele><time>2026-04-09T13:08:49.926Z</time></trkpt><trkpt lat="10.1532857" lon="-83.9410808"><ele>481.25</ele><time>2026-04-09T13:08:50.927Z</time></trkpt><trkpt lat="10.1533897" lon="-83.9409833"><ele>480.5</ele><time>2026-04-09T13:08:51.926Z</time></trkpt><trkpt lat="10.1534958" lon="-83.9408809"><ele>479.75</ele><time>2026-04-09T13:08:52.926Z</time></trkpt><trkpt lat="10.1536012" lon="-83.9407794"><ele>479.0</ele><time>2026-04-09T13:08:53.926Z</time></trkpt><trkpt lat="10.1537046" lon="-83.9406742"><ele>488.0</ele><time>2026-04-09T13:08:54.926Z</time></trkpt><trkpt lat="10.15381" lon="-83.9405657"><ele>497.0</ele><time>2026-04-09T13:08:55.926Z</time></trkpt><trkpt lat="10.1539169" lon="-83.9404584"><ele>506.0</ele><time>2026-04-09T13:08:56.926Z</time></trkpt><trkpt lat="10.1540224" lon="-83.9403487"><ele>507.3333333333333</ele><time>2026-04-09T13:08:57.926Z</time></trkpt><trkpt lat="10.1541284" lon="-83.9402416"><ele>508.66666666666663</ele><time>2026-04-09T13:08:58.926Z</time></trkpt><trkpt lat="10.154239" lon="-83.9401289"><ele>510.0</ele><time>2026-04-09T13:08:59.926Z</time></trkpt><trkpt lat="10.154351" lon="-83.9400173"><ele>510.0</ele><time>2026-04-09T13:09:00.926Z</time></trkpt><trkpt lat="10.1544633" lon="-83.9399055"><ele>510.0</ele><time>2026-04-09T13:09:01.926Z</time></trkpt><trkpt lat="10.1545778" lon="-83.9397895"><ele>510.0</ele><time>2026-04-09T13:09:02.926Z</time></trkpt><trkpt lat="10.154692" lon="-83.9396691"><ele>510.0</ele><time>2026-04-09T13:09:03.926Z</time></trkpt><trkpt lat="10.1548043" lon="-83.9395529"><ele>510.0</ele><time>2026-04-09T13:09:04.927Z</time></trkpt><trkpt lat="10.1549261" lon="-83.939439"><ele>510.0</ele><time>2026-04-09T13:09:05.926Z</time></trkpt><trkpt lat="10.1550497" lon="-83.9393311"><ele>510.66666666666663</ele><time>2026-04-09T13:09:06.926Z</time></trkpt><trkpt lat="10.1551809" lon="-83.9392298"><ele>511.3333333333333</ele><time>2026-04-09T13:09:07.926Z</time></trkpt><trkpt lat="10.1553174" lon="-83.9391321"><ele>512.0</ele><time>2026-04-09T13:09:08.926Z</time></trkpt><trkpt lat="10.1554627" lon="-83.939049"><ele>512.0</ele><time>2026-04-09T13:09:09.926Z</time></trkpt><trkpt lat="10.1556106" lon="-83.9389699"><ele>512.0</ele><time>2026-04-09T13:09:10.927Z</time></trkpt><trkpt lat="10.1557589" lon="-83.9388992"><ele>512.0</ele><time>2026-04-09T13:09:11.926Z</time></trkpt><trkpt lat="10.1559168" lon="-83.9388479"><ele>508.66666666666663</ele><time>2026-04-09T13:09:12.926Z</time></trkpt><trkpt lat="10.1560757" lon="-83.938802"><ele>505.33333333333337</ele><time>2026-04-09T13:09:13.926Z</time></trkpt><trkpt lat="10.1562411" lon="-83.9387724"><ele>502.0</ele><time>2026-04-09T13:09:14.926Z</time></trkpt><trkpt lat="10.1564067" lon="-83.9387587"><ele>499.33333333333337</ele><time>2026-04-09T13:09:15.926Z</time></trkpt><trkpt lat="10.1565745" lon="-83.9387534"><ele>496.66666666666663</ele><time>2026-04-09T13:09:16.927Z</time></trkpt><trkpt lat="10.156736" lon="-83.9387583"><ele>494.0</ele><time>2026-04-09T13:09:17.926Z</time></trkpt><trkpt lat="10.1568943" lon="-83.9387746"><ele>494.0</ele><time>2026-04-09T13:09:18.926Z</time></trkpt><trkpt lat="10.1570506" lon="-83.9388062"><ele>494.0</ele><time>2026-04-09T13:09:19.926Z</time></trkpt><trkpt lat="10.1571991" lon="-83.9388382"><ele>494.0</ele><time>2026-04-09T13:09:20.926Z</time></trkpt><trkpt lat="10.157346" lon="-83.938886"><ele>496.0</ele><time>2026-04-09T13:09:21.926Z</time></trkpt><trkpt lat="10.1574898" lon="-83.9389515"><ele>498.0</ele><time>2026-04-09T13:09:22.926Z</time></trkpt><trkpt lat="10.1576374" lon="-83.9390187"><ele>500.0</ele><time>2026-04-09T13:09:23.926Z</time></trkpt><trkpt lat="10.1577834" lon="-83.9390858"><ele>500.0</ele><time>2026-04-09T13:09:24.926Z</time></trkpt><trkpt lat="10.1579356" lon="-83.9391559"><ele>500.0</ele><time>2026-04-09T13:09:25.926Z</time></trkpt><trkpt lat="10.1580758" lon="-83.9392307"><ele>500.0</ele><time>2026-04-09T13:09:26.926Z</time></trkpt><trkpt lat="10.158224" lon="-83.9393033"><ele>501.0</ele><time>2026-04-09T13:09:27.926Z</time></trkpt><trkpt lat="10.1583688" lon="-83.9393739"><ele>502.0</ele><time>2026-04-09T13:09:28.927Z</time></trkpt><trkpt lat="10.1585217" lon="-83.9394374"><ele>503.0</ele><time>2026-04-09T13:09:29.926Z</time></trkpt><trkpt lat="10.1586687" lon="-83.9394913"><ele>503.0</ele><time>2026-04-09T13:09:30.926Z</time></trkpt><trkpt lat="10.1588144" lon="-83.93954"><ele>503.0</ele><time>2026-04-09T13:09:31.926Z</time></trkpt><trkpt lat="10.1589615" lon="-83.9395765"><ele>503.0</ele><time>2026-04-09T13:09:32.926Z</time></trkpt><trkpt lat="10.1591053" lon="-83.939607"><ele>501.75</ele><time>2026-04-09T13:09:33.926Z</time></trkpt><trkpt lat="10.1592482" lon="-83.9396238"><ele>500.5</ele><time>2026-04-09T13:09:34.926Z</time></trkpt><trkpt lat="10.159391" lon="-83.9396356"><ele>499.25</ele><time>2026-04-09T13:09:35.926Z</time></trkpt><trkpt lat="10.1595252" lon="-83.9396331"><ele>498.0</ele><time>2026-04-09T13:09:36.926Z</time></trkpt><trkpt lat="10.1596594" lon="-83.9396249"><ele>498.0</ele><time>2026-04-09T13:09:37.927Z</time></trkpt><trkpt lat="10.1597903" lon="-83.9396079"><ele>498.0</ele><time>2026-04-09T13:09:38.926Z</time></trkpt><trkpt lat="10.1599202" lon="-83.9395848"><ele>498.0</ele><time>2026-04-09T13:09:39.926Z</time></trkpt><trkpt lat="10.1600405" lon="-83.9395627"><ele>498.0</ele><time>2026-04-09T13:09:40.926Z</time></trkpt><trkpt lat="10.1601548" lon="-83.9395312"><ele>495.5</ele><time>2026-04-09T13:09:41.926Z</time></trkpt><trkpt lat="10.1602696" lon="-83.9395003"><ele>493.0</ele><time>2026-04-09T13:09:42.926Z</time></trkpt><trkpt lat="10.1603768" lon="-83.9394606"><ele>490.5</ele><time>2026-04-09T13:09:43.926Z</time></trkpt><trkpt lat="10.1604823" lon="-83.9394139"><ele>488.0</ele><time>2026-04-09T13:09:44.926Z</time></trkpt><trkpt lat="10.1605895" lon="-83.9393683"><ele>488.0</ele><time>2026-04-09T13:09:45.926Z</time></trkpt><trkpt lat="10.1606979" lon="-83.9393109"><ele>488.0</ele><time>2026-04-09T13:09:46.926Z</time></trkpt><trkpt lat="10.1608022" lon="-83.9392523"><ele>488.0</ele><time>2026-04-09T13:09:47.926Z</time></trkpt><trkpt lat="10.1609113" lon="-83.939186"><ele>488.0</ele><time>2026-04-09T13:09:48.926Z</time></trkpt><trkpt lat="10.161023" lon="-83.9391185"><ele>488.25</ele><time>2026-04-09T13:09:49.926Z</time></trkpt><trkpt lat="10.1611271" lon="-83.939044"><ele>488.5</ele><time>2026-04-09T13:09:50.927Z</time></trkpt><trkpt lat="10.1612379" lon="-83.9389655"><ele>488.75</ele><time>2026-04-09T13:09:51.926Z</time></trkpt><trkpt lat="10.1613465" lon="-83.9388797"><ele>489.0</ele><time>2026-04-09T13:09:52.926Z</time></trkpt><trkpt lat="10.1614519" lon="-83.9387967"><ele>484.0</ele><time>2026-04-09T13:09:53.926Z</time></trkpt><trkpt lat="10.1615621" lon="-83.9387174"><ele>479.0</ele><time>2026-04-09T13:09:54.926Z</time></trkpt><trkpt lat="10.1616645" lon="-83.9386344"><ele>474.0</ele><time>2026-04-09T13:09:55.926Z</time></trkpt><trkpt lat="10.1617695" lon="-83.9385524"><ele>469.0</ele><time>2026-04-09T13:09:56.926Z</time></trkpt><trkpt lat="10.1618735" lon="-83.9384711"><ele>469.0</ele><time>2026-04-09T13:09:57.926Z</time></trkpt><trkpt lat="10.1619786" lon="-83.9383949"><ele>469.0</ele><time>2026-04-09T13:09:58.926Z</time></trkpt><trkpt lat="10.1620821" lon="-83.9383102"><ele>469.0</ele><time>2026-04-09T13:09:59.926Z</time></trkpt><trkpt lat="10.1621818" lon="-83.9382324"><ele>469.0</ele><time>2026-04-09T13:10:00.926Z</time></trkpt><trkpt lat="10.1622787" lon="-83.9381529"><ele>467.75</ele><time>2026-04-09T13:10:01.926Z</time></trkpt><trkpt lat="10.162371" lon="-83.9380733"><ele>466.5</ele><time>2026-04-09T13:10:02.926Z</time></trkpt><trkpt lat="10.1624692" lon="-83.9379918"><ele>465.25</ele><time>2026-04-09T13:10:03.926Z</time></trkpt><trkpt lat="10.1625732" lon="-83.9379055"><ele>464.0</ele><time>2026-04-09T13:10:04.927Z</time></trkpt><trkpt lat="10.1626773" lon="-83.937819"><ele>464.0</ele><time>2026-04-09T13:10:05.926Z</time></trkpt><trkpt lat="10.1627878" lon="-83.9377317"><ele>464.0</ele><time>2026-04-09T13:10:06.926Z</time></trkpt><trkpt lat="10.1628991" lon="-83.9376436"><ele>464.0</ele><time>2026-04-09T13:10:07.926Z</time></trkpt><trkpt lat="10.1630124" lon="-83.9375574"><ele>464.0</ele><time>2026-04-09T13:10:08.926Z</time></trkpt><trkpt lat="10.1631269" lon="-83.9374697"><ele>467.5</ele><time>2026-04-09T13:10:09.926Z</time></trkpt><trkpt lat="10.1632393" lon="-83.9373755"><ele>471.0</ele><time>2026-04-09T13:10:10.926Z</time></trkpt><trkpt lat="10.1633523" lon="-83.9372852"><ele>474.5</ele><time>2026-04-09T13:10:11.926Z</time></trkpt><trkpt lat="10.1634656" lon="-83.9371931"><ele>478.0</ele><time>2026-04-09T13:10:12.927Z</time></trkpt><trkpt lat="10.1635773" lon="-83.9371033"><ele>478.0</ele><time>2026-04-09T13:10:13.926Z</time></trkpt><trkpt lat="10.1636948" lon="-83.9370143"><ele>478.0</ele><time>2026-04-09T13:10:14.926Z</time></trkpt><trkpt lat="10.1638121" lon="-83.9369232"><ele>478.0</ele><time>2026-04-09T13:10:15.926Z</time></trkpt><trkpt lat="10.1639311" lon="-83.9368367"><ele>478.0</ele><time>2026-04-09T13:10:16.926Z</time></trkpt><trkpt lat="10.1640503" lon="-83.9367528"><ele>479.0</ele><time>2026-04-09T13:10:17.926Z</time></trkpt><trkpt lat="10.1641717" lon="-83.9366726"><ele>480.0</ele><time>2026-04-09T13:10:18.926Z</time></trkpt><trkpt lat="10.1642994" lon="-83.9366015"><ele>481.0</ele><time>2026-04-09T13:10:19.926Z</time></trkpt><trkpt lat="10.1644304" lon="-83.936542"><ele>482.0</ele><time>2026-04-09T13:10:20.926Z</time></trkpt><trkpt lat="10.1645622" lon="-83.9364949"><ele>482.0</ele><time>2026-04-09T13:10:21.926Z</time></trkpt><trkpt lat="10.1647035" lon="-83.9364622"><ele>482.0</ele><time>2026-04-09T13:10:22.926Z</time></trkpt><trkpt lat="10.1648468" lon="-83.9364405"><ele>482.0</ele><time>2026-04-09T13:10:23.926Z</time></trkpt><trkpt lat="10.1649884" lon="-83.9364249"><ele>482.0</ele><time>2026-04-09T13:10:24.926Z</time></trkpt><trkpt lat="10.1651314" lon="-83.9364194"><ele>483.0</ele><time>2026-04-09T13:10:25.926Z</time></trkpt><trkpt lat="10.1652772" lon="-83.936419"><ele>484.0</ele><time>2026-04-09T13:10:26.927Z</time></trkpt><trkpt lat="10.1654239" lon="-83.9364217"><ele>485.0</ele><time>2026-04-09T13:10:27.927Z</time></trkpt><trkpt lat="10.1655683" lon="-83.9364198"><ele>486.0</ele><time>2026-04-09T13:10:28.926Z</time></trkpt><trkpt lat="10.1657133" lon="-83.9364199"><ele>487.5</ele><time>2026-04-09T13:10:29.926Z</time></trkpt><trkpt lat="10.1658596" lon="-83.9364182"><ele>489.0</ele><time>2026-04-09T13:10:30.926Z</time></trkpt><trkpt lat="10.166009" lon="-83.9364137"><ele>490.5</ele><time>2026-04-09T13:10:31.926Z</time></trkpt><trkpt lat="10.1661545" lon="-83.9364122"><ele>492.0</ele><time>2026-04-09T13:10:32.926Z</time></trkpt><trkpt lat="10.1662956" lon="-83.9364011"><ele>492.0</ele><time>2026-04-09T13:10:33.926Z</time></trkpt><trkpt lat="10.1664323" lon="-83.9363784"><ele>492.0</ele><time>2026-04-09T13:10:34.926Z</time></trkpt><trkpt lat="10.1665645" lon="-83.9363493"><ele>492.0</ele><time>2026-04-09T13:10:35.926Z</time></trkpt><trkpt lat="10.1666941" lon="-83.9363024"><ele>492.0</ele><time>2026-04-09T13:10:36.926Z</time></trkpt><trkpt lat="10.1668226" lon="-83.9362477"><ele>494.0</ele><time>2026-04-09T13:10:37.926Z</time></trkpt><trkpt lat="10.1669428" lon="-83.936189"><ele>496.0</ele><time>2026-04-09T13:10:38.926Z</time></trkpt><trkpt lat="10.1670577" lon="-83.9361202"><ele>498.0</ele><time>2026-04-09T13:10:39.926Z</time></trkpt><trkpt lat="10.1671692" lon="-83.9360444"><ele>500.0</ele><time>2026-04-09T13:10:40.926Z</time></trkpt><trkpt lat="10.1672734" lon="-83.9359626"><ele>505.5</ele><time>2026-04-09T13:10:41.926Z</time></trkpt><trkpt lat="10.1673693" lon="-83.935866"><ele>511.0</ele><time>2026-04-09T13:10:42.926Z</time></trkpt><trkpt lat="10.1674641" lon="-83.935772"><ele>516.5</ele><time>2026-04-09T13:10:43.926Z</time></trkpt><trkpt lat="10.1675547" lon="-83.9356715"><ele>522.0</ele><time>2026-04-09T13:10:44.926Z</time></trkpt><trkpt lat="10.1676476" lon="-83.9355716"><ele>522.0</ele><time>2026-04-09T13:10:45.926Z</time></trkpt><trkpt lat="10.1677404" lon="-83.9354658"><ele>522.0</ele><time>2026-04-09T13:10:46.927Z</time></trkpt><trkpt lat="10.1678333" lon="-83.9353639"><ele>522.0</ele><time>2026-04-09T13:10:47.926Z</time></trkpt><trkpt lat="10.1679249" lon="-83.9352538"><ele>522.0</ele><time>2026-04-09T13:10:48.926Z</time></trkpt><trkpt lat="10.1680222" lon="-83.935146"><ele>523.0</ele><time>2026-04-09T13:10:49.926Z</time></trkpt><trkpt lat="10.1681213" lon="-83.9350364"><ele>524.0</ele><time>2026-04-09T13:10:50.926Z</time></trkpt><trkpt lat="10.1682214" lon="-83.9349257"><ele>525.0</ele><time>2026-04-09T13:10:51.927Z</time></trkpt><trkpt lat="10.1683196" lon="-83.9348144"><ele>526.0</ele><time>2026-04-09T13:10:52.926Z</time></trkpt><trkpt lat="10.1684193" lon="-83.934706"><ele>526.0</ele><time>2026-04-09T13:10:53.926Z</time></trkpt><trkpt lat="10.1685264" lon="-83.9346073"><ele>526.0</ele><time>2026-04-09T13:10:54.927Z</time></trkpt><trkpt lat="10.1686341" lon="-83.9345056"><ele>526.0</ele><time>2026-04-09T13:10:55.926Z</time></trkpt><trkpt lat="10.1687419" lon="-83.9344069"><ele>526.0</ele><time>2026-04-09T13:10:56.926Z</time></trkpt><trkpt lat="10.1688511" lon="-83.9343139"><ele>526.0</ele><time>2026-04-09T13:10:57.926Z</time></trkpt><trkpt lat="10.1689642" lon="-83.9342273"><ele>526.0</ele><time>2026-04-09T13:10:58.926Z</time></trkpt><trkpt lat="10.1690819" lon="-83.9341478"><ele>526.0</ele><time>2026-04-09T13:10:59.926Z</time></trkpt><trkpt lat="10.1692025" lon="-83.9340783"><ele>526.0</ele><time>2026-04-09T13:11:00.926Z</time></trkpt><trkpt lat="10.1693291" lon="-83.9340164"><ele>530.0</ele><time>2026-04-09T13:11:01.926Z</time></trkpt><trkpt lat="10.1694554" lon="-83.9339545"><ele>534.0</ele><time>2026-04-09T13:11:02.926Z</time></trkpt><trkpt lat="10.169591" lon="-83.9338999"><ele>538.0</ele><time>2026-04-09T13:11:03.926Z</time></trkpt><trkpt lat="10.1697232" lon="-83.9338468"><ele>542.0</ele><time>2026-04-09T13:11:04.926Z</time></trkpt><trkpt lat="10.1698564" lon="-83.9337959"><ele>537.0</ele><time>2026-04-09T13:11:05.926Z</time></trkpt><trkpt lat="10.1699943" lon="-83.9337455"><ele>532.0</ele><time>2026-04-09T13:11:06.926Z</time></trkpt><trkpt lat="10.1701318" lon="-83.9336989"><ele>527.0</ele><time>2026-04-09T13:11:07.927Z</time></trkpt><trkpt lat="10.1702648" lon="-83.9336505"><ele>522.0</ele><time>2026-04-09T13:11:08.926Z</time></trkpt><trkpt lat="10.1703972" lon="-83.933602"><ele>522.0</ele><time>2026-04-09T13:11:09.926Z</time></trkpt><trkpt lat="10.1705277" lon="-83.9335527"><ele>522.0</ele><time>2026-04-09T13:11:10.926Z</time></trkpt><trkpt lat="10.1706538" lon="-83.9335034"><ele>522.0</ele><time>2026-04-09T13:11:11.926Z</time></trkpt><trkpt lat="10.1707731" lon="-83.9334545"><ele>522.0</ele><time>2026-04-09T13:11:12.926Z</time></trkpt><trkpt lat="10.1708839" lon="-83.9334092"><ele>529.2</ele><time>2026-04-09T13:11:13.926Z</time></trkpt><trkpt lat="10.170984" lon="-83.9333705"><ele>536.4000000000001</ele><time>2026-04-09T13:11:14.926Z</time></trkpt><trkpt lat="10.1710709" lon="-83.9333334"><ele>543.5999999999999</ele><time>2026-04-09T13:11:15.926Z</time></trkpt><trkpt lat="10.1711564" lon="-83.9333009"><ele>550.8</ele><time>2026-04-09T13:11:16.926Z</time></trkpt><trkpt lat="10.1712294" lon="-83.9332643"><ele>558.0</ele><time>2026-04-09T13:11:17.927Z</time></trkpt><trkpt lat="10.1713065" lon="-83.9332314"><ele>558.0</ele><time>2026-04-09T13:11:18.926Z</time></trkpt><trkpt lat="10.1713824" lon="-83.933202"><ele>558.0</ele><time>2026-04-09T13:11:19.926Z</time></trkpt><trkpt lat="10.1714594" lon="-83.9331746"><ele>558.0</ele><time>2026-04-09T13:11:20.926Z</time></trkpt><trkpt lat="10.171536" lon="-83.933143"><ele>558.0</ele><time>2026-04-09T13:11:21.926Z</time></trkpt><trkpt lat="10.1716093" lon="-83.9331084"><ele>558.0</ele><time>2026-04-09T13:11:22.926Z</time></trkpt><trkpt lat="10.1716831" lon="-83.9330771"><ele>558.0</ele><time>2026-04-09T13:11:23.926Z</time></trkpt><trkpt lat="10.1717633" lon="-83.9330466"><ele>555.6</ele><time>2026-04-09T13:11:24.926Z</time></trkpt><trkpt lat="10.1718453" lon="-83.933018"><ele>553.1999999999999</ele><time>2026-04-09T13:11:25.926Z</time></trkpt><trkpt lat="10.1719318" lon="-83.9329871"><ele>550.8</ele><time>2026-04-09T13:11:26.926Z</time></trkpt><trkpt lat="10.1720218" lon="-83.9329534"><ele>548.4</ele><time>2026-04-09T13:11:27.927Z</time></trkpt><trkpt lat="10.1721145" lon="-83.9329191"><ele>546.0</ele><time>2026-04-09T13:11:28.926Z</time></trkpt><trkpt lat="10.1722075" lon="-83.9328854"><ele>546.0</ele><time>2026-04-09T13:11:29.926Z</time></trkpt><trkpt lat="10.1722967" lon="-83.9328515"><ele>546.0</ele><time>2026-04-09T13:11:30.926Z</time></trkpt><trkpt lat="10.1723821" lon="-83.9328186"><ele>546.0</ele><time>2026-04-09T13:11:31.926Z</time></trkpt><trkpt lat="10.1724674" lon="-83.932778"><ele>546.0</ele><time>2026-04-09T13:11:32.926Z</time></trkpt><trkpt lat="10.1725476" lon="-83.9327366"><ele>546.0</ele><time>2026-04-09T13:11:33.926Z</time></trkpt><trkpt lat="10.1726308" lon="-83.9326978"><ele>545.3333333333334</ele><time>2026-04-09T13:11:34.926Z</time></trkpt><trkpt lat="10.1727097" lon="-83.9326562"><ele>544.6666666666666</ele><time>2026-04-09T13:11:35.926Z</time></trkpt><trkpt lat="10.1727868" lon="-83.9326129"><ele>544.0</ele><time>2026-04-09T13:11:36.926Z</time></trkpt><trkpt lat="10.1728638" lon="-83.9325683"><ele>543.3333333333333</ele><time>2026-04-09T13:11:37.926Z</time></trkpt><trkpt lat="10.1729399" lon="-83.9325237"><ele>542.6666666666666</ele><time>2026-04-09T13:11:38.926Z</time></trkpt><trkpt lat="10.1730149" lon="-83.9324735"><ele>542.0</ele><time>2026-04-09T13:11:39.926Z</time></trkpt><trkpt lat="10.1730902" lon="-83.9324219"><ele>545.4</ele><time>2026-04-09T13:11:40.926Z</time></trkpt><trkpt lat="10.1731678" lon="-83.9323668"><ele>548.8000000000001</ele><time>2026-04-09T13:11:41.926Z</time></trkpt><trkpt lat="10.1732475" lon="-83.9323087"><ele>552.2</ele><time>2026-04-09T13:11:42.926Z</time></trkpt><trkpt lat="10.1733234" lon="-83.9322467"><ele>555.6</ele><time>2026-04-09T13:11:43.926Z</time></trkpt><trkpt lat="10.1734024" lon="-83.9321841"><ele>559.0</ele><time>2026-04-09T13:11:44.926Z</time></trkpt><trkpt lat="10.1734798" lon="-83.9321167"><ele>559.0</ele><time>2026-04-09T13:11:45.926Z</time></trkpt><trkpt lat="10.1735563" lon="-83.9320433"><ele>559.0</ele><time>2026-04-09T13:11:46.926Z</time></trkpt><trkpt lat="10.1736335" lon="-83.931974"><ele>559.0</ele><time>2026-04-09T13:11:47.926Z</time></trkpt><trkpt lat="10.1737092" lon="-83.9319068"><ele>559.0</ele><time>2026-04-09T13:11:48.926Z</time></trkpt><trkpt lat="10.1737762" lon="-83.9318367"><ele>559.0</ele><time>2026-04-09T13:11:49.926Z</time></trkpt><trkpt lat="10.1738411" lon="-83.9317687"><ele>558.8</ele><time>2026-04-09T13:11:50.926Z</time></trkpt><trkpt lat="10.1739052" lon="-83.9316932"><ele>558.5999999999999</ele><time>2026-04-09T13:11:51.926Z</time></trkpt><trkpt lat="10.1739718" lon="-83.9316178"><ele>558.4</ele><time>2026-04-09T13:11:52.926Z</time></trkpt><trkpt lat="10.1740378" lon="-83.9315421"><ele>558.1999999999999</ele><time>2026-04-09T13:11:53.926Z</time></trkpt><trkpt lat="10.1741045" lon="-83.9314639"><ele>558.0</ele><time>2026-04-09T13:11:54.926Z</time></trkpt><trkpt lat="10.1741704" lon="-83.9313836"><ele>558.0</ele><time>2026-04-09T13:11:55.927Z</time></trkpt><trkpt lat="10.1742375" lon="-83.9313031"><ele>558.0</ele><time>2026-04-09T13:11:56.926Z</time></trkpt><trkpt lat="10.1742987" lon="-83.9312238"><ele>558.0</ele><time>2026-04-09T13:11:57.926Z</time></trkpt><trkpt lat="10.1743594" lon="-83.9311433"><ele>558.0</ele><time>2026-04-09T13:11:58.926Z</time></trkpt><trkpt lat="10.1744224" lon="-83.9310651"><ele>558.0</ele><time>2026-04-09T13:11:59.926Z</time></trkpt><trkpt lat="10.1744889" lon="-83.9309847"><ele>558.0</ele><time>2026-04-09T13:12:00.926Z</time></trkpt><trkpt lat="10.1745575" lon="-83.9309027"><ele>558.0</ele><time>2026-04-09T13:12:01.926Z</time></trkpt><trkpt lat="10.1746271" lon="-83.9308159"><ele>558.0</ele><time>2026-04-09T13:12:02.927Z</time></trkpt><trkpt lat="10.1747011" lon="-83.9307297"><ele>558.0</ele><time>2026-04-09T13:12:03.926Z</time></trkpt><trkpt lat="10.174775" lon="-83.9306397"><ele>558.0</ele><time>2026-04-09T13:12:04.926Z</time></trkpt><trkpt lat="10.174848" lon="-83.9305464"><ele>558.25</ele><time>2026-04-09T13:12:05.926Z</time></trkpt><trkpt lat="10.1749214" lon="-83.9304531"><ele>558.5</ele><time>2026-04-09T13:12:06.926Z</time></trkpt><trkpt lat="10.1749952" lon="-83.9303612"><ele>558.75</ele><time>2026-04-09T13:12:07.926Z</time></trkpt><trkpt lat="10.1750687" lon="-83.930269"><ele>559.0</ele><time>2026-04-09T13:12:08.926Z</time></trkpt><trkpt lat="10.1751428" lon="-83.9301786"><ele>559.0</ele><time>2026-04-09T13:12:09.926Z</time></trkpt><trkpt lat="10.175218" lon="-83.930084"><ele>559.0</ele><time>2026-04-09T13:12:10.926Z</time></trkpt><trkpt lat="10.1752928" lon="-83.9299875"><ele>559.0</ele><time>2026-04-09T13:12:11.926Z</time></trkpt><trkpt lat="10.1753703" lon="-83.9298849"><ele>559.0</ele><time>2026-04-09T13:12:12.926Z</time></trkpt><trkpt lat="10.1754501" lon="-83.9297774"><ele>560.0</ele><time>2026-04-09T13:12:13.926Z</time></trkpt><trkpt lat="10.1755311" lon="-83.9296659"><ele>561.0</ele><time>2026-04-09T13:12:14.926Z</time></trkpt><trkpt lat="10.1756143" lon="-83.9295502"><ele>562.0</ele><time>2026-04-09T13:12:15.926Z</time></trkpt><trkpt lat="10.1756974" lon="-83.9294272"><ele>563.0</ele><time>2026-04-09T13:12:16.926Z</time></trkpt><trkpt lat="10.1757765" lon="-83.9293109"><ele>564.0</ele><time>2026-04-09T13:12:17.926Z</time></trkpt><trkpt lat="10.1758578" lon="-83.9291945"><ele>565.0</ele><time>2026-04-09T13:12:18.926Z</time></trkpt><trkpt lat="10.1759434" lon="-83.9290643"><ele>566.0</ele><time>2026-04-09T13:12:19.926Z</time></trkpt><trkpt lat="10.176028" lon="-83.9289372"><ele>567.0</ele><time>2026-04-09T13:12:20.926Z</time></trkpt><trkpt lat="10.1761081" lon="-83.9288065"><ele>567.0</ele><time>2026-04-09T13:12:21.926Z</time></trkpt><trkpt lat="10.1761882" lon="-83.92868"><ele>567.0</ele><time>2026-04-09T13:12:22.927Z</time></trkpt><trkpt lat="10.17627" lon="-83.9285463"><ele>567.0</ele><time>2026-04-09T13:12:23.927Z</time></trkpt><trkpt lat="10.1763484" lon="-83.9284101"><ele>565.0</ele><time>2026-04-09T13:12:24.926Z</time></trkpt><trkpt lat="10.1764286" lon="-83.9282766"><ele>563.0</ele><time>2026-04-09T13:12:25.926Z</time></trkpt><trkpt lat="10.1765098" lon="-83.9281389"><ele>561.0</ele><time>2026-04-09T13:12:26.926Z</time></trkpt><trkpt lat="10.1765942" lon="-83.9279993"><ele>565.0</ele><time>2026-04-09T13:12:27.926Z</time></trkpt><trkpt lat="10.1766824" lon="-83.9278588"><ele>569.0</ele><time>2026-04-09T13:12:28.926Z</time></trkpt><trkpt lat="10.1767694" lon="-83.9277141"><ele>573.0</ele><time>2026-04-09T13:12:29.926Z</time></trkpt><trkpt lat="10.1768563" lon="-83.9275716"><ele>572.3333333333334</ele><time>2026-04-09T13:12:30.926Z</time></trkpt><trkpt lat="10.1769428" lon="-83.9274294"><ele>571.6666666666667</ele><time>2026-04-09T13:12:31.926Z</time></trkpt><trkpt lat="10.1770283" lon="-83.9272764"><ele>571.0</ele><time>2026-04-09T13:12:32.926Z</time></trkpt><trkpt lat="10.1771125" lon="-83.9271308"><ele>571.0</ele><time>2026-04-09T13:12:33.926Z</time></trkpt><trkpt lat="10.1772013" lon="-83.9269835"><ele>571.0</ele><time>2026-04-09T13:12:34.926Z</time></trkpt><trkpt lat="10.1772891" lon="-83.9268368"><ele>571.0</ele><time>2026-04-09T13:12:35.926Z</time></trkpt><trkpt lat="10.1773768" lon="-83.9266907"><ele>571.6666666666667</ele><time>2026-04-09T13:12:36.926Z</time></trkpt><trkpt lat="10.1774656" lon="-83.926547"><ele>572.3333333333334</ele><time>2026-04-09T13:12:37.927Z</time></trkpt><trkpt lat="10.1775542" lon="-83.9264023"><ele>573.0</ele><time>2026-04-09T13:12:38.926Z</time></trkpt><trkpt lat="10.1776389" lon="-83.9262549"><ele>573.0</ele><time>2026-04-09T13:12:39.926Z</time></trkpt><trkpt lat="10.1777266" lon="-83.9261055"><ele>573.0</ele><time>2026-04-09T13:12:40.926Z</time></trkpt><trkpt lat="10.1778126" lon="-83.9259549"><ele>573.0</ele><time>2026-04-09T13:12:41.927Z</time></trkpt><trkpt lat="10.1778999" lon="-83.925802"><ele>571.3333333333334</ele><time>2026-04-09T13:12:42.926Z</time></trkpt><trkpt lat="10.1779867" lon="-83.9256495"><ele>569.6666666666667</ele><time>2026-04-09T13:12:43.926Z</time></trkpt><trkpt lat="10.1780733" lon="-83.9254906"><ele>568.0</ele><time>2026-04-09T13:12:44.926Z</time></trkpt><trkpt lat="10.1781558" lon="-83.9253257"><ele>572.0</ele><time>2026-04-09T13:12:45.926Z</time></trkpt><trkpt lat="10.1782367" lon="-83.9251606"><ele>576.0</ele><time>2026-04-09T13:12:46.926Z</time></trkpt><trkpt lat="10.1783164" lon="-83.9249976"><ele>580.0</ele><time>2026-04-09T13:12:47.926Z</time></trkpt><trkpt lat="10.1783975" lon="-83.9248291"><ele>580.0</ele><time>2026-04-09T13:12:48.926Z</time></trkpt><trkpt lat="10.1784771" lon="-83.9246603"><ele>580.0</ele><time>2026-04-09T13:12:49.926Z</time></trkpt><trkpt lat="10.1785488" lon="-83.9244937"><ele>580.0</ele><time>2026-04-09T13:12:50.926Z</time></trkpt><trkpt lat="10.1786199" lon="-83.9243255"><ele>576.3333333333334</ele><time>2026-04-09T13:12:51.926Z</time></trkpt><trkpt lat="10.1786938" lon="-83.9241598"><ele>572.6666666666666</ele><time>2026-04-09T13:12:52.926Z</time></trkpt><trkpt lat="10.1787693" lon="-83.9239878"><ele>569.0</ele><time>2026-04-09T13:12:53.926Z</time></trkpt><trkpt lat="10.1788478" lon="-83.9238143"><ele>569.0</ele><time>2026-04-09T13:12:54.926Z</time></trkpt><trkpt lat="10.1789281" lon="-83.9236449"><ele>569.0</ele><time>2026-04-09T13:12:55.926Z</time></trkpt><trkpt lat="10.1790066" lon="-83.9234627"><ele>569.0</ele><time>2026-04-09T13:12:56.926Z</time></trkpt><trkpt lat="10.1790837" lon="-83.923286"><ele>572.3333333333333</ele><time>2026-04-09T13:12:57.926Z</time></trkpt><trkpt lat="10.1791619" lon="-83.9231098"><ele>575.6666666666666</ele><time>2026-04-09T13:12:58.926Z</time></trkpt><trkpt lat="10.1792444" lon="-83.922931"><ele>579.0</ele><time>2026-04-09T13:12:59.926Z</time></trkpt><trkpt lat="10.1793296" lon="-83.92275"><ele>579.0</ele><time>2026-04-09T13:13:00.926Z</time></trkpt><trkpt lat="10.1794167" lon="-83.9225731"><ele>579.0</ele><time>2026-04-09T13:13:01.926Z</time></trkpt><trkpt lat="10.1795088" lon="-83.9224014"><ele>579.0</ele><time>2026-04-09T13:13:02.926Z</time></trkpt><trkpt lat="10.1796141" lon="-83.9222395"><ele>583.6666666666666</ele><time>2026-04-09T13:13:03.926Z</time></trkpt><trkpt lat="10.179726" lon="-83.9220852"><ele>588.3333333333333</ele><time>2026-04-09T13:13:04.926Z</time></trkpt><trkpt lat="10.1798449" lon="-83.921944"><ele>593.0</ele><time>2026-04-09T13:13:05.926Z</time></trkpt><trkpt lat="10.1799772" lon="-83.92182"><ele>583.0</ele><time>2026-04-09T13:13:06.926Z</time></trkpt><trkpt lat="10.1801135" lon="-83.9217076"><ele>573.0</ele><time>2026-04-09T13:13:07.926Z</time></trkpt><trkpt lat="10.1802606" lon="-83.921613"><ele>563.0</ele><time>2026-04-09T13:13:08.926Z</time></trkpt><trkpt lat="10.1804116" lon="-83.9215316"><ele>563.0</ele><time>2026-04-09T13:13:09.926Z</time></trkpt><trkpt lat="10.1805705" lon="-83.9214659"><ele>563.0</ele><time>2026-04-09T13:13:10.926Z</time></trkpt><trkpt lat="10.1807325" lon="-83.9214045"><ele>563.0</ele><time>2026-04-09T13:13:11.926Z</time></trkpt><trkpt lat="10.1808962" lon="-83.9213512"><ele>568.6666666666666</ele><time>2026-04-09T13:13:12.926Z</time></trkpt><trkpt lat="10.1810608" lon="-83.9213095"><ele>574.3333333333334</ele><time>2026-04-09T13:13:13.926Z</time></trkpt><trkpt lat="10.1812268" lon="-83.9212758"><ele>580.0</ele><time>2026-04-09T13:13:14.926Z</time></trkpt><trkpt lat="10.1813925" lon="-83.9212403"><ele>588.3333333333334</ele><time>2026-04-09T13:13:15.926Z</time></trkpt><trkpt lat="10.1815565" lon="-83.9212086"><ele>596.6666666666666</ele><time>2026-04-09T13:13:16.926Z</time></trkpt><trkpt lat="10.1817162" lon="-83.9211756"><ele>605.0</ele><time>2026-04-09T13:13:17.926Z</time></trkpt><trkpt lat="10.1818752" lon="-83.9211343"><ele>605.0</ele><time>2026-04-09T13:13:18.926Z</time></trkpt><trkpt lat="10.1820234" lon="-83.9210878"><ele>605.0</ele><time>2026-04-09T13:13:19.926Z</time></trkpt><trkpt lat="10.182168" lon="-83.9210297"><ele>605.0</ele><time>2026-04-09T13:13:20.927Z</time></trkpt><trkpt lat="10.1823012" lon="-83.9209519"><ele>597.5</ele><time>2026-04-09T13:13:21.926Z</time></trkpt><trkpt lat="10.1824218" lon="-83.920862"><ele>590.0</ele><time>2026-04-09T13:13:22.926Z</time></trkpt><trkpt lat="10.1825339" lon="-83.9207587"><ele>582.5</ele><time>2026-04-09T13:13:23.926Z</time></trkpt><trkpt lat="10.1826302" lon="-83.9206443"><ele>575.0</ele><time>2026-04-09T13:13:24.926Z</time></trkpt><trkpt lat="10.1827077" lon="-83.9205183"><ele>575.0</ele><time>2026-04-09T13:13:25.926Z</time></trkpt><trkpt lat="10.1827613" lon="-83.9203801"><ele>575.0</ele><time>2026-04-09T13:13:26.926Z</time></trkpt><trkpt lat="10.1828019" lon="-83.9202371"><ele>575.0</ele><time>2026-04-09T13:13:27.926Z</time></trkpt><trkpt lat="10.182813" lon="-83.9200765"><ele>563.6666666666666</ele><time>2026-04-09T13:13:28.926Z</time></trkpt><trkpt lat="10.1828291" lon="-83.919911"><ele>552.3333333333334</ele><time>2026-04-09T13:13:29.926Z</time></trkpt><trkpt lat="10.1828437" lon="-83.9197405"><ele>541.0</ele><time>2026-04-09T13:13:30.926Z</time></trkpt><trkpt lat="10.1828566" lon="-83.9195629"><ele>541.0</ele><time>2026-04-09T13:13:31.926Z</time></trkpt><trkpt lat="10.1828677" lon="-83.919381"><ele>541.0</ele><time>2026-04-09T13:13:32.926Z</time></trkpt><trkpt lat="10.1828777" lon="-83.9191983"><ele>541.0</ele><time>2026-04-09T13:13:33.927Z</time></trkpt><trkpt lat="10.1828872" lon="-83.9190127"><ele>537.6666666666667</ele><time>2026-04-09T13:13:34.926Z</time></trkpt><trkpt lat="10.1828949" lon="-83.9188208"><ele>534.3333333333334</ele><time>2026-04-09T13:13:35.926Z</time></trkpt><trkpt lat="10.1829034" lon="-83.9186283"><ele>531.0</ele><time>2026-04-09T13:13:36.926Z</time></trkpt><trkpt lat="10.1829121" lon="-83.9184307"><ele>531.6666666666666</ele><time>2026-04-09T13:13:37.926Z</time></trkpt><trkpt lat="10.1829184" lon="-83.9182326"><ele>532.3333333333333</ele><time>2026-04-09T13:13:38.926Z</time></trkpt><trkpt lat="10.1829229" lon="-83.9180352"><ele>533.0</ele><time>2026-04-09T13:13:39.926Z</time></trkpt><trkpt lat="10.1829261" lon="-83.9178438"><ele>533.0</ele><time>2026-04-09T13:13:40.926Z</time></trkpt><trkpt lat="10.1829407" lon="-83.9176466"><ele>533.0</ele><time>2026-04-09T13:13:41.927Z</time></trkpt><trkpt lat="10.1829506" lon="-83.9174528"><ele>533.0</ele><time>2026-04-09T13:13:42.927Z</time></trkpt><trkpt lat="10.182969" lon="-83.917263"><ele>529.3333333333333</ele><time>2026-04-09T13:13:43.926Z</time></trkpt><trkpt lat="10.1830032" lon="-83.9170821"><ele>525.6666666666666</ele><time>2026-04-09T13:13:44.926Z</time></trkpt><trkpt lat="10.1830423" lon="-83.9169036"><ele>522.0</ele><time>2026-04-09T13:13:45.926Z</time></trkpt><trkpt lat="10.1830902" lon="-83.9167336"><ele>522.3333333333334</ele><time>2026-04-09T13:13:46.926Z</time></trkpt><trkpt lat="10.1831535" lon="-83.9165697"><ele>522.6666666666667</ele><time>2026-04-09T13:13:47.926Z</time></trkpt><trkpt lat="10.1832318" lon="-83.9164122"><ele>523.0</ele><time>2026-04-09T13:13:48.926Z</time></trkpt><trkpt lat="10.1833275" lon="-83.9162659"><ele>523.0</ele><time>2026-04-09T13:13:49.926Z</time></trkpt><trkpt lat="10.1834366" lon="-83.9161338"><ele>523.0</ele><time>2026-04-09T13:13:50.926Z</time></trkpt><trkpt lat="10.1835499" lon="-83.9160093"><ele>523.0</ele><time>2026-04-09T13:13:51.926Z</time></trkpt><trkpt lat="10.1836736" lon="-83.9159038"><ele>523.0</ele><time>2026-04-09T13:13:52.926Z</time></trkpt><trkpt lat="10.1838046" lon="-83.9158097"><ele>523.0</ele><time>2026-04-09T13:13:53.926Z</time></trkpt><trkpt lat="10.183941" lon="-83.9157224"><ele>523.0</ele><time>2026-04-09T13:13:54.926Z</time></trkpt><trkpt lat="10.184086" lon="-83.9156446"><ele>523.0</ele><time>2026-04-09T13:13:55.926Z</time></trkpt><trkpt lat="10.1842345" lon="-83.9155799"><ele>523.0</ele><time>2026-04-09T13:13:56.926Z</time></trkpt><trkpt lat="10.1843941" lon="-83.9155359"><ele>523.0</ele><time>2026-04-09T13:13:57.926Z</time></trkpt><trkpt lat="10.1845628" lon="-83.9155106"><ele>523.0</ele><time>2026-04-09T13:13:58.926Z</time></trkpt><trkpt lat="10.1847291" lon="-83.9154915"><ele>523.0</ele><time>2026-04-09T13:13:59.926Z</time></trkpt><trkpt lat="10.1848946" lon="-83.9154798"><ele>523.0</ele><time>2026-04-09T13:14:00.926Z</time></trkpt><trkpt lat="10.1850526" lon="-83.915486"><ele>524.0</ele><time>2026-04-09T13:14:01.927Z</time></trkpt><trkpt lat="10.1852161" lon="-83.9154973"><ele>525.0</ele><time>2026-04-09T13:14:02.926Z</time></trkpt><trkpt lat="10.1853721" lon="-83.9154991"><ele>526.0</ele><time>2026-04-09T13:14:03.926Z</time></trkpt><trkpt lat="10.1855295" lon="-83.9155025"><ele>525.6666666666667</ele><time>2026-04-09T13:14:04.927Z</time></trkpt><trkpt lat="10.1856895" lon="-83.9155104"><ele>525.3333333333334</ele><time>2026-04-09T13:14:05.926Z</time></trkpt><trkpt lat="10.1858421" lon="-83.915518"><ele>525.0</ele><time>2026-04-09T13:14:06.926Z</time></trkpt><trkpt lat="10.1859918" lon="-83.9155231"><ele>525.0</ele><time>2026-04-09T13:14:07.926Z</time></trkpt><trkpt lat="10.1861357" lon="-83.9155219"><ele>525.0</ele><time>2026-04-09T13:14:08.926Z</time></trkpt><trkpt lat="10.186278" lon="-83.9155206"><ele>525.0</ele><time>2026-04-09T13:14:09.926Z</time></trkpt><trkpt lat="10.1864168" lon="-83.9155131"><ele>525.0</ele><time>2026-04-09T13:14:10.926Z</time></trkpt><trkpt lat="10.1865508" lon="-83.9154892"><ele>525.25</ele><time>2026-04-09T13:14:11.927Z</time></trkpt><trkpt lat="10.1866854" lon="-83.9154494"><ele>525.5</ele><time>2026-04-09T13:14:12.926Z</time></trkpt><trkpt lat="10.1868143" lon="-83.9153998"><ele>525.75</ele><time>2026-04-09T13:14:13.926Z</time></trkpt><trkpt lat="10.1869435" lon="-83.9153277"><ele>526.0</ele><time>2026-04-09T13:14:14.926Z</time></trkpt><trkpt lat="10.1870743" lon="-83.915242"><ele>526.0</ele><time>2026-04-09T13:14:15.926Z</time></trkpt><trkpt lat="10.1871889" lon="-83.91514"><ele>526.0</ele><time>2026-04-09T13:14:16.926Z</time></trkpt><trkpt lat="10.1872994" lon="-83.9150216"><ele>526.0</ele><time>2026-04-09T13:14:17.926Z</time></trkpt><trkpt lat="10.187396" lon="-83.914892"><ele>524.3333333333334</ele><time>2026-04-09T13:14:18.926Z</time></trkpt><trkpt lat="10.1874826" lon="-83.9147555"><ele>522.6666666666666</ele><time>2026-04-09T13:14:19.926Z</time></trkpt><trkpt lat="10.187548" lon="-83.914606"><ele>521.0</ele><time>2026-04-09T13:14:20.926Z</time></trkpt><trkpt lat="10.1876" lon="-83.9144555"><ele>521.0</ele><time>2026-04-09T13:14:21.927Z</time></trkpt><trkpt lat="10.1876439" lon="-83.9143002"><ele>521.0</ele><time>2026-04-09T13:14:22.926Z</time></trkpt><trkpt lat="10.1876839" lon="-83.914141"><ele>521.0</ele><time>2026-04-09T13:14:23.926Z</time></trkpt><trkpt lat="10.1877258" lon="-83.9139783"><ele>515.0</ele><time>2026-04-09T13:14:24.926Z</time></trkpt><trkpt lat="10.1877676" lon="-83.9138157"><ele>509.0</ele><time>2026-04-09T13:14:25.926Z</time></trkpt><trkpt lat="10.1878099" lon="-83.9136472"><ele>503.0</ele><time>2026-04-09T13:14:26.926Z</time></trkpt><trkpt lat="10.1878535" lon="-83.9134737"><ele>501.3333333333333</ele><time>2026-04-09T13:14:27.926Z</time></trkpt><trkpt lat="10.1878927" lon="-83.9132982"><ele>499.66666666666663</ele><time>2026-04-09T13:14:28.926Z</time></trkpt><trkpt lat="10.1879303" lon="-83.913135"><ele>498.0</ele><time>2026-04-09T13:14:29.926Z</time></trkpt><trkpt lat="10.1879758" lon="-83.912966"><ele>498.0</ele><time>2026-04-09T13:14:30.926Z</time></trkpt><trkpt lat="10.1880204" lon="-83.9127978"><ele>498.0</ele><time>2026-04-09T13:14:31.926Z</time></trkpt><trkpt lat="10.1880589" lon="-83.9126451"><ele>498.0</ele><time>2026-04-09T13:14:32.926Z</time></trkpt><trkpt lat="10.1880974" lon="-83.9124975"><ele>498.5</ele><time>2026-04-09T13:14:33.926Z</time></trkpt><trkpt lat="10.188133" lon="-83.9123505"><ele>499.0</ele><time>2026-04-09T13:14:34.926Z</time></trkpt><trkpt lat="10.1881679" lon="-83.9122066"><ele>499.5</ele><time>2026-04-09T13:14:35.926Z</time></trkpt><trkpt lat="10.1882036" lon="-83.9120616"><ele>500.0</ele><time>2026-04-09T13:14:36.926Z</time></trkpt><trkpt lat="10.1882415" lon="-83.9119143"><ele>500.0</ele><time>2026-04-09T13:14:37.926Z</time></trkpt><trkpt lat="10.1882806" lon="-83.9117691"><ele>500.0</ele><time>2026-04-09T13:14:38.926Z</time></trkpt><trkpt lat="10.1883231" lon="-83.9116244"><ele>500.0</ele><time>2026-04-09T13:14:39.926Z</time></trkpt><trkpt lat="10.1883695" lon="-83.9114805"><ele>500.0</ele><time>2026-04-09T13:14:40.926Z</time></trkpt><trkpt lat="10.1884194" lon="-83.9113379"><ele>495.25</ele><time>2026-04-09T13:14:41.926Z</time></trkpt><trkpt lat="10.1884744" lon="-83.911201"><ele>490.5</ele><time>2026-04-09T13:14:42.926Z</time></trkpt><trkpt lat="10.1885433" lon="-83.9110727"><ele>485.75</ele><time>2026-04-09T13:14:43.926Z</time></trkpt><trkpt lat="10.1886246" lon="-83.9109511"><ele>481.0</ele><time>2026-04-09T13:14:44.926Z</time></trkpt><trkpt lat="10.1887099" lon="-83.9108359"><ele>479.0</ele><time>2026-04-09T13:14:45.926Z</time></trkpt><trkpt lat="10.1887985" lon="-83.9107268"><ele>477.0</ele><time>2026-04-09T13:14:46.926Z</time></trkpt><trkpt lat="10.1888953" lon="-83.9106316"><ele>475.0</ele><time>2026-04-09T13:14:47.926Z</time></trkpt><trkpt lat="10.1890003" lon="-83.9105435"><ele>473.0</ele><time>2026-04-09T13:14:48.926Z</time></trkpt><trkpt lat="10.1891067" lon="-83.910459"><ele>477.25</ele><time>2026-04-09T13:14:49.926Z</time></trkpt><trkpt lat="10.1892126" lon="-83.9103841"><ele>481.5</ele><time>2026-04-09T13:14:50.926Z</time></trkpt><trkpt lat="10.1893217" lon="-83.9103064"><ele>485.75</ele><time>2026-04-09T13:14:51.926Z</time></trkpt><trkpt lat="10.1894272" lon="-83.9102275"><ele>490.0</ele><time>2026-04-09T13:14:52.926Z</time></trkpt><trkpt lat="10.1895365" lon="-83.9101496"><ele>482.25</ele><time>2026-04-09T13:14:53.926Z</time></trkpt><trkpt lat="10.1896408" lon="-83.9100718"><ele>474.5</ele><time>2026-04-09T13:14:54.926Z</time></trkpt><trkpt lat="10.1897419" lon="-83.9099951"><ele>466.75</ele><time>2026-04-09T13:14:55.926Z</time></trkpt><trkpt lat="10.1898449" lon="-83.9099197"><ele>459.0</ele><time>2026-04-09T13:14:56.926Z</time></trkpt><trkpt lat="10.1899484" lon="-83.9098421"><ele>459.0</ele><time>2026-04-09T13:14:57.926Z</time></trkpt><trkpt lat="10.1900497" lon="-83.9097655"><ele>459.0</ele><time>2026-04-09T13:14:58.926Z</time></trkpt><trkpt lat="10.1901544" lon="-83.9096886"><ele>459.0</ele><time>2026-04-09T13:14:59.926Z</time></trkpt><trkpt lat="10.1902594" lon="-83.9096082"><ele>459.0</ele><time>2026-04-09T13:15:00.926Z</time></trkpt><trkpt lat="10.1903633" lon="-83.9095306"><ele>459.0</ele><time>2026-04-09T13:15:01.926Z</time></trkpt><trkpt lat="10.1904688" lon="-83.9094539"><ele>459.0</ele><time>2026-04-09T13:15:02.926Z</time></trkpt><trkpt lat="10.1905742" lon="-83.9093801"><ele>459.0</ele><time>2026-04-09T13:15:03.926Z</time></trkpt><trkpt lat="10.1906846" lon="-83.9093054"><ele>459.0</ele><time>2026-04-09T13:15:04.926Z</time></trkpt><trkpt lat="10.1907916" lon="-83.909229"><ele>456.25</ele><time>2026-04-09T13:15:05.926Z</time></trkpt><trkpt lat="10.1909012" lon="-83.9091549"><ele>453.5</ele><time>2026-04-09T13:15:06.926Z</time></trkpt><trkpt lat="10.1910122" lon="-83.9090744"><ele>450.75</ele><time>2026-04-09T13:15:07.926Z</time></trkpt><trkpt lat="10.1911234" lon="-83.9089938"><ele>448.0</ele><time>2026-04-09T13:15:08.926Z</time></trkpt><trkpt lat="10.1912318" lon="-83.908909"><ele>448.0</ele><time>2026-04-09T13:15:09.926Z</time></trkpt><trkpt lat="10.1913343" lon="-83.9088176"><ele>448.0</ele><time>2026-04-09T13:15:10.926Z</time></trkpt><trkpt lat="10.1914277" lon="-83.9087207"><ele>448.0</ele><time>2026-04-09T13:15:11.926Z</time></trkpt><trkpt lat="10.191513" lon="-83.9086205"><ele>448.0</ele><time>2026-04-09T13:15:12.926Z</time></trkpt><trkpt lat="10.1915943" lon="-83.9085213"><ele>451.75</ele><time>2026-04-09T13:15:13.926Z</time></trkpt><trkpt lat="10.1916685" lon="-83.9084123"><ele>455.5</ele><time>2026-04-09T13:15:14.926Z</time></trkpt><trkpt lat="10.1917322" lon="-83.9082921"><ele>459.25</ele><time>2026-04-09T13:15:15.926Z</time></trkpt><trkpt lat="10.1917865" lon="-83.9081684"><ele>463.0</ele><time>2026-04-09T13:15:16.926Z</time></trkpt><trkpt lat="10.1918237" lon="-83.9080416"><ele>455.0</ele><time>2026-04-09T13:15:17.926Z</time></trkpt><trkpt lat="10.19185" lon="-83.90791"><ele>447.0</ele><time>2026-04-09T13:15:18.926Z</time></trkpt><trkpt lat="10.1918646" lon="-83.9077777"><ele>439.0</ele><time>2026-04-09T13:15:19.926Z</time></trkpt><trkpt lat="10.1918726" lon="-83.9076414"><ele>431.0</ele><time>2026-04-09T13:15:20.926Z</time></trkpt><trkpt lat="10.1918753" lon="-83.907499"><ele>429.5</ele><time>2026-04-09T13:15:21.926Z</time></trkpt><trkpt lat="10.1918716" lon="-83.9073614"><ele>428.0</ele><time>2026-04-09T13:15:22.926Z</time></trkpt><trkpt lat="10.1918635" lon="-83.9072237"><ele>426.5</ele><time>2026-04-09T13:15:23.926Z</time></trkpt><trkpt lat="10.191854" lon="-83.9070822"><ele>425.0</ele><time>2026-04-09T13:15:24.926Z</time></trkpt><trkpt lat="10.1918426" lon="-83.9069435"><ele>425.0</ele><time>2026-04-09T13:15:25.926Z</time></trkpt><trkpt lat="10.191835" lon="-83.9068017"><ele>425.0</ele><time>2026-04-09T13:15:26.926Z</time></trkpt><trkpt lat="10.1918348" lon="-83.9066597"><ele>425.0</ele><time>2026-04-09T13:15:27.926Z</time></trkpt><trkpt lat="10.1918413" lon="-83.9065165"><ele>425.0</ele><time>2026-04-09T13:15:28.926Z</time></trkpt><trkpt lat="10.1918574" lon="-83.9063766"><ele>424.75</ele><time>2026-04-09T13:15:29.926Z</time></trkpt><trkpt lat="10.191881" lon="-83.9062344"><ele>424.5</ele><time>2026-04-09T13:15:30.926Z</time></trkpt><trkpt lat="10.191915" lon="-83.9060963"><ele>424.25</ele><time>2026-04-09T13:15:31.926Z</time></trkpt><trkpt lat="10.1919542" lon="-83.9059595"><ele>424.0</ele><time>2026-04-09T13:15:32.926Z</time></trkpt><trkpt lat="10.1920011" lon="-83.9058231"><ele>421.75</ele><time>2026-04-09T13:15:33.926Z</time></trkpt><trkpt lat="10.1920533" lon="-83.9056928"><ele>419.5</ele><time>2026-04-09T13:15:34.926Z</time></trkpt><trkpt lat="10.192109" lon="-83.9055672"><ele>417.25</ele><time>2026-04-09T13:15:35.926Z</time></trkpt><trkpt lat="10.1921711" lon="-83.9054465"><ele>415.0</ele><time>2026-04-09T13:15:36.926Z</time></trkpt><trkpt lat="10.1922387" lon="-83.9053283"><ele>415.0</ele><time>2026-04-09T13:15:37.926Z</time></trkpt><trkpt lat="10.1923067" lon="-83.9052077"><ele>415.0</ele><time>2026-04-09T13:15:38.926Z</time></trkpt><trkpt lat="10.1923751" lon="-83.9050881"><ele>415.0</ele><time>2026-04-09T13:15:39.927Z</time></trkpt><trkpt lat="10.1924465" lon="-83.9049724"><ele>415.0</ele><time>2026-04-09T13:15:40.926Z</time></trkpt><trkpt lat="10.1925183" lon="-83.9048567"><ele>415.75</ele><time>2026-04-09T13:15:41.926Z</time></trkpt><trkpt lat="10.1925883" lon="-83.9047412"><ele>416.5</ele><time>2026-04-09T13:15:42.926Z</time></trkpt><trkpt lat="10.192656" lon="-83.904626"><ele>417.25</ele><time>2026-04-09T13:15:43.926Z</time></trkpt><trkpt lat="10.192725" lon="-83.904509"><ele>418.0</ele><time>2026-04-09T13:15:44.926Z</time></trkpt><trkpt lat="10.1927913" lon="-83.9043946"><ele>418.0</ele><time>2026-04-09T13:15:45.926Z</time></trkpt><trkpt lat="10.1928555" lon="-83.9042778"><ele>418.0</ele><time>2026-04-09T13:15:46.927Z</time></trkpt><trkpt lat="10.1929242" lon="-83.904167"><ele>418.0</ele><time>2026-04-09T13:15:47.926Z</time></trkpt><trkpt lat="10.1929933" lon="-83.9040551"><ele>418.0</ele><time>2026-04-09T13:15:48.926Z</time></trkpt><trkpt lat="10.1930619" lon="-83.9039401"><ele>418.5</ele><time>2026-04-09T13:15:49.926Z</time></trkpt><trkpt lat="10.193131" lon="-83.9038211"><ele>419.0</ele><time>2026-04-09T13:15:50.926Z</time></trkpt><trkpt lat="10.1931995" lon="-83.9037038"><ele>419.5</ele><time>2026-04-09T13:15:51.926Z</time></trkpt><trkpt lat="10.1932706" lon="-83.903584"><ele>420.0</ele><time>2026-04-09T13:15:52.926Z</time></trkpt><trkpt lat="10.1933438" lon="-83.9034673"><ele>413.75</ele><time>2026-04-09T13:15:53.926Z</time></trkpt><trkpt lat="10.1934171" lon="-83.9033515"><ele>407.5</ele><time>2026-04-09T13:15:54.926Z</time></trkpt><trkpt lat="10.1934897" lon="-83.9032353"><ele>401.25</ele><time>2026-04-09T13:15:55.926Z</time></trkpt><trkpt lat="10.1935633" lon="-83.9031189"><ele>395.0</ele><time>2026-04-09T13:15:56.926Z</time></trkpt><trkpt lat="10.1936379" lon="-83.9030054"><ele>395.0</ele><time>2026-04-09T13:15:57.926Z</time></trkpt><trkpt lat="10.1937108" lon="-83.9028904"><ele>395.0</ele><time>2026-04-09T13:15:58.926Z</time></trkpt><trkpt lat="10.1937849" lon="-83.9027763"><ele>395.0</ele><time>2026-04-09T13:15:59.926Z</time></trkpt><trkpt lat="10.1938601" lon="-83.9026624"><ele>395.0</ele><time>2026-04-09T13:16:00.926Z</time></trkpt><trkpt lat="10.1939341" lon="-83.9025486"><ele>395.75</ele><time>2026-04-09T13:16:01.926Z</time></trkpt><trkpt lat="10.194009" lon="-83.9024343"><ele>396.5</ele><time>2026-04-09T13:16:02.926Z</time></trkpt><trkpt lat="10.1940825" lon="-83.9023203"><ele>397.25</ele><time>2026-04-09T13:16:03.926Z</time></trkpt><trkpt lat="10.1941564" lon="-83.9022068"><ele>398.0</ele><time>2026-04-09T13:16:04.926Z</time></trkpt><trkpt lat="10.1942277" lon="-83.9020903"><ele>398.0</ele><time>2026-04-09T13:16:05.926Z</time></trkpt><trkpt lat="10.1942981" lon="-83.9019739"><ele>398.0</ele><time>2026-04-09T13:16:06.926Z</time></trkpt><trkpt lat="10.1943735" lon="-83.9018569"><ele>398.0</ele><time>2026-04-09T13:16:07.926Z</time></trkpt><trkpt lat="10.1944485" lon="-83.9017371"><ele>398.0</ele><time>2026-04-09T13:16:08.926Z</time></trkpt><trkpt lat="10.1945264" lon="-83.9016168"><ele>395.75</ele><time>2026-04-09T13:16:09.926Z</time></trkpt><trkpt lat="10.1946098" lon="-83.9014973"><ele>393.5</ele><time>2026-04-09T13:16:10.926Z</time></trkpt><trkpt lat="10.1946975" lon="-83.9013756"><ele>391.25</ele><time>2026-04-09T13:16:11.926Z</time></trkpt><trkpt lat="10.1947938" lon="-83.9012591"><ele>389.0</ele><time>2026-04-09T13:16:12.926Z</time></trkpt><trkpt lat="10.1948942" lon="-83.9011475"><ele>389.0</ele><time>2026-04-09T13:16:13.926Z</time></trkpt><trkpt lat="10.1950038" lon="-83.9010428"><ele>389.0</ele><time>2026-04-09T13:16:14.926Z</time></trkpt><trkpt lat="10.195121" lon="-83.9009536"><ele>389.0</ele><time>2026-04-09T13:16:15.926Z</time></trkpt><trkpt lat="10.1952437" lon="-83.9008758"><ele>389.0</ele><time>2026-04-09T13:16:16.926Z</time></trkpt><trkpt lat="10.1953699" lon="-83.9008153"><ele>386.75</ele><time>2026-04-09T13:16:17.926Z</time></trkpt><trkpt lat="10.1954992" lon="-83.9007595"><ele>384.5</ele><time>2026-04-09T13:16:18.927Z</time></trkpt><trkpt lat="10.1956338" lon="-83.900727"><ele>382.25</ele><time>2026-04-09T13:16:19.926Z</time></trkpt><trkpt lat="10.195765" lon="-83.9006968"><ele>380.0</ele><time>2026-04-09T13:16:20.926Z</time></trkpt><trkpt lat="10.1958904" lon="-83.90068"><ele>380.0</ele><time>2026-04-09T13:16:21.926Z</time></trkpt><trkpt lat="10.1960181" lon="-83.900674"><ele>380.0</ele><time>2026-04-09T13:16:22.926Z</time></trkpt><trkpt lat="10.196143" lon="-83.9006788"><ele>380.0</ele><time>2026-04-09T13:16:23.926Z</time></trkpt><trkpt lat="10.196269" lon="-83.9006895"><ele>380.0</ele><time>2026-04-09T13:16:24.926Z</time></trkpt><trkpt lat="10.196397" lon="-83.900709"><ele>380.0</ele><time>2026-04-09T13:16:25.926Z</time></trkpt><trkpt lat="10.1965173" lon="-83.9007338"><ele>380.0</ele><time>2026-04-09T13:16:26.926Z</time></trkpt><trkpt lat="10.1966394" lon="-83.9007701"><ele>380.0</ele><time>2026-04-09T13:16:27.926Z</time></trkpt><trkpt lat="10.1967593" lon="-83.9008171"><ele>380.0</ele><time>2026-04-09T13:16:28.926Z</time></trkpt><trkpt lat="10.1968759" lon="-83.9008727"><ele>385.0</ele><time>2026-04-09T13:16:29.926Z</time></trkpt><trkpt lat="10.1969876" lon="-83.9009365"><ele>390.0</ele><time>2026-04-09T13:16:30.926Z</time></trkpt><trkpt lat="10.1970934" lon="-83.9010069"><ele>395.0</ele><time>2026-04-09T13:16:31.926Z</time></trkpt><trkpt lat="10.1971927" lon="-83.9010809"><ele>400.0</ele><time>2026-04-09T13:16:32.926Z</time></trkpt><trkpt lat="10.1972818" lon="-83.9011635"><ele>398.25</ele><time>2026-04-09T13:16:33.926Z</time></trkpt><trkpt lat="10.1973682" lon="-83.9012461"><ele>396.5</ele><time>2026-04-09T13:16:34.926Z</time></trkpt><trkpt lat="10.1974546" lon="-83.9013311"><ele>394.75</ele><time>2026-04-09T13:16:35.926Z</time></trkpt><trkpt lat="10.1975397" lon="-83.9014187"><ele>393.0</ele><time>2026-04-09T13:16:36.926Z</time></trkpt><trkpt lat="10.1976207" lon="-83.9015097"><ele>393.0</ele><time>2026-04-09T13:16:37.926Z</time></trkpt><trkpt lat="10.1977008" lon="-83.9015999"><ele>393.0</ele><time>2026-04-09T13:16:38.926Z</time></trkpt><trkpt lat="10.1977779" lon="-83.9016942"><ele>393.0</ele><time>2026-04-09T13:16:39.927Z</time></trkpt><trkpt lat="10.1978506" lon="-83.9017867"><ele>393.0</ele><time>2026-04-09T13:16:40.926Z</time></trkpt><trkpt lat="10.1979217" lon="-83.9018775"><ele>396.25</ele><time>2026-04-09T13:16:41.926Z</time></trkpt><trkpt lat="10.1979922" lon="-83.9019762"><ele>399.5</ele><time>2026-04-09T13:16:42.926Z</time></trkpt><trkpt lat="10.1980628" lon="-83.9020763"><ele>402.75</ele><time>2026-04-09T13:16:43.927Z</time></trkpt><trkpt lat="10.1981413" lon="-83.90217"><ele>406.0</ele><time>2026-04-09T13:16:44.926Z</time></trkpt><trkpt lat="10.1982254" lon="-83.9022638"><ele>397.75</ele><time>2026-04-09T13:16:45.926Z</time></trkpt><trkpt lat="10.1983083" lon="-83.9023553"><ele>389.5</ele><time>2026-04-09T13:16:46.926Z</time></trkpt><trkpt lat="10.1984005" lon="-83.9024454"><ele>381.25</ele><time>2026-04-09T13:16:47.926Z</time></trkpt><trkpt lat="10.1984928" lon="-83.9025277"><ele>373.0</ele><time>2026-04-09T13:16:48.926Z</time></trkpt><trkpt lat="10.1985871" lon="-83.9026179"><ele>373.0</ele><time>2026-04-09T13:16:49.926Z</time></trkpt><trkpt lat="10.1986777" lon="-83.9027152"><ele>373.0</ele><time>2026-04-09T13:16:50.926Z</time></trkpt><trkpt lat="10.1987708" lon="-83.9028277"><ele>373.0</ele><time>2026-04-09T13:16:51.926Z</time></trkpt><trkpt lat="10.1988668" lon="-83.9029376"><ele>373.0</ele><time>2026-04-09T13:16:52.926Z</time></trkpt><trkpt lat="10.1989575" lon="-83.9030531"><ele>369.25</ele><time>2026-04-09T13:16:53.926Z</time></trkpt><trkpt lat="10.1990576" lon="-83.9031644"><ele>365.5</ele><time>2026-04-09T13:16:54.926Z</time></trkpt><trkpt lat="10.1991667" lon="-83.903263"><ele>361.75</ele><time>2026-04-09T13:16:55.926Z</time></trkpt><trkpt lat="10.1992739" lon="-83.9033644"><ele>358.0</ele><time>2026-04-09T13:16:56.926Z</time></trkpt><trkpt lat="10.1993887" lon="-83.9034598"><ele>358.0</ele><time>2026-04-09T13:16:57.926Z</time></trkpt><trkpt lat="10.199503" lon="-83.9035475"><ele>358.0</ele><time>2026-04-09T13:16:58.926Z</time></trkpt><trkpt lat="10.1996213" lon="-83.9036289"><ele>358.0</ele><time>2026-04-09T13:16:59.926Z</time></trkpt><trkpt lat="10.1997324" lon="-83.9037069"><ele>358.0</ele><time>2026-04-09T13:17:00.926Z</time></trkpt><trkpt lat="10.1998431" lon="-83.9037764"><ele>352.79999999999995</ele><time>2026-04-09T13:17:01.927Z</time></trkpt><trkpt lat="10.1999471" lon="-83.9038432"><ele>347.6</ele><time>2026-04-09T13:17:02.926Z</time></trkpt><trkpt lat="10.2000446" lon="-83.9038994"><ele>342.4</ele><time>2026-04-09T13:17:03.926Z</time></trkpt><trkpt lat="10.2001382" lon="-83.9039457"><ele>337.20000000000005</ele><time>2026-04-09T13:17:04.926Z</time></trkpt><trkpt lat="10.2002326" lon="-83.9039897"><ele>332.0</ele><time>2026-04-09T13:17:05.926Z</time></trkpt><trkpt lat="10.2003231" lon="-83.9040327"><ele>332.0</ele><time>2026-04-09T13:17:06.926Z</time></trkpt><trkpt lat="10.2004199" lon="-83.9040711"><ele>332.0</ele><time>2026-04-09T13:17:07.926Z</time></trkpt><trkpt lat="10.2005173" lon="-83.9041098"><ele>332.0</ele><time>2026-04-09T13:17:08.926Z</time></trkpt><trkpt lat="10.2006148" lon="-83.9041498"><ele>332.0</ele><time>2026-04-09T13:17:09.926Z</time></trkpt><trkpt lat="10.2007212" lon="-83.9041856"><ele>332.0</ele><time>2026-04-09T13:17:10.926Z</time></trkpt><trkpt lat="10.2008282" lon="-83.9042149"><ele>328.5</ele><time>2026-04-09T13:17:11.926Z</time></trkpt><trkpt lat="10.2009386" lon="-83.904241"><ele>325.0</ele><time>2026-04-09T13:17:12.926Z</time></trkpt><trkpt lat="10.2010526" lon="-83.9042668"><ele>321.5</ele><time>2026-04-09T13:17:13.926Z</time></trkpt><trkpt lat="10.2011698" lon="-83.904294"><ele>318.0</ele><time>2026-04-09T13:17:14.926Z</time></trkpt><trkpt lat="10.2012922" lon="-83.904316"><ele>318.0</ele><time>2026-04-09T13:17:15.926Z</time></trkpt><trkpt lat="10.2014109" lon="-83.9043361"><ele>318.0</ele><time>2026-04-09T13:17:16.926Z</time></trkpt><trkpt lat="10.2015342" lon="-83.9043553"><ele>318.0</ele><time>2026-04-09T13:17:17.926Z</time></trkpt><trkpt lat="10.2016583" lon="-83.9043696"><ele>318.0</ele><time>2026-04-09T13:17:18.926Z</time></trkpt><trkpt lat="10.2017843" lon="-83.9043749"><ele>313.25</ele><time>2026-04-09T13:17:19.926Z</time></trkpt><trkpt lat="10.2019177" lon="-83.9043712"><ele>308.5</ele><time>2026-04-09T13:17:20.926Z</time></trkpt><trkpt lat="10.2020464" lon="-83.9043616"><ele>303.75</ele><time>2026-04-09T13:17:21.927Z</time></trkpt><trkpt lat="10.2021815" lon="-83.9043485"><ele>299.0</ele><time>2026-04-09T13:17:22.926Z</time></trkpt><trkpt lat="10.2023138" lon="-83.9043308"><ele>299.75</ele><time>2026-04-09T13:17:23.926Z</time></trkpt><trkpt lat="10.2024523" lon="-83.9043125"><ele>300.5</ele><time>2026-04-09T13:17:24.926Z</time></trkpt><trkpt lat="10.2025907" lon="-83.9042927"><ele>301.25</ele><time>2026-04-09T13:17:25.926Z</time></trkpt><trkpt lat="10.2027348" lon="-83.9042683"><ele>302.0</ele><time>2026-04-09T13:17:26.926Z</time></trkpt><trkpt lat="10.2028847" lon="-83.9042362"><ele>302.0</ele><time>2026-04-09T13:17:27.926Z</time></trkpt><trkpt lat="10.203032" lon="-83.9041954"><ele>302.0</ele><time>2026-04-09T13:17:28.926Z</time></trkpt><trkpt lat="10.2031834" lon="-83.904149"><ele>302.0</ele><time>2026-04-09T13:17:29.926Z</time></trkpt><trkpt lat="10.203331" lon="-83.9040965"><ele>298.6666666666667</ele><time>2026-04-09T13:17:30.926Z</time></trkpt><trkpt lat="10.203479" lon="-83.9040394"><ele>295.3333333333333</ele><time>2026-04-09T13:17:31.926Z</time></trkpt><trkpt lat="10.203626" lon="-83.9039792"><ele>292.0</ele><time>2026-04-09T13:17:32.926Z</time></trkpt><trkpt lat="10.2037714" lon="-83.9039121"><ele>292.0</ele><time>2026-04-09T13:17:33.926Z</time></trkpt><trkpt lat="10.2039174" lon="-83.9038384"><ele>292.0</ele><time>2026-04-09T13:17:34.926Z</time></trkpt><trkpt lat="10.2040623" lon="-83.9037566"><ele>292.0</ele><time>2026-04-09T13:17:35.926Z</time></trkpt><trkpt lat="10.2041966" lon="-83.9036699"><ele>290.3333333333333</ele><time>2026-04-09T13:17:36.926Z</time></trkpt><trkpt lat="10.2043326" lon="-83.9035785"><ele>288.6666666666667</ele><time>2026-04-09T13:17:37.926Z</time></trkpt><trkpt lat="10.2044661" lon="-83.9034863"><ele>287.0</ele><time>2026-04-09T13:17:38.926Z</time></trkpt><trkpt lat="10.2045951" lon="-83.9033951"><ele>286.33333333333337</ele><time>2026-04-09T13:17:39.926Z</time></trkpt><trkpt lat="10.2047238" lon="-83.9033102"><ele>285.6666666666667</ele><time>2026-04-09T13:17:40.926Z</time></trkpt><trkpt lat="10.2048513" lon="-83.903226"><ele>285.0</ele><time>2026-04-09T13:17:41.926Z</time></trkpt><trkpt lat="10.2049755" lon="-83.9031441"><ele>283.0</ele><time>2026-04-09T13:17:42.926Z</time></trkpt><trkpt lat="10.2050983" lon="-83.9030615"><ele>281.0</ele><time>2026-04-09T13:17:43.926Z</time></trkpt><trkpt lat="10.205217" lon="-83.902975"><ele>279.0</ele><time>2026-04-09T13:17:44.926Z</time></trkpt><trkpt lat="10.2053368" lon="-83.9028946"><ele>277.0</ele><time>2026-04-09T13:17:45.926Z</time></trkpt><trkpt lat="10.2054577" lon="-83.9028103"><ele>277.0</ele><time>2026-04-09T13:17:46.926Z</time></trkpt><trkpt lat="10.2055834" lon="-83.9027265"><ele>277.0</ele><time>2026-04-09T13:17:47.926Z</time></trkpt><trkpt lat="10.2057096" lon="-83.9026451"><ele>277.0</ele><time>2026-04-09T13:17:48.926Z</time></trkpt><trkpt lat="10.2058299" lon="-83.9025602"><ele>277.0</ele><time>2026-04-09T13:17:49.926Z</time></trkpt><trkpt lat="10.205955" lon="-83.9024804"><ele>275.3333333333333</ele><time>2026-04-09T13:17:50.926Z</time></trkpt><trkpt lat="10.2060774" lon="-83.9023998"><ele>273.6666666666667</ele><time>2026-04-09T13:17:51.926Z</time></trkpt><trkpt lat="10.2062044" lon="-83.9023132"><ele>272.0</ele><time>2026-04-09T13:17:52.926Z</time></trkpt><trkpt lat="10.2063341" lon="-83.9022264"><ele>272.0</ele><time>2026-04-09T13:17:53.926Z</time></trkpt><trkpt lat="10.2064631" lon="-83.9021385"><ele>272.0</ele><time>2026-04-09T13:17:54.926Z</time></trkpt><trkpt lat="10.2065892" lon="-83.9020502"><ele>272.0</ele><time>2026-04-09T13:17:55.926Z</time></trkpt><trkpt lat="10.206714" lon="-83.9019627"><ele>269.6666666666667</ele><time>2026-04-09T13:17:56.926Z</time></trkpt><trkpt lat="10.2068403" lon="-83.9018756"><ele>267.3333333333333</ele><time>2026-04-09T13:17:57.926Z</time></trkpt><trkpt lat="10.2069683" lon="-83.9017887"><ele>265.0</ele><time>2026-04-09T13:17:58.926Z</time></trkpt><trkpt lat="10.2070961" lon="-83.9016998"><ele>264.0</ele><time>2026-04-09T13:17:59.926Z</time></trkpt><trkpt lat="10.207229" lon="-83.9016081"><ele>263.0</ele><time>2026-04-09T13:18:00.926Z</time></trkpt><trkpt lat="10.2073625" lon="-83.9015198"><ele>262.0</ele><time>2026-04-09T13:18:01.926Z</time></trkpt><trkpt lat="10.2074937" lon="-83.9014274"><ele>260.66666666666663</ele><time>2026-04-09T13:18:02.926Z</time></trkpt><trkpt lat="10.2076307" lon="-83.9013345"><ele>259.3333333333333</ele><time>2026-04-09T13:18:03.926Z</time></trkpt><trkpt lat="10.2077628" lon="-83.9012451"><ele>258.0</ele><time>2026-04-09T13:18:04.926Z</time></trkpt><trkpt lat="10.2078874" lon="-83.9011586"><ele>258.0</ele><time>2026-04-09T13:18:05.926Z</time></trkpt><trkpt lat="10.2080168" lon="-83.9010748"><ele>258.0</ele><time>2026-04-09T13:18:06.926Z</time></trkpt><trkpt lat="10.208141" lon="-83.9009951"><ele>258.0</ele><time>2026-04-09T13:18:07.926Z</time></trkpt><trkpt lat="10.2082648" lon="-83.9009118"><ele>258.0</ele><time>2026-04-09T13:18:08.926Z</time></trkpt><trkpt lat="10.2083864" lon="-83.9008268"><ele>256.3333333333333</ele><time>2026-04-09T13:18:09.926Z</time></trkpt><trkpt lat="10.2085115" lon="-83.9007336"><ele>254.66666666666666</ele><time>2026-04-09T13:18:10.926Z</time></trkpt><trkpt lat="10.2086302" lon="-83.9006431"><ele>253.0</ele><time>2026-04-09T13:18:11.926Z</time></trkpt><trkpt lat="10.2087562" lon="-83.9005558"><ele>253.0</ele><time>2026-04-09T13:18:12.926Z</time></trkpt><trkpt lat="10.2088796" lon="-83.9004685"><ele>253.0</ele><time>2026-04-09T13:18:13.927Z</time></trkpt><trkpt lat="10.2090021" lon="-83.9003889"><ele>253.0</ele><time>2026-04-09T13:18:14.927Z</time></trkpt><trkpt lat="10.2091197" lon="-83.9003031"><ele>253.0</ele><time>2026-04-09T13:18:15.926Z</time></trkpt><trkpt lat="10.2092373" lon="-83.9002174"><ele>253.25</ele><time>2026-04-09T13:18:16.926Z</time></trkpt><trkpt lat="10.2093508" lon="-83.9001262"><ele>253.5</ele><time>2026-04-09T13:18:17.927Z</time></trkpt><trkpt lat="10.2094646" lon="-83.9000308"><ele>253.75</ele><time>2026-04-09T13:18:18.926Z</time></trkpt><trkpt lat="10.2095806" lon="-83.8999255"><ele>254.0</ele><time>2026-04-09T13:18:19.926Z</time></trkpt><trkpt lat="10.2096944" lon="-83.8998198"><ele>253.66666666666669</ele><time>2026-04-09T13:18:20.926Z</time></trkpt><trkpt lat="10.209808" lon="-83.8996995"><ele>253.33333333333331</ele><time>2026-04-09T13:18:21.926Z</time></trkpt><trkpt lat="10.2099217" lon="-83.8995739"><ele>253.0</ele><time>2026-04-09T13:18:22.926Z</time></trkpt><trkpt lat="10.2100341" lon="-83.8994438"><ele>253.0</ele><time>2026-04-09T13:18:23.926Z</time></trkpt><trkpt lat="10.210142" lon="-83.8993069"><ele>253.0</ele><time>2026-04-09T13:18:24.926Z</time></trkpt><trkpt lat="10.2102433" lon="-83.8991766"><ele>253.0</ele><time>2026-04-09T13:18:25.926Z</time></trkpt><trkpt lat="10.2103417" lon="-83.8990378"><ele>252.0</ele><time>2026-04-09T13:18:26.926Z</time></trkpt><trkpt lat="10.2104355" lon="-83.8988984"><ele>251.0</ele><time>2026-04-09T13:18:27.926Z</time></trkpt><trkpt lat="10.2105233" lon="-83.8987543"><ele>250.0</ele><time>2026-04-09T13:18:28.927Z</time></trkpt><trkpt lat="10.210608" lon="-83.8986031"><ele>249.66666666666666</ele><time>2026-04-09T13:18:29.926Z</time></trkpt><trkpt lat="10.2106846" lon="-83.8984463"><ele>249.33333333333331</ele><time>2026-04-09T13:18:30.926Z</time></trkpt><trkpt lat="10.2107526" lon="-83.8982841"><ele>249.0</ele><time>2026-04-09T13:18:31.926Z</time></trkpt><trkpt lat="10.2108185" lon="-83.8981236"><ele>247.66666666666669</ele><time>2026-04-09T13:18:32.926Z</time></trkpt><trkpt lat="10.2108796" lon="-83.8979595"><ele>246.33333333333334</ele><time>2026-04-09T13:18:33.926Z</time></trkpt><trkpt lat="10.2109344" lon="-83.8977913"><ele>245.0</ele><time>2026-04-09T13:18:34.926Z</time></trkpt><trkpt lat="10.2109906" lon="-83.8976207"><ele>244.0</ele><time>2026-04-09T13:18:35.926Z</time></trkpt><trkpt lat="10.2110484" lon="-83.8974468"><ele>243.0</ele><time>2026-04-09T13:18:36.926Z</time></trkpt><trkpt lat="10.2111021" lon="-83.8972696"><ele>242.0</ele><time>2026-04-09T13:18:37.926Z</time></trkpt><trkpt lat="10.2111579" lon="-83.8970925"><ele>242.0</ele><time>2026-04-09T13:18:38.926Z</time></trkpt><trkpt lat="10.2112091" lon="-83.8969136"><ele>242.0</ele><time>2026-04-09T13:18:39.926Z</time></trkpt><trkpt lat="10.2112585" lon="-83.8967372"><ele>242.0</ele><time>2026-04-09T13:18:40.926Z</time></trkpt><trkpt lat="10.2113118" lon="-83.896558"><ele>242.0</ele><time>2026-04-09T13:18:41.926Z</time></trkpt><trkpt lat="10.2113626" lon="-83.8963768"><ele>242.0</ele><time>2026-04-09T13:18:42.926Z</time></trkpt><trkpt lat="10.2114118" lon="-83.8961979"><ele>242.0</ele><time>2026-04-09T13:18:43.926Z</time></trkpt><trkpt lat="10.2114612" lon="-83.8960236"><ele>241.0</ele><time>2026-04-09T13:18:44.927Z</time></trkpt><trkpt lat="10.2115094" lon="-83.89586"><ele>240.0</ele><time>2026-04-09T13:18:45.926Z</time></trkpt><trkpt lat="10.2115569" lon="-83.8956939"><ele>239.0</ele><time>2026-04-09T13:18:46.926Z</time></trkpt><trkpt lat="10.2116012" lon="-83.8955342"><ele>239.0</ele><time>2026-04-09T13:18:47.926Z</time></trkpt><trkpt lat="10.2116472" lon="-83.8953756"><ele>239.0</ele><time>2026-04-09T13:18:48.926Z</time></trkpt><trkpt lat="10.2116946" lon="-83.8952112"><ele>239.0</ele><time>2026-04-09T13:18:49.926Z</time></trkpt><trkpt lat="10.211739" lon="-83.8950474"><ele>238.0</ele><time>2026-04-09T13:18:50.926Z</time></trkpt><trkpt lat="10.2117877" lon="-83.8948821"><ele>237.0</ele><time>2026-04-09T13:18:51.926Z</time></trkpt><trkpt lat="10.2118328" lon="-83.8947195"><ele>236.0</ele><time>2026-04-09T13:18:52.926Z</time></trkpt><trkpt lat="10.2118768" lon="-83.8945566"><ele>236.0</ele><time>2026-04-09T13:18:53.926Z</time></trkpt><trkpt lat="10.2119234" lon="-83.8943952"><ele>236.0</ele><time>2026-04-09T13:18:54.926Z</time></trkpt><trkpt lat="10.2119711" lon="-83.8942297"><ele>236.0</ele><time>2026-04-09T13:18:55.926Z</time></trkpt><trkpt lat="10.2120233" lon="-83.8940647"><ele>235.66666666666669</ele><time>2026-04-09T13:18:56.926Z</time></trkpt><trkpt lat="10.212071" lon="-83.8939011"><ele>235.33333333333331</ele><time>2026-04-09T13:18:57.926Z</time></trkpt><trkpt lat="10.212119" lon="-83.8937318"><ele>235.0</ele><time>2026-04-09T13:18:58.926Z</time></trkpt><trkpt lat="10.2121652" lon="-83.893562"><ele>235.33333333333331</ele><time>2026-04-09T13:18:59.926Z</time></trkpt><trkpt lat="10.2122169" lon="-83.8933892"><ele>235.66666666666669</ele><time>2026-04-09T13:19:00.926Z</time></trkpt><trkpt lat="10.2122691" lon="-83.8932165"><ele>236.0</ele><time>2026-04-09T13:19:01.926Z</time></trkpt><trkpt lat="10.2123156" lon="-83.8930386"><ele>235.66666666666669</ele><time>2026-04-09T13:19:02.926Z</time></trkpt><trkpt lat="10.2123667" lon="-83.8928621"><ele>235.33333333333331</ele><time>2026-04-09T13:19:03.926Z</time></trkpt><trkpt lat="10.2124182" lon="-83.8926824"><ele>235.0</ele><time>2026-04-09T13:19:04.926Z</time></trkpt><trkpt lat="10.212468" lon="-83.8924992"><ele>234.66666666666666</ele><time>2026-04-09T13:19:05.927Z</time></trkpt><trkpt lat="10.2125172" lon="-83.8923174"><ele>234.33333333333331</ele><time>2026-04-09T13:19:06.926Z</time></trkpt><trkpt lat="10.2125628" lon="-83.8921322"><ele>234.0</ele><time>2026-04-09T13:19:07.926Z</time></trkpt><trkpt lat="10.2126043" lon="-83.891949"><ele>234.0</ele><time>2026-04-09T13:19:08.926Z</time></trkpt><trkpt lat="10.2126366" lon="-83.8917634"><ele>234.0</ele><time>2026-04-09T13:19:09.927Z</time></trkpt><trkpt lat="10.2126637" lon="-83.8915747"><ele>234.0</ele><time>2026-04-09T13:19:10.926Z</time></trkpt><trkpt lat="10.212683" lon="-83.8913858"><ele>234.0</ele><time>2026-04-09T13:19:11.926Z</time></trkpt><trkpt lat="10.2126943" lon="-83.8911963"><ele>234.0</ele><time>2026-04-09T13:19:12.926Z</time></trkpt><trkpt lat="10.2127039" lon="-83.8910031"><ele>234.0</ele><time>2026-04-09T13:19:13.926Z</time></trkpt><trkpt lat="10.2127062" lon="-83.8908087"><ele>233.66666666666669</ele><time>2026-04-09T13:19:14.926Z</time></trkpt><trkpt lat="10.2127049" lon="-83.8906158"><ele>233.33333333333334</ele><time>2026-04-09T13:19:15.927Z</time></trkpt><trkpt lat="10.2126919" lon="-83.8904254"><ele>233.0</ele><time>2026-04-09T13:19:16.926Z</time></trkpt><trkpt lat="10.2126719" lon="-83.8902305"><ele>231.33333333333334</ele><time>2026-04-09T13:19:17.926Z</time></trkpt><trkpt lat="10.2126436" lon="-83.8900398"><ele>229.66666666666669</ele><time>2026-04-09T13:19:18.927Z</time></trkpt><trkpt lat="10.2126156" lon="-83.8898448"><ele>228.0</ele><time>2026-04-09T13:19:19.926Z</time></trkpt><trkpt lat="10.2125834" lon="-83.8896501"><ele>228.0</ele><time>2026-04-09T13:19:20.926Z</time></trkpt><trkpt lat="10.2125467" lon="-83.8894488"><ele>228.0</ele><time>2026-04-09T13:19:21.926Z</time></trkpt><trkpt lat="10.2125036" lon="-83.8892481"><ele>228.0</ele><time>2026-04-09T13:19:22.926Z</time></trkpt><trkpt lat="10.2124514" lon="-83.8890464"><ele>227.33333333333331</ele><time>2026-04-09T13:19:23.926Z</time></trkpt><trkpt lat="10.212395" lon="-83.8888449"><ele>226.66666666666666</ele><time>2026-04-09T13:19:24.926Z</time></trkpt><trkpt lat="10.2123382" lon="-83.888648"><ele>226.0</ele><time>2026-04-09T13:19:25.926Z</time></trkpt><trkpt lat="10.2122778" lon="-83.8884488"><ele>226.0</ele><time>2026-04-09T13:19:26.926Z</time></trkpt><trkpt lat="10.2122123" lon="-83.8882565"><ele>226.0</ele><time>2026-04-09T13:19:27.926Z</time></trkpt><trkpt lat="10.2121495" lon="-83.8880585"><ele>226.0</ele><time>2026-04-09T13:19:28.926Z</time></trkpt><trkpt lat="10.2120903" lon="-83.8878585"><ele>226.0</ele><time>2026-04-09T13:19:29.926Z</time></trkpt><trkpt lat="10.2120306" lon="-83.8876563"><ele>226.0</ele><time>2026-04-09T13:19:30.926Z</time></trkpt><trkpt lat="10.2119719" lon="-83.8874558"><ele>226.0</ele><time>2026-04-09T13:19:31.926Z</time></trkpt><trkpt lat="10.2119132" lon="-83.8872499"><ele>226.0</ele><time>2026-04-09T13:19:32.926Z</time></trkpt><trkpt lat="10.2118415" lon="-83.8870406"><ele>226.0</ele><time>2026-04-09T13:19:33.927Z</time></trkpt><trkpt lat="10.2117732" lon="-83.8868328"><ele>226.0</ele><time>2026-04-09T13:19:34.926Z</time></trkpt><trkpt lat="10.2117105" lon="-83.8866229"><ele>226.0</ele><time>2026-04-09T13:19:35.926Z</time></trkpt><trkpt lat="10.2116509" lon="-83.8864129"><ele>226.0</ele><time>2026-04-09T13:19:36.926Z</time></trkpt><trkpt lat="10.2115941" lon="-83.886199"><ele>226.0</ele><time>2026-04-09T13:19:37.926Z</time></trkpt><trkpt lat="10.2115458" lon="-83.8859901"><ele>225.66666666666666</ele><time>2026-04-09T13:19:38.926Z</time></trkpt><trkpt lat="10.2115036" lon="-83.8857779"><ele>225.33333333333331</ele><time>2026-04-09T13:19:39.926Z</time></trkpt><trkpt lat="10.2114775" lon="-83.8855667"><ele>225.0</ele><time>2026-04-09T13:19:40.926Z</time></trkpt><trkpt lat="10.2114628" lon="-83.8853489"><ele>225.0</ele><time>2026-04-09T13:19:41.926Z</time></trkpt><trkpt lat="10.2114672" lon="-83.8851297"><ele>225.0</ele><time>2026-04-09T13:19:42.927Z</time></trkpt><trkpt lat="10.2114782" lon="-83.884911"><ele>225.0</ele><time>2026-04-09T13:19:43.926Z</time></trkpt><trkpt lat="10.2115015" lon="-83.8846954"><ele>225.0</ele><time>2026-04-09T13:19:44.926Z</time></trkpt><trkpt lat="10.21153" lon="-83.8844815"><ele>225.0</ele><time>2026-04-09T13:19:45.926Z</time></trkpt><trkpt lat="10.211569" lon="-83.8842669"><ele>225.0</ele><time>2026-04-09T13:19:46.926Z</time></trkpt><trkpt lat="10.2116181" lon="-83.8840569"><ele>224.66666666666669</ele><time>2026-04-09T13:19:47.926Z</time></trkpt><trkpt lat="10.2116796" lon="-83.8838499"><ele>224.33333333333334</ele><time>2026-04-09T13:19:48.926Z</time></trkpt><trkpt lat="10.2117485" lon="-83.8836438"><ele>224.0</ele><time>2026-04-09T13:19:49.926Z</time></trkpt><trkpt lat="10.2118168" lon="-83.8834359"><ele>224.66666666666669</ele><time>2026-04-09T13:19:50.926Z</time></trkpt><trkpt lat="10.211885" lon="-83.8832291"><ele>225.33333333333331</ele><time>2026-04-09T13:19:51.926Z</time></trkpt><trkpt lat="10.2119533" lon="-83.8830208"><ele>226.0</ele><time>2026-04-09T13:19:52.926Z</time></trkpt><trkpt lat="10.212016" lon="-83.8828154"><ele>226.0</ele><time>2026-04-09T13:19:53.926Z</time></trkpt><trkpt lat="10.2120822" lon="-83.8826082"><ele>226.0</ele><time>2026-04-09T13:19:54.926Z</time></trkpt><trkpt lat="10.2121548" lon="-83.8824044"><ele>226.0</ele><time>2026-04-09T13:19:55.926Z</time></trkpt><trkpt lat="10.2122241" lon="-83.8821987"><ele>226.33333333333331</ele><time>2026-04-09T13:19:56.926Z</time></trkpt><trkpt lat="10.2122965" lon="-83.8819916"><ele>226.66666666666669</ele><time>2026-04-09T13:19:57.926Z</time></trkpt><trkpt lat="10.2123654" lon="-83.8817853"><ele>227.0</ele><time>2026-04-09T13:19:58.926Z</time></trkpt><trkpt lat="10.2124339" lon="-83.8815776"><ele>225.66666666666669</ele><time>2026-04-09T13:19:59.926Z</time></trkpt><trkpt lat="10.2125007" lon="-83.8813678"><ele>224.33333333333331</ele><time>2026-04-09T13:20:00.926Z</time></trkpt><trkpt lat="10.2125719" lon="-83.881159"><ele>223.0</ele><time>2026-04-09T13:20:01.926Z</time></trkpt><trkpt lat="10.2126393" lon="-83.8809477"><ele>223.0</ele><time>2026-04-09T13:20:02.926Z</time></trkpt><trkpt lat="10.2127057" lon="-83.8807424"><ele>223.0</ele><time>2026-04-09T13:20:03.926Z</time></trkpt><trkpt lat="10.2127736" lon="-83.880536"><ele>223.0</ele><time>2026-04-09T13:20:04.926Z</time></trkpt><trkpt lat="10.2128399" lon="-83.8803263"><ele>223.0</ele><time>2026-04-09T13:20:05.926Z</time></trkpt><trkpt lat="10.212908" lon="-83.8801152"><ele>223.0</ele><time>2026-04-09T13:20:06.926Z</time></trkpt><trkpt lat="10.2129745" lon="-83.879907"><ele>223.0</ele><time>2026-04-09T13:20:07.926Z</time></trkpt><trkpt lat="10.2130372" lon="-83.8796979"><ele>222.66666666666666</ele><time>2026-04-09T13:20:08.926Z</time></trkpt><trkpt lat="10.2130994" lon="-83.8794915"><ele>222.33333333333331</ele><time>2026-04-09T13:20:09.926Z</time></trkpt><trkpt lat="10.2131622" lon="-83.8792946"><ele>222.0</ele><time>2026-04-09T13:20:10.926Z</time></trkpt><trkpt lat="10.2132239" lon="-83.879095"><ele>219.66666666666669</ele><time>2026-04-09T13:20:11.927Z</time></trkpt><trkpt lat="10.2132891" lon="-83.8789021"><ele>217.33333333333334</ele><time>2026-04-09T13:20:12.926Z</time></trkpt><trkpt lat="10.2133547" lon="-83.8787082"><ele>215.0</ele><time>2026-04-09T13:20:13.926Z</time></trkpt><trkpt lat="10.2134171" lon="-83.8785137"><ele>216.66666666666669</ele><time>2026-04-09T13:20:14.926Z</time></trkpt><trkpt lat="10.2134783" lon="-83.8783192"><ele>218.33333333333331</ele><time>2026-04-09T13:20:15.926Z</time></trkpt><trkpt lat="10.2135412" lon="-83.8781252"><ele>220.0</ele><time>2026-04-09T13:20:16.926Z</time></trkpt><trkpt lat="10.2136041" lon="-83.8779288"><ele>220.0</ele><time>2026-04-09T13:20:17.926Z</time></trkpt><trkpt lat="10.2136686" lon="-83.8777287"><ele>220.0</ele><time>2026-04-09T13:20:18.926Z</time></trkpt><trkpt lat="10.2137346" lon="-83.8775328"><ele>220.0</ele><time>2026-04-09T13:20:19.926Z</time></trkpt><trkpt lat="10.2138034" lon="-83.8773382"><ele>220.33333333333331</ele><time>2026-04-09T13:20:20.926Z</time></trkpt><trkpt lat="10.2138683" lon="-83.8771346"><ele>220.66666666666669</ele><time>2026-04-09T13:20:21.927Z</time></trkpt><trkpt lat="10.2139383" lon="-83.876936"><ele>221.0</ele><time>2026-04-09T13:20:22.926Z</time></trkpt><trkpt lat="10.2140048" lon="-83.8767336"><ele>216.66666666666669</ele><time>2026-04-09T13:20:23.926Z</time></trkpt><trkpt lat="10.2140698" lon="-83.8765342"><ele>212.33333333333331</ele><time>2026-04-09T13:20:24.926Z</time></trkpt><trkpt lat="10.2141354" lon="-83.8763335"><ele>208.0</ele><time>2026-04-09T13:20:25.926Z</time></trkpt><trkpt lat="10.2141971" lon="-83.8761327"><ele>208.33333333333331</ele><time>2026-04-09T13:20:26.926Z</time></trkpt><trkpt lat="10.2142639" lon="-83.8759281"><ele>208.66666666666669</ele><time>2026-04-09T13:20:27.926Z</time></trkpt><trkpt lat="10.2143317" lon="-83.8757264"><ele>209.0</ele><time>2026-04-09T13:20:28.926Z</time></trkpt><trkpt lat="10.2143937" lon="-83.875526"><ele>209.0</ele><time>2026-04-09T13:20:29.926Z</time></trkpt><trkpt lat="10.214457" lon="-83.8753373"><ele>209.0</ele><time>2026-04-09T13:20:30.926Z</time></trkpt><trkpt lat="10.2145212" lon="-83.8751578"><ele>209.0</ele><time>2026-04-09T13:20:31.926Z</time></trkpt><trkpt lat="10.2145801" lon="-83.8749841"><ele>208.33333333333334</ele><time>2026-04-09T13:20:32.926Z</time></trkpt><trkpt lat="10.2146318" lon="-83.874819"><ele>207.66666666666669</ele><time>2026-04-09T13:20:33.926Z</time></trkpt><trkpt lat="10.2146796" lon="-83.8746632"><ele>207.0</ele><time>2026-04-09T13:20:34.926Z</time></trkpt><trkpt lat="10.2147274" lon="-83.8745144"><ele>207.0</ele><time>2026-04-09T13:20:35.927Z</time></trkpt><trkpt lat="10.2147764" lon="-83.874364"><ele>207.0</ele><time>2026-04-09T13:20:36.926Z</time></trkpt><trkpt lat="10.2148256" lon="-83.8742113"><ele>207.0</ele><time>2026-04-09T13:20:37.926Z</time></trkpt><trkpt lat="10.2148762" lon="-83.8740553"><ele>205.0</ele><time>2026-04-09T13:20:38.926Z</time></trkpt><trkpt lat="10.2149289" lon="-83.8738996"><ele>203.0</ele><time>2026-04-09T13:20:39.926Z</time></trkpt><trkpt lat="10.2149785" lon="-83.873749"><ele>201.0</ele><time>2026-04-09T13:20:40.926Z</time></trkpt><trkpt lat="10.2150247" lon="-83.8736066"><ele>201.0</ele><time>2026-04-09T13:20:41.926Z</time></trkpt><trkpt lat="10.2150601" lon="-83.8734853"><ele>201.0</ele><time>2026-04-09T13:20:42.926Z</time></trkpt><trkpt lat="10.2150982" lon="-83.87337"><ele>201.0</ele><time>2026-04-09T13:20:43.926Z</time></trkpt><trkpt lat="10.2151316" lon="-83.8732659"><ele>201.0</ele><time>2026-04-09T13:20:44.926Z</time></trkpt><trkpt lat="10.2151642" lon="-83.8731695"><ele>201.66666666666666</ele><time>2026-04-09T13:20:45.926Z</time></trkpt><trkpt lat="10.2151924" lon="-83.8730871"><ele>202.33333333333331</ele><time>2026-04-09T13:20:46.926Z</time></trkpt><trkpt lat="10.2152189" lon="-83.8730072"><ele>203.0</ele><time>2026-04-09T13:20:48.927Z</time></trkpt><trkpt lat="10.2152427" lon="-83.8729328"><ele>203.66666666666666</ele><time>2026-04-09T13:20:52.926Z</time></trkpt><trkpt lat="10.2152684" lon="-83.8728533"><ele>204.33333333333331</ele><time>2026-04-09T13:20:55.926Z</time></trkpt><trkpt lat="10.2152951" lon="-83.8727686"><ele>205.0</ele><time>2026-04-09T13:20:58.926Z</time></trkpt><trkpt lat="10.2153171" lon="-83.8726832"><ele>205.2</ele><time>2026-04-09T13:21:00.926Z</time></trkpt><trkpt lat="10.2153524" lon="-83.8725704"><ele>205.4</ele><time>2026-04-09T13:21:02.926Z</time></trkpt><trkpt lat="10.2153803" lon="-83.8724499"><ele>205.60000000000002</ele><time>2026-04-09T13:21:04.926Z</time></trkpt><trkpt lat="10.2153932" lon="-83.8723731"><ele>205.8</ele><time>2026-04-09T13:21:05.926Z</time></trkpt><trkpt lat="10.2154098" lon="-83.8723008"><ele>206.0</ele><time>2026-04-09T13:21:06.926Z</time></trkpt><trkpt lat="10.2154321" lon="-83.8722225"><ele>206.0</ele><time>2026-04-09T13:21:07.926Z</time></trkpt><trkpt lat="10.2154605" lon="-83.872146"><ele>206.0</ele><time>2026-04-09T13:21:08.926Z</time></trkpt><trkpt lat="10.2154888" lon="-83.8720622"><ele>206.0</ele><time>2026-04-09T13:21:09.926Z</time></trkpt><trkpt lat="10.2155236" lon="-83.8719705"><ele>206.0</ele><time>2026-04-09T13:21:10.926Z</time></trkpt><trkpt lat="10.21556" lon="-83.8718786"><ele>206.0</ele><time>2026-04-09T13:21:11.926Z</time></trkpt><trkpt lat="10.2155987" lon="-83.871785"><ele>206.0</ele><time>2026-04-09T13:21:12.926Z</time></trkpt><trkpt lat="10.2156397" lon="-83.8716882"><ele>206.0</ele><time>2026-04-09T13:21:13.926Z</time></trkpt><trkpt lat="10.2156844" lon="-83.8715895"><ele>206.0</ele><time>2026-04-09T13:21:14.926Z</time></trkpt><trkpt lat="10.2157257" lon="-83.8714863"><ele>206.0</ele><time>2026-04-09T13:21:15.926Z</time></trkpt><trkpt lat="10.2157602" lon="-83.8713755"><ele>206.0</ele><time>2026-04-09T13:21:16.926Z</time></trkpt><trkpt lat="10.2157962" lon="-83.8712635"><ele>206.0</ele><time>2026-04-09T13:21:17.926Z</time></trkpt><trkpt lat="10.2158328" lon="-83.8711456"><ele>206.0</ele><time>2026-04-09T13:21:18.926Z</time></trkpt><trkpt lat="10.2158721" lon="-83.871023"><ele>206.0</ele><time>2026-04-09T13:21:19.926Z</time></trkpt><trkpt lat="10.2159146" lon="-83.8708952"><ele>206.0</ele><time>2026-04-09T13:21:20.926Z</time></trkpt><trkpt lat="10.2159573" lon="-83.8707628"><ele>206.75</ele><time>2026-04-09T13:21:21.926Z</time></trkpt><trkpt lat="10.215998" lon="-83.8706262"><ele>207.5</ele><time>2026-04-09T13:21:22.927Z</time></trkpt><trkpt lat="10.2160423" lon="-83.8704862"><ele>208.25</ele><time>2026-04-09T13:21:23.926Z</time></trkpt><trkpt lat="10.2160899" lon="-83.8703436"><ele>209.0</ele><time>2026-04-09T13:21:24.926Z</time></trkpt><trkpt lat="10.2161433" lon="-83.8701966"><ele>209.33333333333334</ele><time>2026-04-09T13:21:25.926Z</time></trkpt><trkpt lat="10.216193" lon="-83.870051"><ele>209.66666666666669</ele><time>2026-04-09T13:21:26.926Z</time></trkpt><trkpt lat="10.2162433" lon="-83.8699025"><ele>210.0</ele><time>2026-04-09T13:21:27.926Z</time></trkpt><trkpt lat="10.2162955" lon="-83.8697547"><ele>210.0</ele><time>2026-04-09T13:21:28.926Z</time></trkpt><trkpt lat="10.2163456" lon="-83.869603"><ele>210.0</ele><time>2026-04-09T13:21:29.926Z</time></trkpt><trkpt lat="10.2163948" lon="-83.8694507"><ele>210.0</ele><time>2026-04-09T13:21:30.926Z</time></trkpt><trkpt lat="10.2164451" lon="-83.8692981"><ele>210.66666666666669</ele><time>2026-04-09T13:21:31.926Z</time></trkpt><trkpt lat="10.2164978" lon="-83.8691455"><ele>211.33333333333334</ele><time>2026-04-09T13:21:32.926Z</time></trkpt><trkpt lat="10.2165481" lon="-83.8689922"><ele>212.0</ele><time>2026-04-09T13:21:33.926Z</time></trkpt><trkpt lat="10.2165996" lon="-83.8688399"><ele>212.0</ele><time>2026-04-09T13:21:34.926Z</time></trkpt><trkpt lat="10.2166501" lon="-83.8686824"><ele>212.0</ele><time>2026-04-09T13:21:35.927Z</time></trkpt><trkpt lat="10.216695" lon="-83.8685281"><ele>212.0</ele><time>2026-04-09T13:21:36.926Z</time></trkpt><trkpt lat="10.2167454" lon="-83.8683761"><ele>213.33333333333334</ele><time>2026-04-09T13:21:37.926Z</time></trkpt><trkpt lat="10.2167878" lon="-83.868223"><ele>214.66666666666669</ele><time>2026-04-09T13:21:38.926Z</time></trkpt><trkpt lat="10.2168291" lon="-83.8680623"><ele>216.0</ele><time>2026-04-09T13:21:39.926Z</time></trkpt><trkpt lat="10.2168645" lon="-83.8679028"><ele>216.0</ele><time>2026-04-09T13:21:40.926Z</time></trkpt><trkpt lat="10.2168974" lon="-83.8677421"><ele>216.0</ele><time>2026-04-09T13:21:41.927Z</time></trkpt><trkpt lat="10.2169211" lon="-83.8675805"><ele>216.0</ele><time>2026-04-09T13:21:42.926Z</time></trkpt><trkpt lat="10.2169426" lon="-83.8674183"><ele>216.66666666666669</ele><time>2026-04-09T13:21:43.926Z</time></trkpt><trkpt lat="10.2169575" lon="-83.86726"><ele>217.33333333333334</ele><time>2026-04-09T13:21:44.926Z</time></trkpt><trkpt lat="10.2169622" lon="-83.867097"><ele>218.0</ele><time>2026-04-09T13:21:45.926Z</time></trkpt><trkpt lat="10.2169599" lon="-83.8669315"><ele>218.66666666666669</ele><time>2026-04-09T13:21:46.926Z</time></trkpt><trkpt lat="10.2169516" lon="-83.8667683"><ele>219.33333333333331</ele><time>2026-04-09T13:21:47.926Z</time></trkpt><trkpt lat="10.2169377" lon="-83.8666022"><ele>220.0</ele><time>2026-04-09T13:21:48.927Z</time></trkpt><trkpt lat="10.2169169" lon="-83.8664371"><ele>220.0</ele><time>2026-04-09T13:21:49.926Z</time></trkpt><trkpt lat="10.2168878" lon="-83.8662726"><ele>220.0</ele><time>2026-04-09T13:21:50.926Z</time></trkpt><trkpt lat="10.2168564" lon="-83.8661003"><ele>220.0</ele><time>2026-04-09T13:21:51.926Z</time></trkpt><trkpt lat="10.2168166" lon="-83.8659354"><ele>221.33333333333331</ele><time>2026-04-09T13:21:52.926Z</time></trkpt><trkpt lat="10.2167623" lon="-83.8657698"><ele>222.66666666666669</ele><time>2026-04-09T13:21:53.926Z</time></trkpt><trkpt lat="10.216703" lon="-83.8656084"><ele>224.0</ele><time>2026-04-09T13:21:54.926Z</time></trkpt><trkpt lat="10.2166397" lon="-83.8654486"><ele>224.0</ele><time>2026-04-09T13:21:55.927Z</time></trkpt><trkpt lat="10.2165718" lon="-83.8652903"><ele>224.0</ele><time>2026-04-09T13:21:56.927Z</time></trkpt><trkpt lat="10.2164945" lon="-83.8651392"><ele>224.0</ele><time>2026-04-09T13:21:57.926Z</time></trkpt><trkpt lat="10.2164113" lon="-83.8649887"><ele>225.0</ele><time>2026-04-09T13:21:58.926Z</time></trkpt><trkpt lat="10.2163212" lon="-83.8648412"><ele>226.0</ele><time>2026-04-09T13:21:59.926Z</time></trkpt><trkpt lat="10.216225" lon="-83.8646985"><ele>227.0</ele><time>2026-04-09T13:22:00.926Z</time></trkpt><trkpt lat="10.2161206" lon="-83.8645627"><ele>227.0</ele><time>2026-04-09T13:22:01.926Z</time></trkpt><trkpt lat="10.2160167" lon="-83.8644289"><ele>227.0</ele><time>2026-04-09T13:22:02.926Z</time></trkpt><trkpt lat="10.2159108" lon="-83.864298"><ele>227.0</ele><time>2026-04-09T13:22:03.926Z</time></trkpt><trkpt lat="10.2158001" lon="-83.8641706"><ele>228.0</ele><time>2026-04-09T13:22:04.926Z</time></trkpt><trkpt lat="10.2156883" lon="-83.8640454"><ele>229.0</ele><time>2026-04-09T13:22:05.926Z</time></trkpt><trkpt lat="10.2155729" lon="-83.8639251"><ele>230.0</ele><time>2026-04-09T13:22:06.926Z</time></trkpt><trkpt lat="10.2154485" lon="-83.8638002"><ele>232.66666666666669</ele><time>2026-04-09T13:22:07.926Z</time></trkpt><trkpt lat="10.2153283" lon="-83.8636782"><ele>235.33333333333331</ele><time>2026-04-09T13:22:08.926Z</time></trkpt><trkpt lat="10.2152059" lon="-83.8635519"><ele>238.0</ele><time>2026-04-09T13:22:09.926Z</time></trkpt><trkpt lat="10.2150841" lon="-83.8634295"><ele>238.0</ele><time>2026-04-09T13:22:10.926Z</time></trkpt><trkpt lat="10.2149609" lon="-83.8633063"><ele>238.0</ele><time>2026-04-09T13:22:11.926Z</time></trkpt><trkpt lat="10.2148336" lon="-83.8631845"><ele>238.0</ele><time>2026-04-09T13:22:12.926Z</time></trkpt><trkpt lat="10.2147085" lon="-83.8630559"><ele>238.33333333333331</ele><time>2026-04-09T13:22:13.927Z</time></trkpt><trkpt lat="10.2145847" lon="-83.8629284"><ele>238.66666666666669</ele><time>2026-04-09T13:22:14.926Z</time></trkpt><trkpt lat="10.2144624" lon="-83.8628"><ele>239.0</ele><time>2026-04-09T13:22:15.926Z</time></trkpt><trkpt lat="10.2143387" lon="-83.8626711"><ele>239.0</ele><time>2026-04-09T13:22:16.926Z</time></trkpt><trkpt lat="10.2142128" lon="-83.862543"><ele>239.0</ele><time>2026-04-09T13:22:17.926Z</time></trkpt><trkpt lat="10.2140848" lon="-83.8624137"><ele>239.0</ele><time>2026-04-09T13:22:18.926Z</time></trkpt><trkpt lat="10.2139579" lon="-83.862285"><ele>241.0</ele><time>2026-04-09T13:22:19.926Z</time></trkpt><trkpt lat="10.213839" lon="-83.8621558"><ele>243.0</ele><time>2026-04-09T13:22:20.926Z</time></trkpt><trkpt lat="10.213725" lon="-83.8620238"><ele>245.0</ele><time>2026-04-09T13:22:21.926Z</time></trkpt><trkpt lat="10.2136087" lon="-83.8618847"><ele>246.0</ele><time>2026-04-09T13:22:22.926Z</time></trkpt><trkpt lat="10.2135012" lon="-83.8617452"><ele>247.0</ele><time>2026-04-09T13:22:23.926Z</time></trkpt><trkpt lat="10.213396" lon="-83.8615976"><ele>248.0</ele><time>2026-04-09T13:22:24.926Z</time></trkpt><trkpt lat="10.2132989" lon="-83.8614437"><ele>248.0</ele><time>2026-04-09T13:22:25.927Z</time></trkpt><trkpt lat="10.2132095" lon="-83.8612822"><ele>248.0</ele><time>2026-04-09T13:22:26.926Z</time></trkpt><trkpt lat="10.2131305" lon="-83.8611191"><ele>248.0</ele><time>2026-04-09T13:22:27.926Z</time></trkpt><trkpt lat="10.2130549" lon="-83.8609634"><ele>247.33333333333334</ele><time>2026-04-09T13:22:28.926Z</time></trkpt><trkpt lat="10.2129849" lon="-83.8607887"><ele>246.66666666666669</ele><time>2026-04-09T13:22:29.926Z</time></trkpt><trkpt lat="10.2129194" lon="-83.8606106"><ele>246.0</ele><time>2026-04-09T13:22:30.926Z</time></trkpt><trkpt lat="10.2128644" lon="-83.8604249"><ele>246.0</ele><time>2026-04-09T13:22:31.926Z</time></trkpt><trkpt lat="10.2128219" lon="-83.860244"><ele>246.0</ele><time>2026-04-09T13:22:32.926Z</time></trkpt><trkpt lat="10.2127899" lon="-83.8600582"><ele>246.0</ele><time>2026-04-09T13:22:33.926Z</time></trkpt><trkpt lat="10.2127685" lon="-83.8598673"><ele>245.66666666666669</ele><time>2026-04-09T13:22:34.926Z</time></trkpt><trkpt lat="10.2127589" lon="-83.8596754"><ele>245.33333333333334</ele><time>2026-04-09T13:22:35.926Z</time></trkpt><trkpt lat="10.2127534" lon="-83.8594857"><ele>245.0</ele><time>2026-04-09T13:22:36.926Z</time></trkpt><trkpt lat="10.2127554" lon="-83.8592894"><ele>244.33333333333334</ele><time>2026-04-09T13:22:37.926Z</time></trkpt><trkpt lat="10.2127556" lon="-83.859092"><ele>243.66666666666669</ele><time>2026-04-09T13:22:38.926Z</time></trkpt><trkpt lat="10.2127552" lon="-83.8588962"><ele>243.0</ele><time>2026-04-09T13:22:39.926Z</time></trkpt><trkpt lat="10.212756" lon="-83.8586983"><ele>243.0</ele><time>2026-04-09T13:22:40.926Z</time></trkpt><trkpt lat="10.2127573" lon="-83.8585006"><ele>243.0</ele><time>2026-04-09T13:22:41.926Z</time></trkpt><trkpt lat="10.2127566" lon="-83.8583046"><ele>243.0</ele><time>2026-04-09T13:22:42.926Z</time></trkpt><trkpt lat="10.2127551" lon="-83.8581076"><ele>243.0</ele><time>2026-04-09T13:22:43.926Z</time></trkpt><trkpt lat="10.2127555" lon="-83.8579092"><ele>243.0</ele><time>2026-04-09T13:22:44.926Z</time></trkpt><trkpt lat="10.212753" lon="-83.8577122"><ele>243.0</ele><time>2026-04-09T13:22:45.926Z</time></trkpt><trkpt lat="10.2127506" lon="-83.857513"><ele>242.33333333333331</ele><time>2026-04-09T13:22:46.926Z</time></trkpt><trkpt lat="10.2127518" lon="-83.8573162"><ele>241.66666666666666</ele><time>2026-04-09T13:22:47.926Z</time></trkpt><trkpt lat="10.2127544" lon="-83.8571184"><ele>241.0</ele><time>2026-04-09T13:22:48.926Z</time></trkpt><trkpt lat="10.2127505" lon="-83.8569207"><ele>241.0</ele><time>2026-04-09T13:22:49.926Z</time></trkpt><trkpt lat="10.2127497" lon="-83.8567243"><ele>241.0</ele><time>2026-04-09T13:22:50.926Z</time></trkpt><trkpt lat="10.212747" lon="-83.8565233"><ele>241.0</ele><time>2026-04-09T13:22:51.927Z</time></trkpt><trkpt lat="10.2127408" lon="-83.8563233"><ele>241.0</ele><time>2026-04-09T13:22:52.926Z</time></trkpt><trkpt lat="10.212738" lon="-83.8561232"><ele>241.0</ele><time>2026-04-09T13:22:53.926Z</time></trkpt><trkpt lat="10.2127399" lon="-83.85593"><ele>241.0</ele><time>2026-04-09T13:22:54.926Z</time></trkpt><trkpt lat="10.2127411" lon="-83.8557337"><ele>241.0</ele><time>2026-04-09T13:22:55.927Z</time></trkpt><trkpt lat="10.2127378" lon="-83.8555381"><ele>241.0</ele><time>2026-04-09T13:22:56.926Z</time></trkpt><trkpt lat="10.2127351" lon="-83.8553387"><ele>241.0</ele><time>2026-04-09T13:22:57.926Z</time></trkpt><trkpt lat="10.2127338" lon="-83.8551382"><ele>241.33333333333331</ele><time>2026-04-09T13:22:58.926Z</time></trkpt><trkpt lat="10.2127269" lon="-83.85494"><ele>241.66666666666669</ele><time>2026-04-09T13:22:59.926Z</time></trkpt><trkpt lat="10.2127249" lon="-83.8547396"><ele>242.0</ele><time>2026-04-09T13:23:00.926Z</time></trkpt><trkpt lat="10.2127189" lon="-83.8545363"><ele>242.0</ele><time>2026-04-09T13:23:01.926Z</time></trkpt><trkpt lat="10.2127187" lon="-83.8543305"><ele>242.0</ele><time>2026-04-09T13:23:02.926Z</time></trkpt><trkpt lat="10.2127185" lon="-83.8541275"><ele>242.0</ele><time>2026-04-09T13:23:03.926Z</time></trkpt><trkpt lat="10.2127223" lon="-83.8539186"><ele>241.0</ele><time>2026-04-09T13:23:04.926Z</time></trkpt><trkpt lat="10.2127222" lon="-83.8537126"><ele>240.0</ele><time>2026-04-09T13:23:05.927Z</time></trkpt><trkpt lat="10.2127202" lon="-83.8535062"><ele>239.0</ele><time>2026-04-09T13:23:06.926Z</time></trkpt><trkpt lat="10.2127153" lon="-83.8533006"><ele>238.33333333333334</ele><time>2026-04-09T13:23:07.926Z</time></trkpt><trkpt lat="10.2127107" lon="-83.8530957"><ele>237.66666666666669</ele><time>2026-04-09T13:23:08.926Z</time></trkpt><trkpt lat="10.212708" lon="-83.8528947"><ele>237.0</ele><time>2026-04-09T13:23:09.926Z</time></trkpt><trkpt lat="10.2127066" lon="-83.8526928"><ele>236.33333333333331</ele><time>2026-04-09T13:23:10.926Z</time></trkpt><trkpt lat="10.21271" lon="-83.8524881"><ele>235.66666666666666</ele><time>2026-04-09T13:23:11.926Z</time></trkpt><trkpt lat="10.2127112" lon="-83.8522836"><ele>235.0</ele><time>2026-04-09T13:23:12.926Z</time></trkpt><trkpt lat="10.21271" lon="-83.8520806"><ele>235.0</ele><time>2026-04-09T13:23:13.926Z</time></trkpt><trkpt lat="10.2127067" lon="-83.8518772"><ele>235.0</ele><time>2026-04-09T13:23:14.926Z</time></trkpt><trkpt lat="10.2127037" lon="-83.8516717"><ele>235.0</ele><time>2026-04-09T13:23:15.926Z</time></trkpt><trkpt lat="10.2126973" lon="-83.8514702"><ele>234.33333333333331</ele><time>2026-04-09T13:23:16.926Z</time></trkpt><trkpt lat="10.2126922" lon="-83.8512692"><ele>233.66666666666669</ele><time>2026-04-09T13:23:17.926Z</time></trkpt><trkpt lat="10.2126877" lon="-83.8510657"><ele>233.0</ele><time>2026-04-09T13:23:18.926Z</time></trkpt><trkpt lat="10.212687" lon="-83.8508643"><ele>232.66666666666669</ele><time>2026-04-09T13:23:19.926Z</time></trkpt><trkpt lat="10.2126876" lon="-83.8506628"><ele>232.33333333333331</ele><time>2026-04-09T13:23:20.926Z</time></trkpt><trkpt lat="10.2126889" lon="-83.8504628"><ele>232.0</ele><time>2026-04-09T13:23:21.926Z</time></trkpt><trkpt lat="10.2126878" lon="-83.8502652"><ele>233.0</ele><time>2026-04-09T13:23:22.926Z</time></trkpt><trkpt lat="10.2126862" lon="-83.8500685"><ele>234.0</ele><time>2026-04-09T13:23:23.926Z</time></trkpt><trkpt lat="10.2126808" lon="-83.8498721"><ele>235.0</ele><time>2026-04-09T13:23:24.926Z</time></trkpt><trkpt lat="10.212674" lon="-83.8496731"><ele>235.0</ele><time>2026-04-09T13:23:25.926Z</time></trkpt><trkpt lat="10.2126716" lon="-83.849478"><ele>235.0</ele><time>2026-04-09T13:23:26.926Z</time></trkpt><trkpt lat="10.2126711" lon="-83.8492796"><ele>235.0</ele><time>2026-04-09T13:23:27.926Z</time></trkpt><trkpt lat="10.2126748" lon="-83.8490871"><ele>235.66666666666666</ele><time>2026-04-09T13:23:28.926Z</time></trkpt><trkpt lat="10.2126753" lon="-83.8488927"><ele>236.33333333333331</ele><time>2026-04-09T13:23:29.926Z</time></trkpt><trkpt lat="10.2126747" lon="-83.8487016"><ele>237.0</ele><time>2026-04-09T13:23:30.926Z</time></trkpt><trkpt lat="10.2126729" lon="-83.8485082"><ele>237.66666666666669</ele><time>2026-04-09T13:23:31.926Z</time></trkpt><trkpt lat="10.2126653" lon="-83.8483164"><ele>238.33333333333334</ele><time>2026-04-09T13:23:32.926Z</time></trkpt><trkpt lat="10.2126575" lon="-83.8481256"><ele>239.0</ele><time>2026-04-09T13:23:33.926Z</time></trkpt><trkpt lat="10.2126548" lon="-83.8479354"><ele>239.0</ele><time>2026-04-09T13:23:34.926Z</time></trkpt><trkpt lat="10.2126553" lon="-83.8477505"><ele>239.0</ele><time>2026-04-09T13:23:35.926Z</time></trkpt><trkpt lat="10.2126518" lon="-83.8475608"><ele>239.0</ele><time>2026-04-09T13:23:36.926Z</time></trkpt><trkpt lat="10.2126519" lon="-83.8473722"><ele>239.66666666666669</ele><time>2026-04-09T13:23:37.926Z</time></trkpt><trkpt lat="10.2126527" lon="-83.847186"><ele>240.33333333333331</ele><time>2026-04-09T13:23:38.926Z</time></trkpt><trkpt lat="10.2126516" lon="-83.8469981"><ele>241.0</ele><time>2026-04-09T13:23:39.926Z</time></trkpt><trkpt lat="10.2126483" lon="-83.8468112"><ele>242.0</ele><time>2026-04-09T13:23:40.926Z</time></trkpt><trkpt lat="10.2126436" lon="-83.8466278"><ele>243.0</ele><time>2026-04-09T13:23:41.926Z</time></trkpt><trkpt lat="10.2126354" lon="-83.8464421"><ele>244.0</ele><time>2026-04-09T13:23:42.926Z</time></trkpt><trkpt lat="10.2126348" lon="-83.8462516"><ele>244.0</ele><time>2026-04-09T13:23:43.926Z</time></trkpt><trkpt lat="10.2126331" lon="-83.8460657"><ele>244.0</ele><time>2026-04-09T13:23:44.926Z</time></trkpt><trkpt lat="10.2126362" lon="-83.8458744"><ele>244.0</ele><time>2026-04-09T13:23:45.926Z</time></trkpt><trkpt lat="10.2126365" lon="-83.8456822"><ele>244.66666666666666</ele><time>2026-04-09T13:23:46.926Z</time></trkpt><trkpt lat="10.2126345" lon="-83.8454889"><ele>245.33333333333331</ele><time>2026-04-09T13:23:47.926Z</time></trkpt><trkpt lat="10.2126315" lon="-83.8452991"><ele>246.0</ele><time>2026-04-09T13:23:48.926Z</time></trkpt><trkpt lat="10.2126274" lon="-83.8451048"><ele>246.66666666666669</ele><time>2026-04-09T13:23:49.926Z</time></trkpt><trkpt lat="10.2126261" lon="-83.8449106"><ele>247.33333333333334</ele><time>2026-04-09T13:23:50.927Z</time></trkpt><trkpt lat="10.2126257" lon="-83.8447152"><ele>248.0</ele><time>2026-04-09T13:23:51.926Z</time></trkpt><trkpt lat="10.2126239" lon="-83.8445157"><ele>248.0</ele><time>2026-04-09T13:23:52.926Z</time></trkpt><trkpt lat="10.2126232" lon="-83.8443154"><ele>248.0</ele><time>2026-04-09T13:23:53.926Z</time></trkpt><trkpt lat="10.2126201" lon="-83.8441167"><ele>248.0</ele><time>2026-04-09T13:23:54.926Z</time></trkpt><trkpt lat="10.2126171" lon="-83.8439163"><ele>248.66666666666669</ele><time>2026-04-09T13:23:55.926Z</time></trkpt><trkpt lat="10.2126165" lon="-83.843716"><ele>249.33333333333331</ele><time>2026-04-09T13:23:56.926Z</time></trkpt><trkpt lat="10.2126125" lon="-83.843518"><ele>250.0</ele><time>2026-04-09T13:23:57.926Z</time></trkpt><trkpt lat="10.2126086" lon="-83.8433107"><ele>250.0</ele><time>2026-04-09T13:23:58.926Z</time></trkpt><trkpt lat="10.2126055" lon="-83.8431115"><ele>250.0</ele><time>2026-04-09T13:23:59.926Z</time></trkpt><trkpt lat="10.2126007" lon="-83.8429139"><ele>250.0</ele><time>2026-04-09T13:24:00.926Z</time></trkpt><trkpt lat="10.2125975" lon="-83.8427083"><ele>250.33333333333331</ele><time>2026-04-09T13:24:01.926Z</time></trkpt><trkpt lat="10.2125943" lon="-83.842503"><ele>250.66666666666669</ele><time>2026-04-09T13:24:02.926Z</time></trkpt><trkpt lat="10.2125937" lon="-83.8423011"><ele>251.0</ele><time>2026-04-09T13:24:03.926Z</time></trkpt><trkpt lat="10.2125934" lon="-83.8420991"><ele>251.0</ele><time>2026-04-09T13:24:04.926Z</time></trkpt><trkpt lat="10.2125915" lon="-83.8419008"><ele>251.0</ele><time>2026-04-09T13:24:05.926Z</time></trkpt><trkpt lat="10.2125881" lon="-83.8416955"><ele>251.0</ele><time>2026-04-09T13:24:06.926Z</time></trkpt><trkpt lat="10.2125818" lon="-83.8414917"><ele>251.0</ele><time>2026-04-09T13:24:07.926Z</time></trkpt><trkpt lat="10.2125756" lon="-83.8412904"><ele>251.0</ele><time>2026-04-09T13:24:08.926Z</time></trkpt><trkpt lat="10.2125698" lon="-83.8410875"><ele>251.0</ele><time>2026-04-09T13:24:09.926Z</time></trkpt><trkpt lat="10.212563" lon="-83.8408844"><ele>250.33333333333334</ele><time>2026-04-09T13:24:10.926Z</time></trkpt><trkpt lat="10.2125635" lon="-83.8406825"><ele>249.66666666666669</ele><time>2026-04-09T13:24:11.926Z</time></trkpt><trkpt lat="10.2125651" lon="-83.8404813"><ele>249.0</ele><time>2026-04-09T13:24:12.926Z</time></trkpt><trkpt lat="10.2125647" lon="-83.8402757"><ele>251.0</ele><time>2026-04-09T13:24:13.927Z</time></trkpt><trkpt lat="10.2125613" lon="-83.8400724"><ele>253.0</ele><time>2026-04-09T13:24:14.926Z</time></trkpt><trkpt lat="10.2125622" lon="-83.8398689"><ele>255.0</ele><time>2026-04-09T13:24:15.926Z</time></trkpt><trkpt lat="10.2125588" lon="-83.8396673"><ele>255.0</ele><time>2026-04-09T13:24:16.926Z</time></trkpt><trkpt lat="10.2125575" lon="-83.8394621"><ele>255.0</ele><time>2026-04-09T13:24:17.926Z</time></trkpt><trkpt lat="10.2125514" lon="-83.8392582"><ele>255.0</ele><time>2026-04-09T13:24:18.926Z</time></trkpt><trkpt lat="10.2125373" lon="-83.8390577"><ele>255.0</ele><time>2026-04-09T13:24:19.926Z</time></trkpt><trkpt lat="10.2125089" lon="-83.8388562"><ele>255.0</ele><time>2026-04-09T13:24:20.926Z</time></trkpt><trkpt lat="10.2124675" lon="-83.8386591"><ele>255.0</ele><time>2026-04-09T13:24:21.926Z</time></trkpt><trkpt lat="10.2124141" lon="-83.8384678"><ele>254.66666666666669</ele><time>2026-04-09T13:24:22.926Z</time></trkpt><trkpt lat="10.2123592" lon="-83.8382773"><ele>254.33333333333334</ele><time>2026-04-09T13:24:23.926Z</time></trkpt><trkpt lat="10.2122931" lon="-83.8380929"><ele>254.0</ele><time>2026-04-09T13:24:24.926Z</time></trkpt><trkpt lat="10.2122127" lon="-83.8379124"><ele>255.66666666666669</ele><time>2026-04-09T13:24:25.926Z</time></trkpt><trkpt lat="10.2121237" lon="-83.8377366"><ele>257.3333333333333</ele><time>2026-04-09T13:24:26.926Z</time></trkpt><trkpt lat="10.2120279" lon="-83.8375641"><ele>259.0</ele><time>2026-04-09T13:24:27.926Z</time></trkpt><trkpt lat="10.2119255" lon="-83.8373991"><ele>259.0</ele><time>2026-04-09T13:24:28.926Z</time></trkpt><trkpt lat="10.2118145" lon="-83.8372414"><ele>259.0</ele><time>2026-04-09T13:24:29.926Z</time></trkpt><trkpt lat="10.2116957" lon="-83.8370876"><ele>259.0</ele><time>2026-04-09T13:24:30.926Z</time></trkpt><trkpt lat="10.2115778" lon="-83.8369355"><ele>259.3333333333333</ele><time>2026-04-09T13:24:31.926Z</time></trkpt><trkpt lat="10.2114544" lon="-83.8367891"><ele>259.6666666666667</ele><time>2026-04-09T13:24:32.926Z</time></trkpt><trkpt lat="10.2113312" lon="-83.8366439"><ele>260.0</ele><time>2026-04-09T13:24:33.926Z</time></trkpt><trkpt lat="10.2112115" lon="-83.8364995"><ele>260.0</ele><time>2026-04-09T13:24:34.926Z</time></trkpt><trkpt lat="10.2110901" lon="-83.8363523"><ele>260.0</ele><time>2026-04-09T13:24:35.926Z</time></trkpt><trkpt lat="10.2109738" lon="-83.8362041"><ele>260.0</ele><time>2026-04-09T13:24:36.926Z</time></trkpt><trkpt lat="10.2108523" lon="-83.8360601"><ele>260.0</ele><time>2026-04-09T13:24:37.926Z</time></trkpt><trkpt lat="10.210733" lon="-83.8359142"><ele>260.0</ele><time>2026-04-09T13:24:38.926Z</time></trkpt><trkpt lat="10.2106109" lon="-83.8357694"><ele>260.0</ele><time>2026-04-09T13:24:39.926Z</time></trkpt><trkpt lat="10.210491" lon="-83.8356286"><ele>260.0</ele><time>2026-04-09T13:24:40.926Z</time></trkpt><trkpt lat="10.21037" lon="-83.8354847"><ele>260.0</ele><time>2026-04-09T13:24:41.926Z</time></trkpt><trkpt lat="10.2102534" lon="-83.8353354"><ele>260.0</ele><time>2026-04-09T13:24:42.926Z</time></trkpt><trkpt lat="10.2101333" lon="-83.8351899"><ele>259.6666666666667</ele><time>2026-04-09T13:24:43.926Z</time></trkpt><trkpt lat="10.2100125" lon="-83.8350433"><ele>259.3333333333333</ele><time>2026-04-09T13:24:44.926Z</time></trkpt><trkpt lat="10.2098907" lon="-83.8348974"><ele>259.0</ele><time>2026-04-09T13:24:45.926Z</time></trkpt><trkpt lat="10.2097675" lon="-83.8347531"><ele>259.0</ele><time>2026-04-09T13:24:46.926Z</time></trkpt><trkpt lat="10.2096486" lon="-83.8346057"><ele>259.0</ele><time>2026-04-09T13:24:47.926Z</time></trkpt><trkpt lat="10.2095321" lon="-83.8344567"><ele>259.0</ele><time>2026-04-09T13:24:48.926Z</time></trkpt><trkpt lat="10.2094181" lon="-83.8343062"><ele>258.66666666666663</ele><time>2026-04-09T13:24:49.926Z</time></trkpt><trkpt lat="10.2093127" lon="-83.8341562"><ele>258.3333333333333</ele><time>2026-04-09T13:24:50.926Z</time></trkpt><trkpt lat="10.2092069" lon="-83.8339985"><ele>258.0</ele><time>2026-04-09T13:24:51.927Z</time></trkpt><trkpt lat="10.2091083" lon="-83.8338379"><ele>258.0</ele><time>2026-04-09T13:24:52.926Z</time></trkpt><trkpt lat="10.209012" lon="-83.8336714"><ele>258.0</ele><time>2026-04-09T13:24:53.926Z</time></trkpt><trkpt lat="10.2089229" lon="-83.8335068"><ele>258.0</ele><time>2026-04-09T13:24:54.926Z</time></trkpt><trkpt lat="10.2088379" lon="-83.8333371"><ele>259.0</ele><time>2026-04-09T13:24:55.926Z</time></trkpt><trkpt lat="10.2087584" lon="-83.8331685"><ele>260.0</ele><time>2026-04-09T13:24:56.926Z</time></trkpt><trkpt lat="10.208679" lon="-83.8329952"><ele>261.0</ele><time>2026-04-09T13:24:57.927Z</time></trkpt><trkpt lat="10.2086029" lon="-83.8328212"><ele>261.0</ele><time>2026-04-09T13:24:58.926Z</time></trkpt><trkpt lat="10.2085319" lon="-83.8326482"><ele>261.0</ele><time>2026-04-09T13:24:59.926Z</time></trkpt><trkpt lat="10.2084557" lon="-83.8324763"><ele>261.0</ele><time>2026-04-09T13:25:00.927Z</time></trkpt><trkpt lat="10.2083828" lon="-83.8322971"><ele>262.0</ele><time>2026-04-09T13:25:01.926Z</time></trkpt><trkpt lat="10.2083072" lon="-83.8321257"><ele>263.0</ele><time>2026-04-09T13:25:02.926Z</time></trkpt><trkpt lat="10.2082332" lon="-83.8319548"><ele>264.0</ele><time>2026-04-09T13:25:03.926Z</time></trkpt><trkpt lat="10.2081608" lon="-83.8317837"><ele>270.3333333333333</ele><time>2026-04-09T13:25:04.926Z</time></trkpt><trkpt lat="10.2080867" lon="-83.8316072"><ele>276.66666666666663</ele><time>2026-04-09T13:25:05.926Z</time></trkpt><trkpt lat="10.2080183" lon="-83.8314296"><ele>283.0</ele><time>2026-04-09T13:25:06.926Z</time></trkpt><trkpt lat="10.2079476" lon="-83.8312527"><ele>283.0</ele><time>2026-04-09T13:25:07.926Z</time></trkpt><trkpt lat="10.2078815" lon="-83.831077"><ele>283.0</ele><time>2026-04-09T13:25:08.926Z</time></trkpt><trkpt lat="10.2078112" lon="-83.8308992"><ele>283.0</ele><time>2026-04-09T13:25:09.926Z</time></trkpt><trkpt lat="10.2077401" lon="-83.830724"><ele>280.3333333333333</ele><time>2026-04-09T13:25:10.926Z</time></trkpt><trkpt lat="10.2076672" lon="-83.8305519"><ele>277.6666666666667</ele><time>2026-04-09T13:25:11.927Z</time></trkpt><trkpt lat="10.2075943" lon="-83.8303757"><ele>275.0</ele><time>2026-04-09T13:25:12.926Z</time></trkpt><trkpt lat="10.2075205" lon="-83.8302035"><ele>273.6666666666667</ele><time>2026-04-09T13:25:13.927Z</time></trkpt><trkpt lat="10.2074448" lon="-83.8300323"><ele>272.3333333333333</ele><time>2026-04-09T13:25:14.926Z</time></trkpt><trkpt lat="10.2073738" lon="-83.8298617"><ele>271.0</ele><time>2026-04-09T13:25:15.926Z</time></trkpt><trkpt lat="10.2073012" lon="-83.8296917"><ele>274.0</ele><time>2026-04-09T13:25:16.926Z</time></trkpt><trkpt lat="10.207228" lon="-83.8295241"><ele>277.0</ele><time>2026-04-09T13:25:17.926Z</time></trkpt><trkpt lat="10.2071572" lon="-83.8293593"><ele>280.0</ele><time>2026-04-09T13:25:18.926Z</time></trkpt><trkpt lat="10.2070899" lon="-83.8291875"><ele>281.0</ele><time>2026-04-09T13:25:19.926Z</time></trkpt><trkpt lat="10.2070243" lon="-83.8290209"><ele>282.0</ele><time>2026-04-09T13:25:20.926Z</time></trkpt><trkpt lat="10.2069621" lon="-83.8288526"><ele>283.0</ele><time>2026-04-09T13:25:21.926Z</time></trkpt><trkpt lat="10.2069011" lon="-83.8286842"><ele>283.0</ele><time>2026-04-09T13:25:22.926Z</time></trkpt><trkpt lat="10.2068402" lon="-83.8285145"><ele>283.0</ele><time>2026-04-09T13:25:23.926Z</time></trkpt><trkpt lat="10.2067828" lon="-83.8283443"><ele>283.0</ele><time>2026-04-09T13:25:24.926Z</time></trkpt><trkpt lat="10.2067273" lon="-83.8281729"><ele>285.3333333333333</ele><time>2026-04-09T13:25:25.926Z</time></trkpt><trkpt lat="10.2066806" lon="-83.8279942"><ele>287.6666666666667</ele><time>2026-04-09T13:25:26.926Z</time></trkpt><trkpt lat="10.2066359" lon="-83.8278164"><ele>290.0</ele><time>2026-04-09T13:25:27.926Z</time></trkpt><trkpt lat="10.2065946" lon="-83.8276319"><ele>290.0</ele><time>2026-04-09T13:25:28.926Z</time></trkpt><trkpt lat="10.2065583" lon="-83.8274504"><ele>290.0</ele><time>2026-04-09T13:25:29.926Z</time></trkpt><trkpt lat="10.2065255" lon="-83.8272662"><ele>290.0</ele><time>2026-04-09T13:25:30.926Z</time></trkpt><trkpt lat="10.2064958" lon="-83.8270806"><ele>301.6666666666667</ele><time>2026-04-09T13:25:31.926Z</time></trkpt><trkpt lat="10.2064665" lon="-83.8268959"><ele>313.3333333333333</ele><time>2026-04-09T13:25:32.926Z</time></trkpt><trkpt lat="10.2064406" lon="-83.8267071"><ele>325.0</ele><time>2026-04-09T13:25:33.926Z</time></trkpt><trkpt lat="10.2064228" lon="-83.8265189"><ele>325.0</ele><time>2026-04-09T13:25:34.926Z</time></trkpt><trkpt lat="10.2064038" lon="-83.8263318"><ele>325.0</ele><time>2026-04-09T13:25:35.926Z</time></trkpt><trkpt lat="10.2063842" lon="-83.8261437"><ele>325.0</ele><time>2026-04-09T13:25:36.926Z</time></trkpt><trkpt lat="10.2063583" lon="-83.8259569"><ele>322.0</ele><time>2026-04-09T13:25:37.927Z</time></trkpt><trkpt lat="10.2063364" lon="-83.8257712"><ele>319.0</ele><time>2026-04-09T13:25:38.926Z</time></trkpt><trkpt lat="10.2063107" lon="-83.8255879"><ele>316.0</ele><time>2026-04-09T13:25:39.926Z</time></trkpt><trkpt lat="10.2062808" lon="-83.825407"><ele>316.0</ele><time>2026-04-09T13:25:40.926Z</time></trkpt><trkpt lat="10.2062445" lon="-83.8252266"><ele>316.0</ele><time>2026-04-09T13:25:41.926Z</time></trkpt><trkpt lat="10.2062085" lon="-83.8250448"><ele>316.0</ele><time>2026-04-09T13:25:42.926Z</time></trkpt><trkpt lat="10.2061582" lon="-83.8248672"><ele>313.0</ele><time>2026-04-09T13:25:43.926Z</time></trkpt><trkpt lat="10.2061085" lon="-83.8246931"><ele>310.0</ele><time>2026-04-09T13:25:44.927Z</time></trkpt><trkpt lat="10.2060541" lon="-83.824524"><ele>307.0</ele><time>2026-04-09T13:25:45.926Z</time></trkpt><trkpt lat="10.2059984" lon="-83.8243566"><ele>304.3333333333333</ele><time>2026-04-09T13:25:46.926Z</time></trkpt><trkpt lat="10.2059437" lon="-83.8241958"><ele>301.6666666666667</ele><time>2026-04-09T13:25:47.926Z</time></trkpt><trkpt lat="10.2058842" lon="-83.8240342"><ele>299.0</ele><time>2026-04-09T13:25:48.926Z</time></trkpt><trkpt lat="10.2058199" lon="-83.8238767"><ele>299.0</ele><time>2026-04-09T13:25:49.926Z</time></trkpt><trkpt lat="10.2057578" lon="-83.8237215"><ele>299.0</ele><time>2026-04-09T13:25:50.926Z</time></trkpt><trkpt lat="10.2056863" lon="-83.8235662"><ele>299.0</ele><time>2026-04-09T13:25:51.926Z</time></trkpt><trkpt lat="10.2056119" lon="-83.8234159"><ele>301.33333333333337</ele><time>2026-04-09T13:25:52.926Z</time></trkpt><trkpt lat="10.2055391" lon="-83.8232642"><ele>303.6666666666667</ele><time>2026-04-09T13:25:53.926Z</time></trkpt><trkpt lat="10.2054623" lon="-83.8231144"><ele>306.0</ele><time>2026-04-09T13:25:54.926Z</time></trkpt><trkpt lat="10.2053767" lon="-83.822958"><ele>306.0</ele><time>2026-04-09T13:25:55.926Z</time></trkpt><trkpt lat="10.2052916" lon="-83.822797"><ele>306.0</ele><time>2026-04-09T13:25:56.926Z</time></trkpt><trkpt lat="10.2052081" lon="-83.8226333"><ele>306.0</ele><time>2026-04-09T13:25:57.926Z</time></trkpt><trkpt lat="10.2051194" lon="-83.822469"><ele>303.6666666666667</ele><time>2026-04-09T13:25:58.926Z</time></trkpt><trkpt lat="10.2050295" lon="-83.8223015"><ele>301.33333333333337</ele><time>2026-04-09T13:25:59.926Z</time></trkpt><trkpt lat="10.2049408" lon="-83.8221361"><ele>299.0</ele><time>2026-04-09T13:26:00.926Z</time></trkpt><trkpt lat="10.2048455" lon="-83.8219699"><ele>302.0</ele><time>2026-04-09T13:26:01.926Z</time></trkpt><trkpt lat="10.2047468" lon="-83.8218025"><ele>305.0</ele><time>2026-04-09T13:26:02.927Z</time></trkpt><trkpt lat="10.2046476" lon="-83.8216326"><ele>308.0</ele><time>2026-04-09T13:26:03.926Z</time></trkpt><trkpt lat="10.2045492" lon="-83.8214614"><ele>308.0</ele><time>2026-04-09T13:26:04.926Z</time></trkpt><trkpt lat="10.2044493" lon="-83.8212884"><ele>308.0</ele><time>2026-04-09T13:26:05.926Z</time></trkpt><trkpt lat="10.2043462" lon="-83.8211136"><ele>308.0</ele><time>2026-04-09T13:26:06.926Z</time></trkpt><trkpt lat="10.2042436" lon="-83.8209396"><ele>305.6666666666667</ele><time>2026-04-09T13:26:07.926Z</time></trkpt><trkpt lat="10.2041466" lon="-83.8207623"><ele>303.3333333333333</ele><time>2026-04-09T13:26:08.926Z</time></trkpt><trkpt lat="10.2040499" lon="-83.8205836"><ele>301.0</ele><time>2026-04-09T13:26:09.926Z</time></trkpt><trkpt lat="10.2039549" lon="-83.8204013"><ele>303.3333333333333</ele><time>2026-04-09T13:26:10.926Z</time></trkpt><trkpt lat="10.2038635" lon="-83.8202213"><ele>305.6666666666667</ele><time>2026-04-09T13:26:11.926Z</time></trkpt><trkpt lat="10.2037712" lon="-83.8200369"><ele>308.0</ele><time>2026-04-09T13:26:12.926Z</time></trkpt><trkpt lat="10.2036913" lon="-83.8198461"><ele>308.0</ele><time>2026-04-09T13:26:13.926Z</time></trkpt><trkpt lat="10.2036137" lon="-83.819652"><ele>308.0</ele><time>2026-04-09T13:26:14.926Z</time></trkpt><trkpt lat="10.2035463" lon="-83.8194561"><ele>308.0</ele><time>2026-04-09T13:26:15.926Z</time></trkpt><trkpt lat="10.2034883" lon="-83.8192535"><ele>310.33333333333337</ele><time>2026-04-09T13:26:16.926Z</time></trkpt><trkpt lat="10.2034344" lon="-83.8190542"><ele>312.6666666666667</ele><time>2026-04-09T13:26:17.926Z</time></trkpt><trkpt lat="10.2033914" lon="-83.8188547"><ele>315.0</ele><time>2026-04-09T13:26:18.926Z</time></trkpt><trkpt lat="10.2033512" lon="-83.8186508"><ele>315.6666666666667</ele><time>2026-04-09T13:26:19.926Z</time></trkpt><trkpt lat="10.2033178" lon="-83.8184453"><ele>316.33333333333337</ele><time>2026-04-09T13:26:20.926Z</time></trkpt><trkpt lat="10.2032883" lon="-83.8182376"><ele>317.0</ele><time>2026-04-09T13:26:21.926Z</time></trkpt><trkpt lat="10.2032667" lon="-83.8180251"><ele>317.0</ele><time>2026-04-09T13:26:22.926Z</time></trkpt><trkpt lat="10.2032504" lon="-83.8178136"><ele>317.0</ele><time>2026-04-09T13:26:23.926Z</time></trkpt><trkpt lat="10.2032335" lon="-83.817602"><ele>317.0</ele><time>2026-04-09T13:26:24.926Z</time></trkpt><trkpt lat="10.2032171" lon="-83.8173889"><ele>313.0</ele><time>2026-04-09T13:26:25.926Z</time></trkpt><trkpt lat="10.2032007" lon="-83.8171732"><ele>309.0</ele><time>2026-04-09T13:26:26.926Z</time></trkpt><trkpt lat="10.2031898" lon="-83.8169622"><ele>305.0</ele><time>2026-04-09T13:26:27.926Z</time></trkpt><trkpt lat="10.2031828" lon="-83.8167425"><ele>302.33333333333337</ele><time>2026-04-09T13:26:28.926Z</time></trkpt><trkpt lat="10.2031736" lon="-83.8165257"><ele>299.6666666666667</ele><time>2026-04-09T13:26:29.926Z</time></trkpt><trkpt lat="10.203162" lon="-83.8163056"><ele>297.0</ele><time>2026-04-09T13:26:30.926Z</time></trkpt><trkpt lat="10.2031489" lon="-83.8160872"><ele>297.3333333333333</ele><time>2026-04-09T13:26:31.926Z</time></trkpt><trkpt lat="10.2031366" lon="-83.8158708"><ele>297.66666666666663</ele><time>2026-04-09T13:26:32.926Z</time></trkpt><trkpt lat="10.2031272" lon="-83.8156567"><ele>298.0</ele><time>2026-04-09T13:26:33.926Z</time></trkpt><trkpt lat="10.2031144" lon="-83.8154398"><ele>298.0</ele><time>2026-04-09T13:26:34.926Z</time></trkpt><trkpt lat="10.2031064" lon="-83.8152261"><ele>298.0</ele><time>2026-04-09T13:26:35.926Z</time></trkpt><trkpt lat="10.2030979" lon="-83.8150105"><ele>298.0</ele><time>2026-04-09T13:26:36.926Z</time></trkpt><trkpt lat="10.2030867" lon="-83.8147964"><ele>300.0</ele><time>2026-04-09T13:26:37.927Z</time></trkpt><trkpt lat="10.2030759" lon="-83.8145784"><ele>302.0</ele><time>2026-04-09T13:26:38.927Z</time></trkpt><trkpt lat="10.2030673" lon="-83.8143609"><ele>304.0</ele><time>2026-04-09T13:26:39.926Z</time></trkpt><trkpt lat="10.2030592" lon="-83.8141413"><ele>309.0</ele><time>2026-04-09T13:26:40.926Z</time></trkpt><trkpt lat="10.2030549" lon="-83.8139209"><ele>314.0</ele><time>2026-04-09T13:26:41.926Z</time></trkpt><trkpt lat="10.2030487" lon="-83.8137014"><ele>319.0</ele><time>2026-04-09T13:26:42.926Z</time></trkpt><trkpt lat="10.2030445" lon="-83.8134796"><ele>320.0</ele><time>2026-04-09T13:26:43.926Z</time></trkpt><trkpt lat="10.2030395" lon="-83.8132578"><ele>321.0</ele><time>2026-04-09T13:26:44.926Z</time></trkpt><trkpt lat="10.2030337" lon="-83.8130367"><ele>322.0</ele><time>2026-04-09T13:26:45.926Z</time></trkpt><trkpt lat="10.2030287" lon="-83.812818"><ele>320.66666666666663</ele><time>2026-04-09T13:26:46.926Z</time></trkpt><trkpt lat="10.2030216" lon="-83.8125995"><ele>319.3333333333333</ele><time>2026-04-09T13:26:47.926Z</time></trkpt><trkpt lat="10.2030162" lon="-83.8123846"><ele>318.0</ele><time>2026-04-09T13:26:48.926Z</time></trkpt><trkpt lat="10.2030139" lon="-83.8121686"><ele>318.0</ele><time>2026-04-09T13:26:49.926Z</time></trkpt><trkpt lat="10.2030128" lon="-83.8119526"><ele>318.0</ele><time>2026-04-09T13:26:50.926Z</time></trkpt><trkpt lat="10.2030111" lon="-83.811736"><ele>318.0</ele><time>2026-04-09T13:26:51.926Z</time></trkpt><trkpt lat="10.2030061" lon="-83.81152"><ele>316.0</ele><time>2026-04-09T13:26:52.926Z</time></trkpt><trkpt lat="10.2030001" lon="-83.8113034"><ele>314.0</ele><time>2026-04-09T13:26:53.926Z</time></trkpt><trkpt lat="10.2029912" lon="-83.8110871"><ele>312.0</ele><time>2026-04-09T13:26:54.926Z</time></trkpt><trkpt lat="10.2029818" lon="-83.8108682"><ele>312.0</ele><time>2026-04-09T13:26:55.926Z</time></trkpt><trkpt lat="10.2029699" lon="-83.8106503"><ele>312.0</ele><time>2026-04-09T13:26:56.926Z</time></trkpt><trkpt lat="10.2029607" lon="-83.810429"><ele>312.0</ele><time>2026-04-09T13:26:57.926Z</time></trkpt><trkpt lat="10.2029488" lon="-83.8102122"><ele>312.3333333333333</ele><time>2026-04-09T13:26:58.926Z</time></trkpt><trkpt lat="10.202938" lon="-83.8099911"><ele>312.66666666666663</ele><time>2026-04-09T13:26:59.926Z</time></trkpt><trkpt lat="10.2029266" lon="-83.8097747"><ele>313.0</ele><time>2026-04-09T13:27:00.927Z</time></trkpt><trkpt lat="10.2029178" lon="-83.8095594"><ele>313.0</ele><time>2026-04-09T13:27:01.926Z</time></trkpt><trkpt lat="10.2029058" lon="-83.809343"><ele>313.0</ele><time>2026-04-09T13:27:02.926Z</time></trkpt><trkpt lat="10.2028936" lon="-83.8091257"><ele>313.0</ele><time>2026-04-09T13:27:03.926Z</time></trkpt><trkpt lat="10.202882" lon="-83.8089062"><ele>312.3333333333333</ele><time>2026-04-09T13:27:04.926Z</time></trkpt><trkpt lat="10.2028689" lon="-83.8086892"><ele>311.6666666666667</ele><time>2026-04-09T13:27:05.926Z</time></trkpt><trkpt lat="10.2028603" lon="-83.8084734"><ele>311.0</ele><time>2026-04-09T13:27:06.926Z</time></trkpt><trkpt lat="10.20285" lon="-83.8082576"><ele>311.0</ele><time>2026-04-09T13:27:07.926Z</time></trkpt><trkpt lat="10.2028421" lon="-83.8080395"><ele>311.0</ele><time>2026-04-09T13:27:08.926Z</time></trkpt><trkpt lat="10.2028319" lon="-83.8078193"><ele>311.0</ele><time>2026-04-09T13:27:09.926Z</time></trkpt><trkpt lat="10.2028194" lon="-83.8076017"><ele>310.6666666666667</ele><time>2026-04-09T13:27:10.926Z</time></trkpt><trkpt lat="10.2028095" lon="-83.8073922"><ele>310.3333333333333</ele><time>2026-04-09T13:27:11.926Z</time></trkpt><trkpt lat="10.2027996" lon="-83.8071825"><ele>310.0</ele><time>2026-04-09T13:27:12.926Z</time></trkpt><trkpt lat="10.2027899" lon="-83.8069769"><ele>310.0</ele><time>2026-04-09T13:27:13.926Z</time></trkpt><trkpt lat="10.2027813" lon="-83.8067703"><ele>310.0</ele><time>2026-04-09T13:27:14.926Z</time></trkpt><trkpt lat="10.2027716" lon="-83.8065594"><ele>310.0</ele><time>2026-04-09T13:27:15.926Z</time></trkpt><trkpt lat="10.202761" lon="-83.8063487"><ele>310.0</ele><time>2026-04-09T13:27:16.927Z</time></trkpt><trkpt lat="10.2027462" lon="-83.8061424"><ele>310.0</ele><time>2026-04-09T13:27:17.927Z</time></trkpt><trkpt lat="10.2027319" lon="-83.8059318"><ele>310.0</ele><time>2026-04-09T13:27:18.926Z</time></trkpt><trkpt lat="10.2027163" lon="-83.8057232"><ele>310.3333333333333</ele><time>2026-04-09T13:27:19.926Z</time></trkpt><trkpt lat="10.2027062" lon="-83.8055139"><ele>310.6666666666667</ele><time>2026-04-09T13:27:20.926Z</time></trkpt><trkpt lat="10.2026929" lon="-83.8053123"><ele>311.0</ele><time>2026-04-09T13:27:21.926Z</time></trkpt><trkpt lat="10.2026842" lon="-83.8051091"><ele>311.0</ele><time>2026-04-09T13:27:22.926Z</time></trkpt><trkpt lat="10.2026764" lon="-83.8049128"><ele>311.0</ele><time>2026-04-09T13:27:23.926Z</time></trkpt><trkpt lat="10.2026686" lon="-83.8047064"><ele>311.0</ele><time>2026-04-09T13:27:24.926Z</time></trkpt><trkpt lat="10.2026585" lon="-83.8045028"><ele>311.33333333333337</ele><time>2026-04-09T13:27:25.927Z</time></trkpt><trkpt lat="10.202649" lon="-83.8042933"><ele>311.6666666666667</ele><time>2026-04-09T13:27:26.926Z</time></trkpt><trkpt lat="10.2026372" lon="-83.8040834"><ele>312.0</ele><time>2026-04-09T13:27:27.926Z</time></trkpt><trkpt lat="10.2026285" lon="-83.8038725"><ele>312.0</ele><time>2026-04-09T13:27:28.926Z</time></trkpt><trkpt lat="10.2026189" lon="-83.8036548"><ele>312.0</ele><time>2026-04-09T13:27:29.926Z</time></trkpt><trkpt lat="10.2026083" lon="-83.8034394"><ele>312.0</ele><time>2026-04-09T13:27:30.926Z</time></trkpt><trkpt lat="10.2025969" lon="-83.803222"><ele>312.0</ele><time>2026-04-09T13:27:31.926Z</time></trkpt><trkpt lat="10.2025857" lon="-83.8030024"><ele>312.0</ele><time>2026-04-09T13:27:32.926Z</time></trkpt><trkpt lat="10.2025735" lon="-83.8027832"><ele>312.0</ele><time>2026-04-09T13:27:33.926Z</time></trkpt><trkpt lat="10.2025638" lon="-83.8025603"><ele>312.0</ele><time>2026-04-09T13:27:34.926Z</time></trkpt><trkpt lat="10.2025543" lon="-83.80234"><ele>312.0</ele><time>2026-04-09T13:27:35.926Z</time></trkpt><trkpt lat="10.202546" lon="-83.8021217"><ele>312.0</ele><time>2026-04-09T13:27:36.926Z</time></trkpt><trkpt lat="10.2025353" lon="-83.8019052"><ele>311.6666666666667</ele><time>2026-04-09T13:27:37.926Z</time></trkpt><trkpt lat="10.2025269" lon="-83.8016918"><ele>311.33333333333337</ele><time>2026-04-09T13:27:38.926Z</time></trkpt><trkpt lat="10.2025151" lon="-83.8014804"><ele>311.0</ele><time>2026-04-09T13:27:39.926Z</time></trkpt><trkpt lat="10.2025057" lon="-83.8012723"><ele>311.0</ele><time>2026-04-09T13:27:40.926Z</time></trkpt><trkpt lat="10.2024948" lon="-83.8010742"><ele>311.0</ele><time>2026-04-09T13:27:41.926Z</time></trkpt><trkpt lat="10.2024866" lon="-83.8008628"><ele>311.0</ele><time>2026-04-09T13:27:42.926Z</time></trkpt><trkpt lat="10.2024734" lon="-83.8006517"><ele>311.0</ele><time>2026-04-09T13:27:43.926Z</time></trkpt><trkpt lat="10.2024611" lon="-83.8004429"><ele>311.0</ele><time>2026-04-09T13:27:44.926Z</time></trkpt><trkpt lat="10.2024472" lon="-83.8002313"><ele>311.0</ele><time>2026-04-09T13:27:45.926Z</time></trkpt><trkpt lat="10.202436" lon="-83.8000177"><ele>311.0</ele><time>2026-04-09T13:27:46.926Z</time></trkpt><trkpt lat="10.2024243" lon="-83.7998067"><ele>311.0</ele><time>2026-04-09T13:27:47.926Z</time></trkpt><trkpt lat="10.20241" lon="-83.7995982"><ele>311.0</ele><time>2026-04-09T13:27:48.926Z</time></trkpt><trkpt lat="10.202398" lon="-83.7993915"><ele>311.0</ele><time>2026-04-09T13:27:49.926Z</time></trkpt><trkpt lat="10.2023824" lon="-83.79919"><ele>311.0</ele><time>2026-04-09T13:27:50.926Z</time></trkpt><trkpt lat="10.2023676" lon="-83.798992"><ele>311.0</ele><time>2026-04-09T13:27:51.926Z</time></trkpt><trkpt lat="10.2023512" lon="-83.7988005"><ele>311.0</ele><time>2026-04-09T13:27:52.926Z</time></trkpt><trkpt lat="10.2023388" lon="-83.7986122"><ele>311.0</ele><time>2026-04-09T13:27:53.926Z</time></trkpt><trkpt lat="10.202329" lon="-83.7984251"><ele>311.0</ele><time>2026-04-09T13:27:54.926Z</time></trkpt><trkpt lat="10.2023211" lon="-83.7982441"><ele>311.6666666666667</ele><time>2026-04-09T13:27:55.926Z</time></trkpt><trkpt lat="10.2023109" lon="-83.7980692"><ele>312.3333333333333</ele><time>2026-04-09T13:27:56.926Z</time></trkpt><trkpt lat="10.2022999" lon="-83.797903"><ele>313.0</ele><time>2026-04-09T13:27:57.926Z</time></trkpt><trkpt lat="10.2022904" lon="-83.7977368"><ele>313.3333333333333</ele><time>2026-04-09T13:27:58.927Z</time></trkpt><trkpt lat="10.2022799" lon="-83.7975685"><ele>313.6666666666667</ele><time>2026-04-09T13:27:59.926Z</time></trkpt><trkpt lat="10.2022724" lon="-83.7974031"><ele>314.0</ele><time>2026-04-09T13:28:00.926Z</time></trkpt><trkpt lat="10.202262" lon="-83.7972356"><ele>314.0</ele><time>2026-04-09T13:28:01.926Z</time></trkpt><trkpt lat="10.2022529" lon="-83.7970673"><ele>314.0</ele><time>2026-04-09T13:28:02.926Z</time></trkpt><trkpt lat="10.2022445" lon="-83.7969031"><ele>314.0</ele><time>2026-04-09T13:28:03.926Z</time></trkpt><trkpt lat="10.2022345" lon="-83.7967422"><ele>313.75</ele><time>2026-04-09T13:28:04.926Z</time></trkpt><trkpt lat="10.2022215" lon="-83.7965863"><ele>313.5</ele><time>2026-04-09T13:28:05.926Z</time></trkpt><trkpt lat="10.2022032" lon="-83.7964348"><ele>313.25</ele><time>2026-04-09T13:28:06.926Z</time></trkpt><trkpt lat="10.2021895" lon="-83.7962915"><ele>313.0</ele><time>2026-04-09T13:28:07.926Z</time></trkpt><trkpt lat="10.2021747" lon="-83.7961717"><ele>313.0</ele><time>2026-04-09T13:28:08.926Z</time></trkpt><trkpt lat="10.2021485" lon="-83.7960792"><ele>313.0</ele><time>2026-04-09T13:28:09.926Z</time></trkpt><trkpt lat="10.20212" lon="-83.7960144"><ele>313.0</ele><time>2026-04-09T13:28:10.927Z</time></trkpt><trkpt lat="10.2020422" lon="-83.7959399"><ele>313.0</ele><time>2026-04-09T13:28:12.926Z</time></trkpt><trkpt lat="10.2019193" lon="-83.7959277"><ele>313.0</ele><time>2026-04-09T13:28:14.926Z</time></trkpt><trkpt lat="10.2018387" lon="-83.7959292"><ele>313.0</ele><time>2026-04-09T13:28:15.926Z</time></trkpt><trkpt lat="10.2017593" lon="-83.7959294"><ele>313.0</ele><time>2026-04-09T13:28:16.926Z</time></trkpt><trkpt lat="10.2016764" lon="-83.7959299"><ele>313.0</ele><time>2026-04-09T13:28:17.926Z</time></trkpt><trkpt lat="10.2015865" lon="-83.7959292"><ele>313.0</ele><time>2026-04-09T13:28:18.926Z</time></trkpt><trkpt lat="10.2014947" lon="-83.7959309"><ele>313.0</ele><time>2026-04-09T13:28:19.926Z</time></trkpt><trkpt lat="10.2014143" lon="-83.7959334"><ele>313.0</ele><time>2026-04-09T13:28:20.926Z</time></trkpt><trkpt lat="10.2013365" lon="-83.7959346"><ele>313.66666666666663</ele><time>2026-04-09T13:28:21.926Z</time></trkpt><trkpt lat="10.2012597" lon="-83.7959381"><ele>314.3333333333333</ele><time>2026-04-09T13:28:22.926Z</time></trkpt><trkpt lat="10.2011926" lon="-83.7959362"><ele>315.0</ele><time>2026-04-09T13:28:23.926Z</time></trkpt><trkpt lat="10.2011273" lon="-83.79594"><ele>315.6666666666667</ele><time>2026-04-09T13:28:24.926Z</time></trkpt><trkpt lat="10.2010634" lon="-83.7959384"><ele>316.33333333333337</ele><time>2026-04-09T13:28:25.926Z</time></trkpt><trkpt lat="10.2009488" lon="-83.7959414"><ele>317.0</ele><time>2026-04-09T13:28:27.927Z</time></trkpt><trkpt lat="10.2008294" lon="-83.7959366"><ele>317.0</ele><time>2026-04-09T13:28:29.926Z</time></trkpt><trkpt lat="10.2006997" lon="-83.7959323"><ele>317.0</ele><time>2026-04-09T13:28:31.926Z</time></trkpt><trkpt lat="10.2006277" lon="-83.7959342"><ele>317.0</ele><time>2026-04-09T13:28:32.926Z</time></trkpt><trkpt lat="10.2005629" lon="-83.7959331"><ele>317.0</ele><time>2026-04-09T13:28:33.927Z</time></trkpt><trkpt lat="10.2004551" lon="-83.7959296"><ele>317.0</ele><time>2026-04-09T13:28:35.926Z</time></trkpt><trkpt lat="10.2003907" lon="-83.7959368"><ele>317.0</ele><time>2026-04-09T13:29:40.92Z</time></trkpt><trkpt lat="10.2004444" lon="-83.7958937"><ele>317.0</ele><time>2026-04-09T13:29:44.928Z</time></trkpt><trkpt lat="10.2005571" lon="-83.7959033"><ele>317.0</ele><time>2026-04-09T13:29:46.921Z</time></trkpt><trkpt lat="10.2006269" lon="-83.7959038"><ele>317.0</ele><time>2026-04-09T13:29:47.927Z</time></trkpt><trkpt lat="10.2007007" lon="-83.7959047"><ele>317.0</ele><time>2026-04-09T13:29:48.923Z</time></trkpt><trkpt lat="10.200777" lon="-83.7959035"><ele>317.0</ele><time>2026-04-09T13:29:49.921Z</time></trkpt><trkpt lat="10.2008533" lon="-83.7959036"><ele>317.0</ele><time>2026-04-09T13:29:50.923Z</time></trkpt><trkpt lat="10.2009273" lon="-83.7959054"><ele>317.0</ele><time>2026-04-09T13:29:51.922Z</time></trkpt><trkpt lat="10.2009992" lon="-83.7959069"><ele>317.0</ele><time>2026-04-09T13:29:52.933Z</time></trkpt><trkpt lat="10.2010679" lon="-83.7959092"><ele>317.0</ele><time>2026-04-09T13:29:53.93Z</time></trkpt><trkpt lat="10.2011349" lon="-83.7959087"><ele>317.0</ele><time>2026-04-09T13:29:54.92Z</time></trkpt><trkpt lat="10.2011987" lon="-83.7959086"><ele>317.0</ele><time>2026-04-09T13:29:55.926Z</time></trkpt><trkpt lat="10.2012628" lon="-83.7959087"><ele>317.0</ele><time>2026-04-09T13:29:56.924Z</time></trkpt><trkpt lat="10.2013668" lon="-83.7959037"><ele>317.0</ele><time>2026-04-09T13:29:58.933Z</time></trkpt><trkpt lat="10.2014448" lon="-83.7958999"><ele>316.42857142857144</ele><time>2026-04-09T13:30:00.931Z</time></trkpt><trkpt lat="10.2015089" lon="-83.7959101"><ele>315.85714285714283</ele><time>2026-04-09T13:30:04.926Z</time></trkpt><trkpt lat="10.2015662" lon="-83.7959436"><ele>315.2857142857143</ele><time>2026-04-09T13:30:09.92Z</time></trkpt><trkpt lat="10.2016431" lon="-83.7959466"><ele>314.7142857142857</ele><time>2026-04-09T13:30:13.927Z</time></trkpt><trkpt lat="10.2017068" lon="-83.7959359"><ele>314.14285714285717</ele><time>2026-04-09T13:31:10.922Z</time></trkpt><trkpt lat="10.2017806" lon="-83.7959324"><ele>313.57142857142856</ele><time>2026-04-09T13:31:47.922Z</time></trkpt><trkpt lat="10.2018654" lon="-83.7959524"><ele>313.0</ele><time>2026-04-09T13:31:51.922Z</time></trkpt><trkpt lat="10.2019459" lon="-83.7959659"><ele>313.0</ele><time>2026-04-09T13:31:54.922Z</time></trkpt><trkpt lat="10.2020155" lon="-83.7959807"><ele>313.0</ele><time>2026-04-09T13:31:57.922Z</time></trkpt><trkpt lat="10.2020757" lon="-83.7960084"><ele>313.0</ele><time>2026-04-09T13:32:00.922Z</time></trkpt><trkpt lat="10.2021167" lon="-83.796057"><ele>313.0</ele><time>2026-04-09T13:32:04.922Z</time></trkpt><trkpt lat="10.2020975" lon="-83.7961185"><ele>313.0</ele><time>2026-04-09T13:32:35.922Z</time></trkpt><trkpt lat="10.2020869" lon="-83.7961874"><ele>313.0</ele><time>2026-04-09T13:32:41.923Z</time></trkpt><trkpt lat="10.2020841" lon="-83.7962602"><ele>313.0</ele><time>2026-04-09T13:32:47.922Z</time></trkpt><trkpt lat="10.2020863" lon="-83.7963252"><ele>313.0</ele><time>2026-04-09T13:32:53.923Z</time></trkpt><trkpt lat="10.2020945" lon="-83.7963963"><ele>313.0</ele><time>2026-04-09T13:32:59.92Z</time></trkpt><trkpt lat="10.2021074" lon="-83.7964638"><ele>313.0</ele><time>2026-04-09T13:33:05.922Z</time></trkpt><trkpt lat="10.2021144" lon="-83.7965325"><ele>313.0</ele><time>2026-04-09T13:33:11.922Z</time></trkpt><trkpt lat="10.2021077" lon="-83.7966025"><ele>313.0</ele><time>2026-04-09T13:33:17.922Z</time></trkpt><trkpt lat="10.2021064" lon="-83.7966758"><ele>313.0</ele><time>2026-04-09T13:33:23.923Z</time></trkpt><trkpt lat="10.2021093" lon="-83.7967398"><ele>313.0</ele><time>2026-04-09T13:33:30.922Z</time></trkpt><trkpt lat="10.2021377" lon="-83.7967979"><ele>313.0</ele><time>2026-04-09T13:36:03.922Z</time></trkpt><trkpt lat="10.2021409" lon="-83.7968706"><ele>314.0</ele><time>2026-04-09T13:36:10.922Z</time></trkpt><trkpt lat="10.2020779" lon="-83.7969083"><ele>314.0</ele><time>2026-04-09T13:36:18.448Z</time></trkpt><trkpt lat="10.2020498" lon="-83.7968438"><ele>314.0</ele><time>2026-04-09T13:36:23.912Z</time></trkpt><trkpt lat="10.2020441" lon="-83.7967764"><ele>313.0</ele><time>2026-04-09T13:36:29.922Z</time></trkpt></trkseg></trk></gpx>